<?xml version="1.0" encoding="UTF-8" standalone="no" ?>
<gpx xmlns="http://www.topografix.com/GPX/1/1" xmlns:xsi="http://www.w3.org/2001/XMLSchema-instance" xsi:schemaLocation="http://www.topografix.com/GPX/1/1 http://www.topografix.com/GPX/1/1/gpx.xsd" version="1.1" creator="VisuGPX - https://www.visugpx.com">
  <metadata>
    <name>Larruns Lourdes</name>
    <desc><![CDATA[Larruns -> Aubisque -> Soulor -> Tourmalet -> Lourdes]]></desc>
  </metadata>
  <trk>
    <name><![CDATA[Larruns Lourdes]]></name>
    <trkseg>
      <trkpt lat="42.98763" lon="-0.42645">
        <ele>530.15021312087</ele>
        <time>2021-06-21T09:52:28.000Z</time>
      </trkpt>
      <trkpt lat="42.98769" lon="-0.42644">
        <ele>530.11959345707</ele>
        <time>2021-06-21T09:52:28.001Z</time>
      </trkpt>
      <trkpt lat="42.98787" lon="-0.42642">
        <ele>530.0712942041</ele>
        <time>2021-06-21T09:52:28.005Z</time>
      </trkpt>
      <trkpt lat="42.98799" lon="-0.4264">
        <ele>530.00491614736</ele>
        <time>2021-06-21T09:52:28.011Z</time>
      </trkpt>
      <trkpt lat="42.98803" lon="-0.42644">
        <ele>529.93581070088</ele>
        <time>2021-06-21T09:52:28.018Z</time>
      </trkpt>
      <trkpt lat="42.98772" lon="-0.42668">
        <ele>529.9080889354</ele>
        <time>2021-06-21T09:52:28.030Z</time>
      </trkpt>
      <trkpt lat="42.98742" lon="-0.42691">
        <ele>529.88318885885</ele>
        <time>2021-06-21T09:52:28.048Z</time>
      </trkpt>
      <trkpt lat="42.98706" lon="-0.42718">
        <ele>529.85972009116</ele>
        <time>2021-06-21T09:52:28.072Z</time>
      </trkpt>
      <trkpt lat="42.98693" lon="-0.42732">
        <ele>529.84227491582</ele>
        <time>2021-06-21T09:52:28.099Z</time>
      </trkpt>
      <trkpt lat="42.98687" lon="-0.42744">
        <ele>529.81854335328</ele>
        <time>2021-06-21T09:52:28.128Z</time>
      </trkpt>
      <trkpt lat="42.9868" lon="-0.42771">
        <ele>529.85213876803</ele>
        <time>2021-06-21T09:52:28.160Z</time>
      </trkpt>
      <trkpt lat="42.98674" lon="-0.42781">
        <ele>529.82854143652</ele>
        <time>2021-06-21T09:52:28.194Z</time>
      </trkpt>
      <trkpt lat="42.98575" lon="-0.42818">
        <ele>529.39280530931</ele>
        <time>2021-06-21T09:52:28.244Z</time>
      </trkpt>
      <trkpt lat="42.98561" lon="-0.42754">
        <ele>528.95165342358</ele>
        <time>2021-06-21T09:52:28.302Z</time>
      </trkpt>
      <trkpt lat="42.98561" lon="-0.42754">
        <ele>528.55376975437</ele>
        <time>2021-06-21T09:52:28.360Z</time>
      </trkpt>
      <trkpt lat="42.98554" lon="-0.42725">
        <ele>528.08236956866</ele>
        <time>2021-06-21T09:52:28.421Z</time>
      </trkpt>
      <trkpt lat="42.98517" lon="-0.4274">
        <ele>527.47468192846</ele>
        <time>2021-06-21T09:52:28.489Z</time>
      </trkpt>
      <trkpt lat="42.9848" lon="-0.42757">
        <ele>526.87278172088</ele>
        <time>2021-06-21T09:52:28.563Z</time>
      </trkpt>
      <trkpt lat="42.98474" lon="-0.42759">
        <ele>526.30776784702</ele>
        <time>2021-06-21T09:52:28.638Z</time>
      </trkpt>
      <trkpt lat="42.98437" lon="-0.42775">
        <ele>525.69298849941</ele>
        <time>2021-06-21T09:52:28.719Z</time>
      </trkpt>
      <trkpt lat="42.98433" lon="-0.42777">
        <ele>525.12488309565</ele>
        <time>2021-06-21T09:52:28.801Z</time>
      </trkpt>
      <trkpt lat="42.9843" lon="-0.42778">
        <ele>524.57600328491</ele>
        <time>2021-06-21T09:52:28.883Z</time>
      </trkpt>
      <trkpt lat="42.98397" lon="-0.42792">
        <ele>524.12056415555</ele>
        <time>2021-06-21T09:52:28.971Z</time>
      </trkpt>
      <trkpt lat="42.98377" lon="-0.42797">
        <ele>523.69685708982</ele>
        <time>2021-06-21T09:52:29.062Z</time>
      </trkpt>
      <trkpt lat="42.98362" lon="-0.42796">
        <ele>523.28891140288</ele>
        <time>2021-06-21T09:52:29.155Z</time>
      </trkpt>
      <trkpt lat="42.98347" lon="-0.42789">
        <ele>522.88347249901</ele>
        <time>2021-06-21T09:52:29.251Z</time>
      </trkpt>
      <trkpt lat="42.98275" lon="-0.42705">
        <ele>522.98658740033</ele>
        <time>2021-06-21T09:52:29.362Z</time>
      </trkpt>
      <trkpt lat="42.98265" lon="-0.42688">
        <ele>522.76832859501</ele>
        <time>2021-06-21T09:52:29.476Z</time>
      </trkpt>
      <trkpt lat="42.98254" lon="-0.42662">
        <ele>522.53330431464</ele>
        <time>2021-06-21T09:52:29.593Z</time>
      </trkpt>
      <trkpt lat="42.98247" lon="-0.42649">
        <ele>522.42256917294</ele>
        <time>2021-06-21T09:52:29.712Z</time>
      </trkpt>
      <trkpt lat="42.98229" lon="-0.42607">
        <ele>522.36570513598</ele>
        <time>2021-06-21T09:52:29.837Z</time>
      </trkpt>
      <trkpt lat="42.98229" lon="-0.42607">
        <ele>522.19080044076</ele>
        <time>2021-06-21T09:52:29.962Z</time>
      </trkpt>
      <trkpt lat="42.98214" lon="-0.42572">
        <ele>521.92908485513</ele>
        <time>2021-06-21T09:52:30.092Z</time>
      </trkpt>
      <trkpt lat="42.98208" lon="-0.42551">
        <ele>521.37426617112</ele>
        <time>2021-06-21T09:52:30.224Z</time>
      </trkpt>
      <trkpt lat="42.98201" lon="-0.42507">
        <ele>520.80584785753</ele>
        <time>2021-06-21T09:52:30.362Z</time>
      </trkpt>
      <trkpt lat="42.98191" lon="-0.42429">
        <ele>519.959651302</ele>
        <time>2021-06-21T09:52:30.509Z</time>
      </trkpt>
      <trkpt lat="42.9819" lon="-0.42416">
        <ele>519.32726847649</ele>
        <time>2021-06-21T09:52:30.657Z</time>
      </trkpt>
      <trkpt lat="42.98185" lon="-0.42374">
        <ele>518.67611430296</ele>
        <time>2021-06-21T09:52:30.810Z</time>
      </trkpt>
      <trkpt lat="42.98184" lon="-0.42367">
        <ele>518.08601812525</ele>
        <time>2021-06-21T09:52:30.964Z</time>
      </trkpt>
      <trkpt lat="42.98182" lon="-0.42345">
        <ele>517.50343066416</ele>
        <time>2021-06-21T09:52:31.121Z</time>
      </trkpt>
      <trkpt lat="42.9818" lon="-0.42312">
        <ele>516.93665421294</ele>
        <time>2021-06-21T09:52:31.282Z</time>
      </trkpt>
      <trkpt lat="42.98163" lon="-0.42239">
        <ele>516.63803030145</ele>
        <time>2021-06-21T09:52:31.452Z</time>
      </trkpt>
      <trkpt lat="42.98152" lon="-0.42195">
        <ele>516.24325760079</ele>
        <time>2021-06-21T09:52:31.627Z</time>
      </trkpt>
      <trkpt lat="42.98151" lon="-0.42187">
        <ele>515.93286917337</ele>
        <time>2021-06-21T09:52:31.803Z</time>
      </trkpt>
      <trkpt lat="42.98138" lon="-0.42132">
        <ele>515.35458122314</ele>
        <time>2021-06-21T09:52:31.986Z</time>
      </trkpt>
      <trkpt lat="42.98137" lon="-0.42127">
        <ele>515.07385310284</ele>
        <time>2021-06-21T09:52:32.170Z</time>
      </trkpt>
      <trkpt lat="42.98135" lon="-0.42118">
        <ele>514.87977931217</ele>
        <time>2021-06-21T09:52:32.355Z</time>
      </trkpt>
      <trkpt lat="42.98123" lon="-0.42094">
        <ele>514.77295536456</ele>
        <time>2021-06-21T09:52:32.543Z</time>
      </trkpt>
      <trkpt lat="42.98113" lon="-0.42086">
        <ele>514.73611061056</ele>
        <time>2021-06-21T09:52:32.733Z</time>
      </trkpt>
      <trkpt lat="42.98103" lon="-0.42083">
        <ele>514.81349032217</ele>
        <time>2021-06-21T09:52:32.925Z</time>
      </trkpt>
      <trkpt lat="42.9805" lon="-0.42074">
        <ele>514.91516119613</ele>
        <time>2021-06-21T09:52:33.125Z</time>
      </trkpt>
      <trkpt lat="42.98021" lon="-0.4207">
        <ele>515.08924287316</ele>
        <time>2021-06-21T09:52:33.330Z</time>
      </trkpt>
      <trkpt lat="42.97976" lon="-0.42062">
        <ele>515.61860925872</ele>
        <time>2021-06-21T09:52:33.542Z</time>
      </trkpt>
      <trkpt lat="42.97971" lon="-0.4206">
        <ele>516.08414643871</ele>
        <time>2021-06-21T09:52:33.755Z</time>
      </trkpt>
      <trkpt lat="42.97947" lon="-0.42056">
        <ele>516.68279044325</ele>
        <time>2021-06-21T09:52:33.972Z</time>
      </trkpt>
      <trkpt lat="42.97934" lon="-0.4205">
        <ele>517.28982691168</ele>
        <time>2021-06-21T09:52:34.191Z</time>
      </trkpt>
      <trkpt lat="42.97922" lon="-0.42035">
        <ele>518.03036665203</ele>
        <time>2021-06-21T09:52:34.412Z</time>
      </trkpt>
      <trkpt lat="42.97905" lon="-0.41992">
        <ele>518.97922580672</ele>
        <time>2021-06-21T09:52:34.639Z</time>
      </trkpt>
      <trkpt lat="42.97896" lon="-0.41944">
        <ele>519.90769476519</ele>
        <time>2021-06-21T09:52:34.872Z</time>
      </trkpt>
      <trkpt lat="42.97893" lon="-0.4191">
        <ele>520.95710896125</ele>
        <time>2021-06-21T09:52:35.109Z</time>
      </trkpt>
      <trkpt lat="42.97891" lon="-0.41901">
        <ele>522.01165003028</ele>
        <time>2021-06-21T09:52:35.347Z</time>
      </trkpt>
      <trkpt lat="42.97886" lon="-0.41889">
        <ele>523.14210902055</ele>
        <time>2021-06-21T09:52:35.587Z</time>
      </trkpt>
      <trkpt lat="42.97878" lon="-0.41881">
        <ele>524.34260504142</ele>
        <time>2021-06-21T09:52:35.828Z</time>
      </trkpt>
      <trkpt lat="42.9787" lon="-0.41876">
        <ele>525.61664908369</ele>
        <time>2021-06-21T09:52:36.071Z</time>
      </trkpt>
      <trkpt lat="42.97852" lon="-0.4188">
        <ele>526.9874877437</ele>
        <time>2021-06-21T09:52:36.317Z</time>
      </trkpt>
      <trkpt lat="42.97843" lon="-0.41889">
        <ele>528.3164118186</ele>
        <time>2021-06-21T09:52:36.564Z</time>
      </trkpt>
      <trkpt lat="42.9784" lon="-0.41893">
        <ele>529.6166322169</ele>
        <time>2021-06-21T09:52:36.812Z</time>
      </trkpt>
      <trkpt lat="42.9784" lon="-0.41893">
        <ele>530.87009470583</ele>
        <time>2021-06-21T09:52:37.060Z</time>
      </trkpt>
      <trkpt lat="42.97834" lon="-0.419">
        <ele>532.17157645664</ele>
        <time>2021-06-21T09:52:37.309Z</time>
      </trkpt>
      <trkpt lat="42.97823" lon="-0.41981">
        <ele>533.63666271969</ele>
        <time>2021-06-21T09:52:37.568Z</time>
      </trkpt>
      <trkpt lat="42.97809" lon="-0.42046">
        <ele>535.43475511562</ele>
        <time>2021-06-21T09:52:37.835Z</time>
      </trkpt>
      <trkpt lat="42.97808" lon="-0.42067">
        <ele>537.05202024851</ele>
        <time>2021-06-21T09:52:38.104Z</time>
      </trkpt>
      <trkpt lat="42.97794" lon="-0.4207">
        <ele>538.62416901117</ele>
        <time>2021-06-21T09:52:38.376Z</time>
      </trkpt>
      <trkpt lat="42.97784" lon="-0.42067">
        <ele>540.02676569715</ele>
        <time>2021-06-21T09:52:38.649Z</time>
      </trkpt>
      <trkpt lat="42.97776" lon="-0.42059">
        <ele>541.27402169256</ele>
        <time>2021-06-21T09:52:38.924Z</time>
      </trkpt>
      <trkpt lat="42.97773" lon="-0.42051">
        <ele>542.35719820621</ele>
        <time>2021-06-21T09:52:39.200Z</time>
      </trkpt>
      <trkpt lat="42.97773" lon="-0.4204">
        <ele>543.33351247179</ele>
        <time>2021-06-21T09:52:39.477Z</time>
      </trkpt>
      <trkpt lat="42.9778" lon="-0.42017">
        <ele>544.0726395566</ele>
        <time>2021-06-21T09:52:39.757Z</time>
      </trkpt>
      <trkpt lat="42.97795" lon="-0.41977">
        <ele>544.47046266954</ele>
        <time>2021-06-21T09:52:40.042Z</time>
      </trkpt>
      <trkpt lat="42.97798" lon="-0.41948">
        <ele>545.01860767237</ele>
        <time>2021-06-21T09:52:40.331Z</time>
      </trkpt>
      <trkpt lat="42.978" lon="-0.41897">
        <ele>545.62736393158</ele>
        <time>2021-06-21T09:52:40.626Z</time>
      </trkpt>
      <trkpt lat="42.978" lon="-0.41894">
        <ele>546.17542665708</ele>
        <time>2021-06-21T09:52:40.921Z</time>
      </trkpt>
      <trkpt lat="42.97809" lon="-0.41867">
        <ele>546.69441338052</ele>
        <time>2021-06-21T09:52:41.220Z</time>
      </trkpt>
      <trkpt lat="42.97844" lon="-0.41791">
        <ele>547.23414860712</ele>
        <time>2021-06-21T09:52:41.529Z</time>
      </trkpt>
      <trkpt lat="42.9786" lon="-0.41731">
        <ele>548.019850977</ele>
        <time>2021-06-21T09:52:41.846Z</time>
      </trkpt>
      <trkpt lat="42.9786" lon="-0.41731">
        <ele>548.55699580599</ele>
        <time>2021-06-21T09:52:42.163Z</time>
      </trkpt>
      <trkpt lat="42.97868" lon="-0.41714">
        <ele>549.13412705337</ele>
        <time>2021-06-21T09:52:42.482Z</time>
      </trkpt>
      <trkpt lat="42.97887" lon="-0.41682">
        <ele>549.7395794444</ele>
        <time>2021-06-21T09:52:42.806Z</time>
      </trkpt>
      <trkpt lat="42.97891" lon="-0.41677">
        <ele>550.27983908105</ele>
        <time>2021-06-21T09:52:43.131Z</time>
      </trkpt>
      <trkpt lat="42.97902" lon="-0.41665">
        <ele>550.81449952684</ele>
        <time>2021-06-21T09:52:43.458Z</time>
      </trkpt>
      <trkpt lat="42.97937" lon="-0.41629">
        <ele>551.25874589322</ele>
        <time>2021-06-21T09:52:43.792Z</time>
      </trkpt>
      <trkpt lat="42.97967" lon="-0.41583">
        <ele>551.77115867745</ele>
        <time>2021-06-21T09:52:44.133Z</time>
      </trkpt>
      <trkpt lat="42.97972" lon="-0.41572">
        <ele>552.38732481056</ele>
        <time>2021-06-21T09:52:44.476Z</time>
      </trkpt>
      <trkpt lat="42.9799" lon="-0.41532">
        <ele>553.07659322259</ele>
        <time>2021-06-21T09:52:44.824Z</time>
      </trkpt>
      <trkpt lat="42.9801" lon="-0.415">
        <ele>553.70770988564</ele>
        <time>2021-06-21T09:52:45.177Z</time>
      </trkpt>
      <trkpt lat="42.98011" lon="-0.41486">
        <ele>554.51882920326</ele>
        <time>2021-06-21T09:52:45.532Z</time>
      </trkpt>
      <trkpt lat="42.9801" lon="-0.41473">
        <ele>555.41006194795</ele>
        <time>2021-06-21T09:52:45.888Z</time>
      </trkpt>
      <trkpt lat="42.98001" lon="-0.41461">
        <ele>556.43592555834</ele>
        <time>2021-06-21T09:52:46.247Z</time>
      </trkpt>
      <trkpt lat="42.97988" lon="-0.41456">
        <ele>557.50421822112</ele>
        <time>2021-06-21T09:52:46.608Z</time>
      </trkpt>
      <trkpt lat="42.9798" lon="-0.41461">
        <ele>558.55839195717</ele>
        <time>2021-06-21T09:52:46.970Z</time>
      </trkpt>
      <trkpt lat="42.97975" lon="-0.41465">
        <ele>559.64581153882</ele>
        <time>2021-06-21T09:52:47.333Z</time>
      </trkpt>
      <trkpt lat="42.97967" lon="-0.41478">
        <ele>560.79019872323</ele>
        <time>2021-06-21T09:52:47.698Z</time>
      </trkpt>
      <trkpt lat="42.97963" lon="-0.41491">
        <ele>561.95436198849</ele>
        <time>2021-06-21T09:52:48.065Z</time>
      </trkpt>
      <trkpt lat="42.97953" lon="-0.41533">
        <ele>563.06907626771</ele>
        <time>2021-06-21T09:52:48.437Z</time>
      </trkpt>
      <trkpt lat="42.97943" lon="-0.41557">
        <ele>564.25933847771</ele>
        <time>2021-06-21T09:52:48.812Z</time>
      </trkpt>
      <trkpt lat="42.97928" lon="-0.41585">
        <ele>565.49521395931</ele>
        <time>2021-06-21T09:52:49.191Z</time>
      </trkpt>
      <trkpt lat="42.97858" lon="-0.41636">
        <ele>567.33146826388</ele>
        <time>2021-06-21T09:52:49.583Z</time>
      </trkpt>
      <trkpt lat="42.9785" lon="-0.41646">
        <ele>568.7598367727</ele>
        <time>2021-06-21T09:52:49.977Z</time>
      </trkpt>
      <trkpt lat="42.97841" lon="-0.41657">
        <ele>570.23973483118</ele>
        <time>2021-06-21T09:52:50.373Z</time>
      </trkpt>
      <trkpt lat="42.97838" lon="-0.41661">
        <ele>571.73931635141</ele>
        <time>2021-06-21T09:52:50.769Z</time>
      </trkpt>
      <trkpt lat="42.97838" lon="-0.41661">
        <ele>573.25636801155</ele>
        <time>2021-06-21T09:52:51.165Z</time>
      </trkpt>
      <trkpt lat="42.97828" lon="-0.41671">
        <ele>574.86048219557</ele>
        <time>2021-06-21T09:52:51.563Z</time>
      </trkpt>
      <trkpt lat="42.97784" lon="-0.41743">
        <ele>576.41567118714</ele>
        <time>2021-06-21T09:52:51.972Z</time>
      </trkpt>
      <trkpt lat="42.97776" lon="-0.41754">
        <ele>578.02847116121</ele>
        <time>2021-06-21T09:52:52.383Z</time>
      </trkpt>
      <trkpt lat="42.97776" lon="-0.41754">
        <ele>579.6349061528</ele>
        <time>2021-06-21T09:52:52.794Z</time>
      </trkpt>
      <trkpt lat="42.97683" lon="-0.41876">
        <ele>581.82795993604</ele>
        <time>2021-06-21T09:52:53.226Z</time>
      </trkpt>
      <trkpt lat="42.97648" lon="-0.41943">
        <ele>583.62434230242</ele>
        <time>2021-06-21T09:52:53.667Z</time>
      </trkpt>
      <trkpt lat="42.97626" lon="-0.42">
        <ele>585.37015512877</ele>
        <time>2021-06-21T09:52:54.116Z</time>
      </trkpt>
      <trkpt lat="42.97605" lon="-0.42068">
        <ele>587.33272951161</ele>
        <time>2021-06-21T09:52:54.574Z</time>
      </trkpt>
      <trkpt lat="42.97596" lon="-0.42081">
        <ele>589.19883654133</ele>
        <time>2021-06-21T09:52:55.034Z</time>
      </trkpt>
      <trkpt lat="42.97588" lon="-0.42087">
        <ele>591.05247954714</ele>
        <time>2021-06-21T09:52:55.495Z</time>
      </trkpt>
      <trkpt lat="42.97578" lon="-0.42087">
        <ele>592.90027152245</ele>
        <time>2021-06-21T09:52:55.958Z</time>
      </trkpt>
      <trkpt lat="42.9757" lon="-0.42084">
        <ele>594.70729081232</ele>
        <time>2021-06-21T09:52:56.422Z</time>
      </trkpt>
      <trkpt lat="42.97564" lon="-0.42073">
        <ele>596.48555682884</ele>
        <time>2021-06-21T09:52:56.888Z</time>
      </trkpt>
      <trkpt lat="42.97561" lon="-0.42062">
        <ele>598.28690777314</ele>
        <time>2021-06-21T09:52:57.355Z</time>
      </trkpt>
      <trkpt lat="42.97564" lon="-0.42043">
        <ele>599.99639184928</ele>
        <time>2021-06-21T09:52:57.824Z</time>
      </trkpt>
      <trkpt lat="42.97573" lon="-0.42027">
        <ele>601.57160389996</ele>
        <time>2021-06-21T09:52:58.296Z</time>
      </trkpt>
      <trkpt lat="42.97611" lon="-0.41978">
        <ele>602.775378299</ele>
        <time>2021-06-21T09:52:58.776Z</time>
      </trkpt>
      <trkpt lat="42.9762" lon="-0.41954">
        <ele>604.31399103581</ele>
        <time>2021-06-21T09:52:59.259Z</time>
      </trkpt>
      <trkpt lat="42.97646" lon="-0.41855">
        <ele>606.32081120371</ele>
        <time>2021-06-21T09:52:59.754Z</time>
      </trkpt>
      <trkpt lat="42.97669" lon="-0.4181">
        <ele>607.86348529235</ele>
        <time>2021-06-21T09:53:00.256Z</time>
      </trkpt>
      <trkpt lat="42.97724" lon="-0.41723">
        <ele>609.28367173291</ele>
        <time>2021-06-21T09:53:00.771Z</time>
      </trkpt>
      <trkpt lat="42.97743" lon="-0.41671">
        <ele>611.01797753273</ele>
        <time>2021-06-21T09:53:01.293Z</time>
      </trkpt>
      <trkpt lat="42.97747" lon="-0.41646">
        <ele>612.74270984651</ele>
        <time>2021-06-21T09:53:01.818Z</time>
      </trkpt>
      <trkpt lat="42.97748" lon="-0.41646">
        <ele>614.26782807129</ele>
        <time>2021-06-21T09:53:02.343Z</time>
      </trkpt>
      <trkpt lat="42.97749" lon="-0.41634">
        <ele>615.8757328408</ele>
        <time>2021-06-21T09:53:02.870Z</time>
      </trkpt>
      <trkpt lat="42.9775" lon="-0.41617">
        <ele>617.4192823219</ele>
        <time>2021-06-21T09:53:03.399Z</time>
      </trkpt>
      <trkpt lat="42.97743" lon="-0.41548">
        <ele>619.176588227</ele>
        <time>2021-06-21T09:53:03.936Z</time>
      </trkpt>
      <trkpt lat="42.9774" lon="-0.41521">
        <ele>622.28163423378</ele>
        <time>2021-06-21T09:53:04.476Z</time>
      </trkpt>
      <trkpt lat="42.9774" lon="-0.41491">
        <ele>623.84395444828</ele>
        <time>2021-06-21T09:53:05.020Z</time>
      </trkpt>
      <trkpt lat="42.97745" lon="-0.41459">
        <ele>625.33410038182</ele>
        <time>2021-06-21T09:53:05.567Z</time>
      </trkpt>
      <trkpt lat="42.97765" lon="-0.41405">
        <ele>626.74839489692</ele>
        <time>2021-06-21T09:53:06.122Z</time>
      </trkpt>
      <trkpt lat="42.97773" lon="-0.41368">
        <ele>628.2284337815</ele>
        <time>2021-06-21T09:53:06.681Z</time>
      </trkpt>
      <trkpt lat="42.97779" lon="-0.41319">
        <ele>629.89084076607</ele>
        <time>2021-06-21T09:53:07.246Z</time>
      </trkpt>
      <trkpt lat="42.97779" lon="-0.41319">
        <ele>631.35038746287</ele>
        <time>2021-06-21T09:53:07.811Z</time>
      </trkpt>
      <trkpt lat="42.97783" lon="-0.41286">
        <ele>632.904612311</ele>
        <time>2021-06-21T09:53:08.380Z</time>
      </trkpt>
      <trkpt lat="42.97809" lon="-0.41214">
        <ele>634.27130772283</ele>
        <time>2021-06-21T09:53:08.958Z</time>
      </trkpt>
      <trkpt lat="42.97814" lon="-0.41189">
        <ele>635.78971228522</ele>
        <time>2021-06-21T09:53:09.539Z</time>
      </trkpt>
      <trkpt lat="42.97822" lon="-0.41126">
        <ele>637.37382055213</ele>
        <time>2021-06-21T09:53:10.128Z</time>
      </trkpt>
      <trkpt lat="42.97835" lon="-0.41066">
        <ele>638.77948930173</ele>
        <time>2021-06-21T09:53:10.724Z</time>
      </trkpt>
      <trkpt lat="42.97837" lon="-0.41044">
        <ele>640.26903313332</ele>
        <time>2021-06-21T09:53:11.323Z</time>
      </trkpt>
      <trkpt lat="42.97834" lon="-0.41026">
        <ele>641.80434530958</ele>
        <time>2021-06-21T09:53:11.924Z</time>
      </trkpt>
      <trkpt lat="42.97799" lon="-0.40942">
        <ele>643.66972553016</ele>
        <time>2021-06-21T09:53:12.536Z</time>
      </trkpt>
      <trkpt lat="42.97796" lon="-0.40922">
        <ele>645.23350957722</ele>
        <time>2021-06-21T09:53:13.151Z</time>
      </trkpt>
      <trkpt lat="42.97795" lon="-0.40904">
        <ele>646.77538476897</ele>
        <time>2021-06-21T09:53:13.768Z</time>
      </trkpt>
      <trkpt lat="42.97795" lon="-0.40836">
        <ele>648.31380009849</ele>
        <time>2021-06-21T09:53:14.393Z</time>
      </trkpt>
      <trkpt lat="42.97791" lon="-0.40808">
        <ele>649.97306821128</ele>
        <time>2021-06-21T09:53:15.021Z</time>
      </trkpt>
      <trkpt lat="42.97785" lon="-0.40787">
        <ele>651.55512760164</ele>
        <time>2021-06-21T09:53:15.652Z</time>
      </trkpt>
      <trkpt lat="42.97778" lon="-0.40767">
        <ele>653.12528447315</ele>
        <time>2021-06-21T09:53:16.285Z</time>
      </trkpt>
      <trkpt lat="42.97769" lon="-0.40755">
        <ele>654.80993362796</ele>
        <time>2021-06-21T09:53:16.920Z</time>
      </trkpt>
      <trkpt lat="42.97757" lon="-0.40741">
        <ele>656.54999289989</ele>
        <time>2021-06-21T09:53:17.558Z</time>
      </trkpt>
      <trkpt lat="42.97739" lon="-0.40728">
        <ele>658.28279761173</ele>
        <time>2021-06-21T09:53:18.199Z</time>
      </trkpt>
      <trkpt lat="42.97723" lon="-0.40718">
        <ele>660.10470385825</ele>
        <time>2021-06-21T09:53:18.843Z</time>
      </trkpt>
      <trkpt lat="42.97708" lon="-0.40708">
        <ele>661.88835143232</ele>
        <time>2021-06-21T09:53:19.490Z</time>
      </trkpt>
      <trkpt lat="42.977" lon="-0.407">
        <ele>663.60652548869</ele>
        <time>2021-06-21T09:53:20.138Z</time>
      </trkpt>
      <trkpt lat="42.97692" lon="-0.40683">
        <ele>665.38471302202</ele>
        <time>2021-06-21T09:53:20.789Z</time>
      </trkpt>
      <trkpt lat="42.97684" lon="-0.40664">
        <ele>667.23347716529</ele>
        <time>2021-06-21T09:53:21.442Z</time>
      </trkpt>
      <trkpt lat="42.97668" lon="-0.40586">
        <ele>669.02465002626</ele>
        <time>2021-06-21T09:53:22.105Z</time>
      </trkpt>
      <trkpt lat="42.97657" lon="-0.40565">
        <ele>670.82400701083</ele>
        <time>2021-06-21T09:53:22.771Z</time>
      </trkpt>
      <trkpt lat="42.9764" lon="-0.40545">
        <ele>672.66957725603</ele>
        <time>2021-06-21T09:53:23.440Z</time>
      </trkpt>
      <trkpt lat="42.97622" lon="-0.40532">
        <ele>674.51035937728</ele>
        <time>2021-06-21T09:53:24.113Z</time>
      </trkpt>
      <trkpt lat="42.97574" lon="-0.4051">
        <ele>676.6897623015</ele>
        <time>2021-06-21T09:53:24.794Z</time>
      </trkpt>
      <trkpt lat="42.97559" lon="-0.40498">
        <ele>678.5693661395</ele>
        <time>2021-06-21T09:53:25.478Z</time>
      </trkpt>
      <trkpt lat="42.97506" lon="-0.40425">
        <ele>680.6549468286</ele>
        <time>2021-06-21T09:53:26.174Z</time>
      </trkpt>
      <trkpt lat="42.97495" lon="-0.40407">
        <ele>682.54845327934</ele>
        <time>2021-06-21T09:53:26.872Z</time>
      </trkpt>
      <trkpt lat="42.97488" lon="-0.40355">
        <ele>684.29089461608</ele>
        <time>2021-06-21T09:53:27.577Z</time>
      </trkpt>
      <trkpt lat="42.97482" lon="-0.40338">
        <ele>686.06829951016</ele>
        <time>2021-06-21T09:53:28.284Z</time>
      </trkpt>
      <trkpt lat="42.97477" lon="-0.40325">
        <ele>687.83377967559</ele>
        <time>2021-06-21T09:53:28.992Z</time>
      </trkpt>
      <trkpt lat="42.97473" lon="-0.40311">
        <ele>689.54615357897</ele>
        <time>2021-06-21T09:53:29.702Z</time>
      </trkpt>
      <trkpt lat="42.97473" lon="-0.40311">
        <ele>691.17191965539</ele>
        <time>2021-06-21T09:53:30.412Z</time>
      </trkpt>
      <trkpt lat="42.97466" lon="-0.40273">
        <ele>692.76131751605</ele>
        <time>2021-06-21T09:53:31.127Z</time>
      </trkpt>
      <trkpt lat="42.97466" lon="-0.40273">
        <ele>694.30682079514</ele>
        <time>2021-06-21T09:53:31.842Z</time>
      </trkpt>
      <trkpt lat="42.97467" lon="-0.40237">
        <ele>695.73689308688</ele>
        <time>2021-06-21T09:53:32.561Z</time>
      </trkpt>
      <trkpt lat="42.97467" lon="-0.40204">
        <ele>697.2346782282</ele>
        <time>2021-06-21T09:53:33.284Z</time>
      </trkpt>
      <trkpt lat="42.97444" lon="-0.40072">
        <ele>699.0726023129</ele>
        <time>2021-06-21T09:53:34.023Z</time>
      </trkpt>
      <trkpt lat="42.97442" lon="-0.40054">
        <ele>700.44206288439</ele>
        <time>2021-06-21T09:53:34.764Z</time>
      </trkpt>
      <trkpt lat="42.97442" lon="-0.40036">
        <ele>701.76139494559</ele>
        <time>2021-06-21T09:53:35.507Z</time>
      </trkpt>
      <trkpt lat="42.97447" lon="-0.39978">
        <ele>702.97132612438</ele>
        <time>2021-06-21T09:53:36.257Z</time>
      </trkpt>
      <trkpt lat="42.97447" lon="-0.39951">
        <ele>704.2595896911</ele>
        <time>2021-06-21T09:53:37.010Z</time>
      </trkpt>
      <trkpt lat="42.97445" lon="-0.39923">
        <ele>705.62720600745</ele>
        <time>2021-06-21T09:53:37.767Z</time>
      </trkpt>
      <trkpt lat="42.97434" lon="-0.39871">
        <ele>707.25117731531</ele>
        <time>2021-06-21T09:53:38.530Z</time>
      </trkpt>
      <trkpt lat="42.9743" lon="-0.39825">
        <ele>708.35728885884</ele>
        <time>2021-06-21T09:53:39.298Z</time>
      </trkpt>
      <trkpt lat="42.97427" lon="-0.39811">
        <ele>709.52998276566</ele>
        <time>2021-06-21T09:53:40.068Z</time>
      </trkpt>
      <trkpt lat="42.97422" lon="-0.39801">
        <ele>710.70293831512</ele>
        <time>2021-06-21T09:53:40.839Z</time>
      </trkpt>
      <trkpt lat="42.97422" lon="-0.39801">
        <ele>711.79289875078</ele>
        <time>2021-06-21T09:53:41.610Z</time>
      </trkpt>
      <trkpt lat="42.97418" lon="-0.39792">
        <ele>712.89480288594</ele>
        <time>2021-06-21T09:53:42.383Z</time>
      </trkpt>
      <trkpt lat="42.97396" lon="-0.39764">
        <ele>714.24061407149</ele>
        <time>2021-06-21T09:53:43.161Z</time>
      </trkpt>
      <trkpt lat="42.97389" lon="-0.3975">
        <ele>715.3127063256</ele>
        <time>2021-06-21T09:53:43.940Z</time>
      </trkpt>
      <trkpt lat="42.97385" lon="-0.39734">
        <ele>716.31920990485</ele>
        <time>2021-06-21T09:53:44.721Z</time>
      </trkpt>
      <trkpt lat="42.97384" lon="-0.3972">
        <ele>717.23931657722</ele>
        <time>2021-06-21T09:53:45.504Z</time>
      </trkpt>
      <trkpt lat="42.97385" lon="-0.39707">
        <ele>718.14244264307</ele>
        <time>2021-06-21T09:53:46.289Z</time>
      </trkpt>
      <trkpt lat="42.97396" lon="-0.39678">
        <ele>718.86634737737</ele>
        <time>2021-06-21T09:53:47.077Z</time>
      </trkpt>
      <trkpt lat="42.97402" lon="-0.39656">
        <ele>719.65465575185</ele>
        <time>2021-06-21T09:53:47.868Z</time>
      </trkpt>
      <trkpt lat="42.97403" lon="-0.39609">
        <ele>720.77781572654</ele>
        <time>2021-06-21T09:53:48.665Z</time>
      </trkpt>
      <trkpt lat="42.97406" lon="-0.39597">
        <ele>721.64163895663</ele>
        <time>2021-06-21T09:53:49.463Z</time>
      </trkpt>
      <trkpt lat="42.97414" lon="-0.3958">
        <ele>722.40846464502</ele>
        <time>2021-06-21T09:53:50.264Z</time>
      </trkpt>
      <trkpt lat="42.97418" lon="-0.39567">
        <ele>723.24052716848</ele>
        <time>2021-06-21T09:53:51.066Z</time>
      </trkpt>
      <trkpt lat="42.97417" lon="-0.39544">
        <ele>724.26641174811</ele>
        <time>2021-06-21T09:53:51.871Z</time>
      </trkpt>
      <trkpt lat="42.97407" lon="-0.39505">
        <ele>725.57746711184</ele>
        <time>2021-06-21T09:53:52.681Z</time>
      </trkpt>
      <trkpt lat="42.97402" lon="-0.39472">
        <ele>726.71474387609</ele>
        <time>2021-06-21T09:53:53.495Z</time>
      </trkpt>
      <trkpt lat="42.97401" lon="-0.3944">
        <ele>727.57359448037</ele>
        <time>2021-06-21T09:53:54.313Z</time>
      </trkpt>
      <trkpt lat="42.97397" lon="-0.39412">
        <ele>728.5012377841</ele>
        <time>2021-06-21T09:53:55.134Z</time>
      </trkpt>
      <trkpt lat="42.97392" lon="-0.39397">
        <ele>729.40558393483</ele>
        <time>2021-06-21T09:53:55.957Z</time>
      </trkpt>
      <trkpt lat="42.97387" lon="-0.39388">
        <ele>730.37860931995</ele>
        <time>2021-06-21T09:53:56.781Z</time>
      </trkpt>
      <trkpt lat="42.97377" lon="-0.3938">
        <ele>731.47375342276</ele>
        <time>2021-06-21T09:53:57.607Z</time>
      </trkpt>
      <trkpt lat="42.97359" lon="-0.39369">
        <ele>732.7644148115</ele>
        <time>2021-06-21T09:53:58.436Z</time>
      </trkpt>
      <trkpt lat="42.97354" lon="-0.39367">
        <ele>733.8804616677</ele>
        <time>2021-06-21T09:53:59.266Z</time>
      </trkpt>
      <trkpt lat="42.97339" lon="-0.3936">
        <ele>735.08455178137</ele>
        <time>2021-06-21T09:54:00.099Z</time>
      </trkpt>
      <trkpt lat="42.97333" lon="-0.39357">
        <ele>736.26227124254</ele>
        <time>2021-06-21T09:54:00.933Z</time>
      </trkpt>
      <trkpt lat="42.97307" lon="-0.39338">
        <ele>737.84938708502</ele>
        <time>2021-06-21T09:54:01.771Z</time>
      </trkpt>
      <trkpt lat="42.9729" lon="-0.3932">
        <ele>739.10164125967</ele>
        <time>2021-06-21T09:54:02.613Z</time>
      </trkpt>
      <trkpt lat="42.97251" lon="-0.39275">
        <ele>740.54659346656</ele>
        <time>2021-06-21T09:54:03.463Z</time>
      </trkpt>
      <trkpt lat="42.97245" lon="-0.3927">
        <ele>741.77218473</ele>
        <time>2021-06-21T09:54:04.314Z</time>
      </trkpt>
      <trkpt lat="42.97238" lon="-0.39261">
        <ele>743.02418668512</ele>
        <time>2021-06-21T09:54:05.167Z</time>
      </trkpt>
      <trkpt lat="42.9719" lon="-0.39183">
        <ele>744.2033677409</ele>
        <time>2021-06-21T09:54:06.032Z</time>
      </trkpt>
      <trkpt lat="42.9719" lon="-0.39183">
        <ele>745.42234100309</ele>
        <time>2021-06-21T09:54:06.897Z</time>
      </trkpt>
      <trkpt lat="42.97199" lon="-0.39146">
        <ele>746.09307129253</ele>
        <time>2021-06-21T09:54:07.766Z</time>
      </trkpt>
      <trkpt lat="42.97212" lon="-0.39123">
        <ele>747.10600246239</ele>
        <time>2021-06-21T09:54:08.639Z</time>
      </trkpt>
      <trkpt lat="42.97223" lon="-0.39133">
        <ele>748.2966893019</ele>
        <time>2021-06-21T09:54:09.514Z</time>
      </trkpt>
      <trkpt lat="42.97273" lon="-0.39211">
        <ele>749.4364799019</ele>
        <time>2021-06-21T09:54:10.401Z</time>
      </trkpt>
      <trkpt lat="42.97279" lon="-0.392">
        <ele>750.83693151434</ele>
        <time>2021-06-21T09:54:11.289Z</time>
      </trkpt>
      <trkpt lat="42.97316" lon="-0.39157">
        <ele>752.14329080604</ele>
        <time>2021-06-21T09:54:12.185Z</time>
      </trkpt>
      <trkpt lat="42.97324" lon="-0.39139">
        <ele>753.63992889936</ele>
        <time>2021-06-21T09:54:13.084Z</time>
      </trkpt>
      <trkpt lat="42.97323" lon="-0.39133">
        <ele>755.27273346066</ele>
        <time>2021-06-21T09:54:13.983Z</time>
      </trkpt>
      <trkpt lat="42.9732" lon="-0.39118">
        <ele>756.96958570806</ele>
        <time>2021-06-21T09:54:14.884Z</time>
      </trkpt>
      <trkpt lat="42.97314" lon="-0.39103">
        <ele>758.76909933078</ele>
        <time>2021-06-21T09:54:15.787Z</time>
      </trkpt>
      <trkpt lat="42.97312" lon="-0.39098">
        <ele>760.6764711307</ele>
        <time>2021-06-21T09:54:16.691Z</time>
      </trkpt>
      <trkpt lat="42.97312" lon="-0.39098">
        <ele>762.68520072047</ele>
        <time>2021-06-21T09:54:17.595Z</time>
      </trkpt>
      <trkpt lat="42.97292" lon="-0.39051">
        <ele>765.12961318293</ele>
        <time>2021-06-21T09:54:18.505Z</time>
      </trkpt>
      <trkpt lat="42.97281" lon="-0.39014">
        <ele>767.43604304993</ele>
        <time>2021-06-21T09:54:19.420Z</time>
      </trkpt>
      <trkpt lat="42.97273" lon="-0.38977">
        <ele>770.15265940634</ele>
        <time>2021-06-21T09:54:20.340Z</time>
      </trkpt>
      <trkpt lat="42.97258" lon="-0.3892">
        <ele>772.75872050751</ele>
        <time>2021-06-21T09:54:21.267Z</time>
      </trkpt>
      <trkpt lat="42.97238" lon="-0.3888">
        <ele>775.54842183448</ele>
        <time>2021-06-21T09:54:22.199Z</time>
      </trkpt>
      <trkpt lat="42.97221" lon="-0.38837">
        <ele>778.19790070687</ele>
        <time>2021-06-21T09:54:23.137Z</time>
      </trkpt>
      <trkpt lat="42.97215" lon="-0.38792">
        <ele>780.89083409647</ele>
        <time>2021-06-21T09:54:24.080Z</time>
      </trkpt>
      <trkpt lat="42.9717" lon="-0.38626">
        <ele>784.176633034</ele>
        <time>2021-06-21T09:54:25.044Z</time>
      </trkpt>
      <trkpt lat="42.97184" lon="-0.38553">
        <ele>786.36385415319</ele>
        <time>2021-06-21T09:54:26.017Z</time>
      </trkpt>
      <trkpt lat="42.97189" lon="-0.3851">
        <ele>788.99135003976</ele>
        <time>2021-06-21T09:54:26.995Z</time>
      </trkpt>
      <trkpt lat="42.97181" lon="-0.3847">
        <ele>791.60216386578</ele>
        <time>2021-06-21T09:54:27.978Z</time>
      </trkpt>
      <trkpt lat="42.97153" lon="-0.3841">
        <ele>794.46628088481</ele>
        <time>2021-06-21T09:54:28.969Z</time>
      </trkpt>
      <trkpt lat="42.97109" lon="-0.38283">
        <ele>797.3928465552</ele>
        <time>2021-06-21T09:54:29.977Z</time>
      </trkpt>
      <trkpt lat="42.97098" lon="-0.3827">
        <ele>799.7488588185</ele>
        <time>2021-06-21T09:54:30.987Z</time>
      </trkpt>
      <trkpt lat="42.97053" lon="-0.38242">
        <ele>802.2595254484</ele>
        <time>2021-06-21T09:54:32.005Z</time>
      </trkpt>
      <trkpt lat="42.97046" lon="-0.38235">
        <ele>804.61468988875</ele>
        <time>2021-06-21T09:54:33.025Z</time>
      </trkpt>
      <trkpt lat="42.97038" lon="-0.38228">
        <ele>806.89431055599</ele>
        <time>2021-06-21T09:54:34.046Z</time>
      </trkpt>
      <trkpt lat="42.97034" lon="-0.38219">
        <ele>809.06322087282</ele>
        <time>2021-06-21T09:54:35.068Z</time>
      </trkpt>
      <trkpt lat="42.97029" lon="-0.38208">
        <ele>811.17563961422</ele>
        <time>2021-06-21T09:54:36.092Z</time>
      </trkpt>
      <trkpt lat="42.97007" lon="-0.38109">
        <ele>813.03283530281</ele>
        <time>2021-06-21T09:54:37.128Z</time>
      </trkpt>
      <trkpt lat="42.97004" lon="-0.381">
        <ele>814.9259144049</ele>
        <time>2021-06-21T09:54:38.165Z</time>
      </trkpt>
      <trkpt lat="42.96984" lon="-0.38065">
        <ele>816.7442056172</ele>
        <time>2021-06-21T09:54:39.207Z</time>
      </trkpt>
      <trkpt lat="42.96976" lon="-0.38059">
        <ele>818.51497893269</ele>
        <time>2021-06-21T09:54:40.251Z</time>
      </trkpt>
      <trkpt lat="42.96973" lon="-0.38059">
        <ele>820.19227618018</ele>
        <time>2021-06-21T09:54:41.295Z</time>
      </trkpt>
      <trkpt lat="42.96973" lon="-0.38059">
        <ele>821.75985717317</ele>
        <time>2021-06-21T09:54:42.339Z</time>
      </trkpt>
      <trkpt lat="42.9697" lon="-0.38062">
        <ele>823.27959686475</ele>
        <time>2021-06-21T09:54:43.384Z</time>
      </trkpt>
      <trkpt lat="42.96968" lon="-0.38066">
        <ele>824.71954215506</ele>
        <time>2021-06-21T09:54:44.429Z</time>
      </trkpt>
      <trkpt lat="42.96968" lon="-0.38085">
        <ele>826.13300739981</ele>
        <time>2021-06-21T09:54:45.477Z</time>
      </trkpt>
      <trkpt lat="42.96976" lon="-0.38115">
        <ele>827.45181841663</ele>
        <time>2021-06-21T09:54:46.529Z</time>
      </trkpt>
      <trkpt lat="42.96993" lon="-0.38146">
        <ele>828.61102287849</ele>
        <time>2021-06-21T09:54:47.585Z</time>
      </trkpt>
      <trkpt lat="42.96996" lon="-0.38157">
        <ele>829.71087901682</ele>
        <time>2021-06-21T09:54:48.642Z</time>
      </trkpt>
      <trkpt lat="42.96998" lon="-0.38167">
        <ele>830.75444525069</ele>
        <time>2021-06-21T09:54:49.701Z</time>
      </trkpt>
      <trkpt lat="42.96996" lon="-0.38212">
        <ele>831.84713192803</ele>
        <time>2021-06-21T09:54:50.765Z</time>
      </trkpt>
      <trkpt lat="42.97002" lon="-0.38241">
        <ele>832.81941939498</ele>
        <time>2021-06-21T09:54:51.832Z</time>
      </trkpt>
      <trkpt lat="42.97" lon="-0.38252">
        <ele>833.71732945208</ele>
        <time>2021-06-21T09:54:52.901Z</time>
      </trkpt>
      <trkpt lat="42.96995" lon="-0.38255">
        <ele>834.55290017044</ele>
        <time>2021-06-21T09:54:53.970Z</time>
      </trkpt>
      <trkpt lat="42.96995" lon="-0.38255">
        <ele>835.27346215296</ele>
        <time>2021-06-21T09:54:55.039Z</time>
      </trkpt>
      <trkpt lat="42.96993" lon="-0.38256">
        <ele>835.96985573363</ele>
        <time>2021-06-21T09:54:56.109Z</time>
      </trkpt>
      <trkpt lat="42.9699" lon="-0.38253">
        <ele>836.61468363502</ele>
        <time>2021-06-21T09:54:57.180Z</time>
      </trkpt>
      <trkpt lat="42.96987" lon="-0.38247">
        <ele>837.20831626985</ele>
        <time>2021-06-21T09:54:58.251Z</time>
      </trkpt>
      <trkpt lat="42.96985" lon="-0.38238">
        <ele>837.73446017223</ele>
        <time>2021-06-21T09:54:59.324Z</time>
      </trkpt>
      <trkpt lat="42.96984" lon="-0.38221">
        <ele>838.1429680333</ele>
        <time>2021-06-21T09:55:00.398Z</time>
      </trkpt>
      <trkpt lat="42.9698" lon="-0.38171">
        <ele>838.47721997893</ele>
        <time>2021-06-21T09:55:01.478Z</time>
      </trkpt>
      <trkpt lat="42.96977" lon="-0.38159">
        <ele>838.9171528275</ele>
        <time>2021-06-21T09:55:02.560Z</time>
      </trkpt>
      <trkpt lat="42.96974" lon="-0.38152">
        <ele>839.34685880598</ele>
        <time>2021-06-21T09:55:03.643Z</time>
      </trkpt>
      <trkpt lat="42.96969" lon="-0.38146">
        <ele>839.78640630483</ele>
        <time>2021-06-21T09:55:04.727Z</time>
      </trkpt>
      <trkpt lat="42.96954" lon="-0.38137">
        <ele>840.27832363643</ele>
        <time>2021-06-21T09:55:05.814Z</time>
      </trkpt>
      <trkpt lat="42.96946" lon="-0.38126">
        <ele>840.69439252863</ele>
        <time>2021-06-21T09:55:06.902Z</time>
      </trkpt>
      <trkpt lat="42.96946" lon="-0.38126">
        <ele>841.08910884914</ele>
        <time>2021-06-21T09:55:07.990Z</time>
      </trkpt>
      <trkpt lat="42.9694" lon="-0.38106">
        <ele>841.43821620953</ele>
        <time>2021-06-21T09:55:09.081Z</time>
      </trkpt>
      <trkpt lat="42.96936" lon="-0.38099">
        <ele>841.82632080478</ele>
        <time>2021-06-21T09:55:10.173Z</time>
      </trkpt>
      <trkpt lat="42.96931" lon="-0.38094">
        <ele>842.23877888857</ele>
        <time>2021-06-21T09:55:11.266Z</time>
      </trkpt>
      <trkpt lat="42.96919" lon="-0.38091">
        <ele>842.76256410384</ele>
        <time>2021-06-21T09:55:12.361Z</time>
      </trkpt>
      <trkpt lat="42.96901" lon="-0.38094">
        <ele>843.48725332939</ele>
        <time>2021-06-21T09:55:13.459Z</time>
      </trkpt>
      <trkpt lat="42.96893" lon="-0.38095">
        <ele>844.03145872575</ele>
        <time>2021-06-21T09:55:14.558Z</time>
      </trkpt>
      <trkpt lat="42.96888" lon="-0.38093">
        <ele>844.52900642296</ele>
        <time>2021-06-21T09:55:15.658Z</time>
      </trkpt>
      <trkpt lat="42.96888" lon="-0.38093">
        <ele>844.94974130444</ele>
        <time>2021-06-21T09:55:16.758Z</time>
      </trkpt>
      <trkpt lat="42.96882" lon="-0.38088">
        <ele>845.45555440914</ele>
        <time>2021-06-21T09:55:17.859Z</time>
      </trkpt>
      <trkpt lat="42.96867" lon="-0.38071">
        <ele>845.99272616326</ele>
        <time>2021-06-21T09:55:18.963Z</time>
      </trkpt>
      <trkpt lat="42.96861" lon="-0.38057">
        <ele>846.41161561952</ele>
        <time>2021-06-21T09:55:20.069Z</time>
      </trkpt>
      <trkpt lat="42.96862" lon="-0.38039">
        <ele>846.74291367821</ele>
        <time>2021-06-21T09:55:21.177Z</time>
      </trkpt>
      <trkpt lat="42.96866" lon="-0.38034">
        <ele>847.11586597471</ele>
        <time>2021-06-21T09:55:22.286Z</time>
      </trkpt>
      <trkpt lat="42.96877" lon="-0.38018">
        <ele>847.33766583156</ele>
        <time>2021-06-21T09:55:23.398Z</time>
      </trkpt>
      <trkpt lat="42.96884" lon="-0.38005">
        <ele>847.65355996898</ele>
        <time>2021-06-21T09:55:24.511Z</time>
      </trkpt>
      <trkpt lat="42.96885" lon="-0.37996">
        <ele>848.07028013301</ele>
        <time>2021-06-21T09:55:25.625Z</time>
      </trkpt>
      <trkpt lat="42.96883" lon="-0.37975">
        <ele>848.51128152361</ele>
        <time>2021-06-21T09:55:26.742Z</time>
      </trkpt>
      <trkpt lat="42.96874" lon="-0.37955">
        <ele>849.09639068498</ele>
        <time>2021-06-21T09:55:27.862Z</time>
      </trkpt>
      <trkpt lat="42.96869" lon="-0.3795">
        <ele>849.67482349724</ele>
        <time>2021-06-21T09:55:28.983Z</time>
      </trkpt>
      <trkpt lat="42.96854" lon="-0.37945">
        <ele>850.37197503123</ele>
        <time>2021-06-21T09:55:30.106Z</time>
      </trkpt>
      <trkpt lat="42.96837" lon="-0.37944">
        <ele>851.10014118076</ele>
        <time>2021-06-21T09:55:31.232Z</time>
      </trkpt>
      <trkpt lat="42.9683" lon="-0.3794">
        <ele>851.74315718271</ele>
        <time>2021-06-21T09:55:32.359Z</time>
      </trkpt>
      <trkpt lat="42.96819" lon="-0.37932">
        <ele>852.45152456188</ele>
        <time>2021-06-21T09:55:33.488Z</time>
      </trkpt>
      <trkpt lat="42.96816" lon="-0.37924">
        <ele>853.02494343632</ele>
        <time>2021-06-21T09:55:34.618Z</time>
      </trkpt>
      <trkpt lat="42.96815" lon="-0.37916">
        <ele>853.55426754894</ele>
        <time>2021-06-21T09:55:35.749Z</time>
      </trkpt>
      <trkpt lat="42.96818" lon="-0.37873">
        <ele>853.93925656566</ele>
        <time>2021-06-21T09:55:36.885Z</time>
      </trkpt>
      <trkpt lat="42.96816" lon="-0.37859">
        <ele>854.49318995695</ele>
        <time>2021-06-21T09:55:38.023Z</time>
      </trkpt>
      <trkpt lat="42.96797" lon="-0.37814">
        <ele>855.31875621164</ele>
        <time>2021-06-21T09:55:39.167Z</time>
      </trkpt>
      <trkpt lat="42.96795" lon="-0.378">
        <ele>855.86505794802</ele>
        <time>2021-06-21T09:55:40.313Z</time>
      </trkpt>
      <trkpt lat="42.96794" lon="-0.3776">
        <ele>856.4121376401</ele>
        <time>2021-06-21T09:55:41.463Z</time>
      </trkpt>
      <trkpt lat="42.96793" lon="-0.37749">
        <ele>856.93534223171</ele>
        <time>2021-06-21T09:55:42.615Z</time>
      </trkpt>
      <trkpt lat="42.96789" lon="-0.3774">
        <ele>857.5036016296</ele>
        <time>2021-06-21T09:55:43.768Z</time>
      </trkpt>
      <trkpt lat="42.96783" lon="-0.3773">
        <ele>858.13183047515</ele>
        <time>2021-06-21T09:55:44.922Z</time>
      </trkpt>
      <trkpt lat="42.96759" lon="-0.37703">
        <ele>858.990121543</ele>
        <time>2021-06-21T09:55:46.081Z</time>
      </trkpt>
      <trkpt lat="42.96754" lon="-0.37693">
        <ele>859.64300586668</ele>
        <time>2021-06-21T09:55:47.242Z</time>
      </trkpt>
      <trkpt lat="42.96751" lon="-0.37679">
        <ele>860.25219739457</ele>
        <time>2021-06-21T09:55:48.405Z</time>
      </trkpt>
      <trkpt lat="42.96749" lon="-0.3766">
        <ele>860.8150981011</ele>
        <time>2021-06-21T09:55:49.570Z</time>
      </trkpt>
      <trkpt lat="42.9675" lon="-0.37646">
        <ele>861.31330177805</ele>
        <time>2021-06-21T09:55:50.736Z</time>
      </trkpt>
      <trkpt lat="42.96756" lon="-0.37638">
        <ele>861.69084729994</ele>
        <time>2021-06-21T09:55:51.904Z</time>
      </trkpt>
      <trkpt lat="42.96779" lon="-0.37615">
        <ele>862.10724944422</ele>
        <time>2021-06-21T09:55:53.076Z</time>
      </trkpt>
      <trkpt lat="42.96797" lon="-0.37596">
        <ele>862.67233231241</ele>
        <time>2021-06-21T09:55:54.252Z</time>
      </trkpt>
      <trkpt lat="42.96798" lon="-0.3758">
        <ele>863.35551749445</ele>
        <time>2021-06-21T09:55:55.430Z</time>
      </trkpt>
      <trkpt lat="42.96792" lon="-0.37567">
        <ele>864.08118137487</ele>
        <time>2021-06-21T09:55:56.610Z</time>
      </trkpt>
      <trkpt lat="42.96777" lon="-0.37554">
        <ele>864.87651833559</ele>
        <time>2021-06-21T09:55:57.793Z</time>
      </trkpt>
      <trkpt lat="42.96764" lon="-0.37533">
        <ele>865.74886170395</ele>
        <time>2021-06-21T09:55:58.979Z</time>
      </trkpt>
      <trkpt lat="42.96759" lon="-0.37485">
        <ele>866.60737298276</ele>
        <time>2021-06-21T09:56:00.170Z</time>
      </trkpt>
      <trkpt lat="42.9675" lon="-0.37426">
        <ele>867.88388347522</ele>
        <time>2021-06-21T09:56:01.368Z</time>
      </trkpt>
      <trkpt lat="42.96753" lon="-0.3735">
        <ele>868.7800937306</ele>
        <time>2021-06-21T09:56:02.575Z</time>
      </trkpt>
      <trkpt lat="42.96743" lon="-0.37266">
        <ele>869.94298379633</ele>
        <time>2021-06-21T09:56:03.793Z</time>
      </trkpt>
      <trkpt lat="42.96738" lon="-0.37223">
        <ele>870.98089185532</ele>
        <time>2021-06-21T09:56:05.016Z</time>
      </trkpt>
      <trkpt lat="42.9674" lon="-0.3719">
        <ele>871.97625634082</ele>
        <time>2021-06-21T09:56:06.242Z</time>
      </trkpt>
      <trkpt lat="42.9675" lon="-0.37172">
        <ele>872.91363979931</ele>
        <time>2021-06-21T09:56:07.471Z</time>
      </trkpt>
      <trkpt lat="42.96758" lon="-0.37164">
        <ele>873.88649558987</ele>
        <time>2021-06-21T09:56:08.702Z</time>
      </trkpt>
      <trkpt lat="42.96771" lon="-0.37164">
        <ele>875.098686958</ele>
        <time>2021-06-21T09:56:09.935Z</time>
      </trkpt>
      <trkpt lat="42.96782" lon="-0.37169">
        <ele>876.31846889667</ele>
        <time>2021-06-21T09:56:11.170Z</time>
      </trkpt>
      <trkpt lat="42.96817" lon="-0.37237">
        <ele>877.67540596359</ele>
        <time>2021-06-21T09:56:12.414Z</time>
      </trkpt>
      <trkpt lat="42.96836" lon="-0.37255">
        <ele>878.94576249085</ele>
        <time>2021-06-21T09:56:13.662Z</time>
      </trkpt>
      <trkpt lat="42.96857" lon="-0.37262">
        <ele>880.29859510543</ele>
        <time>2021-06-21T09:56:14.914Z</time>
      </trkpt>
      <trkpt lat="42.9686" lon="-0.37263">
        <ele>881.62882919436</ele>
        <time>2021-06-21T09:56:16.166Z</time>
      </trkpt>
      <trkpt lat="42.96883" lon="-0.37257">
        <ele>883.11797195151</ele>
        <time>2021-06-21T09:56:17.422Z</time>
      </trkpt>
      <trkpt lat="42.96899" lon="-0.37245">
        <ele>884.65248003637</ele>
        <time>2021-06-21T09:56:18.681Z</time>
      </trkpt>
      <trkpt lat="42.96906" lon="-0.37227">
        <ele>886.17279301385</ele>
        <time>2021-06-21T09:56:19.942Z</time>
      </trkpt>
      <trkpt lat="42.96906" lon="-0.37201">
        <ele>887.74614734113</ele>
        <time>2021-06-21T09:56:21.206Z</time>
      </trkpt>
      <trkpt lat="42.96888" lon="-0.3716">
        <ele>889.32049527778</ele>
        <time>2021-06-21T09:56:22.476Z</time>
      </trkpt>
      <trkpt lat="42.96885" lon="-0.37145">
        <ele>890.89331434465</ele>
        <time>2021-06-21T09:56:23.748Z</time>
      </trkpt>
      <trkpt lat="42.96884" lon="-0.37134">
        <ele>892.51126147332</ele>
        <time>2021-06-21T09:56:25.021Z</time>
      </trkpt>
      <trkpt lat="42.96886" lon="-0.37122">
        <ele>894.2061943692</ele>
        <time>2021-06-21T09:56:26.295Z</time>
      </trkpt>
      <trkpt lat="42.96892" lon="-0.37092">
        <ele>896.04807200812</ele>
        <time>2021-06-21T09:56:27.573Z</time>
      </trkpt>
      <trkpt lat="42.96891" lon="-0.37079">
        <ele>897.81131045421</ele>
        <time>2021-06-21T09:56:28.853Z</time>
      </trkpt>
      <trkpt lat="42.96887" lon="-0.37064">
        <ele>899.55951003918</ele>
        <time>2021-06-21T09:56:30.135Z</time>
      </trkpt>
      <trkpt lat="42.96878" lon="-0.37043">
        <ele>901.35703254606</ele>
        <time>2021-06-21T09:56:31.419Z</time>
      </trkpt>
      <trkpt lat="42.96859" lon="-0.37005">
        <ele>903.32249824099</ele>
        <time>2021-06-21T09:56:32.709Z</time>
      </trkpt>
      <trkpt lat="42.96829" lon="-0.36952">
        <ele>905.20323986453</ele>
        <time>2021-06-21T09:56:34.007Z</time>
      </trkpt>
      <trkpt lat="42.96815" lon="-0.369">
        <ele>907.40044686428</ele>
        <time>2021-06-21T09:56:35.311Z</time>
      </trkpt>
      <trkpt lat="42.96795" lon="-0.36854">
        <ele>909.51941411062</ele>
        <time>2021-06-21T09:56:36.622Z</time>
      </trkpt>
      <trkpt lat="42.96786" lon="-0.36827">
        <ele>911.62624541412</ele>
        <time>2021-06-21T09:56:37.936Z</time>
      </trkpt>
      <trkpt lat="42.96774" lon="-0.36783">
        <ele>913.86411928254</ele>
        <time>2021-06-21T09:56:39.255Z</time>
      </trkpt>
      <trkpt lat="42.96771" lon="-0.36762">
        <ele>916.04408015609</ele>
        <time>2021-06-21T09:56:40.577Z</time>
      </trkpt>
      <trkpt lat="42.96768" lon="-0.3671">
        <ele>918.41716636335</ele>
        <time>2021-06-21T09:56:41.905Z</time>
      </trkpt>
      <trkpt lat="42.96759" lon="-0.3666">
        <ele>920.65029731778</ele>
        <time>2021-06-21T09:56:43.239Z</time>
      </trkpt>
      <trkpt lat="42.96766" lon="-0.36667">
        <ele>923.06182353477</ele>
        <time>2021-06-21T09:56:44.574Z</time>
      </trkpt>
      <trkpt lat="42.96769" lon="-0.36675">
        <ele>925.45327511403</ele>
        <time>2021-06-21T09:56:45.910Z</time>
      </trkpt>
      <trkpt lat="42.96769" lon="-0.36675">
        <ele>927.85384638537</ele>
        <time>2021-06-21T09:56:47.246Z</time>
      </trkpt>
      <trkpt lat="42.96766" lon="-0.36667">
        <ele>923.06182353477</ele>
        <time>2021-06-21T09:56:48.584Z</time>
      </trkpt>
      <trkpt lat="42.96759" lon="-0.3666">
        <ele>932.65972691911</ele>
        <time>2021-06-21T09:56:49.923Z</time>
      </trkpt>
      <trkpt lat="42.96749" lon="-0.36618">
        <ele>935.37106076632</ele>
        <time>2021-06-21T09:56:51.267Z</time>
      </trkpt>
      <trkpt lat="42.96726" lon="-0.3656">
        <ele>938.26441828141</ele>
        <time>2021-06-21T09:56:52.619Z</time>
      </trkpt>
      <trkpt lat="42.96723" lon="-0.36545">
        <ele>940.97461370421</ele>
        <time>2021-06-21T09:56:53.973Z</time>
      </trkpt>
      <trkpt lat="42.9672" lon="-0.36492">
        <ele>943.89606217584</ele>
        <time>2021-06-21T09:56:55.333Z</time>
      </trkpt>
      <trkpt lat="42.96716" lon="-0.36469">
        <ele>946.70312921371</ele>
        <time>2021-06-21T09:56:56.696Z</time>
      </trkpt>
      <trkpt lat="42.96698" lon="-0.36406">
        <ele>949.68750294646</ele>
        <time>2021-06-21T09:56:58.067Z</time>
      </trkpt>
      <trkpt lat="42.96695" lon="-0.36357">
        <ele>952.82848982163</ele>
        <time>2021-06-21T09:56:59.443Z</time>
      </trkpt>
      <trkpt lat="42.96687" lon="-0.36304">
        <ele>955.95084544964</ele>
        <time>2021-06-21T09:57:00.826Z</time>
      </trkpt>
      <trkpt lat="42.96672" lon="-0.36245">
        <ele>959.11032714201</ele>
        <time>2021-06-21T09:57:02.216Z</time>
      </trkpt>
      <trkpt lat="42.96646" lon="-0.36127">
        <ele>962.49223727014</ele>
        <time>2021-06-21T09:57:03.621Z</time>
      </trkpt>
      <trkpt lat="42.96643" lon="-0.36066">
        <ele>965.79931769807</ele>
        <time>2021-06-21T09:57:05.033Z</time>
      </trkpt>
      <trkpt lat="42.96632" lon="-0.36013">
        <ele>969.01259510365</ele>
        <time>2021-06-21T09:57:06.451Z</time>
      </trkpt>
      <trkpt lat="42.96632" lon="-0.36013">
        <ele>972.20164065446</ele>
        <time>2021-06-21T09:57:07.869Z</time>
      </trkpt>
      <trkpt lat="42.96627" lon="-0.35993">
        <ele>975.5019776594</ele>
        <time>2021-06-21T09:57:09.290Z</time>
      </trkpt>
      <trkpt lat="42.96626" lon="-0.35935">
        <ele>979.04486445621</ele>
        <time>2021-06-21T09:57:10.717Z</time>
      </trkpt>
      <trkpt lat="42.96623" lon="-0.35871">
        <ele>982.49428969732</ele>
        <time>2021-06-21T09:57:12.152Z</time>
      </trkpt>
      <trkpt lat="42.96618" lon="-0.35819">
        <ele>986.00793516377</ele>
        <time>2021-06-21T09:57:13.593Z</time>
      </trkpt>
      <trkpt lat="42.96606" lon="-0.35769">
        <ele>989.42653166217</ele>
        <time>2021-06-21T09:57:15.040Z</time>
      </trkpt>
      <trkpt lat="42.96594" lon="-0.35721">
        <ele>992.9707130472</ele>
        <time>2021-06-21T09:57:16.493Z</time>
      </trkpt>
      <trkpt lat="42.96565" lon="-0.35617">
        <ele>996.60926637645</ele>
        <time>2021-06-21T09:57:17.959Z</time>
      </trkpt>
      <trkpt lat="42.96546" lon="-0.35593">
        <ele>999.96668229146</ele>
        <time>2021-06-21T09:57:19.430Z</time>
      </trkpt>
      <trkpt lat="42.96528" lon="-0.35576">
        <ele>1003.4921510214</ele>
        <time>2021-06-21T09:57:20.904Z</time>
      </trkpt>
      <trkpt lat="42.96517" lon="-0.35566">
        <ele>1006.9777858842</ele>
        <time>2021-06-21T09:57:22.380Z</time>
      </trkpt>
      <trkpt lat="42.96506" lon="-0.35551">
        <ele>1010.5456167332</ele>
        <time>2021-06-21T09:57:23.859Z</time>
      </trkpt>
      <trkpt lat="42.96498" lon="-0.35538">
        <ele>1013.9963633694</ele>
        <time>2021-06-21T09:57:25.340Z</time>
      </trkpt>
      <trkpt lat="42.96454" lon="-0.35489">
        <ele>1017.3777984235</ele>
        <time>2021-06-21T09:57:26.830Z</time>
      </trkpt>
      <trkpt lat="42.96412" lon="-0.35418">
        <ele>1021.1275439444</ele>
        <time>2021-06-21T09:57:28.330Z</time>
      </trkpt>
      <trkpt lat="42.96407" lon="-0.354">
        <ele>1024.7210245872</ele>
        <time>2021-06-21T09:57:29.833Z</time>
      </trkpt>
      <trkpt lat="42.96407" lon="-0.354">
        <ele>1028.2217308653</ele>
        <time>2021-06-21T09:57:31.336Z</time>
      </trkpt>
      <trkpt lat="42.96399" lon="-0.35368">
        <ele>1031.9191885627</ele>
        <time>2021-06-21T09:57:32.843Z</time>
      </trkpt>
      <trkpt lat="42.96385" lon="-0.35341">
        <ele>1035.5042813952</ele>
        <time>2021-06-21T09:57:34.354Z</time>
      </trkpt>
      <trkpt lat="42.96366" lon="-0.35321">
        <ele>1039.0876822445</ele>
        <time>2021-06-21T09:57:35.868Z</time>
      </trkpt>
      <trkpt lat="42.96355" lon="-0.35294">
        <ele>1042.8311719094</ele>
        <time>2021-06-21T09:57:37.386Z</time>
      </trkpt>
      <trkpt lat="42.96355" lon="-0.35294">
        <ele>1046.3783763439</ele>
        <time>2021-06-21T09:57:38.904Z</time>
      </trkpt>
      <trkpt lat="42.96344" lon="-0.35251">
        <ele>1050.1083097931</ele>
        <time>2021-06-21T09:57:40.427Z</time>
      </trkpt>
      <trkpt lat="42.9634" lon="-0.35144">
        <ele>1054.0359404833</ele>
        <time>2021-06-21T09:57:41.963Z</time>
      </trkpt>
      <trkpt lat="42.96345" lon="-0.35117">
        <ele>1057.7145363889</ele>
        <time>2021-06-21T09:57:43.502Z</time>
      </trkpt>
      <trkpt lat="42.96357" lon="-0.35097">
        <ele>1061.4570338886</ele>
        <time>2021-06-21T09:57:45.044Z</time>
      </trkpt>
      <trkpt lat="42.96357" lon="-0.35097">
        <ele>1064.9965127468</ele>
        <time>2021-06-21T09:57:46.586Z</time>
      </trkpt>
      <trkpt lat="42.9638" lon="-0.35061">
        <ele>1068.8953208156</ele>
        <time>2021-06-21T09:57:48.134Z</time>
      </trkpt>
      <trkpt lat="42.96378" lon="-0.35035">
        <ele>1072.408470141</ele>
        <time>2021-06-21T09:57:49.685Z</time>
      </trkpt>
      <trkpt lat="42.96389" lon="-0.34945">
        <ele>1076.1290759766</ele>
        <time>2021-06-21T09:57:51.247Z</time>
      </trkpt>
      <trkpt lat="42.96395" lon="-0.34916">
        <ele>1079.6581994433</ele>
        <time>2021-06-21T09:57:52.812Z</time>
      </trkpt>
      <trkpt lat="42.96428" lon="-0.34874">
        <ele>1083.4321834217</ele>
        <time>2021-06-21T09:57:54.384Z</time>
      </trkpt>
      <trkpt lat="42.96432" lon="-0.3486">
        <ele>1086.9537588256</ele>
        <time>2021-06-21T09:57:55.958Z</time>
      </trkpt>
      <trkpt lat="42.96428" lon="-0.34811">
        <ele>1090.2771521014</ele>
        <time>2021-06-21T09:57:57.538Z</time>
      </trkpt>
      <trkpt lat="42.96419" lon="-0.34784">
        <ele>1093.6692052671</ele>
        <time>2021-06-21T09:57:59.121Z</time>
      </trkpt>
      <trkpt lat="42.96404" lon="-0.34761">
        <ele>1097.1848220697</ele>
        <time>2021-06-21T09:58:00.708Z</time>
      </trkpt>
      <trkpt lat="42.96401" lon="-0.34744">
        <ele>1100.5900837461</ele>
        <time>2021-06-21T09:58:02.297Z</time>
      </trkpt>
      <trkpt lat="42.96404" lon="-0.34714">
        <ele>1104.0192291459</ele>
        <time>2021-06-21T09:58:03.890Z</time>
      </trkpt>
      <trkpt lat="42.96405" lon="-0.3467">
        <ele>1107.4488952417</ele>
        <time>2021-06-21T09:58:05.488Z</time>
      </trkpt>
      <trkpt lat="42.96407" lon="-0.34632">
        <ele>1110.8405485207</ele>
        <time>2021-06-21T09:58:07.090Z</time>
      </trkpt>
      <trkpt lat="42.96399" lon="-0.34616">
        <ele>1114.1370000248</ele>
        <time>2021-06-21T09:58:08.695Z</time>
      </trkpt>
      <trkpt lat="42.96395" lon="-0.34613">
        <ele>1117.2563777492</ele>
        <time>2021-06-21T09:58:10.301Z</time>
      </trkpt>
      <trkpt lat="42.96381" lon="-0.34614">
        <ele>1120.3643605256</ele>
        <time>2021-06-21T09:58:11.909Z</time>
      </trkpt>
      <trkpt lat="42.96375" lon="-0.34623">
        <ele>1123.3126133856</ele>
        <time>2021-06-21T09:58:13.518Z</time>
      </trkpt>
      <trkpt lat="42.96357" lon="-0.34695">
        <ele>1125.8308851612</ele>
        <time>2021-06-21T09:58:15.136Z</time>
      </trkpt>
      <trkpt lat="42.96301" lon="-0.34761">
        <ele>1129.0392174783</ele>
        <time>2021-06-21T09:58:16.766Z</time>
      </trkpt>
      <trkpt lat="42.96278" lon="-0.34778">
        <ele>1132.1621019022</ele>
        <time>2021-06-21T09:58:18.400Z</time>
      </trkpt>
      <trkpt lat="42.96242" lon="-0.34875">
        <ele>1135.1026532745</ele>
        <time>2021-06-21T09:58:20.047Z</time>
      </trkpt>
      <trkpt lat="42.96236" lon="-0.3492">
        <ele>1137.7763655615</ele>
        <time>2021-06-21T09:58:21.699Z</time>
      </trkpt>
      <trkpt lat="42.96235" lon="-0.34956">
        <ele>1140.2946681518</ele>
        <time>2021-06-21T09:58:23.355Z</time>
      </trkpt>
      <trkpt lat="42.96228" lon="-0.34964">
        <ele>1143.0384112719</ele>
        <time>2021-06-21T09:58:25.013Z</time>
      </trkpt>
      <trkpt lat="42.96223" lon="-0.34966">
        <ele>1145.7230807389</ele>
        <time>2021-06-21T09:58:26.672Z</time>
      </trkpt>
      <trkpt lat="42.9622" lon="-0.34961">
        <ele>1148.3397747037</ele>
        <time>2021-06-21T09:58:28.332Z</time>
      </trkpt>
      <trkpt lat="42.96229" lon="-0.34852">
        <ele>1151.0728140936</ele>
        <time>2021-06-21T09:58:30.005Z</time>
      </trkpt>
      <trkpt lat="42.96255" lon="-0.34714">
        <ele>1153.7621152801</ele>
        <time>2021-06-21T09:58:31.694Z</time>
      </trkpt>
      <trkpt lat="42.96252" lon="-0.34598">
        <ele>1156.9366104534</ele>
        <time>2021-06-21T09:58:33.397Z</time>
      </trkpt>
      <trkpt lat="42.96263" lon="-0.34564">
        <ele>1159.1286641545</ele>
        <time>2021-06-21T09:58:35.104Z</time>
      </trkpt>
      <trkpt lat="42.96278" lon="-0.34561">
        <ele>1161.030418226</ele>
        <time>2021-06-21T09:58:36.814Z</time>
      </trkpt>
      <trkpt lat="42.96302" lon="-0.3455">
        <ele>1162.7285388537</ele>
        <time>2021-06-21T09:58:38.528Z</time>
      </trkpt>
      <trkpt lat="42.96312" lon="-0.34502">
        <ele>1164.7590180971</ele>
        <time>2021-06-21T09:58:40.248Z</time>
      </trkpt>
      <trkpt lat="42.96312" lon="-0.34461">
        <ele>1166.8325507683</ele>
        <time>2021-06-21T09:58:41.972Z</time>
      </trkpt>
      <trkpt lat="42.96309" lon="-0.34427">
        <ele>1168.9462565319</ele>
        <time>2021-06-21T09:58:43.701Z</time>
      </trkpt>
      <trkpt lat="42.96323" lon="-0.34376">
        <ele>1170.7755438747</ele>
        <time>2021-06-21T09:58:45.436Z</time>
      </trkpt>
      <trkpt lat="42.96324" lon="-0.3432">
        <ele>1172.8795179577</ele>
        <time>2021-06-21T09:58:47.177Z</time>
      </trkpt>
      <trkpt lat="42.9633" lon="-0.34284">
        <ele>1174.5901196334</ele>
        <time>2021-06-21T09:58:48.923Z</time>
      </trkpt>
      <trkpt lat="42.96337" lon="-0.34254">
        <ele>1176.1869219148</ele>
        <time>2021-06-21T09:58:50.672Z</time>
      </trkpt>
      <trkpt lat="42.9634" lon="-0.34221">
        <ele>1177.7639825025</ele>
        <time>2021-06-21T09:58:52.425Z</time>
      </trkpt>
      <trkpt lat="42.96347" lon="-0.34193">
        <ele>1179.3006602466</ele>
        <time>2021-06-21T09:58:54.182Z</time>
      </trkpt>
      <trkpt lat="42.96347" lon="-0.34165">
        <ele>1180.6983210514</ele>
        <time>2021-06-21T09:58:55.942Z</time>
      </trkpt>
      <trkpt lat="42.96351" lon="-0.34128">
        <ele>1182.085074673</ele>
        <time>2021-06-21T09:58:57.707Z</time>
      </trkpt>
      <trkpt lat="42.96347" lon="-0.34111">
        <ele>1183.3385773139</ele>
        <time>2021-06-21T09:58:59.474Z</time>
      </trkpt>
      <trkpt lat="42.96332" lon="-0.34068">
        <ele>1184.5691618332</ele>
        <time>2021-06-21T09:59:01.246Z</time>
      </trkpt>
      <trkpt lat="42.96332" lon="-0.34068">
        <ele>1185.7669366003</ele>
        <time>2021-06-21T09:59:03.018Z</time>
      </trkpt>
      <trkpt lat="42.96301" lon="-0.33985">
        <ele>1186.8568061206</ele>
        <time>2021-06-21T09:59:04.801Z</time>
      </trkpt>
      <trkpt lat="42.963" lon="-0.33975">
        <ele>1187.9853127099</ele>
        <time>2021-06-21T09:59:06.585Z</time>
      </trkpt>
      <trkpt lat="42.963" lon="-0.33961">
        <ele>1189.1123732521</ele>
        <time>2021-06-21T09:59:08.371Z</time>
      </trkpt>
      <trkpt lat="42.96303" lon="-0.33952">
        <ele>1190.2775662445</ele>
        <time>2021-06-21T09:59:10.158Z</time>
      </trkpt>
      <trkpt lat="42.9631" lon="-0.33943">
        <ele>1191.4560034599</ele>
        <time>2021-06-21T09:59:11.947Z</time>
      </trkpt>
      <trkpt lat="42.96316" lon="-0.33937">
        <ele>1192.6159837214</ele>
        <time>2021-06-21T09:59:13.737Z</time>
      </trkpt>
      <trkpt lat="42.96343" lon="-0.33931">
        <ele>1193.8903699866</ele>
        <time>2021-06-21T09:59:15.531Z</time>
      </trkpt>
      <trkpt lat="42.96359" lon="-0.33929">
        <ele>1195.2475672555</ele>
        <time>2021-06-21T09:59:17.328Z</time>
      </trkpt>
      <trkpt lat="42.96359" lon="-0.33929">
        <ele>1196.3918418131</ele>
        <time>2021-06-21T09:59:19.125Z</time>
      </trkpt>
      <trkpt lat="42.96374" lon="-0.33931">
        <ele>1197.7527279328</ele>
        <time>2021-06-21T09:59:20.924Z</time>
      </trkpt>
      <trkpt lat="42.96382" lon="-0.33935">
        <ele>1199.0227441963</ele>
        <time>2021-06-21T09:59:22.725Z</time>
      </trkpt>
      <trkpt lat="42.9639" lon="-0.33943">
        <ele>1200.3225156849</ele>
        <time>2021-06-21T09:59:24.527Z</time>
      </trkpt>
      <trkpt lat="42.96397" lon="-0.33952">
        <ele>1201.620423516</ele>
        <time>2021-06-21T09:59:26.331Z</time>
      </trkpt>
      <trkpt lat="42.96404" lon="-0.33971">
        <ele>1202.9571278267</ele>
        <time>2021-06-21T09:59:28.137Z</time>
      </trkpt>
      <trkpt lat="42.96407" lon="-0.3399">
        <ele>1204.3221886483</ele>
        <time>2021-06-21T09:59:29.945Z</time>
      </trkpt>
      <trkpt lat="42.96407" lon="-0.34008">
        <ele>1205.6969617843</ele>
        <time>2021-06-21T09:59:31.756Z</time>
      </trkpt>
      <trkpt lat="42.96415" lon="-0.34131">
        <ele>1207.0855403254</ele>
        <time>2021-06-21T09:59:33.581Z</time>
      </trkpt>
      <trkpt lat="42.96418" lon="-0.34149">
        <ele>1208.6189663064</ele>
        <time>2021-06-21T09:59:35.408Z</time>
      </trkpt>
      <trkpt lat="42.96465" lon="-0.34317">
        <ele>1210.0272028272</ele>
        <time>2021-06-21T09:59:37.256Z</time>
      </trkpt>
      <trkpt lat="42.96465" lon="-0.34317">
        <ele>1211.7153820125</ele>
        <time>2021-06-21T09:59:39.104Z</time>
      </trkpt>
      <trkpt lat="42.96472" lon="-0.34333">
        <ele>1213.4388675044</ele>
        <time>2021-06-21T09:59:40.955Z</time>
      </trkpt>
      <trkpt lat="42.96479" lon="-0.34342">
        <ele>1215.4407535462</ele>
        <time>2021-06-21T09:59:42.807Z</time>
      </trkpt>
      <trkpt lat="42.9649" lon="-0.34345">
        <ele>1217.6216370001</ele>
        <time>2021-06-21T09:59:44.661Z</time>
      </trkpt>
      <trkpt lat="42.965" lon="-0.3434">
        <ele>1219.8941746039</ele>
        <time>2021-06-21T09:59:46.517Z</time>
      </trkpt>
      <trkpt lat="42.96507" lon="-0.34324">
        <ele>1222.239823824</ele>
        <time>2021-06-21T09:59:48.375Z</time>
      </trkpt>
      <trkpt lat="42.9651" lon="-0.343">
        <ele>1224.5869838264</ele>
        <time>2021-06-21T09:59:50.236Z</time>
      </trkpt>
      <trkpt lat="42.96509" lon="-0.34264">
        <ele>1227.020586958</ele>
        <time>2021-06-21T09:59:52.101Z</time>
      </trkpt>
      <trkpt lat="42.96507" lon="-0.34212">
        <ele>1229.5995627399</ele>
        <time>2021-06-21T09:59:53.972Z</time>
      </trkpt>
      <trkpt lat="42.96502" lon="-0.34175">
        <ele>1232.2007606386</ele>
        <time>2021-06-21T09:59:55.847Z</time>
      </trkpt>
      <trkpt lat="42.96494" lon="-0.34081">
        <ele>1235.1865645431</ele>
        <time>2021-06-21T09:59:57.733Z</time>
      </trkpt>
      <trkpt lat="42.9649" lon="-0.3406">
        <ele>1237.8385592141</ele>
        <time>2021-06-21T09:59:59.622Z</time>
      </trkpt>
      <trkpt lat="42.96479" lon="-0.3402">
        <ele>1240.3403418216</ele>
        <time>2021-06-21T10:00:01.516Z</time>
      </trkpt>
      <trkpt lat="42.96476" lon="-0.33995">
        <ele>1243.0615946585</ele>
        <time>2021-06-21T10:00:03.413Z</time>
      </trkpt>
      <trkpt lat="42.96474" lon="-0.33946">
        <ele>1245.9377167288</ele>
        <time>2021-06-21T10:00:05.316Z</time>
      </trkpt>
      <trkpt lat="42.96465" lon="-0.3392">
        <ele>1248.7050760332</ele>
        <time>2021-06-21T10:00:07.222Z</time>
      </trkpt>
      <trkpt lat="42.96463" lon="-0.33906">
        <ele>1251.6829146618</ele>
        <time>2021-06-21T10:00:09.130Z</time>
      </trkpt>
      <trkpt lat="42.96468" lon="-0.33857">
        <ele>1255.0329809853</ele>
        <time>2021-06-21T10:00:11.044Z</time>
      </trkpt>
      <trkpt lat="42.96465" lon="-0.33845">
        <ele>1258.122025436</ele>
        <time>2021-06-21T10:00:12.959Z</time>
      </trkpt>
      <trkpt lat="42.96456" lon="-0.33817">
        <ele>1261.105060016</ele>
        <time>2021-06-21T10:00:14.878Z</time>
      </trkpt>
      <trkpt lat="42.96456" lon="-0.33817">
        <ele>1264.2848206517</ele>
        <time>2021-06-21T10:00:16.797Z</time>
      </trkpt>
      <trkpt lat="42.9645" lon="-0.338">
        <ele>1267.4255483201</ele>
        <time>2021-06-21T10:00:18.718Z</time>
      </trkpt>
      <trkpt lat="42.96447" lon="-0.33783">
        <ele>1270.8073758388</ele>
        <time>2021-06-21T10:00:20.641Z</time>
      </trkpt>
      <trkpt lat="42.9645" lon="-0.33739">
        <ele>1274.671452275</ele>
        <time>2021-06-21T10:00:22.569Z</time>
      </trkpt>
      <trkpt lat="42.9645" lon="-0.3372">
        <ele>1278.2007704576</ele>
        <time>2021-06-21T10:00:24.499Z</time>
      </trkpt>
      <trkpt lat="42.96436" lon="-0.33641">
        <ele>1281.79746986</ele>
        <time>2021-06-21T10:00:26.439Z</time>
      </trkpt>
      <trkpt lat="42.96428" lon="-0.33575">
        <ele>1285.4689503656</ele>
        <time>2021-06-21T10:00:28.387Z</time>
      </trkpt>
      <trkpt lat="42.96407" lon="-0.33515">
        <ele>1288.9288149115</ele>
        <time>2021-06-21T10:00:30.343Z</time>
      </trkpt>
      <trkpt lat="42.96373" lon="-0.33436">
        <ele>1292.502707894</ele>
        <time>2021-06-21T10:00:32.309Z</time>
      </trkpt>
      <trkpt lat="42.96365" lon="-0.33411">
        <ele>1295.9008990608</ele>
        <time>2021-06-21T10:00:34.279Z</time>
      </trkpt>
      <trkpt lat="42.96329" lon="-0.3335">
        <ele>1299.3354307255</ele>
        <time>2021-06-21T10:00:36.258Z</time>
      </trkpt>
      <trkpt lat="42.96319" lon="-0.33337">
        <ele>1302.7315136722</ele>
        <time>2021-06-21T10:00:38.239Z</time>
      </trkpt>
      <trkpt lat="42.96319" lon="-0.33337">
        <ele>1305.9095384091</ele>
        <time>2021-06-21T10:00:40.220Z</time>
      </trkpt>
      <trkpt lat="42.96283" lon="-0.33302">
        <ele>1309.0604232735</ele>
        <time>2021-06-21T10:00:42.208Z</time>
      </trkpt>
      <trkpt lat="42.9624" lon="-0.33265">
        <ele>1312.3933098477</ele>
        <time>2021-06-21T10:00:44.204Z</time>
      </trkpt>
      <trkpt lat="42.96229" lon="-0.33263">
        <ele>1315.4358252402</ele>
        <time>2021-06-21T10:00:46.202Z</time>
      </trkpt>
      <trkpt lat="42.96172" lon="-0.33259">
        <ele>1318.5331563591</ele>
        <time>2021-06-21T10:00:48.209Z</time>
      </trkpt>
      <trkpt lat="42.96161" lon="-0.33262">
        <ele>1321.4289344367</ele>
        <time>2021-06-21T10:00:50.218Z</time>
      </trkpt>
      <trkpt lat="42.96149" lon="-0.33268">
        <ele>1324.177344705</ele>
        <time>2021-06-21T10:00:52.229Z</time>
      </trkpt>
      <trkpt lat="42.96117" lon="-0.33306">
        <ele>1326.4912355768</ele>
        <time>2021-06-21T10:00:54.247Z</time>
      </trkpt>
      <trkpt lat="42.96108" lon="-0.3331">
        <ele>1329.0239060678</ele>
        <time>2021-06-21T10:00:56.266Z</time>
      </trkpt>
      <trkpt lat="42.96096" lon="-0.33306">
        <ele>1331.683623653</ele>
        <time>2021-06-21T10:00:58.287Z</time>
      </trkpt>
      <trkpt lat="42.96073" lon="-0.33281">
        <ele>1334.6592938933</ele>
        <time>2021-06-21T10:01:00.313Z</time>
      </trkpt>
      <trkpt lat="42.96063" lon="-0.33278">
        <ele>1337.0535307145</ele>
        <time>2021-06-21T10:01:02.341Z</time>
      </trkpt>
      <trkpt lat="42.96054" lon="-0.33278">
        <ele>1339.2896281767</ele>
        <time>2021-06-21T10:01:04.370Z</time>
      </trkpt>
      <trkpt lat="42.96054" lon="-0.33278">
        <ele>1341.333106593</ele>
        <time>2021-06-21T10:01:06.399Z</time>
      </trkpt>
      <trkpt lat="42.96046" lon="-0.33278">
        <ele>1343.3470744454</ele>
        <time>2021-06-21T10:01:08.429Z</time>
      </trkpt>
      <trkpt lat="42.96031" lon="-0.33284">
        <ele>1345.2311018991</ele>
        <time>2021-06-21T10:01:10.462Z</time>
      </trkpt>
      <trkpt lat="42.96026" lon="-0.33289">
        <ele>1346.9236980771</ele>
        <time>2021-06-21T10:01:12.496Z</time>
      </trkpt>
      <trkpt lat="42.96012" lon="-0.33298">
        <ele>1348.5540545258</ele>
        <time>2021-06-21T10:01:14.532Z</time>
      </trkpt>
      <trkpt lat="42.96" lon="-0.33302">
        <ele>1350.1298433569</ele>
        <time>2021-06-21T10:01:16.570Z</time>
      </trkpt>
      <trkpt lat="42.95987" lon="-0.33304">
        <ele>1351.5670782343</ele>
        <time>2021-06-21T10:01:18.610Z</time>
      </trkpt>
      <trkpt lat="42.95977" lon="-0.33306">
        <ele>1352.8816141808</ele>
        <time>2021-06-21T10:01:20.652Z</time>
      </trkpt>
      <trkpt lat="42.95972" lon="-0.33304">
        <ele>1354.0685217242</ele>
        <time>2021-06-21T10:01:22.695Z</time>
      </trkpt>
      <trkpt lat="42.95968" lon="-0.33303">
        <ele>1355.1512971762</ele>
        <time>2021-06-21T10:01:24.738Z</time>
      </trkpt>
      <trkpt lat="42.95917" lon="-0.33294">
        <ele>1356.3019569609</ele>
        <time>2021-06-21T10:01:26.790Z</time>
      </trkpt>
      <trkpt lat="42.95905" lon="-0.33295">
        <ele>1357.1890730115</ele>
        <time>2021-06-21T10:01:28.844Z</time>
      </trkpt>
      <trkpt lat="42.9588" lon="-0.333">
        <ele>1357.996264966</ele>
        <time>2021-06-21T10:01:30.902Z</time>
      </trkpt>
      <trkpt lat="42.95846" lon="-0.33298">
        <ele>1358.7380979577</ele>
        <time>2021-06-21T10:01:32.965Z</time>
      </trkpt>
      <trkpt lat="42.95829" lon="-0.33289">
        <ele>1359.3873434027</ele>
        <time>2021-06-21T10:01:35.031Z</time>
      </trkpt>
      <trkpt lat="42.95822" lon="-0.3328">
        <ele>1359.9607902209</ele>
        <time>2021-06-21T10:01:37.099Z</time>
      </trkpt>
      <trkpt lat="42.95822" lon="-0.3328">
        <ele>1360.4631956645</ele>
        <time>2021-06-21T10:01:39.167Z</time>
      </trkpt>
      <trkpt lat="42.9581" lon="-0.33267">
        <ele>1360.9205646882</ele>
        <time>2021-06-21T10:01:41.237Z</time>
      </trkpt>
      <trkpt lat="42.95807" lon="-0.3326">
        <ele>1361.3219975968</ele>
        <time>2021-06-21T10:01:43.308Z</time>
      </trkpt>
      <trkpt lat="42.95807" lon="-0.33255">
        <ele>1361.6797386928</ele>
        <time>2021-06-21T10:01:45.380Z</time>
      </trkpt>
      <trkpt lat="42.95809" lon="-0.33245">
        <ele>1362.0047532713</ele>
        <time>2021-06-21T10:01:47.453Z</time>
      </trkpt>
      <trkpt lat="42.95813" lon="-0.33238">
        <ele>1362.303584366</ele>
        <time>2021-06-21T10:01:49.527Z</time>
      </trkpt>
      <trkpt lat="42.95817" lon="-0.33235">
        <ele>1362.5775308917</ele>
        <time>2021-06-21T10:01:51.602Z</time>
      </trkpt>
      <trkpt lat="42.95827" lon="-0.33234">
        <ele>1362.8351766198</ele>
        <time>2021-06-21T10:01:53.678Z</time>
      </trkpt>
      <trkpt lat="42.9584" lon="-0.33237">
        <ele>1363.088029603</ele>
        <time>2021-06-21T10:01:55.756Z</time>
      </trkpt>
      <trkpt lat="42.9584" lon="-0.33237">
        <ele>1363.3517900239</ele>
        <time>2021-06-21T10:01:57.834Z</time>
      </trkpt>
      <trkpt lat="42.95847" lon="-0.33242">
        <ele>1363.6409337422</ele>
        <time>2021-06-21T10:01:59.914Z</time>
      </trkpt>
      <trkpt lat="42.95865" lon="-0.33265">
        <ele>1363.9697196097</ele>
        <time>2021-06-21T10:02:01.997Z</time>
      </trkpt>
      <trkpt lat="42.95872" lon="-0.33268">
        <ele>1364.2981074387</ele>
        <time>2021-06-21T10:02:04.082Z</time>
      </trkpt>
      <trkpt lat="42.95881" lon="-0.3327">
        <ele>1364.6282033696</ele>
        <time>2021-06-21T10:02:06.168Z</time>
      </trkpt>
      <trkpt lat="42.95911" lon="-0.3326">
        <ele>1365.0235190216</ele>
        <time>2021-06-21T10:02:08.259Z</time>
      </trkpt>
      <trkpt lat="42.9592" lon="-0.33259">
        <ele>1365.4442780749</ele>
        <time>2021-06-21T10:02:10.352Z</time>
      </trkpt>
      <trkpt lat="42.95939" lon="-0.33264">
        <ele>1365.895500359</ele>
        <time>2021-06-21T10:02:12.448Z</time>
      </trkpt>
      <trkpt lat="42.95951" lon="-0.33262">
        <ele>1366.4286929328</ele>
        <time>2021-06-21T10:02:14.546Z</time>
      </trkpt>
      <trkpt lat="42.95964" lon="-0.33256">
        <ele>1367.0312056163</ele>
        <time>2021-06-21T10:02:16.646Z</time>
      </trkpt>
      <trkpt lat="42.95973" lon="-0.3325">
        <ele>1367.692893541</ele>
        <time>2021-06-21T10:02:18.747Z</time>
      </trkpt>
      <trkpt lat="42.95973" lon="-0.3325">
        <ele>1368.3954202141</ele>
        <time>2021-06-21T10:02:20.848Z</time>
      </trkpt>
      <trkpt lat="42.9598" lon="-0.3324">
        <ele>1369.2069995894</ele>
        <time>2021-06-21T10:02:22.951Z</time>
      </trkpt>
      <trkpt lat="42.95986" lon="-0.33219">
        <ele>1370.1281069447</ele>
        <time>2021-06-21T10:02:25.057Z</time>
      </trkpt>
      <trkpt lat="42.9599" lon="-0.33195">
        <ele>1371.1416379363</ele>
        <time>2021-06-21T10:02:27.166Z</time>
      </trkpt>
      <trkpt lat="42.95994" lon="-0.33185">
        <ele>1372.1560606318</ele>
        <time>2021-06-21T10:02:29.276Z</time>
      </trkpt>
      <trkpt lat="42.96035" lon="-0.33137">
        <ele>1373.379306025</ele>
        <time>2021-06-21T10:02:31.395Z</time>
      </trkpt>
      <trkpt lat="42.96044" lon="-0.33127">
        <ele>1374.5272084198</ele>
        <time>2021-06-21T10:02:33.515Z</time>
      </trkpt>
      <trkpt lat="42.96062" lon="-0.33122">
        <ele>1375.7133904993</ele>
        <time>2021-06-21T10:02:35.638Z</time>
      </trkpt>
      <trkpt lat="42.96087" lon="-0.33117">
        <ele>1376.9489016872</ele>
        <time>2021-06-21T10:02:37.765Z</time>
      </trkpt>
      <trkpt lat="42.96104" lon="-0.33107">
        <ele>1378.3467237522</ele>
        <time>2021-06-21T10:02:39.895Z</time>
      </trkpt>
      <trkpt lat="42.96104" lon="-0.33107">
        <ele>1379.6818562036</ele>
        <time>2021-06-21T10:02:42.025Z</time>
      </trkpt>
      <trkpt lat="42.96112" lon="-0.33105">
        <ele>1381.1071496005</ele>
        <time>2021-06-21T10:02:44.157Z</time>
      </trkpt>
      <trkpt lat="42.96121" lon="-0.33109">
        <ele>1382.4908783143</ele>
        <time>2021-06-21T10:02:46.290Z</time>
      </trkpt>
      <trkpt lat="42.96132" lon="-0.33109">
        <ele>1383.9702586401</ele>
        <time>2021-06-21T10:02:48.425Z</time>
      </trkpt>
      <trkpt lat="42.96151" lon="-0.33104">
        <ele>1385.5603061828</ele>
        <time>2021-06-21T10:02:50.563Z</time>
      </trkpt>
      <trkpt lat="42.96184" lon="-0.33088">
        <ele>1387.3251275371</ele>
        <time>2021-06-21T10:02:52.707Z</time>
      </trkpt>
      <trkpt lat="42.96221" lon="-0.33063">
        <ele>1389.2398372092</ele>
        <time>2021-06-21T10:02:54.857Z</time>
      </trkpt>
      <trkpt lat="42.96251" lon="-0.33047">
        <ele>1391.07296804</ele>
        <time>2021-06-21T10:02:57.012Z</time>
      </trkpt>
      <trkpt lat="42.96274" lon="-0.33037">
        <ele>1393.0345104164</ele>
        <time>2021-06-21T10:02:59.171Z</time>
      </trkpt>
      <trkpt lat="42.96294" lon="-0.33039">
        <ele>1394.9102643066</ele>
        <time>2021-06-21T10:03:01.333Z</time>
      </trkpt>
      <trkpt lat="42.9631" lon="-0.33047">
        <ele>1396.6982789798</ele>
        <time>2021-06-21T10:03:03.498Z</time>
      </trkpt>
      <trkpt lat="42.96327" lon="-0.33063">
        <ele>1398.4268681555</ele>
        <time>2021-06-21T10:03:05.666Z</time>
      </trkpt>
      <trkpt lat="42.96337" lon="-0.33089">
        <ele>1399.9745991759</ele>
        <time>2021-06-21T10:03:07.838Z</time>
      </trkpt>
      <trkpt lat="42.96348" lon="-0.33116">
        <ele>1401.572899113</ele>
        <time>2021-06-21T10:03:10.013Z</time>
      </trkpt>
      <trkpt lat="42.96358" lon="-0.33123">
        <ele>1403.3046520403</ele>
        <time>2021-06-21T10:03:12.190Z</time>
      </trkpt>
      <trkpt lat="42.96369" lon="-0.33124">
        <ele>1405.1097039475</ele>
        <time>2021-06-21T10:03:14.369Z</time>
      </trkpt>
      <trkpt lat="42.96382" lon="-0.33127">
        <ele>1406.9006842526</ele>
        <time>2021-06-21T10:03:16.550Z</time>
      </trkpt>
      <trkpt lat="42.96413" lon="-0.33145">
        <ele>1408.6289623233</ele>
        <time>2021-06-21T10:03:18.736Z</time>
      </trkpt>
      <trkpt lat="42.96438" lon="-0.33154">
        <ele>1410.6574601711</ele>
        <time>2021-06-21T10:03:20.927Z</time>
      </trkpt>
      <trkpt lat="42.96446" lon="-0.33166">
        <ele>1412.3784253108</ele>
        <time>2021-06-21T10:03:23.119Z</time>
      </trkpt>
      <trkpt lat="42.9645" lon="-0.33176">
        <ele>1414.0407049983</ele>
        <time>2021-06-21T10:03:25.313Z</time>
      </trkpt>
      <trkpt lat="42.96458" lon="-0.33184">
        <ele>1415.7684432905</ele>
        <time>2021-06-21T10:03:27.508Z</time>
      </trkpt>
      <trkpt lat="42.96477" lon="-0.33199">
        <ele>1417.6291740535</ele>
        <time>2021-06-21T10:03:29.707Z</time>
      </trkpt>
      <trkpt lat="42.96485" lon="-0.33218">
        <ele>1419.2571076586</ele>
        <time>2021-06-21T10:03:31.908Z</time>
      </trkpt>
      <trkpt lat="42.96493" lon="-0.33227">
        <ele>1421.041839294</ele>
        <time>2021-06-21T10:03:34.111Z</time>
      </trkpt>
      <trkpt lat="42.96498" lon="-0.33238">
        <ele>1422.7648078628</ele>
        <time>2021-06-21T10:03:36.316Z</time>
      </trkpt>
      <trkpt lat="42.96498" lon="-0.33255">
        <ele>1424.381029387</ele>
        <time>2021-06-21T10:03:38.523Z</time>
      </trkpt>
      <trkpt lat="42.965" lon="-0.33269">
        <ele>1426.0500453752</ele>
        <time>2021-06-21T10:03:40.731Z</time>
      </trkpt>
      <trkpt lat="42.96507" lon="-0.33294">
        <ele>1427.7938303496</ele>
        <time>2021-06-21T10:03:42.942Z</time>
      </trkpt>
      <trkpt lat="42.96507" lon="-0.33318">
        <ele>1429.3557562233</ele>
        <time>2021-06-21T10:03:45.156Z</time>
      </trkpt>
      <trkpt lat="42.9651" lon="-0.33337">
        <ele>1431.0306718205</ele>
        <time>2021-06-21T10:03:47.373Z</time>
      </trkpt>
      <trkpt lat="42.96527" lon="-0.33394">
        <ele>1432.6616557438</ele>
        <time>2021-06-21T10:03:49.597Z</time>
      </trkpt>
      <trkpt lat="42.9653" lon="-0.33414">
        <ele>1434.1392866822</ele>
        <time>2021-06-21T10:03:51.823Z</time>
      </trkpt>
      <trkpt lat="42.96537" lon="-0.33431">
        <ele>1435.7622558644</ele>
        <time>2021-06-21T10:03:54.052Z</time>
      </trkpt>
      <trkpt lat="42.96558" lon="-0.33451">
        <ele>1437.7015631851</ele>
        <time>2021-06-21T10:03:56.285Z</time>
      </trkpt>
      <trkpt lat="42.96563" lon="-0.33453">
        <ele>1439.5470533312</ele>
        <time>2021-06-21T10:03:58.518Z</time>
      </trkpt>
      <trkpt lat="42.96595" lon="-0.33441">
        <ele>1442.1451479269</ele>
        <time>2021-06-21T10:04:00.757Z</time>
      </trkpt>
      <trkpt lat="42.96617" lon="-0.3344">
        <ele>1444.2929065904</ele>
        <time>2021-06-21T10:04:02.999Z</time>
      </trkpt>
      <trkpt lat="42.96627" lon="-0.33447">
        <ele>1446.0894775302</ele>
        <time>2021-06-21T10:04:05.243Z</time>
      </trkpt>
      <trkpt lat="42.96631" lon="-0.33453">
        <ele>1447.803047255</ele>
        <time>2021-06-21T10:04:07.488Z</time>
      </trkpt>
      <trkpt lat="42.96638" lon="-0.33481">
        <ele>1449.3602678755</ele>
        <time>2021-06-21T10:04:09.737Z</time>
      </trkpt>
      <trkpt lat="42.96639" lon="-0.33505">
        <ele>1450.9511276764</ele>
        <time>2021-06-21T10:04:11.988Z</time>
      </trkpt>
      <trkpt lat="42.96646" lon="-0.33524">
        <ele>1452.6707291811</ele>
        <time>2021-06-21T10:04:14.242Z</time>
      </trkpt>
      <trkpt lat="42.96654" lon="-0.33535">
        <ele>1454.4784144673</ele>
        <time>2021-06-21T10:04:16.498Z</time>
      </trkpt>
      <trkpt lat="42.96672" lon="-0.33549">
        <ele>1456.4087231968</ele>
        <time>2021-06-21T10:04:18.757Z</time>
      </trkpt>
      <trkpt lat="42.96693" lon="-0.33558">
        <ele>1458.2447714976</ele>
        <time>2021-06-21T10:04:21.019Z</time>
      </trkpt>
      <trkpt lat="42.96714" lon="-0.33558">
        <ele>1460.18182744</ele>
        <time>2021-06-21T10:04:23.285Z</time>
      </trkpt>
      <trkpt lat="42.96735" lon="-0.33562">
        <ele>1462.0510567847</ele>
        <time>2021-06-21T10:04:25.554Z</time>
      </trkpt>
      <trkpt lat="42.9676" lon="-0.33587">
        <ele>1463.6975909718</ele>
        <time>2021-06-21T10:04:27.828Z</time>
      </trkpt>
      <trkpt lat="42.96771" lon="-0.33591">
        <ele>1465.4614070107</ele>
        <time>2021-06-21T10:04:30.104Z</time>
      </trkpt>
      <trkpt lat="42.96785" lon="-0.33593">
        <ele>1467.2778166074</ele>
        <time>2021-06-21T10:04:32.382Z</time>
      </trkpt>
      <trkpt lat="42.9679" lon="-0.33597">
        <ele>1468.9793660984</ele>
        <time>2021-06-21T10:04:34.661Z</time>
      </trkpt>
      <trkpt lat="42.96795" lon="-0.33603">
        <ele>1470.6517982184</ele>
        <time>2021-06-21T10:04:36.941Z</time>
      </trkpt>
      <trkpt lat="42.96804" lon="-0.33627">
        <ele>1472.1252079978</ele>
        <time>2021-06-21T10:04:39.224Z</time>
      </trkpt>
      <trkpt lat="42.96829" lon="-0.33652">
        <ele>1473.8437947275</ele>
        <time>2021-06-21T10:04:41.512Z</time>
      </trkpt>
      <trkpt lat="42.9684" lon="-0.33657">
        <ele>1475.6746570401</ele>
        <time>2021-06-21T10:04:43.802Z</time>
      </trkpt>
      <trkpt lat="42.96858" lon="-0.33657">
        <ele>1477.7110431296</ele>
        <time>2021-06-21T10:04:46.095Z</time>
      </trkpt>
      <trkpt lat="42.9688" lon="-0.33665">
        <ele>1479.7749024</ele>
        <time>2021-06-21T10:04:48.392Z</time>
      </trkpt>
      <trkpt lat="42.96886" lon="-0.3367">
        <ele>1481.5481367419</ele>
        <time>2021-06-21T10:04:50.690Z</time>
      </trkpt>
      <trkpt lat="42.96889" lon="-0.33679">
        <ele>1483.2571353214</ele>
        <time>2021-06-21T10:04:52.989Z</time>
      </trkpt>
      <trkpt lat="42.96889" lon="-0.33689">
        <ele>1484.8824501773</ele>
        <time>2021-06-21T10:04:55.289Z</time>
      </trkpt>
      <trkpt lat="42.96881" lon="-0.33715">
        <ele>1486.27711288</ele>
        <time>2021-06-21T10:04:57.593Z</time>
      </trkpt>
      <trkpt lat="42.96882" lon="-0.33726">
        <ele>1487.9483272368</ele>
        <time>2021-06-21T10:04:59.898Z</time>
      </trkpt>
      <trkpt lat="42.9689" lon="-0.33742">
        <ele>1489.7851201676</ele>
        <time>2021-06-21T10:05:02.205Z</time>
      </trkpt>
      <trkpt lat="42.96892" lon="-0.33753">
        <ele>1491.475769455</ele>
        <time>2021-06-21T10:05:04.513Z</time>
      </trkpt>
      <trkpt lat="42.96883" lon="-0.33793">
        <ele>1492.9952817129</ele>
        <time>2021-06-21T10:05:06.826Z</time>
      </trkpt>
      <trkpt lat="42.96883" lon="-0.33803">
        <ele>1494.5915759055</ele>
        <time>2021-06-21T10:05:09.141Z</time>
      </trkpt>
      <trkpt lat="42.96887" lon="-0.33832">
        <ele>1496.2035404621</ele>
        <time>2021-06-21T10:05:11.459Z</time>
      </trkpt>
      <trkpt lat="42.96898" lon="-0.33884">
        <ele>1497.971342989</ele>
        <time>2021-06-21T10:05:13.783Z</time>
      </trkpt>
      <trkpt lat="42.96901" lon="-0.33929">
        <ele>1499.4349751268</ele>
        <time>2021-06-21T10:05:16.113Z</time>
      </trkpt>
      <trkpt lat="42.96926" lon="-0.34024">
        <ele>1501.466845932</ele>
        <time>2021-06-21T10:05:18.455Z</time>
      </trkpt>
      <trkpt lat="42.96932" lon="-0.34042">
        <ele>1503.2035996208</ele>
        <time>2021-06-21T10:05:20.799Z</time>
      </trkpt>
      <trkpt lat="42.96941" lon="-0.34054">
        <ele>1504.9645312894</ele>
        <time>2021-06-21T10:05:23.145Z</time>
      </trkpt>
      <trkpt lat="42.96944" lon="-0.34068">
        <ele>1506.5925748678</ele>
        <time>2021-06-21T10:05:25.493Z</time>
      </trkpt>
      <trkpt lat="42.96942" lon="-0.34081">
        <ele>1508.0699669684</ele>
        <time>2021-06-21T10:05:27.842Z</time>
      </trkpt>
      <trkpt lat="42.96928" lon="-0.34118">
        <ele>1509.2290512939</ele>
        <time>2021-06-21T10:05:30.196Z</time>
      </trkpt>
      <trkpt lat="42.96928" lon="-0.34118">
        <ele>1510.7525497287</ele>
        <time>2021-06-21T10:05:32.550Z</time>
      </trkpt>
      <trkpt lat="42.96926" lon="-0.34127">
        <ele>1512.2178353531</ele>
        <time>2021-06-21T10:05:34.905Z</time>
      </trkpt>
      <trkpt lat="42.96926" lon="-0.34135">
        <ele>1513.7129074567</ele>
        <time>2021-06-21T10:05:37.261Z</time>
      </trkpt>
      <trkpt lat="42.9693" lon="-0.3415">
        <ele>1515.2527366825</ele>
        <time>2021-06-21T10:05:39.619Z</time>
      </trkpt>
      <trkpt lat="42.9696" lon="-0.34208">
        <ele>1517.2584591101</ele>
        <time>2021-06-21T10:05:41.985Z</time>
      </trkpt>
      <trkpt lat="42.96988" lon="-0.34279">
        <ele>1519.3400120678</ele>
        <time>2021-06-21T10:05:44.361Z</time>
      </trkpt>
      <trkpt lat="42.96989" lon="-0.34292">
        <ele>1520.8441939361</ele>
        <time>2021-06-21T10:05:46.738Z</time>
      </trkpt>
      <trkpt lat="42.96984" lon="-0.3433">
        <ele>1522.0935016369</ele>
        <time>2021-06-21T10:05:49.120Z</time>
      </trkpt>
      <trkpt lat="42.96983" lon="-0.34359">
        <ele>1523.3134968484</ele>
        <time>2021-06-21T10:05:51.505Z</time>
      </trkpt>
      <trkpt lat="42.96987" lon="-0.34373">
        <ele>1524.7866776059</ele>
        <time>2021-06-21T10:05:53.892Z</time>
      </trkpt>
      <trkpt lat="42.96994" lon="-0.34382">
        <ele>1526.3821881553</ele>
        <time>2021-06-21T10:05:56.281Z</time>
      </trkpt>
      <trkpt lat="42.97018" lon="-0.34401">
        <ele>1528.2790918409</ele>
        <time>2021-06-21T10:05:58.674Z</time>
      </trkpt>
      <trkpt lat="42.97029" lon="-0.34415">
        <ele>1529.9945020466</ele>
        <time>2021-06-21T10:06:01.069Z</time>
      </trkpt>
      <trkpt lat="42.97048" lon="-0.34456">
        <ele>1531.6499461108</ele>
        <time>2021-06-21T10:06:03.470Z</time>
      </trkpt>
      <trkpt lat="42.97065" lon="-0.34489">
        <ele>1533.3500400062</ele>
        <time>2021-06-21T10:06:05.876Z</time>
      </trkpt>
      <trkpt lat="42.9708" lon="-0.34525">
        <ele>1535.0549463972</ele>
        <time>2021-06-21T10:06:08.287Z</time>
      </trkpt>
      <trkpt lat="42.97086" lon="-0.34534">
        <ele>1536.6995782844</ele>
        <time>2021-06-21T10:06:10.699Z</time>
      </trkpt>
      <trkpt lat="42.97099" lon="-0.34547">
        <ele>1538.4569733461</ele>
        <time>2021-06-21T10:06:13.114Z</time>
      </trkpt>
      <trkpt lat="42.97141" lon="-0.34575">
        <ele>1540.3213115449</ele>
        <time>2021-06-21T10:06:15.536Z</time>
      </trkpt>
      <trkpt lat="42.97146" lon="-0.34583">
        <ele>1541.8676805531</ele>
        <time>2021-06-21T10:06:17.959Z</time>
      </trkpt>
      <trkpt lat="42.97156" lon="-0.34625">
        <ele>1543.2150663889</ele>
        <time>2021-06-21T10:06:20.388Z</time>
      </trkpt>
      <trkpt lat="42.97157" lon="-0.34649">
        <ele>1544.6713060098</ele>
        <time>2021-06-21T10:06:22.819Z</time>
      </trkpt>
      <trkpt lat="42.9716" lon="-0.34665">
        <ele>1546.2247898547</ele>
        <time>2021-06-21T10:06:25.252Z</time>
      </trkpt>
      <trkpt lat="42.97164" lon="-0.34675">
        <ele>1547.8517729924</ele>
        <time>2021-06-21T10:06:27.687Z</time>
      </trkpt>
      <trkpt lat="42.97171" lon="-0.34678">
        <ele>1549.5733380029</ele>
        <time>2021-06-21T10:06:30.123Z</time>
      </trkpt>
      <trkpt lat="42.97171" lon="-0.34678">
        <ele>1551.1770542505</ele>
        <time>2021-06-21T10:06:32.559Z</time>
      </trkpt>
      <trkpt lat="42.97177" lon="-0.34677">
        <ele>1552.8638539503</ele>
        <time>2021-06-21T10:06:34.996Z</time>
      </trkpt>
      <trkpt lat="42.97182" lon="-0.34668">
        <ele>1554.5465069944</ele>
        <time>2021-06-21T10:06:37.434Z</time>
      </trkpt>
      <trkpt lat="42.97184" lon="-0.34646">
        <ele>1556.2817821757</ele>
        <time>2021-06-21T10:06:39.875Z</time>
      </trkpt>
      <trkpt lat="42.97185" lon="-0.346">
        <ele>1558.2779183229</ele>
        <time>2021-06-21T10:06:42.321Z</time>
      </trkpt>
      <trkpt lat="42.9719" lon="-0.34588">
        <ele>1560.0715183569</ele>
        <time>2021-06-21T10:06:44.769Z</time>
      </trkpt>
      <trkpt lat="42.97197" lon="-0.34579">
        <ele>1561.8398844731</ele>
        <time>2021-06-21T10:06:47.218Z</time>
      </trkpt>
      <trkpt lat="42.97207" lon="-0.34576">
        <ele>1563.5687656723</ele>
        <time>2021-06-21T10:06:49.669Z</time>
      </trkpt>
      <trkpt lat="42.97244" lon="-0.34577">
        <ele>1565.3729027221</ele>
        <time>2021-06-21T10:06:52.126Z</time>
      </trkpt>
      <trkpt lat="42.97251" lon="-0.3458">
        <ele>1567.0561944463</ele>
        <time>2021-06-21T10:06:54.584Z</time>
      </trkpt>
      <trkpt lat="42.97257" lon="-0.3459">
        <ele>1568.6934245341</ele>
        <time>2021-06-21T10:06:57.044Z</time>
      </trkpt>
      <trkpt lat="42.97261" lon="-0.34603">
        <ele>1570.3176628064</ele>
        <time>2021-06-21T10:06:59.505Z</time>
      </trkpt>
      <trkpt lat="42.97265" lon="-0.34619">
        <ele>1571.9217814307</ele>
        <time>2021-06-21T10:07:01.968Z</time>
      </trkpt>
      <trkpt lat="42.9727" lon="-0.34634">
        <ele>1573.5800634806</ele>
        <time>2021-06-21T10:07:04.433Z</time>
      </trkpt>
      <trkpt lat="42.97279" lon="-0.34641">
        <ele>1575.3445515614</ele>
        <time>2021-06-21T10:07:06.900Z</time>
      </trkpt>
      <trkpt lat="42.97296" lon="-0.34647">
        <ele>1577.2249176915</ele>
        <time>2021-06-21T10:07:09.370Z</time>
      </trkpt>
      <trkpt lat="42.97332" lon="-0.34651">
        <ele>1579.2531946299</ele>
        <time>2021-06-21T10:07:11.845Z</time>
      </trkpt>
      <trkpt lat="42.97345" lon="-0.34651">
        <ele>1581.0963804455</ele>
        <time>2021-06-21T10:07:14.323Z</time>
      </trkpt>
      <trkpt lat="42.97353" lon="-0.34648">
        <ele>1582.9631279162</ele>
        <time>2021-06-21T10:07:16.802Z</time>
      </trkpt>
      <trkpt lat="42.97362" lon="-0.34638">
        <ele>1584.9340098832</ele>
        <time>2021-06-21T10:07:19.283Z</time>
      </trkpt>
      <trkpt lat="42.97368" lon="-0.34625">
        <ele>1586.9314484644</ele>
        <time>2021-06-21T10:07:21.765Z</time>
      </trkpt>
      <trkpt lat="42.97368" lon="-0.34611">
        <ele>1588.9068540299</ele>
        <time>2021-06-21T10:07:24.249Z</time>
      </trkpt>
      <trkpt lat="42.97362" lon="-0.34564">
        <ele>1591.1597491531</ele>
        <time>2021-06-21T10:07:26.739Z</time>
      </trkpt>
      <trkpt lat="42.97367" lon="-0.34548">
        <ele>1593.1761069174</ele>
        <time>2021-06-21T10:07:29.231Z</time>
      </trkpt>
      <trkpt lat="42.97373" lon="-0.34537">
        <ele>1595.1288959243</ele>
        <time>2021-06-21T10:07:31.724Z</time>
      </trkpt>
      <trkpt lat="42.97397" lon="-0.34528">
        <ele>1597.0657537761</ele>
        <time>2021-06-21T10:07:34.221Z</time>
      </trkpt>
      <trkpt lat="42.9741" lon="-0.34517">
        <ele>1599.0235528439</ele>
        <time>2021-06-21T10:07:36.721Z</time>
      </trkpt>
      <trkpt lat="42.97417" lon="-0.34503">
        <ele>1601.0076001792</ele>
        <time>2021-06-21T10:07:39.223Z</time>
      </trkpt>
      <trkpt lat="42.97425" lon="-0.34472">
        <ele>1603.0821373065</ele>
        <time>2021-06-21T10:07:41.729Z</time>
      </trkpt>
      <trkpt lat="42.97436" lon="-0.3445">
        <ele>1605.1342157499</ele>
        <time>2021-06-21T10:07:44.238Z</time>
      </trkpt>
      <trkpt lat="42.97447" lon="-0.34444">
        <ele>1607.1212716058</ele>
        <time>2021-06-21T10:07:46.749Z</time>
      </trkpt>
      <trkpt lat="42.97464" lon="-0.34444">
        <ele>1609.12791339</ele>
        <time>2021-06-21T10:07:49.262Z</time>
      </trkpt>
      <trkpt lat="42.97477" lon="-0.34449">
        <ele>1611.1085609259</ele>
        <time>2021-06-21T10:07:51.778Z</time>
      </trkpt>
      <trkpt lat="42.97513" lon="-0.34477">
        <ele>1613.1310807803</ele>
        <time>2021-06-21T10:07:54.300Z</time>
      </trkpt>
      <trkpt lat="42.97538" lon="-0.3452">
        <ele>1615.0882458436</ele>
        <time>2021-06-21T10:07:56.829Z</time>
      </trkpt>
      <trkpt lat="42.9755" lon="-0.3453">
        <ele>1617.02501475</ele>
        <time>2021-06-21T10:07:59.360Z</time>
      </trkpt>
      <trkpt lat="42.97561" lon="-0.34533">
        <ele>1619.0044466235</ele>
        <time>2021-06-21T10:08:01.893Z</time>
      </trkpt>
      <trkpt lat="42.97574" lon="-0.34529">
        <ele>1621.0445135879</ele>
        <time>2021-06-21T10:08:04.428Z</time>
      </trkpt>
      <trkpt lat="42.97588" lon="-0.34519">
        <ele>1623.1301688263</ele>
        <time>2021-06-21T10:08:06.965Z</time>
      </trkpt>
      <trkpt lat="42.97598" lon="-0.34499">
        <ele>1625.293016529</ele>
        <time>2021-06-21T10:08:09.505Z</time>
      </trkpt>
      <trkpt lat="42.97609" lon="-0.34486">
        <ele>1627.4296502139</ele>
        <time>2021-06-21T10:08:12.047Z</time>
      </trkpt>
      <trkpt lat="42.97617" lon="-0.34484">
        <ele>1629.4988632419</ele>
        <time>2021-06-21T10:08:14.591Z</time>
      </trkpt>
      <trkpt lat="42.97626" lon="-0.34488">
        <ele>1631.5538540046</ele>
        <time>2021-06-21T10:08:17.136Z</time>
      </trkpt>
      <trkpt lat="42.97636" lon="-0.34501">
        <ele>1633.5725661565</ele>
        <time>2021-06-21T10:08:19.683Z</time>
      </trkpt>
      <trkpt lat="42.97646" lon="-0.34513">
        <ele>1635.5516862214</ele>
        <time>2021-06-21T10:08:22.232Z</time>
      </trkpt>
      <trkpt lat="42.97661" lon="-0.34524">
        <ele>1637.5518335792</ele>
        <time>2021-06-21T10:08:24.784Z</time>
      </trkpt>
      <trkpt lat="42.97682" lon="-0.34533">
        <ele>1639.5985463216</ele>
        <time>2021-06-21T10:08:27.340Z</time>
      </trkpt>
      <trkpt lat="42.97695" lon="-0.34534">
        <ele>1641.695290042</ele>
        <time>2021-06-21T10:08:29.898Z</time>
      </trkpt>
      <trkpt lat="42.97715" lon="-0.34523">
        <ele>1643.9139593669</ele>
        <time>2021-06-21T10:08:32.459Z</time>
      </trkpt>
      <trkpt lat="42.97727" lon="-0.34509">
        <ele>1646.2015713739</ele>
        <time>2021-06-21T10:08:35.023Z</time>
      </trkpt>
      <trkpt lat="42.97749" lon="-0.34463">
        <ele>1648.818714473</ele>
        <time>2021-06-21T10:08:37.593Z</time>
      </trkpt>
      <trkpt lat="42.97778" lon="-0.3442">
        <ele>1651.1752060824</ele>
        <time>2021-06-21T10:08:40.170Z</time>
      </trkpt>
      <trkpt lat="42.97808" lon="-0.34355">
        <ele>1653.6390514493</ele>
        <time>2021-06-21T10:08:42.756Z</time>
      </trkpt>
      <trkpt lat="42.97816" lon="-0.34316">
        <ele>1656.0778016754</ele>
        <time>2021-06-21T10:08:45.347Z</time>
      </trkpt>
      <trkpt lat="42.97824" lon="-0.34307">
        <ele>1658.2796947808</ele>
        <time>2021-06-21T10:08:47.940Z</time>
      </trkpt>
      <trkpt lat="42.97838" lon="-0.343">
        <ele>1660.4034179839</ele>
        <time>2021-06-21T10:08:50.535Z</time>
      </trkpt>
      <trkpt lat="42.97853" lon="-0.343">
        <ele>1662.5433055618</ele>
        <time>2021-06-21T10:08:53.132Z</time>
      </trkpt>
      <trkpt lat="42.97874" lon="-0.3431">
        <ele>1664.6182841837</ele>
        <time>2021-06-21T10:08:55.733Z</time>
      </trkpt>
      <trkpt lat="42.97889" lon="-0.3431">
        <ele>1666.768140878</ele>
        <time>2021-06-21T10:08:58.336Z</time>
      </trkpt>
      <trkpt lat="42.97898" lon="-0.343">
        <ele>1668.9901455024</ele>
        <time>2021-06-21T10:09:00.941Z</time>
      </trkpt>
      <trkpt lat="42.97898" lon="-0.34288">
        <ele>1671.2415104218</ele>
        <time>2021-06-21T10:09:03.548Z</time>
      </trkpt>
      <trkpt lat="42.97894" lon="-0.3428">
        <ele>1673.4433863131</ele>
        <time>2021-06-21T10:09:06.156Z</time>
      </trkpt>
      <trkpt lat="42.97887" lon="-0.34273">
        <ele>1675.5966057747</ele>
        <time>2021-06-21T10:09:08.765Z</time>
      </trkpt>
      <trkpt lat="42.97849" lon="-0.34279">
        <ele>1677.618116714</ele>
        <time>2021-06-21T10:09:11.380Z</time>
      </trkpt>
      <trkpt lat="42.97819" lon="-0.34274">
        <ele>1679.8739413302</ele>
        <time>2021-06-21T10:09:14.000Z</time>
      </trkpt>
      <trkpt lat="42.97807" lon="-0.34279">
        <ele>1681.8877902464</ele>
        <time>2021-06-21T10:09:16.622Z</time>
      </trkpt>
      <trkpt lat="42.97787" lon="-0.34302">
        <ele>1683.680709385</ele>
        <time>2021-06-21T10:09:19.248Z</time>
      </trkpt>
      <trkpt lat="42.97775" lon="-0.34313">
        <ele>1685.5705694667</ele>
        <time>2021-06-21T10:09:21.877Z</time>
      </trkpt>
      <trkpt lat="42.97747" lon="-0.34324">
        <ele>1687.4402500101</ele>
        <time>2021-06-21T10:09:24.510Z</time>
      </trkpt>
      <trkpt lat="42.97735" lon="-0.34322">
        <ele>1689.2075406499</ele>
        <time>2021-06-21T10:09:27.145Z</time>
      </trkpt>
      <trkpt lat="42.97724" lon="-0.34317">
        <ele>1690.9017416898</ele>
        <time>2021-06-21T10:09:29.782Z</time>
      </trkpt>
      <trkpt lat="42.97715" lon="-0.34307">
        <ele>1692.5646201269</ele>
        <time>2021-06-21T10:09:32.421Z</time>
      </trkpt>
      <trkpt lat="42.9771" lon="-0.34292">
        <ele>1694.2063165861</ele>
        <time>2021-06-21T10:09:35.062Z</time>
      </trkpt>
      <trkpt lat="42.97698" lon="-0.34231">
        <ele>1696.0786804787</ele>
        <time>2021-06-21T10:09:37.710Z</time>
      </trkpt>
      <trkpt lat="42.97691" lon="-0.34207">
        <ele>1697.5704098818</ele>
        <time>2021-06-21T10:09:40.361Z</time>
      </trkpt>
      <trkpt lat="42.9768" lon="-0.3419">
        <ele>1698.8683354544</ele>
        <time>2021-06-21T10:09:43.015Z</time>
      </trkpt>
      <trkpt lat="42.97652" lon="-0.34154">
        <ele>1699.9988434341</ele>
        <time>2021-06-21T10:09:45.675Z</time>
      </trkpt>
      <trkpt lat="42.97639" lon="-0.34128">
        <ele>1701.0979363585</ele>
        <time>2021-06-21T10:09:48.339Z</time>
      </trkpt>
      <trkpt lat="42.97631" lon="-0.34102">
        <ele>1702.0937541305</ele>
        <time>2021-06-21T10:09:51.006Z</time>
      </trkpt>
      <trkpt lat="42.97627" lon="-0.34074">
        <ele>1703.0186223618</ele>
        <time>2021-06-21T10:09:53.676Z</time>
      </trkpt>
      <trkpt lat="42.97628" lon="-0.34043">
        <ele>1703.8461687792</ele>
        <time>2021-06-21T10:09:56.350Z</time>
      </trkpt>
      <trkpt lat="42.97635" lon="-0.34019">
        <ele>1704.4631747454</ele>
        <time>2021-06-21T10:09:59.027Z</time>
      </trkpt>
      <trkpt lat="42.97652" lon="-0.33989">
        <ele>1705.0247325637</ele>
        <time>2021-06-21T10:10:01.709Z</time>
      </trkpt>
      <trkpt lat="42.97657" lon="-0.33979">
        <ele>1705.3194413184</ele>
        <time>2021-06-21T10:10:04.392Z</time>
      </trkpt>
      <trkpt lat="42.97663" lon="-0.33964">
        <ele>1705.4949596344</ele>
        <time>2021-06-21T10:10:07.077Z</time>
      </trkpt>
      <trkpt lat="42.97663" lon="-0.3395">
        <ele>1705.3633418181</ele>
        <time>2021-06-21T10:10:09.764Z</time>
      </trkpt>
      <trkpt lat="42.97642" lon="-0.33903">
        <ele>1704.9500661954</ele>
        <time>2021-06-21T10:10:12.457Z</time>
      </trkpt>
      <trkpt lat="42.97638" lon="-0.3389">
        <ele>1704.6612617509</ele>
        <time>2021-06-21T10:10:15.152Z</time>
      </trkpt>
      <trkpt lat="42.97626" lon="-0.33833">
        <ele>1703.9439132151</ele>
        <time>2021-06-21T10:10:17.854Z</time>
      </trkpt>
      <trkpt lat="42.97618" lon="-0.33811">
        <ele>1703.2461438899</ele>
        <time>2021-06-21T10:10:20.559Z</time>
      </trkpt>
      <trkpt lat="42.97607" lon="-0.33794">
        <ele>1702.4371470755</ele>
        <time>2021-06-21T10:10:23.266Z</time>
      </trkpt>
      <trkpt lat="42.9754" lon="-0.33739">
        <ele>1701.4108522169</ele>
        <time>2021-06-21T10:10:25.986Z</time>
      </trkpt>
      <trkpt lat="42.9753" lon="-0.33725">
        <ele>1700.2796162031</ele>
        <time>2021-06-21T10:10:28.708Z</time>
      </trkpt>
      <trkpt lat="42.97521" lon="-0.3371">
        <ele>1698.9761263178</ele>
        <time>2021-06-21T10:10:31.432Z</time>
      </trkpt>
      <trkpt lat="42.97515" lon="-0.33683">
        <ele>1697.375831759</ele>
        <time>2021-06-21T10:10:34.160Z</time>
      </trkpt>
      <trkpt lat="42.97515" lon="-0.3363">
        <ele>1695.3463486173</ele>
        <time>2021-06-21T10:10:36.894Z</time>
      </trkpt>
      <trkpt lat="42.97506" lon="-0.33554">
        <ele>1693.5916262459</ele>
        <time>2021-06-21T10:10:39.637Z</time>
      </trkpt>
      <trkpt lat="42.975" lon="-0.33509">
        <ele>1691.6985699445</ele>
        <time>2021-06-21T10:10:42.385Z</time>
      </trkpt>
      <trkpt lat="42.97492" lon="-0.33485">
        <ele>1689.8257870033</ele>
        <time>2021-06-21T10:10:45.136Z</time>
      </trkpt>
      <trkpt lat="42.97486" lon="-0.33464">
        <ele>1687.8388201357</ele>
        <time>2021-06-21T10:10:47.890Z</time>
      </trkpt>
      <trkpt lat="42.97472" lon="-0.33443">
        <ele>1685.9030167876</ele>
        <time>2021-06-21T10:10:50.647Z</time>
      </trkpt>
      <trkpt lat="42.97445" lon="-0.33412">
        <ele>1683.9443506036</ele>
        <time>2021-06-21T10:10:53.410Z</time>
      </trkpt>
      <trkpt lat="42.97436" lon="-0.33392">
        <ele>1681.772888327</ele>
        <time>2021-06-21T10:10:56.176Z</time>
      </trkpt>
      <trkpt lat="42.97408" lon="-0.33309">
        <ele>1679.2506818019</ele>
        <time>2021-06-21T10:10:58.952Z</time>
      </trkpt>
      <trkpt lat="42.97393" lon="-0.33273">
        <ele>1676.9720626808</ele>
        <time>2021-06-21T10:11:01.733Z</time>
      </trkpt>
      <trkpt lat="42.97368" lon="-0.33242">
        <ele>1674.6713408043</ele>
        <time>2021-06-21T10:11:04.520Z</time>
      </trkpt>
      <trkpt lat="42.97336" lon="-0.33212">
        <ele>1672.2444501101</ele>
        <time>2021-06-21T10:11:07.313Z</time>
      </trkpt>
      <trkpt lat="42.97312" lon="-0.33201">
        <ele>1669.770745583</ele>
        <time>2021-06-21T10:11:10.110Z</time>
      </trkpt>
      <trkpt lat="42.97295" lon="-0.33197">
        <ele>1667.365647546</ele>
        <time>2021-06-21T10:11:12.910Z</time>
      </trkpt>
      <trkpt lat="42.97279" lon="-0.33195">
        <ele>1664.978154436</ele>
        <time>2021-06-21T10:11:15.712Z</time>
      </trkpt>
      <trkpt lat="42.97259" lon="-0.33197">
        <ele>1662.6503870068</ele>
        <time>2021-06-21T10:11:18.517Z</time>
      </trkpt>
      <trkpt lat="42.97235" lon="-0.33205">
        <ele>1660.4710083777</ele>
        <time>2021-06-21T10:11:21.326Z</time>
      </trkpt>
      <trkpt lat="42.97224" lon="-0.33199">
        <ele>1658.1051546641</ele>
        <time>2021-06-21T10:11:24.137Z</time>
      </trkpt>
      <trkpt lat="42.97216" lon="-0.33188">
        <ele>1655.6646158667</ele>
        <time>2021-06-21T10:11:26.950Z</time>
      </trkpt>
      <trkpt lat="42.97215" lon="-0.33169">
        <ele>1653.1670232156</ele>
        <time>2021-06-21T10:11:29.765Z</time>
      </trkpt>
      <trkpt lat="42.97216" lon="-0.33153">
        <ele>1650.7789927798</ele>
        <time>2021-06-21T10:11:32.582Z</time>
      </trkpt>
      <trkpt lat="42.97225" lon="-0.33112">
        <ele>1648.1863334941</ele>
        <time>2021-06-21T10:11:35.404Z</time>
      </trkpt>
      <trkpt lat="42.97224" lon="-0.33101">
        <ele>1645.8789602073</ele>
        <time>2021-06-21T10:11:38.228Z</time>
      </trkpt>
      <trkpt lat="42.97221" lon="-0.33092">
        <ele>1643.6519474745</ele>
        <time>2021-06-21T10:11:41.053Z</time>
      </trkpt>
      <trkpt lat="42.97206" lon="-0.33071">
        <ele>1641.4955879442</ele>
        <time>2021-06-21T10:11:43.881Z</time>
      </trkpt>
      <trkpt lat="42.97192" lon="-0.33039">
        <ele>1639.3164462152</ele>
        <time>2021-06-21T10:11:46.713Z</time>
      </trkpt>
      <trkpt lat="42.97178" lon="-0.33014">
        <ele>1637.203429694</ele>
        <time>2021-06-21T10:11:49.549Z</time>
      </trkpt>
      <trkpt lat="42.97166" lon="-0.32975">
        <ele>1634.9807452344</ele>
        <time>2021-06-21T10:11:52.390Z</time>
      </trkpt>
      <trkpt lat="42.97166" lon="-0.32975">
        <ele>1633.0094704764</ele>
        <time>2021-06-21T10:11:55.231Z</time>
      </trkpt>
      <trkpt lat="42.97152" lon="-0.32903">
        <ele>1630.9497657793</ele>
        <time>2021-06-21T10:11:58.081Z</time>
      </trkpt>
      <trkpt lat="42.97148" lon="-0.32871">
        <ele>1629.0019001268</ele>
        <time>2021-06-21T10:12:00.935Z</time>
      </trkpt>
      <trkpt lat="42.97148" lon="-0.3286">
        <ele>1627.1581736212</ele>
        <time>2021-06-21T10:12:03.790Z</time>
      </trkpt>
      <trkpt lat="42.97155" lon="-0.32836">
        <ele>1625.2738793747</ele>
        <time>2021-06-21T10:12:06.648Z</time>
      </trkpt>
      <trkpt lat="42.97156" lon="-0.32825">
        <ele>1623.5327681987</ele>
        <time>2021-06-21T10:12:09.507Z</time>
      </trkpt>
      <trkpt lat="42.97155" lon="-0.32815">
        <ele>1621.8652458063</ele>
        <time>2021-06-21T10:12:12.368Z</time>
      </trkpt>
      <trkpt lat="42.97149" lon="-0.32804">
        <ele>1620.3050430682</ele>
        <time>2021-06-21T10:12:15.230Z</time>
      </trkpt>
      <trkpt lat="42.97134" lon="-0.32787">
        <ele>1618.822228615</ele>
        <time>2021-06-21T10:12:18.095Z</time>
      </trkpt>
      <trkpt lat="42.97123" lon="-0.32769">
        <ele>1617.3224415769</ele>
        <time>2021-06-21T10:12:20.963Z</time>
      </trkpt>
      <trkpt lat="42.97118" lon="-0.32752">
        <ele>1615.8369102876</ele>
        <time>2021-06-21T10:12:23.833Z</time>
      </trkpt>
      <trkpt lat="42.97118" lon="-0.32739">
        <ele>1614.3679403845</ele>
        <time>2021-06-21T10:12:26.705Z</time>
      </trkpt>
      <trkpt lat="42.97122" lon="-0.3272">
        <ele>1612.8717039631</ele>
        <time>2021-06-21T10:12:29.579Z</time>
      </trkpt>
      <trkpt lat="42.97134" lon="-0.32696">
        <ele>1611.4718183983</ele>
        <time>2021-06-21T10:12:32.456Z</time>
      </trkpt>
      <trkpt lat="42.97179" lon="-0.3262">
        <ele>1610.0403171914</ele>
        <time>2021-06-21T10:12:35.345Z</time>
      </trkpt>
      <trkpt lat="42.97191" lon="-0.32607">
        <ele>1608.7076426037</ele>
        <time>2021-06-21T10:12:38.236Z</time>
      </trkpt>
      <trkpt lat="42.97224" lon="-0.32581">
        <ele>1607.2777485778</ele>
        <time>2021-06-21T10:12:41.133Z</time>
      </trkpt>
      <trkpt lat="42.97239" lon="-0.32562">
        <ele>1605.9855364218</ele>
        <time>2021-06-21T10:12:44.034Z</time>
      </trkpt>
      <trkpt lat="42.97239" lon="-0.32562">
        <ele>1604.7926631835</ele>
        <time>2021-06-21T10:12:46.935Z</time>
      </trkpt>
      <trkpt lat="42.97246" lon="-0.32542">
        <ele>1603.5591510018</ele>
        <time>2021-06-21T10:12:49.838Z</time>
      </trkpt>
      <trkpt lat="42.9725" lon="-0.32527">
        <ele>1602.3092925814</ele>
        <time>2021-06-21T10:12:52.743Z</time>
      </trkpt>
      <trkpt lat="42.97249" lon="-0.32508">
        <ele>1601.0814496133</ele>
        <time>2021-06-21T10:12:55.650Z</time>
      </trkpt>
      <trkpt lat="42.97244" lon="-0.32492">
        <ele>1599.8884848789</ele>
        <time>2021-06-21T10:12:58.559Z</time>
      </trkpt>
      <trkpt lat="42.97239" lon="-0.32483">
        <ele>1598.7310273364</ele>
        <time>2021-06-21T10:13:01.470Z</time>
      </trkpt>
      <trkpt lat="42.9723" lon="-0.32472">
        <ele>1597.521727548</ele>
        <time>2021-06-21T10:13:04.383Z</time>
      </trkpt>
      <trkpt lat="42.97223" lon="-0.32468">
        <ele>1596.3470700229</ele>
        <time>2021-06-21T10:13:07.297Z</time>
      </trkpt>
      <trkpt lat="42.97181" lon="-0.3247">
        <ele>1595.3136256232</ele>
        <time>2021-06-21T10:13:10.218Z</time>
      </trkpt>
      <trkpt lat="42.97157" lon="-0.32462">
        <ele>1594.1728903883</ele>
        <time>2021-06-21T10:13:13.143Z</time>
      </trkpt>
      <trkpt lat="42.97142" lon="-0.32463">
        <ele>1593.0413797775</ele>
        <time>2021-06-21T10:13:16.070Z</time>
      </trkpt>
      <trkpt lat="42.9713" lon="-0.3246">
        <ele>1591.8121015226</ele>
        <time>2021-06-21T10:13:18.999Z</time>
      </trkpt>
      <trkpt lat="42.97096" lon="-0.32435">
        <ele>1590.5306944907</ele>
        <time>2021-06-21T10:13:21.934Z</time>
      </trkpt>
      <trkpt lat="42.97088" lon="-0.32421">
        <ele>1589.1509600137</ele>
        <time>2021-06-21T10:13:24.871Z</time>
      </trkpt>
      <trkpt lat="42.97088" lon="-0.3241">
        <ele>1587.6530379008</ele>
        <time>2021-06-21T10:13:27.810Z</time>
      </trkpt>
      <trkpt lat="42.97092" lon="-0.32399">
        <ele>1586.0720296995</ele>
        <time>2021-06-21T10:13:30.750Z</time>
      </trkpt>
      <trkpt lat="42.97098" lon="-0.3239">
        <ele>1584.4201904967</ele>
        <time>2021-06-21T10:13:33.692Z</time>
      </trkpt>
      <trkpt lat="42.97122" lon="-0.32376">
        <ele>1582.4915904538</ele>
        <time>2021-06-21T10:13:36.638Z</time>
      </trkpt>
      <trkpt lat="42.9713" lon="-0.32369">
        <ele>1580.7159874777</ele>
        <time>2021-06-21T10:13:39.585Z</time>
      </trkpt>
      <trkpt lat="42.97137" lon="-0.32355">
        <ele>1578.8343336177</ele>
        <time>2021-06-21T10:13:42.534Z</time>
      </trkpt>
      <trkpt lat="42.97142" lon="-0.32335">
        <ele>1576.8703160017</ele>
        <time>2021-06-21T10:13:45.486Z</time>
      </trkpt>
      <trkpt lat="42.97145" lon="-0.32321">
        <ele>1575.0175095112</ele>
        <time>2021-06-21T10:13:48.439Z</time>
      </trkpt>
      <trkpt lat="42.97143" lon="-0.32309">
        <ele>1573.24244405</ele>
        <time>2021-06-21T10:13:51.394Z</time>
      </trkpt>
      <trkpt lat="42.97136" lon="-0.32287">
        <ele>1571.5912683435</ele>
        <time>2021-06-21T10:13:54.352Z</time>
      </trkpt>
      <trkpt lat="42.97135" lon="-0.32276">
        <ele>1569.7096870867</ele>
        <time>2021-06-21T10:13:57.311Z</time>
      </trkpt>
      <trkpt lat="42.97136" lon="-0.32264">
        <ele>1567.7297889854</ele>
        <time>2021-06-21T10:14:00.271Z</time>
      </trkpt>
      <trkpt lat="42.97141" lon="-0.32241">
        <ele>1565.6496652156</ele>
        <time>2021-06-21T10:14:03.234Z</time>
      </trkpt>
      <trkpt lat="42.97147" lon="-0.32233">
        <ele>1563.4741543217</ele>
        <time>2021-06-21T10:14:06.199Z</time>
      </trkpt>
      <trkpt lat="42.97178" lon="-0.32212">
        <ele>1560.7080580359</ele>
        <time>2021-06-21T10:14:09.169Z</time>
      </trkpt>
      <trkpt lat="42.97185" lon="-0.322">
        <ele>1558.4558205744</ele>
        <time>2021-06-21T10:14:12.141Z</time>
      </trkpt>
      <trkpt lat="42.97194" lon="-0.32175">
        <ele>1556.2608896034</ele>
        <time>2021-06-21T10:14:15.116Z</time>
      </trkpt>
      <trkpt lat="42.97215" lon="-0.32132">
        <ele>1553.8790319366</ele>
        <time>2021-06-21T10:14:18.097Z</time>
      </trkpt>
      <trkpt lat="42.97221" lon="-0.32117">
        <ele>1551.545278532</ele>
        <time>2021-06-21T10:14:21.080Z</time>
      </trkpt>
      <trkpt lat="42.97227" lon="-0.32091">
        <ele>1549.1804824585</ele>
        <time>2021-06-21T10:14:24.066Z</time>
      </trkpt>
      <trkpt lat="42.97227" lon="-0.32079">
        <ele>1546.9239226717</ele>
        <time>2021-06-21T10:14:27.054Z</time>
      </trkpt>
      <trkpt lat="42.97224" lon="-0.32051">
        <ele>1544.9224428943</ele>
        <time>2021-06-21T10:14:30.045Z</time>
      </trkpt>
      <trkpt lat="42.97225" lon="-0.32028">
        <ele>1542.6401665145</ele>
        <time>2021-06-21T10:14:33.039Z</time>
      </trkpt>
      <trkpt lat="42.97237" lon="-0.31952">
        <ele>1540.1047289481</ele>
        <time>2021-06-21T10:14:36.042Z</time>
      </trkpt>
      <trkpt lat="42.97242" lon="-0.31897">
        <ele>1537.8069999659</ele>
        <time>2021-06-21T10:14:39.052Z</time>
      </trkpt>
      <trkpt lat="42.97254" lon="-0.31822">
        <ele>1535.5081202279</ele>
        <time>2021-06-21T10:14:42.071Z</time>
      </trkpt>
      <trkpt lat="42.97258" lon="-0.31814">
        <ele>1533.1751888938</ele>
        <time>2021-06-21T10:14:45.091Z</time>
      </trkpt>
      <trkpt lat="42.97264" lon="-0.31809">
        <ele>1530.8906274881</ele>
        <time>2021-06-21T10:14:48.112Z</time>
      </trkpt>
      <trkpt lat="42.97283" lon="-0.31802">
        <ele>1528.4464994697</ele>
        <time>2021-06-21T10:14:51.136Z</time>
      </trkpt>
      <trkpt lat="42.97332" lon="-0.31802">
        <ele>1525.5875321075</ele>
        <time>2021-06-21T10:14:54.168Z</time>
      </trkpt>
      <trkpt lat="42.97374" lon="-0.31819">
        <ele>1522.8934932022</ele>
        <time>2021-06-21T10:14:57.207Z</time>
      </trkpt>
      <trkpt lat="42.97392" lon="-0.3182">
        <ele>1520.7293495587</ele>
        <time>2021-06-21T10:15:00.249Z</time>
      </trkpt>
      <trkpt lat="42.97417" lon="-0.31826">
        <ele>1518.3770168309</ele>
        <time>2021-06-21T10:15:03.295Z</time>
      </trkpt>
      <trkpt lat="42.97437" lon="-0.31832">
        <ele>1516.1526495151</ele>
        <time>2021-06-21T10:15:06.344Z</time>
      </trkpt>
      <trkpt lat="42.97443" lon="-0.31832">
        <ele>1514.2911287831</ele>
        <time>2021-06-21T10:15:09.394Z</time>
      </trkpt>
      <trkpt lat="42.97448" lon="-0.31827">
        <ele>1512.6249395179</ele>
        <time>2021-06-21T10:15:12.445Z</time>
      </trkpt>
      <trkpt lat="42.97452" lon="-0.3182">
        <ele>1511.0939180458</ele>
        <time>2021-06-21T10:15:15.497Z</time>
      </trkpt>
      <trkpt lat="42.97462" lon="-0.31809">
        <ele>1509.6710164676</ele>
        <time>2021-06-21T10:15:18.551Z</time>
      </trkpt>
      <trkpt lat="42.97505" lon="-0.31787">
        <ele>1508.3234866576</ele>
        <time>2021-06-21T10:15:21.612Z</time>
      </trkpt>
      <trkpt lat="42.97536" lon="-0.31764">
        <ele>1506.8182124968</ele>
        <time>2021-06-21T10:15:24.679Z</time>
      </trkpt>
      <trkpt lat="42.97555" lon="-0.31732">
        <ele>1505.7799062983</ele>
        <time>2021-06-21T10:15:27.751Z</time>
      </trkpt>
      <trkpt lat="42.97565" lon="-0.317">
        <ele>1504.6910264813</ele>
        <time>2021-06-21T10:15:30.827Z</time>
      </trkpt>
      <trkpt lat="42.97569" lon="-0.31674">
        <ele>1503.36617646</ele>
        <time>2021-06-21T10:15:33.906Z</time>
      </trkpt>
      <trkpt lat="42.9757" lon="-0.31646">
        <ele>1502.2071629027</ele>
        <time>2021-06-21T10:15:36.988Z</time>
      </trkpt>
      <trkpt lat="42.97565" lon="-0.31558">
        <ele>1501.2492534652</ele>
        <time>2021-06-21T10:15:40.081Z</time>
      </trkpt>
      <trkpt lat="42.97564" lon="-0.31504">
        <ele>1500.0618231032</ele>
        <time>2021-06-21T10:15:43.180Z</time>
      </trkpt>
      <trkpt lat="42.97562" lon="-0.31486">
        <ele>1498.9651738922</ele>
        <time>2021-06-21T10:15:46.281Z</time>
      </trkpt>
      <trkpt lat="42.97553" lon="-0.31469">
        <ele>1498.1196372466</ele>
        <time>2021-06-21T10:15:49.385Z</time>
      </trkpt>
      <trkpt lat="42.97553" lon="-0.31462">
        <ele>1496.9955034169</ele>
        <time>2021-06-21T10:15:52.490Z</time>
      </trkpt>
      <trkpt lat="42.97558" lon="-0.31449">
        <ele>1495.7147804829</ele>
        <time>2021-06-21T10:15:55.596Z</time>
      </trkpt>
      <trkpt lat="42.97565" lon="-0.31438">
        <ele>1494.3194948881</ele>
        <time>2021-06-21T10:15:58.704Z</time>
      </trkpt>
      <trkpt lat="42.97568" lon="-0.3142">
        <ele>1493.0728600521</ele>
        <time>2021-06-21T10:16:01.814Z</time>
      </trkpt>
      <trkpt lat="42.97574" lon="-0.31351">
        <ele>1491.6944747846</ele>
        <time>2021-06-21T10:16:04.932Z</time>
      </trkpt>
      <trkpt lat="42.97565" lon="-0.3132">
        <ele>1490.881234506</ele>
        <time>2021-06-21T10:16:08.054Z</time>
      </trkpt>
      <trkpt lat="42.97562" lon="-0.31295">
        <ele>1489.7342143083</ele>
        <time>2021-06-21T10:16:11.179Z</time>
      </trkpt>
      <trkpt lat="42.97566" lon="-0.31276">
        <ele>1488.5182836667</ele>
        <time>2021-06-21T10:16:14.307Z</time>
      </trkpt>
      <trkpt lat="42.97574" lon="-0.31253">
        <ele>1487.2140092228</ele>
        <time>2021-06-21T10:16:17.437Z</time>
      </trkpt>
      <trkpt lat="42.97588" lon="-0.31219">
        <ele>1485.7433351364</ele>
        <time>2021-06-21T10:16:20.572Z</time>
      </trkpt>
      <trkpt lat="42.97604" lon="-0.31148">
        <ele>1484.3648902369</ele>
        <time>2021-06-21T10:16:23.716Z</time>
      </trkpt>
      <trkpt lat="42.97617" lon="-0.31083">
        <ele>1483.0235526082</ele>
        <time>2021-06-21T10:16:26.868Z</time>
      </trkpt>
      <trkpt lat="42.97617" lon="-0.31061">
        <ele>1481.9145851433</ele>
        <time>2021-06-21T10:16:30.022Z</time>
      </trkpt>
      <trkpt lat="42.97614" lon="-0.31045">
        <ele>1480.8483130305</ele>
        <time>2021-06-21T10:16:33.178Z</time>
      </trkpt>
      <trkpt lat="42.97611" lon="-0.31035">
        <ele>1479.7666898882</ele>
        <time>2021-06-21T10:16:36.335Z</time>
      </trkpt>
      <trkpt lat="42.97559" lon="-0.30974">
        <ele>1479.2843902226</ele>
        <time>2021-06-21T10:16:39.503Z</time>
      </trkpt>
      <trkpt lat="42.97524" lon="-0.30913">
        <ele>1477.9700957768</ele>
        <time>2021-06-21T10:16:42.681Z</time>
      </trkpt>
      <trkpt lat="42.97491" lon="-0.3088">
        <ele>1476.9208222426</ele>
        <time>2021-06-21T10:16:45.865Z</time>
      </trkpt>
      <trkpt lat="42.97491" lon="-0.3088">
        <ele>1475.8540055928</ele>
        <time>2021-06-21T10:16:49.049Z</time>
      </trkpt>
      <trkpt lat="42.97484" lon="-0.30872">
        <ele>1474.8440451874</ele>
        <time>2021-06-21T10:16:52.235Z</time>
      </trkpt>
      <trkpt lat="42.97467" lon="-0.30844">
        <ele>1473.7218539371</ele>
        <time>2021-06-21T10:16:55.425Z</time>
      </trkpt>
      <trkpt lat="42.97448" lon="-0.30801">
        <ele>1472.3060953965</ele>
        <time>2021-06-21T10:16:58.621Z</time>
      </trkpt>
      <trkpt lat="42.97446" lon="-0.30792">
        <ele>1471.2218490579</ele>
        <time>2021-06-21T10:17:01.818Z</time>
      </trkpt>
      <trkpt lat="42.97448" lon="-0.3078">
        <ele>1470.1276400241</ele>
        <time>2021-06-21T10:17:05.016Z</time>
      </trkpt>
      <trkpt lat="42.97454" lon="-0.30767">
        <ele>1468.9915827207</ele>
        <time>2021-06-21T10:17:08.216Z</time>
      </trkpt>
      <trkpt lat="42.97462" lon="-0.30748">
        <ele>1467.7738677365</ele>
        <time>2021-06-21T10:17:11.419Z</time>
      </trkpt>
      <trkpt lat="42.97467" lon="-0.30722">
        <ele>1466.599237824</ele>
        <time>2021-06-21T10:17:14.625Z</time>
      </trkpt>
      <trkpt lat="42.97481" lon="-0.30599">
        <ele>1465.5523511767</ele>
        <time>2021-06-21T10:17:17.846Z</time>
      </trkpt>
      <trkpt lat="42.97479" lon="-0.30576">
        <ele>1464.7461257747</ele>
        <time>2021-06-21T10:17:21.069Z</time>
      </trkpt>
      <trkpt lat="42.97475" lon="-0.30566">
        <ele>1463.9644890645</ele>
        <time>2021-06-21T10:17:24.294Z</time>
      </trkpt>
      <trkpt lat="42.97461" lon="-0.30548">
        <ele>1463.2841132648</ele>
        <time>2021-06-21T10:17:27.522Z</time>
      </trkpt>
      <trkpt lat="42.97439" lon="-0.30533">
        <ele>1462.6470726472</ele>
        <time>2021-06-21T10:17:30.754Z</time>
      </trkpt>
      <trkpt lat="42.97428" lon="-0.30524">
        <ele>1462.0010489477</ele>
        <time>2021-06-21T10:17:33.988Z</time>
      </trkpt>
      <trkpt lat="42.97414" lon="-0.30507">
        <ele>1461.3896863431</ele>
        <time>2021-06-21T10:17:37.225Z</time>
      </trkpt>
      <trkpt lat="42.97393" lon="-0.30476">
        <ele>1460.7061121779</ele>
        <time>2021-06-21T10:17:40.467Z</time>
      </trkpt>
      <trkpt lat="42.97385" lon="-0.30468">
        <ele>1460.0863692686</ele>
        <time>2021-06-21T10:17:43.710Z</time>
      </trkpt>
      <trkpt lat="42.97377" lon="-0.30465">
        <ele>1459.5427389955</ele>
        <time>2021-06-21T10:17:46.954Z</time>
      </trkpt>
      <trkpt lat="42.97368" lon="-0.30462">
        <ele>1459.0459954495</ele>
        <time>2021-06-21T10:17:50.200Z</time>
      </trkpt>
      <trkpt lat="42.97352" lon="-0.30465">
        <ele>1458.6789987444</ele>
        <time>2021-06-21T10:17:53.449Z</time>
      </trkpt>
      <trkpt lat="42.97344" lon="-0.30462">
        <ele>1458.184207186</ele>
        <time>2021-06-21T10:17:56.699Z</time>
      </trkpt>
      <trkpt lat="42.97322" lon="-0.30444">
        <ele>1457.5232670208</ele>
        <time>2021-06-21T10:17:59.953Z</time>
      </trkpt>
      <trkpt lat="42.97313" lon="-0.30443">
        <ele>1457.040092219</ele>
        <time>2021-06-21T10:18:03.208Z</time>
      </trkpt>
      <trkpt lat="42.973" lon="-0.30445">
        <ele>1456.6390572483</ele>
        <time>2021-06-21T10:18:06.465Z</time>
      </trkpt>
      <trkpt lat="42.97283" lon="-0.30445">
        <ele>1456.225012686</ele>
        <time>2021-06-21T10:18:09.725Z</time>
      </trkpt>
      <trkpt lat="42.97274" lon="-0.30441">
        <ele>1455.6551262029</ele>
        <time>2021-06-21T10:18:12.987Z</time>
      </trkpt>
      <trkpt lat="42.97269" lon="-0.30434">
        <ele>1455.0036438599</ele>
        <time>2021-06-21T10:18:16.250Z</time>
      </trkpt>
      <trkpt lat="42.97256" lon="-0.30414">
        <ele>1454.1456674411</ele>
        <time>2021-06-21T10:18:19.516Z</time>
      </trkpt>
      <trkpt lat="42.97242" lon="-0.30397">
        <ele>1453.3299566359</ele>
        <time>2021-06-21T10:18:22.785Z</time>
      </trkpt>
      <trkpt lat="42.97228" lon="-0.30369">
        <ele>1452.5706374595</ele>
        <time>2021-06-21T10:18:26.058Z</time>
      </trkpt>
      <trkpt lat="42.97207" lon="-0.30343">
        <ele>1451.9364724478</ele>
        <time>2021-06-21T10:18:29.336Z</time>
      </trkpt>
      <trkpt lat="42.97172" lon="-0.30284">
        <ele>1451.2623962146</ele>
        <time>2021-06-21T10:18:32.622Z</time>
      </trkpt>
      <trkpt lat="42.97148" lon="-0.30233">
        <ele>1450.5772588512</ele>
        <time>2021-06-21T10:18:35.916Z</time>
      </trkpt>
      <trkpt lat="42.97131" lon="-0.30208">
        <ele>1449.8552788193</ele>
        <time>2021-06-21T10:18:39.214Z</time>
      </trkpt>
      <trkpt lat="42.97116" lon="-0.30192">
        <ele>1449.179862422</ele>
        <time>2021-06-21T10:18:42.515Z</time>
      </trkpt>
      <trkpt lat="42.97094" lon="-0.30176">
        <ele>1448.3873810148</ele>
        <time>2021-06-21T10:18:45.820Z</time>
      </trkpt>
      <trkpt lat="42.9704" lon="-0.30129">
        <ele>1447.4081745604</ele>
        <time>2021-06-21T10:18:49.135Z</time>
      </trkpt>
      <trkpt lat="42.97028" lon="-0.30114">
        <ele>1446.4949912406</ele>
        <time>2021-06-21T10:18:52.453Z</time>
      </trkpt>
      <trkpt lat="42.97021" lon="-0.30097">
        <ele>1445.4147877758</ele>
        <time>2021-06-21T10:18:55.773Z</time>
      </trkpt>
      <trkpt lat="42.97013" lon="-0.30063">
        <ele>1444.0841153744</ele>
        <time>2021-06-21T10:18:59.097Z</time>
      </trkpt>
      <trkpt lat="42.97006" lon="-0.30053">
        <ele>1443.0114568673</ele>
        <time>2021-06-21T10:19:02.423Z</time>
      </trkpt>
      <trkpt lat="42.96999" lon="-0.30049">
        <ele>1441.923992003</ele>
        <time>2021-06-21T10:19:05.750Z</time>
      </trkpt>
      <trkpt lat="42.96991" lon="-0.3005">
        <ele>1440.8773748923</ele>
        <time>2021-06-21T10:19:09.078Z</time>
      </trkpt>
      <trkpt lat="42.96977" lon="-0.30059">
        <ele>1439.8941358207</ele>
        <time>2021-06-21T10:19:12.408Z</time>
      </trkpt>
      <trkpt lat="42.96899" lon="-0.30121">
        <ele>1439.1564789448</ele>
        <time>2021-06-21T10:19:15.753Z</time>
      </trkpt>
      <trkpt lat="42.96868" lon="-0.30149">
        <ele>1438.0198260977</ele>
        <time>2021-06-21T10:19:19.104Z</time>
      </trkpt>
      <trkpt lat="42.96837" lon="-0.30195">
        <ele>1437.1529623512</ele>
        <time>2021-06-21T10:19:22.462Z</time>
      </trkpt>
      <trkpt lat="42.9683" lon="-0.30201">
        <ele>1436.0083756429</ele>
        <time>2021-06-21T10:19:25.822Z</time>
      </trkpt>
      <trkpt lat="42.96824" lon="-0.30203">
        <ele>1434.7824186182</ele>
        <time>2021-06-21T10:19:29.183Z</time>
      </trkpt>
      <trkpt lat="42.9679" lon="-0.30197">
        <ele>1433.1036270364</ele>
        <time>2021-06-21T10:19:32.549Z</time>
      </trkpt>
      <trkpt lat="42.96779" lon="-0.302">
        <ele>1431.7632468628</ele>
        <time>2021-06-21T10:19:35.917Z</time>
      </trkpt>
      <trkpt lat="42.9677" lon="-0.30204">
        <ele>1430.4713135612</ele>
        <time>2021-06-21T10:19:39.286Z</time>
      </trkpt>
      <trkpt lat="42.96756" lon="-0.30213">
        <ele>1429.1920069809</ele>
        <time>2021-06-21T10:19:42.658Z</time>
      </trkpt>
      <trkpt lat="42.9671" lon="-0.30261">
        <ele>1428.1757046142</ele>
        <time>2021-06-21T10:19:46.039Z</time>
      </trkpt>
      <trkpt lat="42.96695" lon="-0.30272">
        <ele>1426.9070379711</ele>
        <time>2021-06-21T10:19:49.423Z</time>
      </trkpt>
      <trkpt lat="42.96683" lon="-0.30276">
        <ele>1425.5401394661</ele>
        <time>2021-06-21T10:19:52.809Z</time>
      </trkpt>
      <trkpt lat="42.96665" lon="-0.30275">
        <ele>1424.0546571191</ele>
        <time>2021-06-21T10:19:56.198Z</time>
      </trkpt>
      <trkpt lat="42.96655" lon="-0.30271">
        <ele>1422.586114571</ele>
        <time>2021-06-21T10:19:59.588Z</time>
      </trkpt>
      <trkpt lat="42.96648" lon="-0.30264">
        <ele>1421.0801377041</ele>
        <time>2021-06-21T10:20:02.980Z</time>
      </trkpt>
      <trkpt lat="42.96638" lon="-0.30247">
        <ele>1419.4628821126</ele>
        <time>2021-06-21T10:20:06.374Z</time>
      </trkpt>
      <trkpt lat="42.96627" lon="-0.30224">
        <ele>1417.9615240959</ele>
        <time>2021-06-21T10:20:09.771Z</time>
      </trkpt>
      <trkpt lat="42.9661" lon="-0.30195">
        <ele>1416.2931802182</ele>
        <time>2021-06-21T10:20:13.173Z</time>
      </trkpt>
      <trkpt lat="42.96602" lon="-0.30187">
        <ele>1414.960339185</ele>
        <time>2021-06-21T10:20:16.576Z</time>
      </trkpt>
      <trkpt lat="42.96596" lon="-0.30185">
        <ele>1413.6843458992</ele>
        <time>2021-06-21T10:20:19.980Z</time>
      </trkpt>
      <trkpt lat="42.96589" lon="-0.30186">
        <ele>1412.4382851109</ele>
        <time>2021-06-21T10:20:23.386Z</time>
      </trkpt>
      <trkpt lat="42.96525" lon="-0.30224">
        <ele>1410.9661960583</ele>
        <time>2021-06-21T10:20:26.803Z</time>
      </trkpt>
      <trkpt lat="42.96477" lon="-0.30262">
        <ele>1409.6392441565</ele>
        <time>2021-06-21T10:20:30.229Z</time>
      </trkpt>
      <trkpt lat="42.96462" lon="-0.30279">
        <ele>1408.4785431089</ele>
        <time>2021-06-21T10:20:33.658Z</time>
      </trkpt>
      <trkpt lat="42.96438" lon="-0.30296">
        <ele>1407.2840102646</ele>
        <time>2021-06-21T10:20:37.091Z</time>
      </trkpt>
      <trkpt lat="42.96428" lon="-0.30314">
        <ele>1406.3024525803</ele>
        <time>2021-06-21T10:20:40.527Z</time>
      </trkpt>
      <trkpt lat="42.96419" lon="-0.30322">
        <ele>1405.4390821438</ele>
        <time>2021-06-21T10:20:43.964Z</time>
      </trkpt>
      <trkpt lat="42.96411" lon="-0.30326">
        <ele>1404.6954882186</ele>
        <time>2021-06-21T10:20:47.403Z</time>
      </trkpt>
      <trkpt lat="42.96387" lon="-0.30331">
        <ele>1404.3553771732</ele>
        <time>2021-06-21T10:20:50.846Z</time>
      </trkpt>
      <trkpt lat="42.9638" lon="-0.30331">
        <ele>1403.6012976377</ele>
        <time>2021-06-21T10:20:54.290Z</time>
      </trkpt>
      <trkpt lat="42.96371" lon="-0.30324">
        <ele>1402.8175612401</ele>
        <time>2021-06-21T10:20:57.736Z</time>
      </trkpt>
      <trkpt lat="42.96354" lon="-0.30279">
        <ele>1401.8228074345</ele>
        <time>2021-06-21T10:21:01.188Z</time>
      </trkpt>
      <trkpt lat="42.96328" lon="-0.3016">
        <ele>1400.0827588745</ele>
        <time>2021-06-21T10:21:04.654Z</time>
      </trkpt>
      <trkpt lat="42.96292" lon="-0.30059">
        <ele>1399.5574933188</ele>
        <time>2021-06-21T10:21:08.133Z</time>
      </trkpt>
      <trkpt lat="42.96277" lon="-0.3002">
        <ele>1398.8613072676</ele>
        <time>2021-06-21T10:21:11.617Z</time>
      </trkpt>
      <trkpt lat="42.96257" lon="-0.29944">
        <ele>1397.743233505</ele>
        <time>2021-06-21T10:21:15.111Z</time>
      </trkpt>
      <trkpt lat="42.96243" lon="-0.29925">
        <ele>1397.2368455314</ele>
        <time>2021-06-21T10:21:18.608Z</time>
      </trkpt>
      <trkpt lat="42.96232" lon="-0.29898">
        <ele>1396.5932651379</ele>
        <time>2021-06-21T10:21:22.109Z</time>
      </trkpt>
      <trkpt lat="42.96213" lon="-0.29874">
        <ele>1396.261832053</ele>
        <time>2021-06-21T10:21:25.614Z</time>
      </trkpt>
      <trkpt lat="42.96176" lon="-0.298">
        <ele>1395.1259469327</ele>
        <time>2021-06-21T10:21:29.129Z</time>
      </trkpt>
      <trkpt lat="42.96167" lon="-0.29791">
        <ele>1394.7421982297</ele>
        <time>2021-06-21T10:21:32.646Z</time>
      </trkpt>
      <trkpt lat="42.9613" lon="-0.2977">
        <ele>1395.0022351083</ele>
        <time>2021-06-21T10:21:36.170Z</time>
      </trkpt>
      <trkpt lat="42.96094" lon="-0.29736">
        <ele>1394.9843141921</ele>
        <time>2021-06-21T10:21:39.701Z</time>
      </trkpt>
      <trkpt lat="42.96081" lon="-0.29709">
        <ele>1394.622973003</ele>
        <time>2021-06-21T10:21:43.235Z</time>
      </trkpt>
      <trkpt lat="42.9606" lon="-0.29652">
        <ele>1394.0754747973</ele>
        <time>2021-06-21T10:21:46.777Z</time>
      </trkpt>
      <trkpt lat="42.96039" lon="-0.29613">
        <ele>1393.892459339</ele>
        <time>2021-06-21T10:21:50.325Z</time>
      </trkpt>
      <trkpt lat="42.96026" lon="-0.2959">
        <ele>1393.9113106115</ele>
        <time>2021-06-21T10:21:53.876Z</time>
      </trkpt>
      <trkpt lat="42.96013" lon="-0.29579">
        <ele>1394.2289561851</ele>
        <time>2021-06-21T10:21:57.429Z</time>
      </trkpt>
      <trkpt lat="42.95988" lon="-0.29563">
        <ele>1394.8520640092</ele>
        <time>2021-06-21T10:22:00.987Z</time>
      </trkpt>
      <trkpt lat="42.95957" lon="-0.29531">
        <ele>1395.5363654948</ele>
        <time>2021-06-21T10:22:04.551Z</time>
      </trkpt>
      <trkpt lat="42.95947" lon="-0.29511">
        <ele>1395.7721539704</ele>
        <time>2021-06-21T10:22:08.118Z</time>
      </trkpt>
      <trkpt lat="42.95941" lon="-0.29491">
        <ele>1395.9633662075</ele>
        <time>2021-06-21T10:22:11.687Z</time>
      </trkpt>
      <trkpt lat="42.95938" lon="-0.29467">
        <ele>1396.0200450551</ele>
        <time>2021-06-21T10:22:15.259Z</time>
      </trkpt>
      <trkpt lat="42.95935" lon="-0.29454">
        <ele>1396.3762861223</ele>
        <time>2021-06-21T10:22:18.833Z</time>
      </trkpt>
      <trkpt lat="42.95932" lon="-0.29443">
        <ele>1396.8598448395</ele>
        <time>2021-06-21T10:22:22.408Z</time>
      </trkpt>
      <trkpt lat="42.95879" lon="-0.29373">
        <ele>1397.3269083533</ele>
        <time>2021-06-21T10:22:25.995Z</time>
      </trkpt>
      <trkpt lat="42.95856" lon="-0.29327">
        <ele>1397.9763817828</ele>
        <time>2021-06-21T10:22:29.589Z</time>
      </trkpt>
      <trkpt lat="42.9584" lon="-0.29312">
        <ele>1399.1092746788</ele>
        <time>2021-06-21T10:22:33.186Z</time>
      </trkpt>
      <trkpt lat="42.9583" lon="-0.29298">
        <ele>1400.1557766388</ele>
        <time>2021-06-21T10:22:36.785Z</time>
      </trkpt>
      <trkpt lat="42.95827" lon="-0.29279">
        <ele>1401.1328333371</ele>
        <time>2021-06-21T10:22:40.386Z</time>
      </trkpt>
      <trkpt lat="42.9583" lon="-0.29237">
        <ele>1401.8454527321</ele>
        <time>2021-06-21T10:22:43.992Z</time>
      </trkpt>
      <trkpt lat="42.95829" lon="-0.29222">
        <ele>1402.9703374781</ele>
        <time>2021-06-21T10:22:47.600Z</time>
      </trkpt>
      <trkpt lat="42.95825" lon="-0.29208">
        <ele>1404.2818289097</ele>
        <time>2021-06-21T10:22:51.210Z</time>
      </trkpt>
      <trkpt lat="42.9582" lon="-0.29196">
        <ele>1405.6672537044</ele>
        <time>2021-06-21T10:22:54.821Z</time>
      </trkpt>
      <trkpt lat="42.95813" lon="-0.29187">
        <ele>1407.1673941692</ele>
        <time>2021-06-21T10:22:58.434Z</time>
      </trkpt>
      <trkpt lat="42.95808" lon="-0.29181">
        <ele>1408.7305353607</ele>
        <time>2021-06-21T10:23:02.048Z</time>
      </trkpt>
      <trkpt lat="42.95805" lon="-0.29173">
        <ele>1410.2338638842</ele>
        <time>2021-06-21T10:23:05.663Z</time>
      </trkpt>
      <trkpt lat="42.95803" lon="-0.29163">
        <ele>1411.7058952342</ele>
        <time>2021-06-21T10:23:09.279Z</time>
      </trkpt>
      <trkpt lat="42.95807" lon="-0.29135">
        <ele>1412.9558904085</ele>
        <time>2021-06-21T10:23:12.899Z</time>
      </trkpt>
      <trkpt lat="42.95806" lon="-0.29124">
        <ele>1414.3678487946</ele>
        <time>2021-06-21T10:23:16.520Z</time>
      </trkpt>
      <trkpt lat="42.95803" lon="-0.29117">
        <ele>1415.7852131226</ele>
        <time>2021-06-21T10:23:20.142Z</time>
      </trkpt>
      <trkpt lat="42.95795" lon="-0.29107">
        <ele>1417.3439000825</ele>
        <time>2021-06-21T10:23:23.766Z</time>
      </trkpt>
      <trkpt lat="42.95769" lon="-0.29101">
        <ele>1419.6005256036</ele>
        <time>2021-06-21T10:23:27.394Z</time>
      </trkpt>
      <trkpt lat="42.9574" lon="-0.2906">
        <ele>1421.0511394774</ele>
        <time>2021-06-21T10:23:31.028Z</time>
      </trkpt>
      <trkpt lat="42.9574" lon="-0.2906">
        <ele>1422.344257293</ele>
        <time>2021-06-21T10:23:34.662Z</time>
      </trkpt>
      <trkpt lat="42.95736" lon="-0.29059">
        <ele>1423.6597606565</ele>
        <time>2021-06-21T10:23:38.297Z</time>
      </trkpt>
      <trkpt lat="42.95721" lon="-0.29062">
        <ele>1425.2567581935</ele>
        <time>2021-06-21T10:23:41.935Z</time>
      </trkpt>
      <trkpt lat="42.95696" lon="-0.29069">
        <ele>1427.0615942611</ele>
        <time>2021-06-21T10:23:45.577Z</time>
      </trkpt>
      <trkpt lat="42.95621" lon="-0.29074">
        <ele>1430.1112741736</ele>
        <time>2021-06-21T10:23:49.231Z</time>
      </trkpt>
      <trkpt lat="42.95621" lon="-0.29074">
        <ele>1430.5761537781</ele>
        <time>2021-06-21T10:23:52.885Z</time>
      </trkpt>
      <trkpt lat="42.95607" lon="-0.29072">
        <ele>1431.2064989025</ele>
        <time>2021-06-21T10:23:56.541Z</time>
      </trkpt>
      <trkpt lat="42.95589" lon="-0.2906">
        <ele>1431.5894029199</ele>
        <time>2021-06-21T10:24:00.200Z</time>
      </trkpt>
      <trkpt lat="42.95519" lon="-0.28989">
        <ele>1430.5855039085</ele>
        <time>2021-06-21T10:24:03.873Z</time>
      </trkpt>
      <trkpt lat="42.95506" lon="-0.28978">
        <ele>1430.2040062758</ele>
        <time>2021-06-21T10:24:07.549Z</time>
      </trkpt>
      <trkpt lat="42.955" lon="-0.28964">
        <ele>1429.0887233954</ele>
        <time>2021-06-21T10:24:11.226Z</time>
      </trkpt>
      <trkpt lat="42.95497" lon="-0.28952">
        <ele>1427.1459742019</ele>
        <time>2021-06-21T10:24:14.905Z</time>
      </trkpt>
      <trkpt lat="42.95497" lon="-0.2894">
        <ele>1425.0038623917</ele>
        <time>2021-06-21T10:24:18.585Z</time>
      </trkpt>
      <trkpt lat="42.95494" lon="-0.28928">
        <ele>1422.6111013726</ele>
        <time>2021-06-21T10:24:22.267Z</time>
      </trkpt>
      <trkpt lat="42.9549" lon="-0.2892">
        <ele>1420.2183508881</ele>
        <time>2021-06-21T10:24:25.950Z</time>
      </trkpt>
      <trkpt lat="42.95485" lon="-0.28911">
        <ele>1417.6387281801</ele>
        <time>2021-06-21T10:24:29.634Z</time>
      </trkpt>
      <trkpt lat="42.9546" lon="-0.2889">
        <ele>1415.4592290463</ele>
        <time>2021-06-21T10:24:33.323Z</time>
      </trkpt>
      <trkpt lat="42.95444" lon="-0.28866">
        <ele>1413.4791357396</ele>
        <time>2021-06-21T10:24:37.016Z</time>
      </trkpt>
      <trkpt lat="42.95444" lon="-0.28866">
        <ele>1411.2215184621</ele>
        <time>2021-06-21T10:24:40.709Z</time>
      </trkpt>
      <trkpt lat="42.95439" lon="-0.28856">
        <ele>1408.9169653576</ele>
        <time>2021-06-21T10:24:44.403Z</time>
      </trkpt>
      <trkpt lat="42.95435" lon="-0.28839">
        <ele>1406.3533771811</ele>
        <time>2021-06-21T10:24:48.099Z</time>
      </trkpt>
      <trkpt lat="42.9543" lon="-0.28806">
        <ele>1403.5800094171</ele>
        <time>2021-06-21T10:24:51.799Z</time>
      </trkpt>
      <trkpt lat="42.95424" lon="-0.28781">
        <ele>1400.9768501525</ele>
        <time>2021-06-21T10:24:55.502Z</time>
      </trkpt>
      <trkpt lat="42.95401" lon="-0.2872">
        <ele>1398.6531164733</ele>
        <time>2021-06-21T10:24:59.213Z</time>
      </trkpt>
      <trkpt lat="42.95395" lon="-0.287">
        <ele>1396.3033060196</ele>
        <time>2021-06-21T10:25:02.927Z</time>
      </trkpt>
      <trkpt lat="42.9539" lon="-0.28684">
        <ele>1393.9424179953</ele>
        <time>2021-06-21T10:25:06.643Z</time>
      </trkpt>
      <trkpt lat="42.9539" lon="-0.28674">
        <ele>1391.4855472695</ele>
        <time>2021-06-21T10:25:10.360Z</time>
      </trkpt>
      <trkpt lat="42.95395" lon="-0.28663">
        <ele>1388.9317737825</ele>
        <time>2021-06-21T10:25:14.079Z</time>
      </trkpt>
      <trkpt lat="42.95402" lon="-0.2865">
        <ele>1386.3184380753</ele>
        <time>2021-06-21T10:25:17.800Z</time>
      </trkpt>
      <trkpt lat="42.9541" lon="-0.28636">
        <ele>1383.7460896876</ele>
        <time>2021-06-21T10:25:21.523Z</time>
      </trkpt>
      <trkpt lat="42.95421" lon="-0.28601">
        <ele>1381.3565087917</ele>
        <time>2021-06-21T10:25:25.250Z</time>
      </trkpt>
      <trkpt lat="42.9544" lon="-0.28567">
        <ele>1379.2285231359</ele>
        <time>2021-06-21T10:25:28.982Z</time>
      </trkpt>
      <trkpt lat="42.95462" lon="-0.28513">
        <ele>1377.3507638886</ele>
        <time>2021-06-21T10:25:32.721Z</time>
      </trkpt>
      <trkpt lat="42.95493" lon="-0.28457">
        <ele>1375.6050855831</ele>
        <time>2021-06-21T10:25:36.469Z</time>
      </trkpt>
      <trkpt lat="42.95503" lon="-0.28412">
        <ele>1374.0016659225</ele>
        <time>2021-06-21T10:25:40.222Z</time>
      </trkpt>
      <trkpt lat="42.95505" lon="-0.28394">
        <ele>1372.6039875226</ele>
        <time>2021-06-21T10:25:43.977Z</time>
      </trkpt>
      <trkpt lat="42.95503" lon="-0.28379">
        <ele>1371.4584497274</ele>
        <time>2021-06-21T10:25:47.734Z</time>
      </trkpt>
      <trkpt lat="42.95491" lon="-0.2835">
        <ele>1370.5947933501</ele>
        <time>2021-06-21T10:25:51.495Z</time>
      </trkpt>
      <trkpt lat="42.95491" lon="-0.2835">
        <ele>1369.6863460764</ele>
        <time>2021-06-21T10:25:55.256Z</time>
      </trkpt>
      <trkpt lat="42.95489" lon="-0.2834">
        <ele>1368.9821257054</ele>
        <time>2021-06-21T10:25:59.018Z</time>
      </trkpt>
      <trkpt lat="42.95491" lon="-0.28325">
        <ele>1368.3438789734</ele>
        <time>2021-06-21T10:26:02.782Z</time>
      </trkpt>
      <trkpt lat="42.95491" lon="-0.28325">
        <ele>1367.9551047744</ele>
        <time>2021-06-21T10:26:06.546Z</time>
      </trkpt>
      <trkpt lat="42.95494" lon="-0.28311">
        <ele>1367.6407495138</ele>
        <time>2021-06-21T10:26:10.312Z</time>
      </trkpt>
      <trkpt lat="42.95497" lon="-0.28247">
        <ele>1367.8417968539</ele>
        <time>2021-06-21T10:26:14.085Z</time>
      </trkpt>
      <trkpt lat="42.95502" lon="-0.28184">
        <ele>1368.0197442543</ele>
        <time>2021-06-21T10:26:17.866Z</time>
      </trkpt>
      <trkpt lat="42.955" lon="-0.28159">
        <ele>1368.4296950495</ele>
        <time>2021-06-21T10:26:21.650Z</time>
      </trkpt>
      <trkpt lat="42.95488" lon="-0.28123">
        <ele>1369.5519598825</ele>
        <time>2021-06-21T10:26:25.438Z</time>
      </trkpt>
      <trkpt lat="42.95487" lon="-0.2811">
        <ele>1370.2694027806</ele>
        <time>2021-06-21T10:26:29.228Z</time>
      </trkpt>
      <trkpt lat="42.95491" lon="-0.28093">
        <ele>1370.8782547712</ele>
        <time>2021-06-21T10:26:33.020Z</time>
      </trkpt>
      <trkpt lat="42.95512" lon="-0.28055">
        <ele>1371.0874884173</ele>
        <time>2021-06-21T10:26:36.817Z</time>
      </trkpt>
      <trkpt lat="42.95518" lon="-0.28038">
        <ele>1372.0749207505</ele>
        <time>2021-06-21T10:26:40.617Z</time>
      </trkpt>
      <trkpt lat="42.95523" lon="-0.28">
        <ele>1373.4389766608</ele>
        <time>2021-06-21T10:26:44.421Z</time>
      </trkpt>
      <trkpt lat="42.95531" lon="-0.27967">
        <ele>1374.8398352413</ele>
        <time>2021-06-21T10:26:48.229Z</time>
      </trkpt>
      <trkpt lat="42.95543" lon="-0.2782">
        <ele>1376.4964707084</ele>
        <time>2021-06-21T10:26:52.055Z</time>
      </trkpt>
      <trkpt lat="42.95541" lon="-0.27801">
        <ele>1378.0191539164</ele>
        <time>2021-06-21T10:26:55.883Z</time>
      </trkpt>
      <trkpt lat="42.95534" lon="-0.27773">
        <ele>1379.8439004086</ele>
        <time>2021-06-21T10:26:59.714Z</time>
      </trkpt>
      <trkpt lat="42.95531" lon="-0.27746">
        <ele>1381.4971609591</ele>
        <time>2021-06-21T10:27:03.549Z</time>
      </trkpt>
      <trkpt lat="42.95532" lon="-0.27733">
        <ele>1383.1978619216</ele>
        <time>2021-06-21T10:27:07.385Z</time>
      </trkpt>
      <trkpt lat="42.95538" lon="-0.27721">
        <ele>1384.931993056</ele>
        <time>2021-06-21T10:27:11.223Z</time>
      </trkpt>
      <trkpt lat="42.95574" lon="-0.27683">
        <ele>1386.6921426146</ele>
        <time>2021-06-21T10:27:15.068Z</time>
      </trkpt>
      <trkpt lat="42.95594" lon="-0.27662">
        <ele>1388.630168189</ele>
        <time>2021-06-21T10:27:18.917Z</time>
      </trkpt>
      <trkpt lat="42.95632" lon="-0.27633">
        <ele>1390.7720848086</ele>
        <time>2021-06-21T10:27:22.773Z</time>
      </trkpt>
      <trkpt lat="42.95641" lon="-0.27627">
        <ele>1392.9003985531</ele>
        <time>2021-06-21T10:27:26.631Z</time>
      </trkpt>
      <trkpt lat="42.95648" lon="-0.27626">
        <ele>1395.0486379356</ele>
        <time>2021-06-21T10:27:30.490Z</time>
      </trkpt>
      <trkpt lat="42.95663" lon="-0.27627">
        <ele>1397.205327679</ele>
        <time>2021-06-21T10:27:34.351Z</time>
      </trkpt>
      <trkpt lat="42.95685" lon="-0.27633">
        <ele>1399.4127868119</ele>
        <time>2021-06-21T10:27:38.216Z</time>
      </trkpt>
      <trkpt lat="42.95719" lon="-0.27636">
        <ele>1401.8178269121</ele>
        <time>2021-06-21T10:27:42.086Z</time>
      </trkpt>
      <trkpt lat="42.95735" lon="-0.27644">
        <ele>1404.1544218194</ele>
        <time>2021-06-21T10:27:45.959Z</time>
      </trkpt>
      <trkpt lat="42.95762" lon="-0.27661">
        <ele>1406.2702429379</ele>
        <time>2021-06-21T10:27:49.837Z</time>
      </trkpt>
      <trkpt lat="42.95771" lon="-0.27664">
        <ele>1408.5239417064</ele>
        <time>2021-06-21T10:27:53.716Z</time>
      </trkpt>
      <trkpt lat="42.9578" lon="-0.2766">
        <ele>1410.915129473</ele>
        <time>2021-06-21T10:27:57.597Z</time>
      </trkpt>
      <trkpt lat="42.95786" lon="-0.2765">
        <ele>1413.4188360419</ele>
        <time>2021-06-21T10:28:01.479Z</time>
      </trkpt>
      <trkpt lat="42.95814" lon="-0.27547">
        <ele>1416.8898581391</ele>
        <time>2021-06-21T10:28:05.374Z</time>
      </trkpt>
      <trkpt lat="42.95823" lon="-0.27497">
        <ele>1419.8080560974</ele>
        <time>2021-06-21T10:28:09.275Z</time>
      </trkpt>
      <trkpt lat="42.95828" lon="-0.27484">
        <ele>1422.315706815</ele>
        <time>2021-06-21T10:28:13.178Z</time>
      </trkpt>
      <trkpt lat="42.95841" lon="-0.27458">
        <ele>1424.8050021532</ele>
        <time>2021-06-21T10:28:17.085Z</time>
      </trkpt>
      <trkpt lat="42.95845" lon="-0.27445">
        <ele>1427.1151850664</ele>
        <time>2021-06-21T10:28:20.993Z</time>
      </trkpt>
      <trkpt lat="42.95842" lon="-0.27423">
        <ele>1429.4679006347</ele>
        <time>2021-06-21T10:28:24.904Z</time>
      </trkpt>
      <trkpt lat="42.95822" lon="-0.27376">
        <ele>1432.0486043377</ele>
        <time>2021-06-21T10:28:28.821Z</time>
      </trkpt>
      <trkpt lat="42.9581" lon="-0.27339">
        <ele>1434.3958311226</ele>
        <time>2021-06-21T10:28:32.743Z</time>
      </trkpt>
      <trkpt lat="42.95805" lon="-0.27288">
        <ele>1436.7048069786</ele>
        <time>2021-06-21T10:28:36.671Z</time>
      </trkpt>
      <trkpt lat="42.95806" lon="-0.27272">
        <ele>1438.7684827684</ele>
        <time>2021-06-21T10:28:40.601Z</time>
      </trkpt>
      <trkpt lat="42.95811" lon="-0.27251">
        <ele>1440.6784872963</ele>
        <time>2021-06-21T10:28:44.534Z</time>
      </trkpt>
      <trkpt lat="42.95831" lon="-0.27188">
        <ele>1442.3202222663</ele>
        <time>2021-06-21T10:28:48.475Z</time>
      </trkpt>
      <trkpt lat="42.95835" lon="-0.27171">
        <ele>1444.1783768646</ele>
        <time>2021-06-21T10:28:52.418Z</time>
      </trkpt>
      <trkpt lat="42.95836" lon="-0.27154">
        <ele>1446.0039566576</ele>
        <time>2021-06-21T10:28:56.363Z</time>
      </trkpt>
      <trkpt lat="42.95831" lon="-0.27114">
        <ele>1447.8989077443</ele>
        <time>2021-06-21T10:29:00.313Z</time>
      </trkpt>
      <trkpt lat="42.95828" lon="-0.27092">
        <ele>1449.5905429613</ele>
        <time>2021-06-21T10:29:04.265Z</time>
      </trkpt>
      <trkpt lat="42.95828" lon="-0.2707">
        <ele>1451.1336505806</ele>
        <time>2021-06-21T10:29:08.220Z</time>
      </trkpt>
      <trkpt lat="42.9583" lon="-0.27058">
        <ele>1452.5572862329</ele>
        <time>2021-06-21T10:29:12.176Z</time>
      </trkpt>
      <trkpt lat="42.95835" lon="-0.27046">
        <ele>1453.8631516149</ele>
        <time>2021-06-21T10:29:16.134Z</time>
      </trkpt>
      <trkpt lat="42.95856" lon="-0.27016">
        <ele>1454.9784330764</ele>
        <time>2021-06-21T10:29:20.097Z</time>
      </trkpt>
      <trkpt lat="42.95861" lon="-0.27003">
        <ele>1456.2168743682</ele>
        <time>2021-06-21T10:29:24.062Z</time>
      </trkpt>
      <trkpt lat="42.95884" lon="-0.26928">
        <ele>1457.5332689324</ele>
        <time>2021-06-21T10:29:28.036Z</time>
      </trkpt>
      <trkpt lat="42.95892" lon="-0.26917">
        <ele>1458.6051882438</ele>
        <time>2021-06-21T10:29:32.012Z</time>
      </trkpt>
      <trkpt lat="42.95892" lon="-0.26917">
        <ele>1459.637622153</ele>
        <time>2021-06-21T10:29:35.988Z</time>
      </trkpt>
      <trkpt lat="42.95911" lon="-0.26894">
        <ele>1460.5267939438</ele>
        <time>2021-06-21T10:29:39.968Z</time>
      </trkpt>
      <trkpt lat="42.95921" lon="-0.26875">
        <ele>1461.3951962024</ele>
        <time>2021-06-21T10:29:43.951Z</time>
      </trkpt>
      <trkpt lat="42.95934" lon="-0.26846">
        <ele>1462.2579666953</ele>
        <time>2021-06-21T10:29:47.938Z</time>
      </trkpt>
      <trkpt lat="42.95938" lon="-0.26831">
        <ele>1463.0501996244</ele>
        <time>2021-06-21T10:29:51.927Z</time>
      </trkpt>
      <trkpt lat="42.95942" lon="-0.26768">
        <ele>1463.8311349599</ele>
        <time>2021-06-21T10:29:55.923Z</time>
      </trkpt>
      <trkpt lat="42.95989" lon="-0.26525">
        <ele>1464.5908119693</ele>
        <time>2021-06-21T10:29:59.949Z</time>
      </trkpt>
      <trkpt lat="42.95991" lon="-0.26505">
        <ele>1465.1374651331</ele>
        <time>2021-06-21T10:30:03.977Z</time>
      </trkpt>
      <trkpt lat="42.95994" lon="-0.26489">
        <ele>1465.5660190367</ele>
        <time>2021-06-21T10:30:08.007Z</time>
      </trkpt>
      <trkpt lat="42.96" lon="-0.26476">
        <ele>1465.8779384928</ele>
        <time>2021-06-21T10:30:12.039Z</time>
      </trkpt>
      <trkpt lat="42.96018" lon="-0.26441">
        <ele>1466.1272410418</ele>
        <time>2021-06-21T10:30:16.076Z</time>
      </trkpt>
      <trkpt lat="42.96029" lon="-0.26415">
        <ele>1466.3390363591</ele>
        <time>2021-06-21T10:30:20.116Z</time>
      </trkpt>
      <trkpt lat="42.96041" lon="-0.26376">
        <ele>1466.5186593879</ele>
        <time>2021-06-21T10:30:24.161Z</time>
      </trkpt>
      <trkpt lat="42.96045" lon="-0.26353">
        <ele>1466.4983456152</ele>
        <time>2021-06-21T10:30:28.209Z</time>
      </trkpt>
      <trkpt lat="42.96054" lon="-0.26277">
        <ele>1466.5732233625</ele>
        <time>2021-06-21T10:30:32.266Z</time>
      </trkpt>
      <trkpt lat="42.96064" lon="-0.26177">
        <ele>1466.4703103408</ele>
        <time>2021-06-21T10:30:36.335Z</time>
      </trkpt>
      <trkpt lat="42.96064" lon="-0.26159">
        <ele>1466.11623861</ele>
        <time>2021-06-21T10:30:40.406Z</time>
      </trkpt>
      <trkpt lat="42.96063" lon="-0.26138">
        <ele>1465.5598887159</ele>
        <time>2021-06-21T10:30:44.479Z</time>
      </trkpt>
      <trkpt lat="42.96061" lon="-0.26081">
        <ele>1465.0248566114</ele>
        <time>2021-06-21T10:30:48.559Z</time>
      </trkpt>
      <trkpt lat="42.96059" lon="-0.26025">
        <ele>1463.9984920193</ele>
        <time>2021-06-21T10:30:52.646Z</time>
      </trkpt>
      <trkpt lat="42.96056" lon="-0.26016">
        <ele>1463.1067674712</ele>
        <time>2021-06-21T10:30:56.734Z</time>
      </trkpt>
      <trkpt lat="42.96037" lon="-0.25986">
        <ele>1461.9245096322</ele>
        <time>2021-06-21T10:31:00.826Z</time>
      </trkpt>
      <trkpt lat="42.96034" lon="-0.25964">
        <ele>1460.7602384942</ele>
        <time>2021-06-21T10:31:04.921Z</time>
      </trkpt>
      <trkpt lat="42.96033" lon="-0.25938">
        <ele>1459.5053105521</ele>
        <time>2021-06-21T10:31:09.019Z</time>
      </trkpt>
      <trkpt lat="42.96036" lon="-0.25914">
        <ele>1458.2099218128</ele>
        <time>2021-06-21T10:31:13.120Z</time>
      </trkpt>
      <trkpt lat="42.96056" lon="-0.25858">
        <ele>1456.8114543884</ele>
        <time>2021-06-21T10:31:17.228Z</time>
      </trkpt>
      <trkpt lat="42.96078" lon="-0.25755">
        <ele>1455.1746300501</ele>
        <time>2021-06-21T10:31:21.349Z</time>
      </trkpt>
      <trkpt lat="42.96081" lon="-0.25702">
        <ele>1453.5838526197</ele>
        <time>2021-06-21T10:31:25.476Z</time>
      </trkpt>
      <trkpt lat="42.96081" lon="-0.25649">
        <ele>1451.9414129883</ele>
        <time>2021-06-21T10:31:29.609Z</time>
      </trkpt>
      <trkpt lat="42.96078" lon="-0.2563">
        <ele>1450.2479726797</ele>
        <time>2021-06-21T10:31:33.745Z</time>
      </trkpt>
      <trkpt lat="42.96076" lon="-0.25626">
        <ele>1448.5523400996</ele>
        <time>2021-06-21T10:31:37.881Z</time>
      </trkpt>
      <trkpt lat="42.96073" lon="-0.25618">
        <ele>1446.7891923106</ele>
        <time>2021-06-21T10:31:42.018Z</time>
      </trkpt>
      <trkpt lat="42.96041" lon="-0.25589">
        <ele>1444.6565632241</ele>
        <time>2021-06-21T10:31:46.161Z</time>
      </trkpt>
      <trkpt lat="42.96033" lon="-0.25578">
        <ele>1442.7852332786</ele>
        <time>2021-06-21T10:31:50.306Z</time>
      </trkpt>
      <trkpt lat="42.96028" lon="-0.25558">
        <ele>1440.8881976207</ele>
        <time>2021-06-21T10:31:54.454Z</time>
      </trkpt>
      <trkpt lat="42.96024" lon="-0.25532">
        <ele>1438.9890139318</ele>
        <time>2021-06-21T10:31:58.605Z</time>
      </trkpt>
      <trkpt lat="42.96029" lon="-0.25495">
        <ele>1437.1419745807</ele>
        <time>2021-06-21T10:32:02.760Z</time>
      </trkpt>
      <trkpt lat="42.96032" lon="-0.25478">
        <ele>1435.262049951</ele>
        <time>2021-06-21T10:32:06.917Z</time>
      </trkpt>
      <trkpt lat="42.96045" lon="-0.25455">
        <ele>1433.3954340018</ele>
        <time>2021-06-21T10:32:11.078Z</time>
      </trkpt>
      <trkpt lat="42.9607" lon="-0.25421">
        <ele>1431.4439306252</ele>
        <time>2021-06-21T10:32:15.244Z</time>
      </trkpt>
      <trkpt lat="42.96095" lon="-0.25404">
        <ele>1429.5607690209</ele>
        <time>2021-06-21T10:32:19.415Z</time>
      </trkpt>
      <trkpt lat="42.96106" lon="-0.25399">
        <ele>1427.5778743536</ele>
        <time>2021-06-21T10:32:23.588Z</time>
      </trkpt>
      <trkpt lat="42.96112" lon="-0.25391">
        <ele>1425.5362959675</ele>
        <time>2021-06-21T10:32:27.762Z</time>
      </trkpt>
      <trkpt lat="42.96115" lon="-0.25384">
        <ele>1423.4750629924</ele>
        <time>2021-06-21T10:32:31.937Z</time>
      </trkpt>
      <trkpt lat="42.96115" lon="-0.25384">
        <ele>1421.4275031208</ele>
        <time>2021-06-21T10:32:36.112Z</time>
      </trkpt>
      <trkpt lat="42.96117" lon="-0.25378">
        <ele>1419.3339014585</ele>
        <time>2021-06-21T10:32:40.288Z</time>
      </trkpt>
      <trkpt lat="42.96118" lon="-0.25287">
        <ele>1416.6632985327</ele>
        <time>2021-06-21T10:32:44.475Z</time>
      </trkpt>
      <trkpt lat="42.9612" lon="-0.25272">
        <ele>1414.5620671825</ele>
        <time>2021-06-21T10:32:48.663Z</time>
      </trkpt>
      <trkpt lat="42.96124" lon="-0.25255">
        <ele>1412.4450575617</ele>
        <time>2021-06-21T10:32:52.853Z</time>
      </trkpt>
      <trkpt lat="42.96126" lon="-0.25237">
        <ele>1410.2905761671</ele>
        <time>2021-06-21T10:32:57.046Z</time>
      </trkpt>
      <trkpt lat="42.96121" lon="-0.25223">
        <ele>1408.0752897899</ele>
        <time>2021-06-21T10:33:01.240Z</time>
      </trkpt>
      <trkpt lat="42.96103" lon="-0.25201">
        <ele>1405.7455566808</ele>
        <time>2021-06-21T10:33:05.438Z</time>
      </trkpt>
      <trkpt lat="42.96095" lon="-0.25184">
        <ele>1403.5422477445</ele>
        <time>2021-06-21T10:33:09.639Z</time>
      </trkpt>
      <trkpt lat="42.96094" lon="-0.2517">
        <ele>1401.4016643859</ele>
        <time>2021-06-21T10:33:13.841Z</time>
      </trkpt>
      <trkpt lat="42.96096" lon="-0.25156">
        <ele>1399.2904247379</ele>
        <time>2021-06-21T10:33:18.045Z</time>
      </trkpt>
      <trkpt lat="42.96113" lon="-0.25098">
        <ele>1397.2626643558</ele>
        <time>2021-06-21T10:33:22.256Z</time>
      </trkpt>
      <trkpt lat="42.96116" lon="-0.25081">
        <ele>1395.1294910296</ele>
        <time>2021-06-21T10:33:26.469Z</time>
      </trkpt>
      <trkpt lat="42.96113" lon="-0.25068">
        <ele>1392.958168671</ele>
        <time>2021-06-21T10:33:30.684Z</time>
      </trkpt>
      <trkpt lat="42.96109" lon="-0.25053">
        <ele>1390.7583866657</ele>
        <time>2021-06-21T10:33:34.901Z</time>
      </trkpt>
      <trkpt lat="42.96102" lon="-0.25045">
        <ele>1388.5373937675</ele>
        <time>2021-06-21T10:33:39.119Z</time>
      </trkpt>
      <trkpt lat="42.96092" lon="-0.25038">
        <ele>1386.3021161404</ele>
        <time>2021-06-21T10:33:43.339Z</time>
      </trkpt>
      <trkpt lat="42.96077" lon="-0.25036">
        <ele>1384.0218918689</ele>
        <time>2021-06-21T10:33:47.561Z</time>
      </trkpt>
      <trkpt lat="42.96036" lon="-0.25033">
        <ele>1381.4947016148</ele>
        <time>2021-06-21T10:33:51.790Z</time>
      </trkpt>
      <trkpt lat="42.96024" lon="-0.25026">
        <ele>1379.2445131846</ele>
        <time>2021-06-21T10:33:56.021Z</time>
      </trkpt>
      <trkpt lat="42.96017" lon="-0.25017">
        <ele>1377.0372321426</ele>
        <time>2021-06-21T10:34:00.254Z</time>
      </trkpt>
      <trkpt lat="42.96007" lon="-0.2499">
        <ele>1374.803105361</ele>
        <time>2021-06-21T10:34:04.490Z</time>
      </trkpt>
      <trkpt lat="42.96003" lon="-0.24962">
        <ele>1372.6074026075</ele>
        <time>2021-06-21T10:34:08.730Z</time>
      </trkpt>
      <trkpt lat="42.96004" lon="-0.24942">
        <ele>1370.4812390972</ele>
        <time>2021-06-21T10:34:12.972Z</time>
      </trkpt>
      <trkpt lat="42.96013" lon="-0.24912">
        <ele>1368.4321989806</ele>
        <time>2021-06-21T10:34:17.218Z</time>
      </trkpt>
      <trkpt lat="42.96029" lon="-0.24861">
        <ele>1366.3489564785</ele>
        <time>2021-06-21T10:34:21.470Z</time>
      </trkpt>
      <trkpt lat="42.96047" lon="-0.24838">
        <ele>1364.2900250507</ele>
        <time>2021-06-21T10:34:25.726Z</time>
      </trkpt>
      <trkpt lat="42.96058" lon="-0.24822">
        <ele>1362.1766354053</ele>
        <time>2021-06-21T10:34:29.985Z</time>
      </trkpt>
      <trkpt lat="42.9607" lon="-0.248">
        <ele>1360.0243220321</ele>
        <time>2021-06-21T10:34:34.247Z</time>
      </trkpt>
      <trkpt lat="42.96078" lon="-0.24779">
        <ele>1357.8272052693</ele>
        <time>2021-06-21T10:34:38.512Z</time>
      </trkpt>
      <trkpt lat="42.96082" lon="-0.24764">
        <ele>1355.6116958987</ele>
        <time>2021-06-21T10:34:42.779Z</time>
      </trkpt>
      <trkpt lat="42.9609" lon="-0.24722">
        <ele>1353.2109070339</ele>
        <time>2021-06-21T10:34:47.051Z</time>
      </trkpt>
      <trkpt lat="42.96103" lon="-0.24677">
        <ele>1350.9576027516</ele>
        <time>2021-06-21T10:34:51.328Z</time>
      </trkpt>
      <trkpt lat="42.96124" lon="-0.24612">
        <ele>1348.6667114549</ele>
        <time>2021-06-21T10:34:55.614Z</time>
      </trkpt>
      <trkpt lat="42.96133" lon="-0.24593">
        <ele>1346.4462254659</ele>
        <time>2021-06-21T10:34:59.902Z</time>
      </trkpt>
      <trkpt lat="42.96229" lon="-0.24498">
        <ele>1344.2950947806</ele>
        <time>2021-06-21T10:35:04.209Z</time>
      </trkpt>
      <trkpt lat="42.96247" lon="-0.24478">
        <ele>1342.0235989014</ele>
        <time>2021-06-21T10:35:08.520Z</time>
      </trkpt>
      <trkpt lat="42.96256" lon="-0.24462">
        <ele>1339.7517790521</ele>
        <time>2021-06-21T10:35:12.834Z</time>
      </trkpt>
      <trkpt lat="42.96265" lon="-0.24444">
        <ele>1337.4802139097</ele>
        <time>2021-06-21T10:35:17.150Z</time>
      </trkpt>
      <trkpt lat="42.96296" lon="-0.24368">
        <ele>1334.8016242417</ele>
        <time>2021-06-21T10:35:21.476Z</time>
      </trkpt>
      <trkpt lat="42.96314" lon="-0.24333">
        <ele>1332.5698578236</ele>
        <time>2021-06-21T10:35:25.807Z</time>
      </trkpt>
      <trkpt lat="42.96341" lon="-0.24295">
        <ele>1330.406125297</ele>
        <time>2021-06-21T10:35:30.144Z</time>
      </trkpt>
      <trkpt lat="42.96347" lon="-0.2428">
        <ele>1328.3111643878</ele>
        <time>2021-06-21T10:35:34.484Z</time>
      </trkpt>
      <trkpt lat="42.96347" lon="-0.24264">
        <ele>1326.2121410634</ele>
        <time>2021-06-21T10:35:38.825Z</time>
      </trkpt>
      <trkpt lat="42.96341" lon="-0.24248">
        <ele>1324.1139235579</ele>
        <time>2021-06-21T10:35:43.169Z</time>
      </trkpt>
      <trkpt lat="42.96337" lon="-0.24244">
        <ele>1322.0784939633</ele>
        <time>2021-06-21T10:35:47.513Z</time>
      </trkpt>
      <trkpt lat="42.96332" lon="-0.24241">
        <ele>1320.0723458466</ele>
        <time>2021-06-21T10:35:51.858Z</time>
      </trkpt>
      <trkpt lat="42.96318" lon="-0.24238">
        <ele>1318.0254637532</ele>
        <time>2021-06-21T10:35:56.205Z</time>
      </trkpt>
      <trkpt lat="42.96299" lon="-0.24235">
        <ele>1315.9449025514</ele>
        <time>2021-06-21T10:36:00.556Z</time>
      </trkpt>
      <trkpt lat="42.96288" lon="-0.24229">
        <ele>1313.9340510132</ele>
        <time>2021-06-21T10:36:04.908Z</time>
      </trkpt>
      <trkpt lat="42.96282" lon="-0.2422">
        <ele>1311.9709472191</ele>
        <time>2021-06-21T10:36:09.262Z</time>
      </trkpt>
      <trkpt lat="42.96274" lon="-0.24204">
        <ele>1309.9905588946</ele>
        <time>2021-06-21T10:36:13.618Z</time>
      </trkpt>
      <trkpt lat="42.96269" lon="-0.24184">
        <ele>1308.0915512395</ele>
        <time>2021-06-21T10:36:17.977Z</time>
      </trkpt>
      <trkpt lat="42.96269" lon="-0.24173">
        <ele>1306.2723228124</ele>
        <time>2021-06-21T10:36:22.337Z</time>
      </trkpt>
      <trkpt lat="42.96269" lon="-0.24162">
        <ele>1304.4658334144</ele>
        <time>2021-06-21T10:36:26.698Z</time>
      </trkpt>
      <trkpt lat="42.96271" lon="-0.24145">
        <ele>1302.672722777</ele>
        <time>2021-06-21T10:36:31.061Z</time>
      </trkpt>
      <trkpt lat="42.96278" lon="-0.24135">
        <ele>1300.9105628971</ele>
        <time>2021-06-21T10:36:35.426Z</time>
      </trkpt>
      <trkpt lat="42.96278" lon="-0.24135">
        <ele>1299.1244572583</ele>
        <time>2021-06-21T10:36:39.791Z</time>
      </trkpt>
      <trkpt lat="42.96295" lon="-0.24118">
        <ele>1297.3259286023</ele>
        <time>2021-06-21T10:36:44.159Z</time>
      </trkpt>
      <trkpt lat="42.9631" lon="-0.24109">
        <ele>1295.5168934036</ele>
        <time>2021-06-21T10:36:48.530Z</time>
      </trkpt>
      <trkpt lat="42.96327" lon="-0.24106">
        <ele>1293.7537849793</ele>
        <time>2021-06-21T10:36:52.904Z</time>
      </trkpt>
      <trkpt lat="42.96352" lon="-0.24107">
        <ele>1292.0307218253</ele>
        <time>2021-06-21T10:36:57.282Z</time>
      </trkpt>
      <trkpt lat="42.96365" lon="-0.24101">
        <ele>1290.1655015753</ele>
        <time>2021-06-21T10:37:01.662Z</time>
      </trkpt>
      <trkpt lat="42.96371" lon="-0.24096">
        <ele>1288.2411040304</ele>
        <time>2021-06-21T10:37:06.043Z</time>
      </trkpt>
      <trkpt lat="42.96376" lon="-0.24089">
        <ele>1286.2671449181</ele>
        <time>2021-06-21T10:37:10.425Z</time>
      </trkpt>
      <trkpt lat="42.96414" lon="-0.24022">
        <ele>1283.9828578777</ele>
        <time>2021-06-21T10:37:14.817Z</time>
      </trkpt>
      <trkpt lat="42.96416" lon="-0.24013">
        <ele>1281.9348054391</ele>
        <time>2021-06-21T10:37:19.210Z</time>
      </trkpt>
      <trkpt lat="42.96417" lon="-0.24005">
        <ele>1279.8416249207</ele>
        <time>2021-06-21T10:37:23.604Z</time>
      </trkpt>
      <trkpt lat="42.96416" lon="-0.23992">
        <ele>1277.6806849157</ele>
        <time>2021-06-21T10:37:28.000Z</time>
      </trkpt>
      <trkpt lat="42.96413" lon="-0.23981">
        <ele>1275.4784119878</ele>
        <time>2021-06-21T10:37:32.397Z</time>
      </trkpt>
      <trkpt lat="42.96397" lon="-0.23947">
        <ele>1273.0212008668</ele>
        <time>2021-06-21T10:37:36.799Z</time>
      </trkpt>
      <trkpt lat="42.9639" lon="-0.23925">
        <ele>1270.7091938329</ele>
        <time>2021-06-21T10:37:41.203Z</time>
      </trkpt>
      <trkpt lat="42.96388" lon="-0.23906">
        <ele>1268.365470936</ele>
        <time>2021-06-21T10:37:45.610Z</time>
      </trkpt>
      <trkpt lat="42.9639" lon="-0.23891">
        <ele>1266.0168700178</ele>
        <time>2021-06-21T10:37:50.019Z</time>
      </trkpt>
      <trkpt lat="42.964" lon="-0.23867">
        <ele>1263.7246214651</ele>
        <time>2021-06-21T10:37:54.431Z</time>
      </trkpt>
      <trkpt lat="42.96401" lon="-0.23843">
        <ele>1261.356437866</ele>
        <time>2021-06-21T10:37:58.846Z</time>
      </trkpt>
      <trkpt lat="42.96396" lon="-0.23816">
        <ele>1258.8746407128</ele>
        <time>2021-06-21T10:38:03.264Z</time>
      </trkpt>
      <trkpt lat="42.96376" lon="-0.23751">
        <ele>1256.2419958655</ele>
        <time>2021-06-21T10:38:07.690Z</time>
      </trkpt>
      <trkpt lat="42.9636" lon="-0.2371">
        <ele>1253.659671682</ele>
        <time>2021-06-21T10:38:12.122Z</time>
      </trkpt>
      <trkpt lat="42.96342" lon="-0.2367">
        <ele>1251.0192898653</ele>
        <time>2021-06-21T10:38:16.559Z</time>
      </trkpt>
      <trkpt lat="42.96315" lon="-0.23621">
        <ele>1248.2741992622</ele>
        <time>2021-06-21T10:38:21.003Z</time>
      </trkpt>
      <trkpt lat="42.96267" lon="-0.2345">
        <ele>1245.5436958276</ele>
        <time>2021-06-21T10:38:25.469Z</time>
      </trkpt>
      <trkpt lat="42.96237" lon="-0.23364">
        <ele>1242.8400663709</ele>
        <time>2021-06-21T10:38:29.946Z</time>
      </trkpt>
      <trkpt lat="42.96234" lon="-0.2335">
        <ele>1240.4602619045</ele>
        <time>2021-06-21T10:38:34.425Z</time>
      </trkpt>
      <trkpt lat="42.96233" lon="-0.23328">
        <ele>1238.1419899612</ele>
        <time>2021-06-21T10:38:38.906Z</time>
      </trkpt>
      <trkpt lat="42.96237" lon="-0.23299">
        <ele>1235.9247195498</ele>
        <time>2021-06-21T10:38:43.391Z</time>
      </trkpt>
      <trkpt lat="42.96248" lon="-0.23253">
        <ele>1233.7087035982</ele>
        <time>2021-06-21T10:38:47.882Z</time>
      </trkpt>
      <trkpt lat="42.9627" lon="-0.23168">
        <ele>1231.311240744</ele>
        <time>2021-06-21T10:38:52.383Z</time>
      </trkpt>
      <trkpt lat="42.96279" lon="-0.23153">
        <ele>1229.118691111</ele>
        <time>2021-06-21T10:38:56.886Z</time>
      </trkpt>
      <trkpt lat="42.96294" lon="-0.23135">
        <ele>1226.9902488771</ele>
        <time>2021-06-21T10:39:01.393Z</time>
      </trkpt>
      <trkpt lat="42.96319" lon="-0.23113">
        <ele>1224.9324729343</ele>
        <time>2021-06-21T10:39:05.904Z</time>
      </trkpt>
      <trkpt lat="42.96338" lon="-0.23095">
        <ele>1222.8909995376</ele>
        <time>2021-06-21T10:39:10.419Z</time>
      </trkpt>
      <trkpt lat="42.96347" lon="-0.23088">
        <ele>1220.9022517791</ele>
        <time>2021-06-21T10:39:14.936Z</time>
      </trkpt>
      <trkpt lat="42.96356" lon="-0.23085">
        <ele>1218.9648057579</ele>
        <time>2021-06-21T10:39:19.454Z</time>
      </trkpt>
      <trkpt lat="42.96365" lon="-0.23084">
        <ele>1217.087759204</ele>
        <time>2021-06-21T10:39:23.974Z</time>
      </trkpt>
      <trkpt lat="42.96365" lon="-0.23084">
        <ele>1215.2527494318</ele>
        <time>2021-06-21T10:39:28.494Z</time>
      </trkpt>
      <trkpt lat="42.9638" lon="-0.23087">
        <ele>1213.496668009</ele>
        <time>2021-06-21T10:39:33.016Z</time>
      </trkpt>
      <trkpt lat="42.96392" lon="-0.23088">
        <ele>1211.7376507153</ele>
        <time>2021-06-21T10:39:37.540Z</time>
      </trkpt>
      <trkpt lat="42.96403" lon="-0.23085">
        <ele>1209.9822773533</ele>
        <time>2021-06-21T10:39:42.066Z</time>
      </trkpt>
      <trkpt lat="42.96411" lon="-0.2308">
        <ele>1208.2485334418</ele>
        <time>2021-06-21T10:39:46.593Z</time>
      </trkpt>
      <trkpt lat="42.96417" lon="-0.2307">
        <ele>1206.5190257495</ele>
        <time>2021-06-21T10:39:51.122Z</time>
      </trkpt>
      <trkpt lat="42.96421" lon="-0.2305">
        <ele>1204.7523280829</ele>
        <time>2021-06-21T10:39:55.653Z</time>
      </trkpt>
      <trkpt lat="42.96421" lon="-0.2305">
        <ele>1203.1472448673</ele>
        <time>2021-06-21T10:40:00.184Z</time>
      </trkpt>
      <trkpt lat="42.96429" lon="-0.23005">
        <ele>1201.3532684334</ele>
        <time>2021-06-21T10:40:04.721Z</time>
      </trkpt>
      <trkpt lat="42.96434" lon="-0.22995">
        <ele>1199.7747303726</ele>
        <time>2021-06-21T10:40:09.259Z</time>
      </trkpt>
      <trkpt lat="42.96453" lon="-0.22974">
        <ele>1198.2149232002</ele>
        <time>2021-06-21T10:40:13.801Z</time>
      </trkpt>
      <trkpt lat="42.96476" lon="-0.22955">
        <ele>1196.7077404635</ele>
        <time>2021-06-21T10:40:18.347Z</time>
      </trkpt>
      <trkpt lat="42.9649" lon="-0.22939">
        <ele>1195.1815388227</ele>
        <time>2021-06-21T10:40:22.896Z</time>
      </trkpt>
      <trkpt lat="42.96507" lon="-0.22905">
        <ele>1193.5741328174</ele>
        <time>2021-06-21T10:40:27.450Z</time>
      </trkpt>
      <trkpt lat="42.96525" lon="-0.22836">
        <ele>1191.727796416</ele>
        <time>2021-06-21T10:40:32.013Z</time>
      </trkpt>
      <trkpt lat="42.96531" lon="-0.22816">
        <ele>1190.1844270683</ele>
        <time>2021-06-21T10:40:36.578Z</time>
      </trkpt>
      <trkpt lat="42.96538" lon="-0.22791">
        <ele>1188.6496726306</ele>
        <time>2021-06-21T10:40:41.146Z</time>
      </trkpt>
      <trkpt lat="42.96546" lon="-0.22774">
        <ele>1187.2209428895</ele>
        <time>2021-06-21T10:40:45.717Z</time>
      </trkpt>
      <trkpt lat="42.96554" lon="-0.22762">
        <ele>1185.8430516439</ele>
        <time>2021-06-21T10:40:50.290Z</time>
      </trkpt>
      <trkpt lat="42.96568" lon="-0.22755">
        <ele>1184.5238586557</ele>
        <time>2021-06-21T10:40:54.865Z</time>
      </trkpt>
      <trkpt lat="42.9658" lon="-0.22754">
        <ele>1183.2437558981</ele>
        <time>2021-06-21T10:40:59.442Z</time>
      </trkpt>
      <trkpt lat="42.96595" lon="-0.22757">
        <ele>1181.9837970625</ele>
        <time>2021-06-21T10:41:04.021Z</time>
      </trkpt>
      <trkpt lat="42.96611" lon="-0.22766">
        <ele>1180.6911043278</ele>
        <time>2021-06-21T10:41:08.603Z</time>
      </trkpt>
      <trkpt lat="42.96638" lon="-0.2279">
        <ele>1179.4771623411</ele>
        <time>2021-06-21T10:41:13.190Z</time>
      </trkpt>
      <trkpt lat="42.96649" lon="-0.22794">
        <ele>1178.1853872759</ele>
        <time>2021-06-21T10:41:17.779Z</time>
      </trkpt>
      <trkpt lat="42.96661" lon="-0.22793">
        <ele>1176.8585418705</ele>
        <time>2021-06-21T10:41:22.370Z</time>
      </trkpt>
      <trkpt lat="42.96679" lon="-0.22783">
        <ele>1175.4724840329</ele>
        <time>2021-06-21T10:41:26.964Z</time>
      </trkpt>
      <trkpt lat="42.96701" lon="-0.22759">
        <ele>1174.0482986498</ele>
        <time>2021-06-21T10:41:31.563Z</time>
      </trkpt>
      <trkpt lat="42.96711" lon="-0.22747">
        <ele>1172.6651743764</ele>
        <time>2021-06-21T10:41:36.164Z</time>
      </trkpt>
      <trkpt lat="42.96718" lon="-0.22732">
        <ele>1171.24783728</ele>
        <time>2021-06-21T10:41:40.767Z</time>
      </trkpt>
      <trkpt lat="42.96718" lon="-0.22732">
        <ele>1169.8909139062</ele>
        <time>2021-06-21T10:41:45.370Z</time>
      </trkpt>
      <trkpt lat="42.9672" lon="-0.2272">
        <ele>1168.4538981393</ele>
        <time>2021-06-21T10:41:49.974Z</time>
      </trkpt>
      <trkpt lat="42.9672" lon="-0.22704">
        <ele>1167.0003515448</ele>
        <time>2021-06-21T10:41:54.580Z</time>
      </trkpt>
      <trkpt lat="42.96711" lon="-0.22661">
        <ele>1165.4685811708</ele>
        <time>2021-06-21T10:41:59.191Z</time>
      </trkpt>
      <trkpt lat="42.96709" lon="-0.22637">
        <ele>1163.9256762401</ele>
        <time>2021-06-21T10:42:03.805Z</time>
      </trkpt>
      <trkpt lat="42.96711" lon="-0.22617">
        <ele>1162.4173388998</ele>
        <time>2021-06-21T10:42:08.422Z</time>
      </trkpt>
      <trkpt lat="42.96728" lon="-0.2252">
        <ele>1160.6365808309</ele>
        <time>2021-06-21T10:42:13.050Z</time>
      </trkpt>
      <trkpt lat="42.96729" lon="-0.22508">
        <ele>1159.0778559802</ele>
        <time>2021-06-21T10:42:17.680Z</time>
      </trkpt>
      <trkpt lat="42.96729" lon="-0.22508">
        <ele>1157.5565934939</ele>
        <time>2021-06-21T10:42:22.310Z</time>
      </trkpt>
      <trkpt lat="42.96728" lon="-0.22492">
        <ele>1155.9196891966</ele>
        <time>2021-06-21T10:42:26.942Z</time>
      </trkpt>
      <trkpt lat="42.96723" lon="-0.22472">
        <ele>1154.249673017</ele>
        <time>2021-06-21T10:42:31.576Z</time>
      </trkpt>
      <trkpt lat="42.96701" lon="-0.22438">
        <ele>1152.4995792483</ele>
        <time>2021-06-21T10:42:36.215Z</time>
      </trkpt>
      <trkpt lat="42.96665" lon="-0.22396">
        <ele>1150.8824680065</ele>
        <time>2021-06-21T10:42:40.862Z</time>
      </trkpt>
      <trkpt lat="42.9665" lon="-0.22389">
        <ele>1149.2490442482</ele>
        <time>2021-06-21T10:42:45.512Z</time>
      </trkpt>
      <trkpt lat="42.96636" lon="-0.22386">
        <ele>1147.5782794647</ele>
        <time>2021-06-21T10:42:50.164Z</time>
      </trkpt>
      <trkpt lat="42.96636" lon="-0.22386">
        <ele>1145.8854734537</ele>
        <time>2021-06-21T10:42:54.816Z</time>
      </trkpt>
      <trkpt lat="42.96624" lon="-0.22386">
        <ele>1144.1632669089</ele>
        <time>2021-06-21T10:42:59.470Z</time>
      </trkpt>
      <trkpt lat="42.9661" lon="-0.22389">
        <ele>1142.4161005565</ele>
        <time>2021-06-21T10:43:04.126Z</time>
      </trkpt>
      <trkpt lat="42.96583" lon="-0.22402">
        <ele>1140.6159114429</ele>
        <time>2021-06-21T10:43:08.787Z</time>
      </trkpt>
      <trkpt lat="42.96567" lon="-0.22403">
        <ele>1138.7194497968</ele>
        <time>2021-06-21T10:43:13.450Z</time>
      </trkpt>
      <trkpt lat="42.96528" lon="-0.22398">
        <ele>1136.660360944</ele>
        <time>2021-06-21T10:43:18.120Z</time>
      </trkpt>
      <trkpt lat="42.96518" lon="-0.2239">
        <ele>1134.715227205</ele>
        <time>2021-06-21T10:43:22.791Z</time>
      </trkpt>
      <trkpt lat="42.96514" lon="-0.22385">
        <ele>1132.7690186938</ele>
        <time>2021-06-21T10:43:27.463Z</time>
      </trkpt>
      <trkpt lat="42.96507" lon="-0.2236">
        <ele>1130.6851189039</ele>
        <time>2021-06-21T10:43:32.138Z</time>
      </trkpt>
      <trkpt lat="42.96509" lon="-0.22342">
        <ele>1128.6341638775</ele>
        <time>2021-06-21T10:43:36.815Z</time>
      </trkpt>
      <trkpt lat="42.96529" lon="-0.22285">
        <ele>1126.5337905281</ele>
        <time>2021-06-21T10:43:41.500Z</time>
      </trkpt>
      <trkpt lat="42.96557" lon="-0.22216">
        <ele>1124.442282374</ele>
        <time>2021-06-21T10:43:46.194Z</time>
      </trkpt>
      <trkpt lat="42.96564" lon="-0.22193">
        <ele>1122.3834510588</ele>
        <time>2021-06-21T10:43:50.891Z</time>
      </trkpt>
      <trkpt lat="42.96564" lon="-0.22174">
        <ele>1120.2367129488</ele>
        <time>2021-06-21T10:43:55.590Z</time>
      </trkpt>
      <trkpt lat="42.96549" lon="-0.22123">
        <ele>1117.6850322822</ele>
        <time>2021-06-21T10:44:00.296Z</time>
      </trkpt>
      <trkpt lat="42.96548" lon="-0.22112">
        <ele>1115.5106727976</ele>
        <time>2021-06-21T10:44:05.003Z</time>
      </trkpt>
      <trkpt lat="42.9655" lon="-0.22083">
        <ele>1113.3196128392</ele>
        <time>2021-06-21T10:44:09.713Z</time>
      </trkpt>
      <trkpt lat="42.9655" lon="-0.22083">
        <ele>1111.148233438</ele>
        <time>2021-06-21T10:44:14.423Z</time>
      </trkpt>
      <trkpt lat="42.96557" lon="-0.22039">
        <ele>1108.9083222666</ele>
        <time>2021-06-21T10:44:19.139Z</time>
      </trkpt>
      <trkpt lat="42.96568" lon="-0.22009">
        <ele>1106.7369610115</ele>
        <time>2021-06-21T10:44:23.859Z</time>
      </trkpt>
      <trkpt lat="42.96584" lon="-0.21981">
        <ele>1104.6282940122</ele>
        <time>2021-06-21T10:44:28.583Z</time>
      </trkpt>
      <trkpt lat="42.96589" lon="-0.21965">
        <ele>1102.3827871442</ele>
        <time>2021-06-21T10:44:33.309Z</time>
      </trkpt>
      <trkpt lat="42.96592" lon="-0.21906">
        <ele>1099.9179454454</ele>
        <time>2021-06-21T10:44:38.042Z</time>
      </trkpt>
      <trkpt lat="42.96607" lon="-0.21825">
        <ele>1097.4551847887</ele>
        <time>2021-06-21T10:44:42.785Z</time>
      </trkpt>
      <trkpt lat="42.9661" lon="-0.21776">
        <ele>1095.0063062468</ele>
        <time>2021-06-21T10:44:47.533Z</time>
      </trkpt>
      <trkpt lat="42.96612" lon="-0.21765">
        <ele>1092.7053867068</ele>
        <time>2021-06-21T10:44:52.283Z</time>
      </trkpt>
      <trkpt lat="42.96628" lon="-0.21719">
        <ele>1090.3912421872</ele>
        <time>2021-06-21T10:44:57.039Z</time>
      </trkpt>
      <trkpt lat="42.96638" lon="-0.21653">
        <ele>1087.8025292811</ele>
        <time>2021-06-21T10:45:01.803Z</time>
      </trkpt>
      <trkpt lat="42.96639" lon="-0.21624">
        <ele>1085.4580854185</ele>
        <time>2021-06-21T10:45:06.570Z</time>
      </trkpt>
      <trkpt lat="42.96638" lon="-0.2159">
        <ele>1083.0191122611</ele>
        <time>2021-06-21T10:45:11.341Z</time>
      </trkpt>
      <trkpt lat="42.96649" lon="-0.21547">
        <ele>1080.713286517</ele>
        <time>2021-06-21T10:45:16.117Z</time>
      </trkpt>
      <trkpt lat="42.96647" lon="-0.21532">
        <ele>1078.4341040829</ele>
        <time>2021-06-21T10:45:20.895Z</time>
      </trkpt>
      <trkpt lat="42.96642" lon="-0.21525">
        <ele>1076.2006061366</ele>
        <time>2021-06-21T10:45:25.674Z</time>
      </trkpt>
      <trkpt lat="42.96636" lon="-0.21521">
        <ele>1073.9840634195</ele>
        <time>2021-06-21T10:45:30.454Z</time>
      </trkpt>
      <trkpt lat="42.96628" lon="-0.2152">
        <ele>1071.7983118935</ele>
        <time>2021-06-21T10:45:35.236Z</time>
      </trkpt>
      <trkpt lat="42.96621" lon="-0.21524">
        <ele>1069.6621249011</ele>
        <time>2021-06-21T10:45:40.019Z</time>
      </trkpt>
      <trkpt lat="42.96616" lon="-0.21532">
        <ele>1067.5800514204</ele>
        <time>2021-06-21T10:45:44.803Z</time>
      </trkpt>
      <trkpt lat="42.96607" lon="-0.21556">
        <ele>1065.5666761662</ele>
        <time>2021-06-21T10:45:49.590Z</time>
      </trkpt>
      <trkpt lat="42.96596" lon="-0.21592">
        <ele>1063.5784049397</ele>
        <time>2021-06-21T10:45:54.382Z</time>
      </trkpt>
      <trkpt lat="42.96596" lon="-0.21592">
        <ele>1061.5580321148</ele>
        <time>2021-06-21T10:45:59.174Z</time>
      </trkpt>
      <trkpt lat="42.96593" lon="-0.216">
        <ele>1059.5625552112</ele>
        <time>2021-06-21T10:46:03.967Z</time>
      </trkpt>
      <trkpt lat="42.96583" lon="-0.21614">
        <ele>1057.5488602576</ele>
        <time>2021-06-21T10:46:08.762Z</time>
      </trkpt>
      <trkpt lat="42.96577" lon="-0.2162">
        <ele>1055.5437033374</ele>
        <time>2021-06-21T10:46:13.558Z</time>
      </trkpt>
      <trkpt lat="42.96556" lon="-0.21627">
        <ele>1053.438252585</ele>
        <time>2021-06-21T10:46:18.358Z</time>
      </trkpt>
      <trkpt lat="42.96542" lon="-0.21636">
        <ele>1051.4132711968</ele>
        <time>2021-06-21T10:46:23.160Z</time>
      </trkpt>
      <trkpt lat="42.96527" lon="-0.21652">
        <ele>1049.4223396132</ele>
        <time>2021-06-21T10:46:27.966Z</time>
      </trkpt>
      <trkpt lat="42.96509" lon="-0.21677">
        <ele>1047.4610338308</ele>
        <time>2021-06-21T10:46:32.775Z</time>
      </trkpt>
      <trkpt lat="42.96509" lon="-0.21677">
        <ele>1045.5670573436</ele>
        <time>2021-06-21T10:46:37.584Z</time>
      </trkpt>
      <trkpt lat="42.96487" lon="-0.21704">
        <ele>1043.5882664156</ele>
        <time>2021-06-21T10:46:42.398Z</time>
      </trkpt>
      <trkpt lat="42.96386" lon="-0.21809">
        <ele>1041.2391067351</ele>
        <time>2021-06-21T10:46:47.233Z</time>
      </trkpt>
      <trkpt lat="42.96355" lon="-0.21849">
        <ele>1039.334532416</ele>
        <time>2021-06-21T10:46:52.075Z</time>
      </trkpt>
      <trkpt lat="42.96333" lon="-0.21871">
        <ele>1037.4489478925</ele>
        <time>2021-06-21T10:46:56.921Z</time>
      </trkpt>
      <trkpt lat="42.96325" lon="-0.21877">
        <ele>1035.6264000568</ele>
        <time>2021-06-21T10:47:01.768Z</time>
      </trkpt>
      <trkpt lat="42.96316" lon="-0.21879">
        <ele>1033.8091873158</ele>
        <time>2021-06-21T10:47:06.617Z</time>
      </trkpt>
      <trkpt lat="42.96306" lon="-0.21876">
        <ele>1031.9816440469</ele>
        <time>2021-06-21T10:47:11.468Z</time>
      </trkpt>
      <trkpt lat="42.96295" lon="-0.21866">
        <ele>1030.1514921836</ele>
        <time>2021-06-21T10:47:16.321Z</time>
      </trkpt>
      <trkpt lat="42.96291" lon="-0.21856">
        <ele>1028.3954285252</ele>
        <time>2021-06-21T10:47:21.175Z</time>
      </trkpt>
      <trkpt lat="42.96288" lon="-0.21842">
        <ele>1026.6905259296</ele>
        <time>2021-06-21T10:47:26.031Z</time>
      </trkpt>
      <trkpt lat="42.96289" lon="-0.21817">
        <ele>1025.0467377728</ele>
        <time>2021-06-21T10:47:30.890Z</time>
      </trkpt>
      <trkpt lat="42.96286" lon="-0.21803">
        <ele>1023.4273252299</ele>
        <time>2021-06-21T10:47:35.750Z</time>
      </trkpt>
      <trkpt lat="42.96281" lon="-0.21798">
        <ele>1021.8384417737</ele>
        <time>2021-06-21T10:47:40.611Z</time>
      </trkpt>
      <trkpt lat="42.96271" lon="-0.21791">
        <ele>1020.24392424</ele>
        <time>2021-06-21T10:47:45.474Z</time>
      </trkpt>
      <trkpt lat="42.9626" lon="-0.21788">
        <ele>1018.6820449547</ele>
        <time>2021-06-21T10:47:50.339Z</time>
      </trkpt>
      <trkpt lat="42.96253" lon="-0.21788">
        <ele>1017.1436921267</ele>
        <time>2021-06-21T10:47:55.205Z</time>
      </trkpt>
      <trkpt lat="42.96247" lon="-0.21792">
        <ele>1015.6373469136</ele>
        <time>2021-06-21T10:48:00.072Z</time>
      </trkpt>
      <trkpt lat="42.96235" lon="-0.21809">
        <ele>1014.114978319</ele>
        <time>2021-06-21T10:48:04.942Z</time>
      </trkpt>
      <trkpt lat="42.96222" lon="-0.21846">
        <ele>1012.6303105689</ele>
        <time>2021-06-21T10:48:09.817Z</time>
      </trkpt>
      <trkpt lat="42.96221" lon="-0.21859">
        <ele>1011.2517422466</ele>
        <time>2021-06-21T10:48:14.693Z</time>
      </trkpt>
      <trkpt lat="42.96233" lon="-0.21903">
        <ele>1010.1018549567</ele>
        <time>2021-06-21T10:48:19.575Z</time>
      </trkpt>
      <trkpt lat="42.96232" lon="-0.21916">
        <ele>1008.7696514224</ele>
        <time>2021-06-21T10:48:24.458Z</time>
      </trkpt>
      <trkpt lat="42.96228" lon="-0.21924">
        <ele>1007.418828233</ele>
        <time>2021-06-21T10:48:29.342Z</time>
      </trkpt>
      <trkpt lat="42.96222" lon="-0.21933">
        <ele>1006.0470765476</ele>
        <time>2021-06-21T10:48:34.228Z</time>
      </trkpt>
      <trkpt lat="42.96211" lon="-0.21937">
        <ele>1004.6327581284</ele>
        <time>2021-06-21T10:48:39.116Z</time>
      </trkpt>
      <trkpt lat="42.96198" lon="-0.21936">
        <ele>1003.1935065018</ele>
        <time>2021-06-21T10:48:44.006Z</time>
      </trkpt>
      <trkpt lat="42.96151" lon="-0.21922">
        <ele>1001.3540966028</ele>
        <time>2021-06-21T10:48:48.903Z</time>
      </trkpt>
      <trkpt lat="42.96144" lon="-0.21923">
        <ele>999.98968105475</ele>
        <time>2021-06-21T10:48:53.802Z</time>
      </trkpt>
      <trkpt lat="42.9613" lon="-0.21931">
        <ele>998.58452627268</ele>
        <time>2021-06-21T10:48:58.703Z</time>
      </trkpt>
      <trkpt lat="42.96122" lon="-0.21943">
        <ele>997.27265893856</ele>
        <time>2021-06-21T10:49:03.606Z</time>
      </trkpt>
      <trkpt lat="42.96118" lon="-0.21959">
        <ele>996.01763382647</ele>
        <time>2021-06-21T10:49:08.511Z</time>
      </trkpt>
      <trkpt lat="42.96119" lon="-0.21986">
        <ele>994.84759370051</ele>
        <time>2021-06-21T10:49:13.419Z</time>
      </trkpt>
      <trkpt lat="42.96125" lon="-0.22019">
        <ele>993.7542625686</ele>
        <time>2021-06-21T10:49:18.331Z</time>
      </trkpt>
      <trkpt lat="42.96124" lon="-0.22035">
        <ele>992.54165506048</ele>
        <time>2021-06-21T10:49:23.245Z</time>
      </trkpt>
      <trkpt lat="42.96119" lon="-0.22047">
        <ele>991.27381616397</ele>
        <time>2021-06-21T10:49:28.161Z</time>
      </trkpt>
      <trkpt lat="42.96112" lon="-0.22052">
        <ele>989.9832638497</ele>
        <time>2021-06-21T10:49:33.078Z</time>
      </trkpt>
      <trkpt lat="42.96097" lon="-0.2205">
        <ele>988.56276392958</ele>
        <time>2021-06-21T10:49:37.997Z</time>
      </trkpt>
      <trkpt lat="42.96093" lon="-0.22048">
        <ele>987.25228274153</ele>
        <time>2021-06-21T10:49:42.917Z</time>
      </trkpt>
      <trkpt lat="42.9609" lon="-0.22041">
        <ele>985.93699131594</ele>
        <time>2021-06-21T10:49:47.838Z</time>
      </trkpt>
      <trkpt lat="42.96087" lon="-0.22027">
        <ele>984.60318871033</ele>
        <time>2021-06-21T10:49:52.761Z</time>
      </trkpt>
      <trkpt lat="42.96083" lon="-0.21999">
        <ele>983.22529665284</ele>
        <time>2021-06-21T10:49:57.687Z</time>
      </trkpt>
      <trkpt lat="42.96083" lon="-0.21999">
        <ele>981.92461818906</ele>
        <time>2021-06-21T10:50:02.613Z</time>
      </trkpt>
      <trkpt lat="42.96074" lon="-0.21949">
        <ele>980.40987405253</ele>
        <time>2021-06-21T10:50:07.545Z</time>
      </trkpt>
      <trkpt lat="42.96067" lon="-0.21928">
        <ele>979.00216765277</ele>
        <time>2021-06-21T10:50:12.480Z</time>
      </trkpt>
      <trkpt lat="42.96065" lon="-0.21913">
        <ele>977.62177247562</ele>
        <time>2021-06-21T10:50:17.417Z</time>
      </trkpt>
      <trkpt lat="42.96066" lon="-0.21895">
        <ele>976.26294964431</ele>
        <time>2021-06-21T10:50:22.356Z</time>
      </trkpt>
      <trkpt lat="42.96081" lon="-0.21852">
        <ele>974.98859157029</ele>
        <time>2021-06-21T10:50:27.300Z</time>
      </trkpt>
      <trkpt lat="42.96085" lon="-0.21833">
        <ele>973.5777035042</ele>
        <time>2021-06-21T10:50:32.246Z</time>
      </trkpt>
      <trkpt lat="42.96083" lon="-0.21821">
        <ele>972.10876261884</ele>
        <time>2021-06-21T10:50:37.194Z</time>
      </trkpt>
      <trkpt lat="42.96079" lon="-0.21771">
        <ele>970.5034814158</ele>
        <time>2021-06-21T10:50:42.148Z</time>
      </trkpt>
      <trkpt lat="42.96082" lon="-0.21751">
        <ele>968.96764757709</ele>
        <time>2021-06-21T10:50:47.104Z</time>
      </trkpt>
      <trkpt lat="42.96091" lon="-0.21718">
        <ele>967.4153288812</ele>
        <time>2021-06-21T10:50:52.064Z</time>
      </trkpt>
      <trkpt lat="42.96091" lon="-0.21696">
        <ele>965.77692919956</ele>
        <time>2021-06-21T10:50:57.027Z</time>
      </trkpt>
      <trkpt lat="42.96091" lon="-0.21696">
        <ele>964.17608549365</ele>
        <time>2021-06-21T10:51:01.990Z</time>
      </trkpt>
      <trkpt lat="42.96089" lon="-0.21648">
        <ele>962.3761187933</ele>
        <time>2021-06-21T10:51:06.959Z</time>
      </trkpt>
      <trkpt lat="42.96096" lon="-0.21557">
        <ele>960.52881051862</ele>
        <time>2021-06-21T10:51:11.938Z</time>
      </trkpt>
      <trkpt lat="42.96101" lon="-0.21491">
        <ele>958.74968756994</ele>
        <time>2021-06-21T10:51:16.925Z</time>
      </trkpt>
      <trkpt lat="42.96096" lon="-0.21462">
        <ele>956.96481458216</ele>
        <time>2021-06-21T10:51:21.916Z</time>
      </trkpt>
      <trkpt lat="42.96088" lon="-0.21442">
        <ele>955.11174401395</ele>
        <time>2021-06-21T10:51:26.909Z</time>
      </trkpt>
      <trkpt lat="42.96088" lon="-0.21442">
        <ele>953.35146841386</ele>
        <time>2021-06-21T10:51:31.902Z</time>
      </trkpt>
      <trkpt lat="42.96065" lon="-0.2141">
        <ele>951.34248943058</ele>
        <time>2021-06-21T10:51:36.901Z</time>
      </trkpt>
      <trkpt lat="42.96058" lon="-0.21395">
        <ele>949.48505874572</ele>
        <time>2021-06-21T10:51:41.902Z</time>
      </trkpt>
      <trkpt lat="42.96053" lon="-0.21385">
        <ele>947.6415367252</ele>
        <time>2021-06-21T10:51:46.904Z</time>
      </trkpt>
      <trkpt lat="42.96052" lon="-0.21374">
        <ele>945.79650517981</ele>
        <time>2021-06-21T10:51:51.907Z</time>
      </trkpt>
      <trkpt lat="42.96053" lon="-0.21358">
        <ele>943.93861390995</ele>
        <time>2021-06-21T10:51:56.912Z</time>
      </trkpt>
      <trkpt lat="42.96057" lon="-0.21341">
        <ele>942.07815896523</ele>
        <time>2021-06-21T10:52:01.919Z</time>
      </trkpt>
      <trkpt lat="42.96057" lon="-0.21341">
        <ele>940.21734425909</ele>
        <time>2021-06-21T10:52:06.926Z</time>
      </trkpt>
      <trkpt lat="42.96062" lon="-0.21305">
        <ele>938.3166198144</ele>
        <time>2021-06-21T10:52:11.938Z</time>
      </trkpt>
      <trkpt lat="42.96063" lon="-0.2125">
        <ele>936.30581618933</ele>
        <time>2021-06-21T10:52:16.956Z</time>
      </trkpt>
      <trkpt lat="42.96063" lon="-0.21149">
        <ele>934.06927117817</ele>
        <time>2021-06-21T10:52:21.986Z</time>
      </trkpt>
      <trkpt lat="42.96061" lon="-0.21132">
        <ele>932.11243659795</ele>
        <time>2021-06-21T10:52:27.018Z</time>
      </trkpt>
      <trkpt lat="42.96054" lon="-0.21121">
        <ele>930.16696493567</ele>
        <time>2021-06-21T10:52:32.052Z</time>
      </trkpt>
      <trkpt lat="42.96046" lon="-0.21118">
        <ele>928.24233595106</ele>
        <time>2021-06-21T10:52:37.087Z</time>
      </trkpt>
      <trkpt lat="42.96034" lon="-0.2112">
        <ele>926.32439482474</ele>
        <time>2021-06-21T10:52:42.124Z</time>
      </trkpt>
      <trkpt lat="42.96027" lon="-0.21128">
        <ele>924.46636043606</ele>
        <time>2021-06-21T10:52:47.163Z</time>
      </trkpt>
      <trkpt lat="42.96019" lon="-0.21143">
        <ele>922.65598500595</ele>
        <time>2021-06-21T10:52:52.204Z</time>
      </trkpt>
      <trkpt lat="42.96009" lon="-0.21173">
        <ele>920.9083861401</ele>
        <time>2021-06-21T10:52:57.249Z</time>
      </trkpt>
      <trkpt lat="42.95997" lon="-0.21191">
        <ele>919.07302044213</ele>
        <time>2021-06-21T10:53:02.296Z</time>
      </trkpt>
      <trkpt lat="42.95972" lon="-0.21217">
        <ele>917.18234087234</ele>
        <time>2021-06-21T10:53:07.348Z</time>
      </trkpt>
      <trkpt lat="42.95972" lon="-0.21217">
        <ele>915.42532618054</ele>
        <time>2021-06-21T10:53:12.400Z</time>
      </trkpt>
      <trkpt lat="42.95932" lon="-0.21263">
        <ele>913.51657317037</ele>
        <time>2021-06-21T10:53:17.461Z</time>
      </trkpt>
      <trkpt lat="42.9592" lon="-0.21281">
        <ele>911.75843192503</ele>
        <time>2021-06-21T10:53:22.525Z</time>
      </trkpt>
      <trkpt lat="42.95898" lon="-0.21322">
        <ele>909.96917773035</ele>
        <time>2021-06-21T10:53:27.595Z</time>
      </trkpt>
      <trkpt lat="42.95886" lon="-0.21335">
        <ele>908.21773271997</ele>
        <time>2021-06-21T10:53:32.667Z</time>
      </trkpt>
      <trkpt lat="42.95869" lon="-0.2135">
        <ele>906.44399809106</ele>
        <time>2021-06-21T10:53:37.742Z</time>
      </trkpt>
      <trkpt lat="42.95861" lon="-0.21359">
        <ele>904.78373123429</ele>
        <time>2021-06-21T10:53:42.819Z</time>
      </trkpt>
      <trkpt lat="42.95856" lon="-0.21371">
        <ele>903.18568367772</ele>
        <time>2021-06-21T10:53:47.898Z</time>
      </trkpt>
      <trkpt lat="42.95852" lon="-0.21387">
        <ele>901.64630246461</ele>
        <time>2021-06-21T10:53:52.979Z</time>
      </trkpt>
      <trkpt lat="42.95848" lon="-0.21423">
        <ele>900.21891680157</ele>
        <time>2021-06-21T10:53:58.064Z</time>
      </trkpt>
      <trkpt lat="42.95845" lon="-0.21436">
        <ele>898.74888792706</ele>
        <time>2021-06-21T10:54:03.151Z</time>
      </trkpt>
      <trkpt lat="42.95841" lon="-0.21446">
        <ele>897.29023479033</ele>
        <time>2021-06-21T10:54:08.239Z</time>
      </trkpt>
      <trkpt lat="42.95812" lon="-0.21503">
        <ele>895.72261056203</ele>
        <time>2021-06-21T10:54:13.335Z</time>
      </trkpt>
      <trkpt lat="42.95798" lon="-0.21518">
        <ele>894.24050914949</ele>
        <time>2021-06-21T10:54:18.434Z</time>
      </trkpt>
      <trkpt lat="42.95774" lon="-0.2153">
        <ele>892.70292962973</ele>
        <time>2021-06-21T10:54:23.537Z</time>
      </trkpt>
      <trkpt lat="42.95759" lon="-0.21541">
        <ele>891.28000291405</ele>
        <time>2021-06-21T10:54:28.643Z</time>
      </trkpt>
      <trkpt lat="42.95748" lon="-0.21553">
        <ele>889.99262756358</ele>
        <time>2021-06-21T10:54:33.751Z</time>
      </trkpt>
      <trkpt lat="42.95748" lon="-0.21553">
        <ele>888.77216922832</ele>
        <time>2021-06-21T10:54:38.859Z</time>
      </trkpt>
      <trkpt lat="42.95739" lon="-0.21561">
        <ele>887.57842067927</ele>
        <time>2021-06-21T10:54:43.969Z</time>
      </trkpt>
      <trkpt lat="42.9573" lon="-0.21563">
        <ele>886.41529823484</ele>
        <time>2021-06-21T10:54:49.080Z</time>
      </trkpt>
      <trkpt lat="42.95714" lon="-0.21563">
        <ele>885.26461131767</ele>
        <time>2021-06-21T10:54:54.194Z</time>
      </trkpt>
      <trkpt lat="42.95691" lon="-0.21553">
        <ele>884.11250751291</ele>
        <time>2021-06-21T10:54:59.312Z</time>
      </trkpt>
      <trkpt lat="42.9568" lon="-0.21547">
        <ele>883.04722431677</ele>
        <time>2021-06-21T10:55:04.431Z</time>
      </trkpt>
      <trkpt lat="42.95656" lon="-0.21526">
        <ele>882.03766591875</ele>
        <time>2021-06-21T10:55:09.555Z</time>
      </trkpt>
      <trkpt lat="42.95647" lon="-0.21513">
        <ele>881.09055095224</ele>
        <time>2021-06-21T10:55:14.681Z</time>
      </trkpt>
      <trkpt lat="42.95647" lon="-0.21513">
        <ele>880.18683977787</ele>
        <time>2021-06-21T10:55:19.807Z</time>
      </trkpt>
      <trkpt lat="42.95643" lon="-0.21505">
        <ele>879.31545704006</ele>
        <time>2021-06-21T10:55:24.934Z</time>
      </trkpt>
      <trkpt lat="42.95637" lon="-0.21493">
        <ele>878.47742514667</ele>
        <time>2021-06-21T10:55:30.063Z</time>
      </trkpt>
      <trkpt lat="42.95637" lon="-0.21491">
        <ele>877.67712267005</ele>
        <time>2021-06-21T10:55:35.192Z</time>
      </trkpt>
      <trkpt lat="42.95625" lon="-0.21459">
        <ele>876.89358865394</ele>
        <time>2021-06-21T10:55:40.325Z</time>
      </trkpt>
      <trkpt lat="42.95618" lon="-0.21437">
        <ele>876.13700233859</ele>
        <time>2021-06-21T10:55:45.461Z</time>
      </trkpt>
      <trkpt lat="42.95616" lon="-0.21424">
        <ele>875.4114787522</ele>
        <time>2021-06-21T10:55:50.599Z</time>
      </trkpt>
      <trkpt lat="42.95617" lon="-0.21384">
        <ele>874.67610195482</ele>
        <time>2021-06-21T10:55:55.741Z</time>
      </trkpt>
      <trkpt lat="42.95619" lon="-0.21368">
        <ele>874.00651791334</ele>
        <time>2021-06-21T10:56:00.885Z</time>
      </trkpt>
      <trkpt lat="42.95619" lon="-0.21368">
        <ele>873.37841223078</ele>
        <time>2021-06-21T10:56:06.029Z</time>
      </trkpt>
      <trkpt lat="42.95649" lon="-0.21319">
        <ele>872.74379459551</ele>
        <time>2021-06-21T10:56:11.181Z</time>
      </trkpt>
      <trkpt lat="42.95664" lon="-0.21273">
        <ele>872.11404899466</ele>
        <time>2021-06-21T10:56:16.339Z</time>
      </trkpt>
      <trkpt lat="42.95667" lon="-0.21223">
        <ele>871.49031871859</ele>
        <time>2021-06-21T10:56:21.503Z</time>
      </trkpt>
      <trkpt lat="42.95676" lon="-0.21199">
        <ele>870.92288827394</ele>
        <time>2021-06-21T10:56:26.670Z</time>
      </trkpt>
      <trkpt lat="42.95682" lon="-0.21183">
        <ele>870.37893266738</ele>
        <time>2021-06-21T10:56:31.839Z</time>
      </trkpt>
      <trkpt lat="42.95682" lon="-0.21183">
        <ele>869.884711406</ele>
        <time>2021-06-21T10:56:37.008Z</time>
      </trkpt>
      <trkpt lat="42.95688" lon="-0.21167">
        <ele>869.3808598193</ele>
        <time>2021-06-21T10:56:42.179Z</time>
      </trkpt>
      <trkpt lat="42.95697" lon="-0.2114">
        <ele>868.87644083136</ele>
        <time>2021-06-21T10:56:47.354Z</time>
      </trkpt>
      <trkpt lat="42.95708" lon="-0.21108">
        <ele>868.41801188258</ele>
        <time>2021-06-21T10:56:52.533Z</time>
      </trkpt>
      <trkpt lat="42.95722" lon="-0.21077">
        <ele>867.99841283192</ele>
        <time>2021-06-21T10:56:57.716Z</time>
      </trkpt>
      <trkpt lat="42.95767" lon="-0.21006">
        <ele>867.60502390351</ele>
        <time>2021-06-21T10:57:02.910Z</time>
      </trkpt>
      <trkpt lat="42.95809" lon="-0.20937">
        <ele>867.21156525566</ele>
        <time>2021-06-21T10:57:08.114Z</time>
      </trkpt>
      <trkpt lat="42.95809" lon="-0.20937">
        <ele>866.84028445195</ele>
        <time>2021-06-21T10:57:13.318Z</time>
      </trkpt>
      <trkpt lat="42.95839" lon="-0.20886">
        <ele>866.4798401363</ele>
        <time>2021-06-21T10:57:18.530Z</time>
      </trkpt>
      <trkpt lat="42.95848" lon="-0.20871">
        <ele>866.13872178567</ele>
        <time>2021-06-21T10:57:23.745Z</time>
      </trkpt>
      <trkpt lat="42.95882" lon="-0.20809">
        <ele>865.77062810468</ele>
        <time>2021-06-21T10:57:28.969Z</time>
      </trkpt>
      <trkpt lat="42.9591" lon="-0.20756">
        <ele>865.42201878824</ele>
        <time>2021-06-21T10:57:34.200Z</time>
      </trkpt>
      <trkpt lat="42.95915" lon="-0.20745">
        <ele>865.11332437314</ele>
        <time>2021-06-21T10:57:39.433Z</time>
      </trkpt>
      <trkpt lat="42.95935" lon="-0.20714">
        <ele>864.82588072099</ele>
        <time>2021-06-21T10:57:44.671Z</time>
      </trkpt>
      <trkpt lat="42.95953" lon="-0.20688">
        <ele>864.52072943605</ele>
        <time>2021-06-21T10:57:49.913Z</time>
      </trkpt>
      <trkpt lat="42.95955" lon="-0.20685">
        <ele>864.255458968</ele>
        <time>2021-06-21T10:57:55.155Z</time>
      </trkpt>
      <trkpt lat="42.95976" lon="-0.20655">
        <ele>863.97987494427</ele>
        <time>2021-06-21T10:58:00.402Z</time>
      </trkpt>
      <trkpt lat="42.95983" lon="-0.20643">
        <ele>863.73650911778</ele>
        <time>2021-06-21T10:58:05.651Z</time>
      </trkpt>
      <trkpt lat="42.96008" lon="-0.20595">
        <ele>863.46015594382</ele>
        <time>2021-06-21T10:58:10.907Z</time>
      </trkpt>
      <trkpt lat="42.96021" lon="-0.2056">
        <ele>863.20362468446</ele>
        <time>2021-06-21T10:58:16.168Z</time>
      </trkpt>
      <trkpt lat="42.96021" lon="-0.2056">
        <ele>863.01521876544</ele>
        <time>2021-06-21T10:58:21.429Z</time>
      </trkpt>
      <trkpt lat="42.96051" lon="-0.20477">
        <ele>862.79254942813</ele>
        <time>2021-06-21T10:58:26.700Z</time>
      </trkpt>
      <trkpt lat="42.9609" lon="-0.20371">
        <ele>862.60478681103</ele>
        <time>2021-06-21T10:58:31.985Z</time>
      </trkpt>
      <trkpt lat="42.9609" lon="-0.20371">
        <ele>862.4646590522</ele>
        <time>2021-06-21T10:58:37.270Z</time>
      </trkpt>
      <trkpt lat="42.96098" lon="-0.20347">
        <ele>862.34807482956</ele>
        <time>2021-06-21T10:58:42.558Z</time>
      </trkpt>
      <trkpt lat="42.96109" lon="-0.20326">
        <ele>862.25503666526</ele>
        <time>2021-06-21T10:58:47.849Z</time>
      </trkpt>
      <trkpt lat="42.96129" lon="-0.20296">
        <ele>862.19334508687</ele>
        <time>2021-06-21T10:58:53.145Z</time>
      </trkpt>
      <trkpt lat="42.96153" lon="-0.20271">
        <ele>862.16149488857</ele>
        <time>2021-06-21T10:58:58.446Z</time>
      </trkpt>
      <trkpt lat="42.96169" lon="-0.2026">
        <ele>862.13099987208</ele>
        <time>2021-06-21T10:59:03.750Z</time>
      </trkpt>
      <trkpt lat="42.96171" lon="-0.20259">
        <ele>862.08716052665</ele>
        <time>2021-06-21T10:59:09.054Z</time>
      </trkpt>
      <trkpt lat="42.96183" lon="-0.20253">
        <ele>862.05627681805</ele>
        <time>2021-06-21T10:59:14.360Z</time>
      </trkpt>
      <trkpt lat="42.96232" lon="-0.20226">
        <ele>862.02270789541</ele>
        <time>2021-06-21T10:59:19.675Z</time>
      </trkpt>
      <trkpt lat="42.96256" lon="-0.20212">
        <ele>862.00811092609</ele>
        <time>2021-06-21T10:59:24.994Z</time>
      </trkpt>
      <trkpt lat="42.96287" lon="-0.20194">
        <ele>861.98560738156</ele>
        <time>2021-06-21T10:59:30.318Z</time>
      </trkpt>
      <trkpt lat="42.96292" lon="-0.20192">
        <ele>862.00049262479</ele>
        <time>2021-06-21T10:59:35.643Z</time>
      </trkpt>
      <trkpt lat="42.96336" lon="-0.20169">
        <ele>862.00011299466</ele>
        <time>2021-06-21T10:59:40.976Z</time>
      </trkpt>
      <trkpt lat="42.9636" lon="-0.20162">
        <ele>862.02947808252</ele>
        <time>2021-06-21T10:59:46.313Z</time>
      </trkpt>
      <trkpt lat="42.96386" lon="-0.20161">
        <ele>862.08408394481</ele>
        <time>2021-06-21T10:59:51.654Z</time>
      </trkpt>
      <trkpt lat="42.96386" lon="-0.20161">
        <ele>862.15413887387</ele>
        <time>2021-06-21T10:59:56.995Z</time>
      </trkpt>
      <trkpt lat="42.96402" lon="-0.20163">
        <ele>862.23643424583</ele>
        <time>2021-06-21T11:00:02.338Z</time>
      </trkpt>
      <trkpt lat="42.96409" lon="-0.20163">
        <ele>862.3290807224</ele>
        <time>2021-06-21T11:00:07.682Z</time>
      </trkpt>
      <trkpt lat="42.96422" lon="-0.20168">
        <ele>862.44049226166</ele>
        <time>2021-06-21T11:00:13.029Z</time>
      </trkpt>
      <trkpt lat="42.96442" lon="-0.20185">
        <ele>862.59091410241</ele>
        <time>2021-06-21T11:00:18.379Z</time>
      </trkpt>
      <trkpt lat="42.96451" lon="-0.20188">
        <ele>862.72499402017</ele>
        <time>2021-06-21T11:00:23.731Z</time>
      </trkpt>
      <trkpt lat="42.96461" lon="-0.20187">
        <ele>862.85819080445</ele>
        <time>2021-06-21T11:00:29.085Z</time>
      </trkpt>
      <trkpt lat="42.9648" lon="-0.2018">
        <ele>862.98766582782</ele>
        <time>2021-06-21T11:00:34.442Z</time>
      </trkpt>
      <trkpt lat="42.9648" lon="-0.2018">
        <ele>863.1521309294</ele>
        <time>2021-06-21T11:00:39.799Z</time>
      </trkpt>
      <trkpt lat="42.96503" lon="-0.20169">
        <ele>863.29656707743</ele>
        <time>2021-06-21T11:00:45.160Z</time>
      </trkpt>
      <trkpt lat="42.96512" lon="-0.20167">
        <ele>863.47638335209</ele>
        <time>2021-06-21T11:00:50.522Z</time>
      </trkpt>
      <trkpt lat="42.96512" lon="-0.20167">
        <ele>863.67000981287</ele>
        <time>2021-06-21T11:00:55.884Z</time>
      </trkpt>
      <trkpt lat="42.96547" lon="-0.2019">
        <ele>863.92405826228</ele>
        <time>2021-06-21T11:01:01.252Z</time>
      </trkpt>
      <trkpt lat="42.96547" lon="-0.2019">
        <ele>864.13333014334</ele>
        <time>2021-06-21T11:01:06.620Z</time>
      </trkpt>
      <trkpt lat="42.96558" lon="-0.20197">
        <ele>864.37710725877</ele>
        <time>2021-06-21T11:01:11.990Z</time>
      </trkpt>
      <trkpt lat="42.96558" lon="-0.20197">
        <ele>864.59773712547</ele>
        <time>2021-06-21T11:01:17.360Z</time>
      </trkpt>
      <trkpt lat="42.96581" lon="-0.20217">
        <ele>864.8967929571</ele>
        <time>2021-06-21T11:01:22.735Z</time>
      </trkpt>
      <trkpt lat="42.96598" lon="-0.20222">
        <ele>865.14819985348</ele>
        <time>2021-06-21T11:01:28.112Z</time>
      </trkpt>
      <trkpt lat="42.96598" lon="-0.20222">
        <ele>865.37657476615</ele>
        <time>2021-06-21T11:01:33.489Z</time>
      </trkpt>
      <trkpt lat="42.9661" lon="-0.20227">
        <ele>865.60864016988</ele>
        <time>2021-06-21T11:01:38.868Z</time>
      </trkpt>
      <trkpt lat="42.96639" lon="-0.20246">
        <ele>865.86725377154</ele>
        <time>2021-06-21T11:01:44.253Z</time>
      </trkpt>
      <trkpt lat="42.96648" lon="-0.2025">
        <ele>866.12921067069</ele>
        <time>2021-06-21T11:01:49.639Z</time>
      </trkpt>
      <trkpt lat="42.9667" lon="-0.20253">
        <ele>866.4153264503</ele>
        <time>2021-06-21T11:01:55.029Z</time>
      </trkpt>
      <trkpt lat="42.96706" lon="-0.20246">
        <ele>866.65512035071</ele>
        <time>2021-06-21T11:02:00.424Z</time>
      </trkpt>
      <trkpt lat="42.96739" lon="-0.20236">
        <ele>866.87130169282</ele>
        <time>2021-06-21T11:02:05.825Z</time>
      </trkpt>
      <trkpt lat="42.9678" lon="-0.20215">
        <ele>867.07187045658</ele>
        <time>2021-06-21T11:02:11.233Z</time>
      </trkpt>
      <trkpt lat="42.96817" lon="-0.20192">
        <ele>867.2947121716</ele>
        <time>2021-06-21T11:02:16.647Z</time>
      </trkpt>
      <trkpt lat="42.96839" lon="-0.20169">
        <ele>867.45892593777</ele>
        <time>2021-06-21T11:02:22.066Z</time>
      </trkpt>
      <trkpt lat="42.96844" lon="-0.20161">
        <ele>867.62501538058</ele>
        <time>2021-06-21T11:02:27.486Z</time>
      </trkpt>
      <trkpt lat="42.96933" lon="-0.20046">
        <ele>867.69061719551</ele>
        <time>2021-06-21T11:02:32.926Z</time>
      </trkpt>
      <trkpt lat="42.96951" lon="-0.20017">
        <ele>867.83672586777</ele>
        <time>2021-06-21T11:02:38.370Z</time>
      </trkpt>
      <trkpt lat="42.96963" lon="-0.19986">
        <ele>867.96117170422</ele>
        <time>2021-06-21T11:02:43.818Z</time>
      </trkpt>
      <trkpt lat="42.96974" lon="-0.19951">
        <ele>868.06106438564</ele>
        <time>2021-06-21T11:02:49.271Z</time>
      </trkpt>
      <trkpt lat="42.96974" lon="-0.19951">
        <ele>868.24436041242</ele>
        <time>2021-06-21T11:02:54.724Z</time>
      </trkpt>
      <trkpt lat="42.9702" lon="-0.19837">
        <ele>868.22084419738</ele>
        <time>2021-06-21T11:03:00.192Z</time>
      </trkpt>
      <trkpt lat="42.97076" lon="-0.19755">
        <ele>868.47877953245</ele>
        <time>2021-06-21T11:03:05.673Z</time>
      </trkpt>
      <trkpt lat="42.97117" lon="-0.19701">
        <ele>868.69648052804</ele>
        <time>2021-06-21T11:03:11.163Z</time>
      </trkpt>
      <trkpt lat="42.97136" lon="-0.19673">
        <ele>868.89333468178</ele>
        <time>2021-06-21T11:03:16.658Z</time>
      </trkpt>
      <trkpt lat="42.97155" lon="-0.19644">
        <ele>869.08859244758</ele>
        <time>2021-06-21T11:03:22.157Z</time>
      </trkpt>
      <trkpt lat="42.97155" lon="-0.19644">
        <ele>869.25172918537</ele>
        <time>2021-06-21T11:03:27.656Z</time>
      </trkpt>
      <trkpt lat="42.9725" lon="-0.19508">
        <ele>869.63393477732</ele>
        <time>2021-06-21T11:03:33.177Z</time>
      </trkpt>
      <trkpt lat="42.97258" lon="-0.19494">
        <ele>869.79381388901</ele>
        <time>2021-06-21T11:03:38.700Z</time>
      </trkpt>
      <trkpt lat="42.97258" lon="-0.19494">
        <ele>869.91424829255</ele>
        <time>2021-06-21T11:03:44.223Z</time>
      </trkpt>
      <trkpt lat="42.97282" lon="-0.19454">
        <ele>870.11308819201</ele>
        <time>2021-06-21T11:03:49.752Z</time>
      </trkpt>
      <trkpt lat="42.97288" lon="-0.19432">
        <ele>870.18458561341</ele>
        <time>2021-06-21T11:03:55.284Z</time>
      </trkpt>
      <trkpt lat="42.9729" lon="-0.19426">
        <ele>870.23726294458</ele>
        <time>2021-06-21T11:04:00.817Z</time>
      </trkpt>
      <trkpt lat="42.973" lon="-0.19376">
        <ele>870.27324405753</ele>
        <time>2021-06-21T11:04:06.356Z</time>
      </trkpt>
      <trkpt lat="42.97313" lon="-0.19345">
        <ele>870.3110659648</ele>
        <time>2021-06-21T11:04:11.899Z</time>
      </trkpt>
      <trkpt lat="42.97314" lon="-0.19343">
        <ele>870.26493619509</ele>
        <time>2021-06-21T11:04:17.443Z</time>
      </trkpt>
      <trkpt lat="42.97315" lon="-0.19342">
        <ele>870.18075476035</ele>
        <time>2021-06-21T11:04:22.987Z</time>
      </trkpt>
      <trkpt lat="42.97326" lon="-0.19326">
        <ele>870.09589895826</ele>
        <time>2021-06-21T11:04:28.533Z</time>
      </trkpt>
      <trkpt lat="42.97332" lon="-0.19311">
        <ele>869.9513115738</ele>
        <time>2021-06-21T11:04:34.081Z</time>
      </trkpt>
      <trkpt lat="42.97334" lon="-0.19296">
        <ele>869.7453362673</ele>
        <time>2021-06-21T11:04:39.631Z</time>
      </trkpt>
      <trkpt lat="42.97339" lon="-0.19286">
        <ele>869.48746062566</ele>
        <time>2021-06-21T11:04:45.182Z</time>
      </trkpt>
      <trkpt lat="42.97352" lon="-0.19269">
        <ele>869.17539262795</ele>
        <time>2021-06-21T11:04:50.736Z</time>
      </trkpt>
      <trkpt lat="42.97353" lon="-0.19268">
        <ele>868.82373756671</ele>
        <time>2021-06-21T11:04:56.291Z</time>
      </trkpt>
      <trkpt lat="42.97377" lon="-0.19242">
        <ele>868.41370397071</ele>
        <time>2021-06-21T11:05:01.851Z</time>
      </trkpt>
      <trkpt lat="42.97399" lon="-0.19214">
        <ele>867.95035437206</ele>
        <time>2021-06-21T11:05:07.415Z</time>
      </trkpt>
      <trkpt lat="42.97406" lon="-0.19197">
        <ele>867.4175049145</ele>
        <time>2021-06-21T11:05:12.982Z</time>
      </trkpt>
      <trkpt lat="42.9741" lon="-0.19189">
        <ele>866.86278667628</ele>
        <time>2021-06-21T11:05:18.550Z</time>
      </trkpt>
      <trkpt lat="42.97443" lon="-0.19113">
        <ele>866.16515797351</ele>
        <time>2021-06-21T11:05:24.128Z</time>
      </trkpt>
      <trkpt lat="42.97446" lon="-0.19105">
        <ele>865.56423501363</ele>
        <time>2021-06-21T11:05:29.707Z</time>
      </trkpt>
      <trkpt lat="42.97446" lon="-0.19105">
        <ele>864.92437922172</ele>
        <time>2021-06-21T11:05:35.286Z</time>
      </trkpt>
      <trkpt lat="42.97452" lon="-0.1909">
        <ele>864.25629994314</ele>
        <time>2021-06-21T11:05:40.867Z</time>
      </trkpt>
      <trkpt lat="42.97458" lon="-0.19052">
        <ele>863.50174333454</ele>
        <time>2021-06-21T11:05:46.453Z</time>
      </trkpt>
      <trkpt lat="42.97464" lon="-0.19013">
        <ele>862.69381986968</ele>
        <time>2021-06-21T11:05:52.043Z</time>
      </trkpt>
      <trkpt lat="42.97475" lon="-0.18965">
        <ele>861.8458363006</ele>
        <time>2021-06-21T11:05:57.639Z</time>
      </trkpt>
      <trkpt lat="42.9748" lon="-0.18936">
        <ele>860.99788859304</ele>
        <time>2021-06-21T11:06:03.239Z</time>
      </trkpt>
      <trkpt lat="42.97481" lon="-0.18921">
        <ele>860.16481589365</ele>
        <time>2021-06-21T11:06:08.841Z</time>
      </trkpt>
      <trkpt lat="42.97479" lon="-0.18893">
        <ele>859.29176016706</ele>
        <time>2021-06-21T11:06:14.446Z</time>
      </trkpt>
      <trkpt lat="42.97475" lon="-0.18875">
        <ele>858.4676218964</ele>
        <time>2021-06-21T11:06:20.053Z</time>
      </trkpt>
      <trkpt lat="42.97458" lon="-0.18818">
        <ele>857.61376642228</ele>
        <time>2021-06-21T11:06:25.667Z</time>
      </trkpt>
      <trkpt lat="42.97454" lon="-0.18794">
        <ele>856.85036513031</ele>
        <time>2021-06-21T11:06:31.284Z</time>
      </trkpt>
      <trkpt lat="42.97454" lon="-0.18779">
        <ele>856.03646275077</ele>
        <time>2021-06-21T11:06:36.903Z</time>
      </trkpt>
      <trkpt lat="42.97459" lon="-0.18753">
        <ele>855.22392467332</ele>
        <time>2021-06-21T11:06:42.525Z</time>
      </trkpt>
      <trkpt lat="42.97462" lon="-0.18744">
        <ele>854.44971527033</ele>
        <time>2021-06-21T11:06:48.148Z</time>
      </trkpt>
      <trkpt lat="42.97484" lon="-0.18715">
        <ele>853.66325969107</ele>
        <time>2021-06-21T11:06:53.776Z</time>
      </trkpt>
      <trkpt lat="42.97491" lon="-0.18698">
        <ele>852.91685937711</ele>
        <time>2021-06-21T11:06:59.407Z</time>
      </trkpt>
      <trkpt lat="42.97504" lon="-0.18627">
        <ele>852.17864621184</ele>
        <time>2021-06-21T11:07:05.046Z</time>
      </trkpt>
      <trkpt lat="42.97504" lon="-0.18627">
        <ele>851.47915405558</ele>
        <time>2021-06-21T11:07:10.685Z</time>
      </trkpt>
      <trkpt lat="42.97507" lon="-0.18615">
        <ele>850.77364321065</ele>
        <time>2021-06-21T11:07:16.326Z</time>
      </trkpt>
      <trkpt lat="42.97515" lon="-0.18592">
        <ele>850.07461225048</ele>
        <time>2021-06-21T11:07:21.970Z</time>
      </trkpt>
      <trkpt lat="42.97534" lon="-0.18563">
        <ele>849.39694898547</ele>
        <time>2021-06-21T11:07:27.618Z</time>
      </trkpt>
      <trkpt lat="42.97555" lon="-0.18539">
        <ele>848.76684929507</ele>
        <time>2021-06-21T11:07:33.271Z</time>
      </trkpt>
      <trkpt lat="42.97559" lon="-0.18533">
        <ele>848.18792238094</ele>
        <time>2021-06-21T11:07:38.925Z</time>
      </trkpt>
      <trkpt lat="42.97559" lon="-0.18533">
        <ele>847.63962721817</ele>
        <time>2021-06-21T11:07:44.579Z</time>
      </trkpt>
      <trkpt lat="42.97569" lon="-0.18515">
        <ele>847.11245308426</ele>
        <time>2021-06-21T11:07:50.235Z</time>
      </trkpt>
      <trkpt lat="42.97578" lon="-0.18486">
        <ele>846.60161849148</ele>
        <time>2021-06-21T11:07:55.895Z</time>
      </trkpt>
      <trkpt lat="42.97597" lon="-0.18416">
        <ele>846.11994226274</ele>
        <time>2021-06-21T11:08:01.564Z</time>
      </trkpt>
      <trkpt lat="42.97627" lon="-0.1833">
        <ele>845.75158539816</ele>
        <time>2021-06-21T11:08:07.244Z</time>
      </trkpt>
      <trkpt lat="42.97646" lon="-0.18266">
        <ele>845.32007133533</ele>
        <time>2021-06-21T11:08:12.932Z</time>
      </trkpt>
      <trkpt lat="42.97691" lon="-0.18164">
        <ele>844.84754324723</ele>
        <time>2021-06-21T11:08:18.634Z</time>
      </trkpt>
      <trkpt lat="42.9774" lon="-0.18072">
        <ele>844.48383046411</ele>
        <time>2021-06-21T11:08:24.349Z</time>
      </trkpt>
      <trkpt lat="42.9774" lon="-0.18072">
        <ele>844.15024890199</ele>
        <time>2021-06-21T11:08:30.064Z</time>
      </trkpt>
      <trkpt lat="42.97744" lon="-0.1805">
        <ele>843.79789398976</ele>
        <time>2021-06-21T11:08:35.782Z</time>
      </trkpt>
      <trkpt lat="42.97747" lon="-0.18027">
        <ele>843.48334334482</ele>
        <time>2021-06-21T11:08:41.503Z</time>
      </trkpt>
      <trkpt lat="42.97748" lon="-0.18027">
        <ele>843.21663127584</ele>
        <time>2021-06-21T11:08:47.224Z</time>
      </trkpt>
      <trkpt lat="42.97753" lon="-0.17964">
        <ele>842.8865603084</ele>
        <time>2021-06-21T11:08:52.952Z</time>
      </trkpt>
      <trkpt lat="42.97757" lon="-0.17935">
        <ele>842.61179796893</ele>
        <time>2021-06-21T11:08:58.684Z</time>
      </trkpt>
      <trkpt lat="42.97757" lon="-0.17935">
        <ele>842.39816071293</ele>
        <time>2021-06-21T11:09:04.416Z</time>
      </trkpt>
      <trkpt lat="42.97783" lon="-0.17791">
        <ele>842.12297236361</ele>
        <time>2021-06-21T11:09:10.165Z</time>
      </trkpt>
      <trkpt lat="42.97799" lon="-0.17722">
        <ele>841.96913155545</ele>
        <time>2021-06-21T11:09:15.923Z</time>
      </trkpt>
      <trkpt lat="42.97812" lon="-0.1769">
        <ele>841.78546777196</ele>
        <time>2021-06-21T11:09:21.685Z</time>
      </trkpt>
      <trkpt lat="42.97823" lon="-0.17658">
        <ele>841.57095645618</ele>
        <time>2021-06-21T11:09:27.451Z</time>
      </trkpt>
      <trkpt lat="42.97827" lon="-0.17622">
        <ele>841.3685409198</ele>
        <time>2021-06-21T11:09:33.221Z</time>
      </trkpt>
      <trkpt lat="42.97828" lon="-0.17587">
        <ele>841.14594531266</ele>
        <time>2021-06-21T11:09:38.995Z</time>
      </trkpt>
      <trkpt lat="42.97827" lon="-0.17544">
        <ele>840.91284174662</ele>
        <time>2021-06-21T11:09:44.774Z</time>
      </trkpt>
      <trkpt lat="42.97823" lon="-0.17503">
        <ele>840.68425823176</ele>
        <time>2021-06-21T11:09:50.558Z</time>
      </trkpt>
      <trkpt lat="42.97823" lon="-0.17461">
        <ele>840.39240351599</ele>
        <time>2021-06-21T11:09:56.347Z</time>
      </trkpt>
      <trkpt lat="42.97823" lon="-0.17461">
        <ele>840.17219443512</ele>
        <time>2021-06-21T11:10:02.136Z</time>
      </trkpt>
      <trkpt lat="42.97822" lon="-0.17415">
        <ele>839.96795228006</ele>
        <time>2021-06-21T11:10:07.931Z</time>
      </trkpt>
      <trkpt lat="42.97822" lon="-0.17415">
        <ele>839.69718270635</ele>
        <time>2021-06-21T11:10:13.726Z</time>
      </trkpt>
      <trkpt lat="42.97824" lon="-0.17337">
        <ele>839.43312708235</ele>
        <time>2021-06-21T11:10:19.530Z</time>
      </trkpt>
      <trkpt lat="42.97826" lon="-0.17308">
        <ele>839.13374832995</ele>
        <time>2021-06-21T11:10:25.337Z</time>
      </trkpt>
      <trkpt lat="42.97831" lon="-0.17284">
        <ele>838.76695812399</ele>
        <time>2021-06-21T11:10:31.147Z</time>
      </trkpt>
      <trkpt lat="42.97839" lon="-0.17258">
        <ele>838.39967038163</ele>
        <time>2021-06-21T11:10:36.960Z</time>
      </trkpt>
      <trkpt lat="42.97897" lon="-0.1712">
        <ele>838.05929521498</ele>
        <time>2021-06-21T11:10:42.792Z</time>
      </trkpt>
      <trkpt lat="42.97902" lon="-0.17088">
        <ele>837.50093684819</ele>
        <time>2021-06-21T11:10:48.628Z</time>
      </trkpt>
      <trkpt lat="42.97902" lon="-0.17055">
        <ele>836.793166059</ele>
        <time>2021-06-21T11:10:54.468Z</time>
      </trkpt>
      <trkpt lat="42.97905" lon="-0.17015">
        <ele>836.07066730906</ele>
        <time>2021-06-21T11:11:00.313Z</time>
      </trkpt>
      <trkpt lat="42.97912" lon="-0.16997">
        <ele>835.34963888339</ele>
        <time>2021-06-21T11:11:06.160Z</time>
      </trkpt>
      <trkpt lat="42.9794" lon="-0.16941">
        <ele>834.70331390601</ele>
        <time>2021-06-21T11:11:12.015Z</time>
      </trkpt>
      <trkpt lat="42.97975" lon="-0.16808">
        <ele>833.65931682113</ele>
        <time>2021-06-21T11:11:17.887Z</time>
      </trkpt>
      <trkpt lat="42.97979" lon="-0.16777">
        <ele>832.56500564094</ele>
        <time>2021-06-21T11:11:23.762Z</time>
      </trkpt>
      <trkpt lat="42.97979" lon="-0.16777">
        <ele>831.42616729757</ele>
        <time>2021-06-21T11:11:29.637Z</time>
      </trkpt>
      <trkpt lat="42.97975" lon="-0.16653">
        <ele>830.0308629176</ele>
        <time>2021-06-21T11:11:35.527Z</time>
      </trkpt>
      <trkpt lat="42.97974" lon="-0.16624">
        <ele>828.67876723895</ele>
        <time>2021-06-21T11:11:41.420Z</time>
      </trkpt>
      <trkpt lat="42.97964" lon="-0.16529">
        <ele>827.0743045456</ele>
        <time>2021-06-21T11:11:47.325Z</time>
      </trkpt>
      <trkpt lat="42.97964" lon="-0.16493">
        <ele>825.47571271957</ele>
        <time>2021-06-21T11:11:53.234Z</time>
      </trkpt>
      <trkpt lat="42.97976" lon="-0.16359">
        <ele>823.74456458727</ele>
        <time>2021-06-21T11:11:59.159Z</time>
      </trkpt>
      <trkpt lat="42.97971" lon="-0.16325">
        <ele>822.07251715794</ele>
        <time>2021-06-21T11:12:05.088Z</time>
      </trkpt>
      <trkpt lat="42.97959" lon="-0.1625">
        <ele>820.22427905581</ele>
        <time>2021-06-21T11:12:11.026Z</time>
      </trkpt>
      <trkpt lat="42.97959" lon="-0.16223">
        <ele>818.43811137474</ele>
        <time>2021-06-21T11:12:16.967Z</time>
      </trkpt>
      <trkpt lat="42.97962" lon="-0.1618">
        <ele>816.54146907507</ele>
        <time>2021-06-21T11:12:22.913Z</time>
      </trkpt>
      <trkpt lat="42.97962" lon="-0.1618">
        <ele>814.6359464892</ele>
        <time>2021-06-21T11:12:28.859Z</time>
      </trkpt>
      <trkpt lat="42.97971" lon="-0.1606">
        <ele>812.52919219551</ele>
        <time>2021-06-21T11:12:34.819Z</time>
      </trkpt>
      <trkpt lat="42.97975" lon="-0.15992">
        <ele>810.40582646414</ele>
        <time>2021-06-21T11:12:40.787Z</time>
      </trkpt>
      <trkpt lat="42.97979" lon="-0.15956">
        <ele>808.29242480186</ele>
        <time>2021-06-21T11:12:46.759Z</time>
      </trkpt>
      <trkpt lat="42.97996" lon="-0.15892">
        <ele>806.12755184456</ele>
        <time>2021-06-21T11:12:52.739Z</time>
      </trkpt>
      <trkpt lat="42.98021" lon="-0.15766">
        <ele>803.65525799071</ele>
        <time>2021-06-21T11:12:58.735Z</time>
      </trkpt>
      <trkpt lat="42.9805" lon="-0.15635">
        <ele>801.14386522103</ele>
        <time>2021-06-21T11:13:04.747Z</time>
      </trkpt>
      <trkpt lat="42.98081" lon="-0.15496">
        <ele>798.93441452638</ele>
        <time>2021-06-21T11:13:10.776Z</time>
      </trkpt>
      <trkpt lat="42.98081" lon="-0.15496">
        <ele>796.82701513208</ele>
        <time>2021-06-21T11:13:16.805Z</time>
      </trkpt>
      <trkpt lat="42.98092" lon="-0.15446">
        <ele>794.63858003923</ele>
        <time>2021-06-21T11:13:22.840Z</time>
      </trkpt>
      <trkpt lat="42.98107" lon="-0.15411">
        <ele>792.46987979108</ele>
        <time>2021-06-21T11:13:28.880Z</time>
      </trkpt>
      <trkpt lat="42.98138" lon="-0.15356">
        <ele>790.36488308688</ele>
        <time>2021-06-21T11:13:34.928Z</time>
      </trkpt>
      <trkpt lat="42.98138" lon="-0.15356">
        <ele>788.32101358414</ele>
        <time>2021-06-21T11:13:40.976Z</time>
      </trkpt>
      <trkpt lat="42.98156" lon="-0.15322">
        <ele>786.33071379441</ele>
        <time>2021-06-21T11:13:47.029Z</time>
      </trkpt>
      <trkpt lat="42.98156" lon="-0.15322">
        <ele>784.34097767363</ele>
        <time>2021-06-21T11:13:53.082Z</time>
      </trkpt>
      <trkpt lat="42.98188" lon="-0.15268">
        <ele>782.35749464259</ele>
        <time>2021-06-21T11:13:59.143Z</time>
      </trkpt>
      <trkpt lat="42.98188" lon="-0.15268">
        <ele>780.43035754985</ele>
        <time>2021-06-21T11:14:05.204Z</time>
      </trkpt>
      <trkpt lat="42.98239" lon="-0.15174">
        <ele>778.36454013131</ele>
        <time>2021-06-21T11:14:11.279Z</time>
      </trkpt>
      <trkpt lat="42.98246" lon="-0.15151">
        <ele>776.46578820897</ele>
        <time>2021-06-21T11:14:17.357Z</time>
      </trkpt>
      <trkpt lat="42.98246" lon="-0.15151">
        <ele>774.64468795226</ele>
        <time>2021-06-21T11:14:23.435Z</time>
      </trkpt>
      <trkpt lat="42.98254" lon="-0.15131">
        <ele>772.82438076401</ele>
        <time>2021-06-21T11:14:29.515Z</time>
      </trkpt>
      <trkpt lat="42.98281" lon="-0.15005">
        <ele>770.85167018965</ele>
        <time>2021-06-21T11:14:35.611Z</time>
      </trkpt>
      <trkpt lat="42.98305" lon="-0.1493">
        <ele>769.07167546753</ele>
        <time>2021-06-21T11:14:41.716Z</time>
      </trkpt>
      <trkpt lat="42.98342" lon="-0.1484">
        <ele>767.40481944243</ele>
        <time>2021-06-21T11:14:47.833Z</time>
      </trkpt>
      <trkpt lat="42.98349" lon="-0.14807">
        <ele>765.74819991932</ele>
        <time>2021-06-21T11:14:53.954Z</time>
      </trkpt>
      <trkpt lat="42.98354" lon="-0.14777">
        <ele>764.11280295931</ele>
        <time>2021-06-21T11:15:00.079Z</time>
      </trkpt>
      <trkpt lat="42.98364" lon="-0.14651">
        <ele>762.40455421306</ele>
        <time>2021-06-21T11:15:06.219Z</time>
      </trkpt>
      <trkpt lat="42.98369" lon="-0.14624">
        <ele>760.87310108694</ele>
        <time>2021-06-21T11:15:12.362Z</time>
      </trkpt>
      <trkpt lat="42.98374" lon="-0.14606">
        <ele>759.40649951259</ele>
        <time>2021-06-21T11:15:18.507Z</time>
      </trkpt>
      <trkpt lat="42.98392" lon="-0.14574">
        <ele>758.08254176656</ele>
        <time>2021-06-21T11:15:24.657Z</time>
      </trkpt>
      <trkpt lat="42.98459" lon="-0.14479">
        <ele>756.80978234438</ele>
        <time>2021-06-21T11:15:30.823Z</time>
      </trkpt>
      <trkpt lat="42.98507" lon="-0.14413">
        <ele>755.22169868149</ele>
        <time>2021-06-21T11:15:37.000Z</time>
      </trkpt>
      <trkpt lat="42.98521" lon="-0.14388">
        <ele>753.73639828536</ele>
        <time>2021-06-21T11:15:43.180Z</time>
      </trkpt>
      <trkpt lat="42.98533" lon="-0.14363">
        <ele>752.29593101337</ele>
        <time>2021-06-21T11:15:49.364Z</time>
      </trkpt>
      <trkpt lat="42.9854" lon="-0.1434">
        <ele>750.89584857805</ele>
        <time>2021-06-21T11:15:55.551Z</time>
      </trkpt>
      <trkpt lat="42.98551" lon="-0.14292">
        <ele>749.46409713411</ele>
        <time>2021-06-21T11:16:01.744Z</time>
      </trkpt>
      <trkpt lat="42.98569" lon="-0.14226">
        <ele>747.96252626201</ele>
        <time>2021-06-21T11:16:07.945Z</time>
      </trkpt>
      <trkpt lat="42.98638" lon="-0.14064">
        <ele>746.51480175442</ele>
        <time>2021-06-21T11:16:14.168Z</time>
      </trkpt>
      <trkpt lat="42.98672" lon="-0.13963">
        <ele>744.83428775055</ele>
        <time>2021-06-21T11:16:20.404Z</time>
      </trkpt>
      <trkpt lat="42.98771" lon="-0.13725">
        <ele>743.46706903001</ele>
        <time>2021-06-21T11:16:26.672Z</time>
      </trkpt>
      <trkpt lat="42.98801" lon="-0.13646">
        <ele>742.05560147818</ele>
        <time>2021-06-21T11:16:32.950Z</time>
      </trkpt>
      <trkpt lat="42.98808" lon="-0.13617">
        <ele>740.70112919222</ele>
        <time>2021-06-21T11:16:39.232Z</time>
      </trkpt>
      <trkpt lat="42.98808" lon="-0.13617">
        <ele>739.43597165702</ele>
        <time>2021-06-21T11:16:45.514Z</time>
      </trkpt>
      <trkpt lat="42.98819" lon="-0.13571">
        <ele>738.09197012697</ele>
        <time>2021-06-21T11:16:51.802Z</time>
      </trkpt>
      <trkpt lat="42.98825" lon="-0.13549">
        <ele>736.8101745137</ele>
        <time>2021-06-21T11:16:58.092Z</time>
      </trkpt>
      <trkpt lat="42.9884" lon="-0.13507">
        <ele>735.58562969342</ele>
        <time>2021-06-21T11:17:04.388Z</time>
      </trkpt>
      <trkpt lat="42.98876" lon="-0.13444">
        <ele>734.36911983751</ele>
        <time>2021-06-21T11:17:10.693Z</time>
      </trkpt>
      <trkpt lat="42.98914" lon="-0.13345">
        <ele>732.96827879533</ele>
        <time>2021-06-21T11:17:17.012Z</time>
      </trkpt>
      <trkpt lat="42.98914" lon="-0.13345">
        <ele>731.71052011539</ele>
        <time>2021-06-21T11:17:23.331Z</time>
      </trkpt>
      <trkpt lat="42.98927" lon="-0.1332">
        <ele>730.44600234074</ele>
        <time>2021-06-21T11:17:29.653Z</time>
      </trkpt>
      <trkpt lat="42.98978" lon="-0.1326">
        <ele>729.14751484082</ele>
        <time>2021-06-21T11:17:35.986Z</time>
      </trkpt>
      <trkpt lat="42.98987" lon="-0.13247">
        <ele>727.83830997603</ele>
        <time>2021-06-21T11:17:42.321Z</time>
      </trkpt>
      <trkpt lat="42.98991" lon="-0.13237">
        <ele>726.50465221198</ele>
        <time>2021-06-21T11:17:48.657Z</time>
      </trkpt>
      <trkpt lat="42.98998" lon="-0.13215">
        <ele>725.1195195358</ele>
        <time>2021-06-21T11:17:54.996Z</time>
      </trkpt>
      <trkpt lat="42.99008" lon="-0.13165">
        <ele>723.59246434052</ele>
        <time>2021-06-21T11:18:01.341Z</time>
      </trkpt>
      <trkpt lat="42.99015" lon="-0.13151">
        <ele>722.14622568175</ele>
        <time>2021-06-21T11:18:07.688Z</time>
      </trkpt>
      <trkpt lat="42.99026" lon="-0.13134">
        <ele>720.666811022</ele>
        <time>2021-06-21T11:18:14.038Z</time>
      </trkpt>
      <trkpt lat="42.99101" lon="-0.13051">
        <ele>719.10151436839</ele>
        <time>2021-06-21T11:18:20.403Z</time>
      </trkpt>
      <trkpt lat="42.99112" lon="-0.13038">
        <ele>717.58066563735</ele>
        <time>2021-06-21T11:18:26.771Z</time>
      </trkpt>
      <trkpt lat="42.99112" lon="-0.13038">
        <ele>716.00524687946</ele>
        <time>2021-06-21T11:18:33.139Z</time>
      </trkpt>
      <trkpt lat="42.99166" lon="-0.12956">
        <ele>714.38297005067</ele>
        <time>2021-06-21T11:18:39.520Z</time>
      </trkpt>
      <trkpt lat="42.99171" lon="-0.12943">
        <ele>712.67222018532</ele>
        <time>2021-06-21T11:18:45.902Z</time>
      </trkpt>
      <trkpt lat="42.99179" lon="-0.12912">
        <ele>710.83969124959</ele>
        <time>2021-06-21T11:18:52.288Z</time>
      </trkpt>
      <trkpt lat="42.99179" lon="-0.12912">
        <ele>709.06219049342</ele>
        <time>2021-06-21T11:18:58.674Z</time>
      </trkpt>
      <trkpt lat="42.99199" lon="-0.1281">
        <ele>706.86041443648</ele>
        <time>2021-06-21T11:19:05.073Z</time>
      </trkpt>
      <trkpt lat="42.99208" lon="-0.1279">
        <ele>704.92915349303</ele>
        <time>2021-06-21T11:19:11.474Z</time>
      </trkpt>
      <trkpt lat="42.99216" lon="-0.12773">
        <ele>702.95190072119</ele>
        <time>2021-06-21T11:19:17.878Z</time>
      </trkpt>
      <trkpt lat="42.99242" lon="-0.12725">
        <ele>700.85656440597</ele>
        <time>2021-06-21T11:19:24.289Z</time>
      </trkpt>
      <trkpt lat="42.9926" lon="-0.12672">
        <ele>698.74507732172</ele>
        <time>2021-06-21T11:19:30.707Z</time>
      </trkpt>
      <trkpt lat="42.99274" lon="-0.12598">
        <ele>696.55579945293</ele>
        <time>2021-06-21T11:19:37.134Z</time>
      </trkpt>
      <trkpt lat="42.99282" lon="-0.12565">
        <ele>694.36999275266</ele>
        <time>2021-06-21T11:19:43.565Z</time>
      </trkpt>
      <trkpt lat="42.99291" lon="-0.12542">
        <ele>692.1637046804</ele>
        <time>2021-06-21T11:19:49.999Z</time>
      </trkpt>
      <trkpt lat="42.99342" lon="-0.12471">
        <ele>689.74300084964</ele>
        <time>2021-06-21T11:19:56.444Z</time>
      </trkpt>
      <trkpt lat="42.99349" lon="-0.12459">
        <ele>687.4298390529</ele>
        <time>2021-06-21T11:20:02.891Z</time>
      </trkpt>
      <trkpt lat="42.99355" lon="-0.12451">
        <ele>685.07941225522</ele>
        <time>2021-06-21T11:20:09.339Z</time>
      </trkpt>
      <trkpt lat="42.99355" lon="-0.12451">
        <ele>682.72791190976</ele>
        <time>2021-06-21T11:20:15.787Z</time>
      </trkpt>
      <trkpt lat="42.99372" lon="-0.12429">
        <ele>680.25202401451</ele>
        <time>2021-06-21T11:20:22.239Z</time>
      </trkpt>
      <trkpt lat="42.99378" lon="-0.12425">
        <ele>677.81622778646</ele>
        <time>2021-06-21T11:20:28.692Z</time>
      </trkpt>
      <trkpt lat="42.99408" lon="-0.12409">
        <ele>675.33311581171</ele>
        <time>2021-06-21T11:20:35.151Z</time>
      </trkpt>
      <trkpt lat="42.99429" lon="-0.1239">
        <ele>672.79880323141</ele>
        <time>2021-06-21T11:20:41.613Z</time>
      </trkpt>
      <trkpt lat="42.99447" lon="-0.12359">
        <ele>670.26189050351</ele>
        <time>2021-06-21T11:20:48.080Z</time>
      </trkpt>
      <trkpt lat="42.99461" lon="-0.1233">
        <ele>667.68898260034</ele>
        <time>2021-06-21T11:20:54.551Z</time>
      </trkpt>
      <trkpt lat="42.99462" lon="-0.12327">
        <ele>665.13689497574</ele>
        <time>2021-06-21T11:21:01.023Z</time>
      </trkpt>
      <trkpt lat="42.99475" lon="-0.12292">
        <ele>662.48811434566</ele>
        <time>2021-06-21T11:21:07.499Z</time>
      </trkpt>
      <trkpt lat="42.99512" lon="-0.12146">
        <ele>659.35695096221</ele>
        <time>2021-06-21T11:21:13.993Z</time>
      </trkpt>
      <trkpt lat="42.99512" lon="-0.12123">
        <ele>656.64050482691</ele>
        <time>2021-06-21T11:21:20.490Z</time>
      </trkpt>
      <trkpt lat="42.9951" lon="-0.12099">
        <ele>654.01870109641</ele>
        <time>2021-06-21T11:21:26.990Z</time>
      </trkpt>
      <trkpt lat="42.99484" lon="-0.12023">
        <ele>651.15750274192</ele>
        <time>2021-06-21T11:21:33.500Z</time>
      </trkpt>
      <trkpt lat="42.99483" lon="-0.12002">
        <ele>648.58824907671</ele>
        <time>2021-06-21T11:21:40.012Z</time>
      </trkpt>
      <trkpt lat="42.99502" lon="-0.11859">
        <ele>645.74172227614</ele>
        <time>2021-06-21T11:21:46.541Z</time>
      </trkpt>
      <trkpt lat="42.99506" lon="-0.11842">
        <ele>643.28672896063</ele>
        <time>2021-06-21T11:21:53.072Z</time>
      </trkpt>
      <trkpt lat="42.9952" lon="-0.11814">
        <ele>640.86505671715</ele>
        <time>2021-06-21T11:21:59.607Z</time>
      </trkpt>
      <trkpt lat="42.9952" lon="-0.11814">
        <ele>638.52448931476</ele>
        <time>2021-06-21T11:22:06.142Z</time>
      </trkpt>
      <trkpt lat="42.99533" lon="-0.11787">
        <ele>636.17962761903</ele>
        <time>2021-06-21T11:22:12.681Z</time>
      </trkpt>
      <trkpt lat="42.99541" lon="-0.11775">
        <ele>633.91364657157</ele>
        <time>2021-06-21T11:22:19.222Z</time>
      </trkpt>
      <trkpt lat="42.99548" lon="-0.1177">
        <ele>631.73908081632</ele>
        <time>2021-06-21T11:22:25.764Z</time>
      </trkpt>
      <trkpt lat="42.99561" lon="-0.11764">
        <ele>629.65643262649</ele>
        <time>2021-06-21T11:22:32.308Z</time>
      </trkpt>
      <trkpt lat="42.99615" lon="-0.1176">
        <ele>627.6949238889</ele>
        <time>2021-06-21T11:22:38.861Z</time>
      </trkpt>
      <trkpt lat="42.99683" lon="-0.11742">
        <ele>625.55682143703</ele>
        <time>2021-06-21T11:22:45.425Z</time>
      </trkpt>
      <trkpt lat="42.99731" lon="-0.11727">
        <ele>623.48914702772</ele>
        <time>2021-06-21T11:22:51.997Z</time>
      </trkpt>
      <trkpt lat="42.99749" lon="-0.11717">
        <ele>621.56131220364</ele>
        <time>2021-06-21T11:22:58.572Z</time>
      </trkpt>
      <trkpt lat="42.99775" lon="-0.11697">
        <ele>619.74916860202</ele>
        <time>2021-06-21T11:23:05.152Z</time>
      </trkpt>
      <trkpt lat="42.99796" lon="-0.11672">
        <ele>618.0225424496</ele>
        <time>2021-06-21T11:23:11.736Z</time>
      </trkpt>
      <trkpt lat="42.99818" lon="-0.11632">
        <ele>616.25719079011</ele>
        <time>2021-06-21T11:23:18.326Z</time>
      </trkpt>
      <trkpt lat="42.99836" lon="-0.1159">
        <ele>614.5338893072</ele>
        <time>2021-06-21T11:23:24.922Z</time>
      </trkpt>
      <trkpt lat="42.99843" lon="-0.1157">
        <ele>612.97377835106</ele>
        <time>2021-06-21T11:23:31.521Z</time>
      </trkpt>
      <trkpt lat="42.99845" lon="-0.11553">
        <ele>611.49005909476</ele>
        <time>2021-06-21T11:23:38.122Z</time>
      </trkpt>
      <trkpt lat="42.99845" lon="-0.11511">
        <ele>609.90822002121</ele>
        <time>2021-06-21T11:23:44.728Z</time>
      </trkpt>
      <trkpt lat="42.99839" lon="-0.11521">
        <ele>607.50685484654</ele>
        <time>2021-06-21T11:23:51.335Z</time>
      </trkpt>
      <trkpt lat="42.99828" lon="-0.11564">
        <ele>606.63163730743</ele>
        <time>2021-06-21T11:23:57.947Z</time>
      </trkpt>
      <trkpt lat="42.99818" lon="-0.11584">
        <ele>605.69277576706</ele>
        <time>2021-06-21T11:24:04.562Z</time>
      </trkpt>
      <trkpt lat="42.99815" lon="-0.11579">
        <ele>604.66489271532</ele>
        <time>2021-06-21T11:24:11.178Z</time>
      </trkpt>
      <trkpt lat="42.99819" lon="-0.11552">
        <ele>603.61083493046</ele>
        <time>2021-06-21T11:24:17.797Z</time>
      </trkpt>
      <trkpt lat="42.99815" lon="-0.1154">
        <ele>602.65967680325</ele>
        <time>2021-06-21T11:24:24.418Z</time>
      </trkpt>
      <trkpt lat="42.99809" lon="-0.11538">
        <ele>601.80010913242</ele>
        <time>2021-06-21T11:24:31.040Z</time>
      </trkpt>
      <trkpt lat="42.99796" lon="-0.11556">
        <ele>601.06751071258</ele>
        <time>2021-06-21T11:24:37.665Z</time>
      </trkpt>
      <trkpt lat="42.99785" lon="-0.11558">
        <ele>600.28870227079</ele>
        <time>2021-06-21T11:24:44.292Z</time>
      </trkpt>
      <trkpt lat="42.99785" lon="-0.11558">
        <ele>599.5847707685</ele>
        <time>2021-06-21T11:24:50.919Z</time>
      </trkpt>
      <trkpt lat="42.99796" lon="-0.11556">
        <ele>601.06751071258</ele>
        <time>2021-06-21T11:24:57.547Z</time>
      </trkpt>
      <trkpt lat="42.99809" lon="-0.11538">
        <ele>601.80010913242</ele>
        <time>2021-06-21T11:25:04.178Z</time>
      </trkpt>
      <trkpt lat="42.99815" lon="-0.1154">
        <ele>602.65967680325</ele>
        <time>2021-06-21T11:25:10.810Z</time>
      </trkpt>
      <trkpt lat="42.99819" lon="-0.11552">
        <ele>603.61083493046</ele>
        <time>2021-06-21T11:25:17.444Z</time>
      </trkpt>
      <trkpt lat="42.99815" lon="-0.11579">
        <ele>604.66489271532</ele>
        <time>2021-06-21T11:25:24.081Z</time>
      </trkpt>
      <trkpt lat="42.99818" lon="-0.11584">
        <ele>605.69277576706</ele>
        <time>2021-06-21T11:25:30.719Z</time>
      </trkpt>
      <trkpt lat="42.99828" lon="-0.11564">
        <ele>606.63163730743</ele>
        <time>2021-06-21T11:25:37.360Z</time>
      </trkpt>
      <trkpt lat="42.99839" lon="-0.11521">
        <ele>607.50685484654</ele>
        <time>2021-06-21T11:25:44.006Z</time>
      </trkpt>
      <trkpt lat="42.99845" lon="-0.11511">
        <ele>593.4411826975</ele>
        <time>2021-06-21T11:25:50.654Z</time>
      </trkpt>
      <trkpt lat="42.99844" lon="-0.11495">
        <ele>592.51710920792</ele>
        <time>2021-06-21T11:25:57.303Z</time>
      </trkpt>
      <trkpt lat="42.99858" lon="-0.11442">
        <ele>591.62138212852</ele>
        <time>2021-06-21T11:26:03.959Z</time>
      </trkpt>
      <trkpt lat="42.99863" lon="-0.11409">
        <ele>590.69035733728</ele>
        <time>2021-06-21T11:26:10.619Z</time>
      </trkpt>
      <trkpt lat="42.99862" lon="-0.11338">
        <ele>589.47238707269</ele>
        <time>2021-06-21T11:26:17.287Z</time>
      </trkpt>
      <trkpt lat="42.9987" lon="-0.11307">
        <ele>588.52374146333</ele>
        <time>2021-06-21T11:26:23.959Z</time>
      </trkpt>
      <trkpt lat="42.99883" lon="-0.1128">
        <ele>587.56647236799</ele>
        <time>2021-06-21T11:26:30.635Z</time>
      </trkpt>
      <trkpt lat="42.99922" lon="-0.11219">
        <ele>586.69116798245</ele>
        <time>2021-06-21T11:26:37.321Z</time>
      </trkpt>
      <trkpt lat="42.99927" lon="-0.11206">
        <ele>585.53116304397</ele>
        <time>2021-06-21T11:26:44.008Z</time>
      </trkpt>
      <trkpt lat="42.99929" lon="-0.11198">
        <ele>584.30953021834</ele>
        <time>2021-06-21T11:26:50.696Z</time>
      </trkpt>
      <trkpt lat="42.99929" lon="-0.11182">
        <ele>582.9312225241</ele>
        <time>2021-06-21T11:26:57.386Z</time>
      </trkpt>
      <trkpt lat="42.99925" lon="-0.11171">
        <ele>581.46211413233</ele>
        <time>2021-06-21T11:27:04.078Z</time>
      </trkpt>
      <trkpt lat="42.99912" lon="-0.11145">
        <ele>579.70623969589</ele>
        <time>2021-06-21T11:27:10.773Z</time>
      </trkpt>
      <trkpt lat="42.99908" lon="-0.11128">
        <ele>578.05343974639</ele>
        <time>2021-06-21T11:27:17.470Z</time>
      </trkpt>
      <trkpt lat="42.99908" lon="-0.11109">
        <ele>576.41501776132</ele>
        <time>2021-06-21T11:27:24.170Z</time>
      </trkpt>
      <trkpt lat="42.99915" lon="-0.11051">
        <ele>574.55338746564</ele>
        <time>2021-06-21T11:27:30.876Z</time>
      </trkpt>
      <trkpt lat="42.99917" lon="-0.10987">
        <ele>572.68424862843</ele>
        <time>2021-06-21T11:27:37.590Z</time>
      </trkpt>
      <trkpt lat="42.99917" lon="-0.10987">
        <ele>571.04994044319</ele>
        <time>2021-06-21T11:27:44.304Z</time>
      </trkpt>
      <trkpt lat="42.99919" lon="-0.10928">
        <ele>569.24290085886</ele>
        <time>2021-06-21T11:27:51.025Z</time>
      </trkpt>
      <trkpt lat="42.99924" lon="-0.10894">
        <ele>567.51917151102</ele>
        <time>2021-06-21T11:27:57.750Z</time>
      </trkpt>
      <trkpt lat="42.99924" lon="-0.10894">
        <ele>565.75840634855</ele>
        <time>2021-06-21T11:28:04.475Z</time>
      </trkpt>
      <trkpt lat="42.99932" lon="-0.10881">
        <ele>563.9901459756</ele>
        <time>2021-06-21T11:28:11.202Z</time>
      </trkpt>
      <trkpt lat="42.9994" lon="-0.10873">
        <ele>562.1492602131</ele>
        <time>2021-06-21T11:28:17.931Z</time>
      </trkpt>
      <trkpt lat="42.99949" lon="-0.10867">
        <ele>560.25712539903</ele>
        <time>2021-06-21T11:28:24.661Z</time>
      </trkpt>
      <trkpt lat="42.99961" lon="-0.10864">
        <ele>558.37083273699</ele>
        <time>2021-06-21T11:28:31.393Z</time>
      </trkpt>
      <trkpt lat="42.99961" lon="-0.10864">
        <ele>556.37910276786</ele>
        <time>2021-06-21T11:28:38.125Z</time>
      </trkpt>
      <trkpt lat="42.99998" lon="-0.10874">
        <ele>554.76511643186</ele>
        <time>2021-06-21T11:28:44.863Z</time>
      </trkpt>
      <trkpt lat="43.00016" lon="-0.10873">
        <ele>552.75786653616</ele>
        <time>2021-06-21T11:28:51.604Z</time>
      </trkpt>
      <trkpt lat="43.0003" lon="-0.10868">
        <ele>550.5920565976</ele>
        <time>2021-06-21T11:28:58.347Z</time>
      </trkpt>
      <trkpt lat="43.00085" lon="-0.10835">
        <ele>548.14626147467</ele>
        <time>2021-06-21T11:29:05.100Z</time>
      </trkpt>
      <trkpt lat="43.00113" lon="-0.10816">
        <ele>545.76626198896</ele>
        <time>2021-06-21T11:29:11.858Z</time>
      </trkpt>
      <trkpt lat="43.00137" lon="-0.10793">
        <ele>543.28398284108</ele>
        <time>2021-06-21T11:29:18.621Z</time>
      </trkpt>
      <trkpt lat="43.00165" lon="-0.10763">
        <ele>540.72180638807</ele>
        <time>2021-06-21T11:29:25.389Z</time>
      </trkpt>
      <trkpt lat="43.00204" lon="-0.1073">
        <ele>538.16449119135</ele>
        <time>2021-06-21T11:29:32.165Z</time>
      </trkpt>
      <trkpt lat="43.00274" lon="-0.10672">
        <ele>535.41875607771</ele>
        <time>2021-06-21T11:29:38.954Z</time>
      </trkpt>
      <trkpt lat="43.00308" lon="-0.10625">
        <ele>532.55471892739</ele>
        <time>2021-06-21T11:29:45.751Z</time>
      </trkpt>
      <trkpt lat="43.00308" lon="-0.10625">
        <ele>530.02985846377</ele>
        <time>2021-06-21T11:29:52.548Z</time>
      </trkpt>
      <trkpt lat="43.00319" lon="-0.10612">
        <ele>527.41823269069</ele>
        <time>2021-06-21T11:29:59.347Z</time>
      </trkpt>
      <trkpt lat="43.00336" lon="-0.10595">
        <ele>524.78691592131</ele>
        <time>2021-06-21T11:30:06.149Z</time>
      </trkpt>
      <trkpt lat="43.0036" lon="-0.10578">
        <ele>522.17926644415</ele>
        <time>2021-06-21T11:30:12.956Z</time>
      </trkpt>
      <trkpt lat="43.00367" lon="-0.1057">
        <ele>519.55443989629</ele>
        <time>2021-06-21T11:30:19.764Z</time>
      </trkpt>
      <trkpt lat="43.00375" lon="-0.10561">
        <ele>516.91225762077</ele>
        <time>2021-06-21T11:30:26.574Z</time>
      </trkpt>
      <trkpt lat="43.00399" lon="-0.10516">
        <ele>514.0181884975</ele>
        <time>2021-06-21T11:30:33.390Z</time>
      </trkpt>
      <trkpt lat="43.00409" lon="-0.10494">
        <ele>511.28167385371</ele>
        <time>2021-06-21T11:30:40.209Z</time>
      </trkpt>
      <trkpt lat="43.00432" lon="-0.10461">
        <ele>508.52252887094</ele>
        <time>2021-06-21T11:30:47.034Z</time>
      </trkpt>
      <trkpt lat="43.00432" lon="-0.10461">
        <ele>505.95661620993</ele>
        <time>2021-06-21T11:30:53.859Z</time>
      </trkpt>
      <trkpt lat="43.00473" lon="-0.10421">
        <ele>503.29061232207</ele>
        <time>2021-06-21T11:31:00.692Z</time>
      </trkpt>
      <trkpt lat="43.00479" lon="-0.1041">
        <ele>500.71733547153</ele>
        <time>2021-06-21T11:31:07.526Z</time>
      </trkpt>
      <trkpt lat="43.00482" lon="-0.10401">
        <ele>498.16981282792</ele>
        <time>2021-06-21T11:31:14.361Z</time>
      </trkpt>
      <trkpt lat="43.00482" lon="-0.10401">
        <ele>495.7182402579</ele>
        <time>2021-06-21T11:31:21.196Z</time>
      </trkpt>
      <trkpt lat="43.00486" lon="-0.10383">
        <ele>493.19389636062</ele>
        <time>2021-06-21T11:31:28.034Z</time>
      </trkpt>
      <trkpt lat="43.0049" lon="-0.10335">
        <ele>490.58535448333</ele>
        <time>2021-06-21T11:31:34.877Z</time>
      </trkpt>
      <trkpt lat="43.0049" lon="-0.10335">
        <ele>488.26365814562</ele>
        <time>2021-06-21T11:31:41.720Z</time>
      </trkpt>
      <trkpt lat="43.00494" lon="-0.10315">
        <ele>485.90869534929</ele>
        <time>2021-06-21T11:31:48.566Z</time>
      </trkpt>
      <trkpt lat="43.00472" lon="-0.10313">
        <ele>481.46274790904</ele>
        <time>2021-06-21T11:31:55.415Z</time>
      </trkpt>
      <trkpt lat="43.0046" lon="-0.10315">
        <ele>479.34367955961</ele>
        <time>2021-06-21T11:32:02.266Z</time>
      </trkpt>
      <trkpt lat="43.00436" lon="-0.10327">
        <ele>477.29088013869</ele>
        <time>2021-06-21T11:32:09.121Z</time>
      </trkpt>
      <trkpt lat="43.00432" lon="-0.10325">
        <ele>475.30561758623</ele>
        <time>2021-06-21T11:32:15.977Z</time>
      </trkpt>
      <trkpt lat="43.00409" lon="-0.1031">
        <ele>473.28705692592</ele>
        <time>2021-06-21T11:32:22.837Z</time>
      </trkpt>
      <trkpt lat="43.0037" lon="-0.10299">
        <ele>471.19639208781</ele>
        <time>2021-06-21T11:32:29.704Z</time>
      </trkpt>
      <trkpt lat="43.00352" lon="-0.10296">
        <ele>469.33721311361</ele>
        <time>2021-06-21T11:32:36.573Z</time>
      </trkpt>
      <trkpt lat="43.00328" lon="-0.10311">
        <ele>467.60165708096</ele>
        <time>2021-06-21T11:32:43.447Z</time>
      </trkpt>
      <trkpt lat="43.00318" lon="-0.10303">
        <ele>465.93220871311</ele>
        <time>2021-06-21T11:32:50.322Z</time>
      </trkpt>
      <trkpt lat="43.00312" lon="-0.10294">
        <ele>464.35954692431</ele>
        <time>2021-06-21T11:32:57.199Z</time>
      </trkpt>
      <trkpt lat="43.00298" lon="-0.10236">
        <ele>462.85251664543</ele>
        <time>2021-06-21T11:33:04.083Z</time>
      </trkpt>
      <trkpt lat="43.00293" lon="-0.10227">
        <ele>461.44162578385</ele>
        <time>2021-06-21T11:33:10.968Z</time>
      </trkpt>
      <trkpt lat="43.00275" lon="-0.10186">
        <ele>459.98092286365</ele>
        <time>2021-06-21T11:33:17.859Z</time>
      </trkpt>
      <trkpt lat="43.0027" lon="-0.10173">
        <ele>458.73178783246</ele>
        <time>2021-06-21T11:33:24.752Z</time>
      </trkpt>
      <trkpt lat="43.0027" lon="-0.10169">
        <ele>457.59756332862</ele>
        <time>2021-06-21T11:33:31.645Z</time>
      </trkpt>
      <trkpt lat="43.00257" lon="-0.10136">
        <ele>456.45806800954</ele>
        <time>2021-06-21T11:33:38.543Z</time>
      </trkpt>
      <trkpt lat="43.00256" lon="-0.10133">
        <ele>455.48711184702</ele>
        <time>2021-06-21T11:33:45.441Z</time>
      </trkpt>
      <trkpt lat="43.00247" lon="-0.10115">
        <ele>454.58065503245</ele>
        <time>2021-06-21T11:33:52.341Z</time>
      </trkpt>
      <trkpt lat="43.00234" lon="-0.10092">
        <ele>453.75010983305</ele>
        <time>2021-06-21T11:33:59.245Z</time>
      </trkpt>
      <trkpt lat="43.00223" lon="-0.10067">
        <ele>452.98597939923</ele>
        <time>2021-06-21T11:34:06.152Z</time>
      </trkpt>
      <trkpt lat="43.00182" lon="-0.09992">
        <ele>452.2332053057</ele>
        <time>2021-06-21T11:34:13.070Z</time>
      </trkpt>
      <trkpt lat="43.00182" lon="-0.09992">
        <ele>451.63067732807</ele>
        <time>2021-06-21T11:34:19.988Z</time>
      </trkpt>
      <trkpt lat="43.0018" lon="-0.09989">
        <ele>451.0910759929</ele>
        <time>2021-06-21T11:34:26.907Z</time>
      </trkpt>
      <trkpt lat="43.00163" lon="-0.09957">
        <ele>450.60782572845</ele>
        <time>2021-06-21T11:34:33.830Z</time>
      </trkpt>
      <trkpt lat="43.00163" lon="-0.09957">
        <ele>450.18877441949</ele>
        <time>2021-06-21T11:34:40.753Z</time>
      </trkpt>
      <trkpt lat="43.00155" lon="-0.09943">
        <ele>449.83324419418</ele>
        <time>2021-06-21T11:34:47.678Z</time>
      </trkpt>
      <trkpt lat="43.00155" lon="-0.09943">
        <ele>449.51644236744</ele>
        <time>2021-06-21T11:34:54.603Z</time>
      </trkpt>
      <trkpt lat="43.00151" lon="-0.09945">
        <ele>449.25003892706</ele>
        <time>2021-06-21T11:35:01.529Z</time>
      </trkpt>
      <trkpt lat="43.00145" lon="-0.09942">
        <ele>449.02516131886</ele>
        <time>2021-06-21T11:35:08.456Z</time>
      </trkpt>
      <trkpt lat="43.00142" lon="-0.09937">
        <ele>448.83287049429</ele>
        <time>2021-06-21T11:35:15.384Z</time>
      </trkpt>
      <trkpt lat="43.00141" lon="-0.09932">
        <ele>448.66868342052</ele>
        <time>2021-06-21T11:35:22.313Z</time>
      </trkpt>
      <trkpt lat="43.00142" lon="-0.09921">
        <ele>448.52811247092</ele>
        <time>2021-06-21T11:35:29.243Z</time>
      </trkpt>
      <trkpt lat="43.00129" lon="-0.09903">
        <ele>448.4108987389</ele>
        <time>2021-06-21T11:35:36.176Z</time>
      </trkpt>
      <trkpt lat="43.00093" lon="-0.09859">
        <ele>448.280930748</ele>
        <time>2021-06-21T11:35:43.117Z</time>
      </trkpt>
      <trkpt lat="43.00054" lon="-0.09804">
        <ele>448.128674453</ele>
        <time>2021-06-21T11:35:50.066Z</time>
      </trkpt>
      <trkpt lat="43.0002" lon="-0.09749">
        <ele>448.01541550363</ele>
        <time>2021-06-21T11:35:57.024Z</time>
      </trkpt>
      <trkpt lat="42.99997" lon="-0.09716">
        <ele>447.90432125621</ele>
        <time>2021-06-21T11:36:03.987Z</time>
      </trkpt>
      <trkpt lat="42.99992" lon="-0.09707">
        <ele>447.8379207072</ele>
        <time>2021-06-21T11:36:10.952Z</time>
      </trkpt>
      <trkpt lat="42.99952" lon="-0.09648">
        <ele>447.78199980101</ele>
        <time>2021-06-21T11:36:17.926Z</time>
      </trkpt>
      <trkpt lat="42.99952" lon="-0.09648">
        <ele>447.71242451954</ele>
        <time>2021-06-21T11:36:24.900Z</time>
      </trkpt>
      <trkpt lat="42.99931" lon="-0.09615">
        <ele>447.64198368322</ele>
        <time>2021-06-21T11:36:31.879Z</time>
      </trkpt>
      <trkpt lat="42.99929" lon="-0.09612">
        <ele>447.54894354029</ele>
        <time>2021-06-21T11:36:38.859Z</time>
      </trkpt>
      <trkpt lat="42.99929" lon="-0.09612">
        <ele>447.44491887115</ele>
        <time>2021-06-21T11:36:45.839Z</time>
      </trkpt>
      <trkpt lat="42.99906" lon="-0.09578">
        <ele>447.28997957626</ele>
        <time>2021-06-21T11:36:52.824Z</time>
      </trkpt>
      <trkpt lat="42.99906" lon="-0.09578">
        <ele>447.14703669142</ele>
        <time>2021-06-21T11:36:59.809Z</time>
      </trkpt>
      <trkpt lat="42.99885" lon="-0.09544">
        <ele>446.98579959156</ele>
        <time>2021-06-21T11:37:06.799Z</time>
      </trkpt>
      <trkpt lat="42.99841" lon="-0.09485">
        <ele>446.81054669804</ele>
        <time>2021-06-21T11:37:13.799Z</time>
      </trkpt>
      <trkpt lat="42.99828" lon="-0.09467">
        <ele>446.65095589265</ele>
        <time>2021-06-21T11:37:20.802Z</time>
      </trkpt>
      <trkpt lat="42.99811" lon="-0.09438">
        <ele>446.46330082559</ele>
        <time>2021-06-21T11:37:27.810Z</time>
      </trkpt>
      <trkpt lat="42.99806" lon="-0.09433">
        <ele>446.19259196977</ele>
        <time>2021-06-21T11:37:34.818Z</time>
      </trkpt>
      <trkpt lat="42.99796" lon="-0.09417">
        <ele>445.89511670846</ele>
        <time>2021-06-21T11:37:41.829Z</time>
      </trkpt>
      <trkpt lat="42.99791" lon="-0.09408">
        <ele>445.52475854836</ele>
        <time>2021-06-21T11:37:48.841Z</time>
      </trkpt>
      <trkpt lat="42.99791" lon="-0.09408">
        <ele>445.1321112256</ele>
        <time>2021-06-21T11:37:55.853Z</time>
      </trkpt>
      <trkpt lat="42.99768" lon="-0.09368">
        <ele>444.67449113208</ele>
        <time>2021-06-21T11:38:02.871Z</time>
      </trkpt>
      <trkpt lat="42.99726" lon="-0.09305">
        <ele>443.93116350625</ele>
        <time>2021-06-21T11:38:09.899Z</time>
      </trkpt>
      <trkpt lat="42.99724" lon="-0.09302">
        <ele>443.41280788058</ele>
        <time>2021-06-21T11:38:16.928Z</time>
      </trkpt>
      <trkpt lat="42.99702" lon="-0.0927">
        <ele>442.83074987709</ele>
        <time>2021-06-21T11:38:23.962Z</time>
      </trkpt>
      <trkpt lat="42.99696" lon="-0.09262">
        <ele>442.25610093123</ele>
        <time>2021-06-21T11:38:30.997Z</time>
      </trkpt>
      <trkpt lat="42.99683" lon="-0.09243">
        <ele>441.59652125943</ele>
        <time>2021-06-21T11:38:38.035Z</time>
      </trkpt>
      <trkpt lat="42.9966" lon="-0.09214">
        <ele>440.93203128405</ele>
        <time>2021-06-21T11:38:45.078Z</time>
      </trkpt>
      <trkpt lat="42.9966" lon="-0.09214">
        <ele>440.31083639405</ele>
        <time>2021-06-21T11:38:52.121Z</time>
      </trkpt>
      <trkpt lat="42.99633" lon="-0.092">
        <ele>439.68034609868</ele>
        <time>2021-06-21T11:38:59.169Z</time>
      </trkpt>
      <trkpt lat="42.99532" lon="-0.09163">
        <ele>439.27971253784</ele>
        <time>2021-06-21T11:39:06.234Z</time>
      </trkpt>
      <trkpt lat="42.99512" lon="-0.09159">
        <ele>438.60120856502</ele>
        <time>2021-06-21T11:39:13.302Z</time>
      </trkpt>
      <trkpt lat="42.99464" lon="-0.09158">
        <ele>438.08684320755</ele>
        <time>2021-06-21T11:39:20.378Z</time>
      </trkpt>
      <trkpt lat="42.99464" lon="-0.09158">
        <ele>437.3929318769</ele>
        <time>2021-06-21T11:39:27.454Z</time>
      </trkpt>
      <trkpt lat="42.99434" lon="-0.09147">
        <ele>436.62868240478</ele>
        <time>2021-06-21T11:39:34.534Z</time>
      </trkpt>
      <trkpt lat="42.99404" lon="-0.09135">
        <ele>435.78283160157</ele>
        <time>2021-06-21T11:39:41.620Z</time>
      </trkpt>
      <trkpt lat="42.99318" lon="-0.09093">
        <ele>434.93149231163</ele>
        <time>2021-06-21T11:39:48.720Z</time>
      </trkpt>
      <trkpt lat="42.99318" lon="-0.09093">
        <ele>434.23984098052</ele>
        <time>2021-06-21T11:39:55.820Z</time>
      </trkpt>
      <trkpt lat="42.99299" lon="-0.09083">
        <ele>433.4437980057</ele>
        <time>2021-06-21T11:40:02.923Z</time>
      </trkpt>
      <trkpt lat="42.99301" lon="-0.09065">
        <ele>432.10505363827</ele>
        <time>2021-06-21T11:40:10.029Z</time>
      </trkpt>
      <trkpt lat="42.99299" lon="-0.08917">
        <ele>431.29332761825</ele>
        <time>2021-06-21T11:40:17.152Z</time>
      </trkpt>
      <trkpt lat="42.99295" lon="-0.08815">
        <ele>430.69740165688</ele>
        <time>2021-06-21T11:40:24.287Z</time>
      </trkpt>
      <trkpt lat="42.99295" lon="-0.08815">
        <ele>430.17705631007</ele>
        <time>2021-06-21T11:40:31.422Z</time>
      </trkpt>
      <trkpt lat="42.99291" lon="-0.08754">
        <ele>429.65710286215</ele>
        <time>2021-06-21T11:40:38.564Z</time>
      </trkpt>
      <trkpt lat="42.99291" lon="-0.08694">
        <ele>429.23024024145</ele>
        <time>2021-06-21T11:40:45.713Z</time>
      </trkpt>
      <trkpt lat="42.99296" lon="-0.08677">
        <ele>428.86246613609</ele>
        <time>2021-06-21T11:40:52.864Z</time>
      </trkpt>
      <trkpt lat="42.9931" lon="-0.0866">
        <ele>428.55958600912</ele>
        <time>2021-06-21T11:41:00.018Z</time>
      </trkpt>
      <trkpt lat="42.99317" lon="-0.08641">
        <ele>428.3262155571</ele>
        <time>2021-06-21T11:41:07.175Z</time>
      </trkpt>
      <trkpt lat="42.99318" lon="-0.08624">
        <ele>428.16181028595</ele>
        <time>2021-06-21T11:41:14.334Z</time>
      </trkpt>
      <trkpt lat="42.99307" lon="-0.08603">
        <ele>428.05823885032</ele>
        <time>2021-06-21T11:41:21.496Z</time>
      </trkpt>
      <trkpt lat="42.99278" lon="-0.08576">
        <ele>428.01820406126</ele>
        <time>2021-06-21T11:41:28.663Z</time>
      </trkpt>
      <trkpt lat="42.99275" lon="-0.08569">
        <ele>428.06023376324</ele>
        <time>2021-06-21T11:41:35.831Z</time>
      </trkpt>
      <trkpt lat="42.99274" lon="-0.08565">
        <ele>428.18023580264</ele>
        <time>2021-06-21T11:41:43.000Z</time>
      </trkpt>
      <trkpt lat="42.99281" lon="-0.08533">
        <ele>428.37085032026</ele>
        <time>2021-06-21T11:41:50.173Z</time>
      </trkpt>
      <trkpt lat="42.99281" lon="-0.08526">
        <ele>428.65534247216</ele>
        <time>2021-06-21T11:41:57.347Z</time>
      </trkpt>
      <trkpt lat="42.9928" lon="-0.08522">
        <ele>429.01560019686</ele>
        <time>2021-06-21T11:42:04.521Z</time>
      </trkpt>
      <trkpt lat="42.99254" lon="-0.08483">
        <ele>429.48630932404</ele>
        <time>2021-06-21T11:42:11.701Z</time>
      </trkpt>
      <trkpt lat="42.99251" lon="-0.08475">
        <ele>430.00531328685</ele>
        <time>2021-06-21T11:42:18.882Z</time>
      </trkpt>
      <trkpt lat="42.99237" lon="-0.08426">
        <ele>430.58030887291</ele>
        <time>2021-06-21T11:42:26.069Z</time>
      </trkpt>
      <trkpt lat="42.99237" lon="-0.08419">
        <ele>431.23758164653</ele>
        <time>2021-06-21T11:42:33.257Z</time>
      </trkpt>
      <trkpt lat="42.99242" lon="-0.08393">
        <ele>431.97022282901</ele>
        <time>2021-06-21T11:42:40.448Z</time>
      </trkpt>
      <trkpt lat="42.99258" lon="-0.08333">
        <ele>432.81956531366</ele>
        <time>2021-06-21T11:42:47.647Z</time>
      </trkpt>
      <trkpt lat="42.99258" lon="-0.08333">
        <ele>433.67875388209</ele>
        <time>2021-06-21T11:42:54.846Z</time>
      </trkpt>
      <trkpt lat="42.9878" lon="-0.08115">
        <ele>434.71976034208</ele>
        <time>2021-06-21T11:43:02.126Z</time>
      </trkpt>
      <trkpt lat="42.9878" lon="-0.08115">
        <ele>435.69376691149</ele>
        <time>2021-06-21T11:43:09.406Z</time>
      </trkpt>
      <trkpt lat="42.98372" lon="-0.07931">
        <ele>436.80783291845</ele>
        <time>2021-06-21T11:43:16.754Z</time>
      </trkpt>
      <trkpt lat="42.98372" lon="-0.07931">
        <ele>437.87640223133</ele>
        <time>2021-06-21T11:43:24.102Z</time>
      </trkpt>
      <trkpt lat="42.97839" lon="-0.07693">
        <ele>439.18946414518</ele>
        <time>2021-06-21T11:43:31.540Z</time>
      </trkpt>
      <trkpt lat="42.97578" lon="-0.07596">
        <ele>440.45228742874</ele>
        <time>2021-06-21T11:43:39.021Z</time>
      </trkpt>
      <trkpt lat="42.97578" lon="-0.07596">
        <ele>441.61731679103</ele>
        <time>2021-06-21T11:43:46.502Z</time>
      </trkpt>
      <trkpt lat="42.97397" lon="-0.07545">
        <ele>442.83888368753</ele>
        <time>2021-06-21T11:43:54.013Z</time>
      </trkpt>
      <trkpt lat="42.9739" lon="-0.07542">
        <ele>444.04147259332</ele>
        <time>2021-06-21T11:44:01.525Z</time>
      </trkpt>
      <trkpt lat="42.9739" lon="-0.07542">
        <ele>445.2473732636</ele>
        <time>2021-06-21T11:44:09.037Z</time>
      </trkpt>
      <trkpt lat="42.97119" lon="-0.07465">
        <ele>446.80375734245</ele>
        <time>2021-06-21T11:44:16.593Z</time>
      </trkpt>
      <trkpt lat="42.96711" lon="-0.07355">
        <ele>448.32137630708</ele>
        <time>2021-06-21T11:44:24.216Z</time>
      </trkpt>
      <trkpt lat="42.96668" lon="-0.07341">
        <ele>449.51962734616</ele>
        <time>2021-06-21T11:44:31.846Z</time>
      </trkpt>
      <trkpt lat="42.9665" lon="-0.07332">
        <ele>450.69041441096</ele>
        <time>2021-06-21T11:44:39.479Z</time>
      </trkpt>
      <trkpt lat="42.96618" lon="-0.07313">
        <ele>451.85222738345</ele>
        <time>2021-06-21T11:44:47.118Z</time>
      </trkpt>
      <trkpt lat="42.96573" lon="-0.07278">
        <ele>453.00163673693</ele>
        <time>2021-06-21T11:44:54.765Z</time>
      </trkpt>
      <trkpt lat="42.96557" lon="-0.07264">
        <ele>454.10439693938</ele>
        <time>2021-06-21T11:45:02.415Z</time>
      </trkpt>
      <trkpt lat="42.96543" lon="-0.07246">
        <ele>455.16932379621</ele>
        <time>2021-06-21T11:45:10.068Z</time>
      </trkpt>
      <trkpt lat="42.96543" lon="-0.07246">
        <ele>456.19926109493</ele>
        <time>2021-06-21T11:45:17.721Z</time>
      </trkpt>
      <trkpt lat="42.96539" lon="-0.07242">
        <ele>457.19609594197</ele>
        <time>2021-06-21T11:45:25.375Z</time>
      </trkpt>
      <trkpt lat="42.96527" lon="-0.07227">
        <ele>458.16233840048</ele>
        <time>2021-06-21T11:45:33.032Z</time>
      </trkpt>
      <trkpt lat="42.9651" lon="-0.07204">
        <ele>459.09456603369</ele>
        <time>2021-06-21T11:45:40.692Z</time>
      </trkpt>
      <trkpt lat="42.9647" lon="-0.07137">
        <ele>459.99838025983</ele>
        <time>2021-06-21T11:45:48.363Z</time>
      </trkpt>
      <trkpt lat="42.96311" lon="-0.06833">
        <ele>460.93630550366</ele>
        <time>2021-06-21T11:45:56.077Z</time>
      </trkpt>
      <trkpt lat="42.96311" lon="-0.06833">
        <ele>461.76670730013</ele>
        <time>2021-06-21T11:46:03.791Z</time>
      </trkpt>
      <trkpt lat="42.96268" lon="-0.06751">
        <ele>462.61482495051</ele>
        <time>2021-06-21T11:46:11.517Z</time>
      </trkpt>
      <trkpt lat="42.96264" lon="-0.06748">
        <ele>463.38412876415</ele>
        <time>2021-06-21T11:46:19.244Z</time>
      </trkpt>
      <trkpt lat="42.96257" lon="-0.06741">
        <ele>464.11642981386</ele>
        <time>2021-06-21T11:46:26.972Z</time>
      </trkpt>
      <trkpt lat="42.96248" lon="-0.06723">
        <ele>464.79906543574</ele>
        <time>2021-06-21T11:46:34.703Z</time>
      </trkpt>
      <trkpt lat="42.96243" lon="-0.06713">
        <ele>465.4869234729</ele>
        <time>2021-06-21T11:46:42.435Z</time>
      </trkpt>
      <trkpt lat="42.96229" lon="-0.067">
        <ele>466.1716577952</ele>
        <time>2021-06-21T11:46:50.170Z</time>
      </trkpt>
      <trkpt lat="42.96213" lon="-0.06674">
        <ele>466.84430618838</ele>
        <time>2021-06-21T11:46:57.909Z</time>
      </trkpt>
      <trkpt lat="42.96167" lon="-0.06612">
        <ele>467.51175654592</ele>
        <time>2021-06-21T11:47:05.658Z</time>
      </trkpt>
      <trkpt lat="42.96167" lon="-0.06612">
        <ele>468.17524524276</ele>
        <time>2021-06-21T11:47:13.407Z</time>
      </trkpt>
      <trkpt lat="42.96162" lon="-0.06607">
        <ele>468.83974270537</ele>
        <time>2021-06-21T11:47:21.157Z</time>
      </trkpt>
      <trkpt lat="42.96129" lon="-0.06596">
        <ele>469.51894446077</ele>
        <time>2021-06-21T11:47:28.913Z</time>
      </trkpt>
      <trkpt lat="42.96124" lon="-0.06596">
        <ele>470.19029140722</ele>
        <time>2021-06-21T11:47:36.670Z</time>
      </trkpt>
      <trkpt lat="42.96122" lon="-0.06598">
        <ele>470.86914954916</ele>
        <time>2021-06-21T11:47:44.427Z</time>
      </trkpt>
      <trkpt lat="42.96121" lon="-0.06603">
        <ele>471.55900735962</ele>
        <time>2021-06-21T11:47:52.184Z</time>
      </trkpt>
      <trkpt lat="42.96117" lon="-0.06601">
        <ele>472.26457370028</ele>
        <time>2021-06-21T11:47:59.942Z</time>
      </trkpt>
      <trkpt lat="42.96094" lon="-0.06599">
        <ele>473.0165740437</ele>
        <time>2021-06-21T11:48:07.704Z</time>
      </trkpt>
      <trkpt lat="42.96027" lon="-0.06603">
        <ele>473.75484268792</ele>
        <time>2021-06-21T11:48:15.477Z</time>
      </trkpt>
      <trkpt lat="42.96006" lon="-0.06608">
        <ele>474.5040164875</ele>
        <time>2021-06-21T11:48:23.253Z</time>
      </trkpt>
      <trkpt lat="42.95985" lon="-0.06618">
        <ele>475.29091103666</ele>
        <time>2021-06-21T11:48:31.033Z</time>
      </trkpt>
      <trkpt lat="42.95904" lon="-0.06671">
        <ele>476.18962058061</ele>
        <time>2021-06-21T11:48:38.827Z</time>
      </trkpt>
      <trkpt lat="42.95889" lon="-0.06685">
        <ele>477.04298438259</ele>
        <time>2021-06-21T11:48:46.624Z</time>
      </trkpt>
      <trkpt lat="42.95856" lon="-0.06736">
        <ele>477.96545564264</ele>
        <time>2021-06-21T11:48:54.429Z</time>
      </trkpt>
      <trkpt lat="42.95844" lon="-0.06741">
        <ele>478.84859989266</ele>
        <time>2021-06-21T11:49:02.236Z</time>
      </trkpt>
      <trkpt lat="42.95842" lon="-0.06752">
        <ele>479.75393768994</ele>
        <time>2021-06-21T11:49:10.044Z</time>
      </trkpt>
      <trkpt lat="42.95785" lon="-0.06893">
        <ele>480.84122430007</ele>
        <time>2021-06-21T11:49:17.871Z</time>
      </trkpt>
      <trkpt lat="42.95771" lon="-0.06942">
        <ele>481.80940383024</ele>
        <time>2021-06-21T11:49:25.704Z</time>
      </trkpt>
      <trkpt lat="42.95761" lon="-0.06975">
        <ele>482.79392073815</ele>
        <time>2021-06-21T11:49:33.541Z</time>
      </trkpt>
      <trkpt lat="42.95751" lon="-0.06984">
        <ele>483.77030054832</ele>
        <time>2021-06-21T11:49:41.380Z</time>
      </trkpt>
      <trkpt lat="42.9573" lon="-0.06998">
        <ele>484.76908902595</ele>
        <time>2021-06-21T11:49:49.223Z</time>
      </trkpt>
      <trkpt lat="42.95699" lon="-0.07019">
        <ele>485.78851387849</ele>
        <time>2021-06-21T11:49:57.071Z</time>
      </trkpt>
      <trkpt lat="42.95648" lon="-0.07054">
        <ele>486.84484485044</ele>
        <time>2021-06-21T11:50:04.929Z</time>
      </trkpt>
      <trkpt lat="42.95619" lon="-0.07076">
        <ele>487.87893168528</ele>
        <time>2021-06-21T11:50:12.792Z</time>
      </trkpt>
      <trkpt lat="42.95605" lon="-0.0709">
        <ele>488.89684115202</ele>
        <time>2021-06-21T11:50:20.658Z</time>
      </trkpt>
      <trkpt lat="42.95594" lon="-0.07095">
        <ele>489.90556753187</ele>
        <time>2021-06-21T11:50:28.526Z</time>
      </trkpt>
      <trkpt lat="42.95583" lon="-0.07096">
        <ele>490.90660377162</ele>
        <time>2021-06-21T11:50:36.395Z</time>
      </trkpt>
      <trkpt lat="42.95561" lon="-0.07092">
        <ele>491.90662277035</ele>
        <time>2021-06-21T11:50:44.268Z</time>
      </trkpt>
      <trkpt lat="42.95539" lon="-0.07086">
        <ele>492.88138609042</ele>
        <time>2021-06-21T11:50:52.144Z</time>
      </trkpt>
      <trkpt lat="42.9554" lon="-0.07086">
        <ele>493.83275671241</ele>
        <time>2021-06-21T11:51:00.020Z</time>
      </trkpt>
      <trkpt lat="42.95521" lon="-0.07085">
        <ele>494.7527518591</ele>
        <time>2021-06-21T11:51:07.899Z</time>
      </trkpt>
      <trkpt lat="42.95496" lon="-0.07101">
        <ele>495.81233190127</ele>
        <time>2021-06-21T11:51:15.783Z</time>
      </trkpt>
      <trkpt lat="42.95496" lon="-0.07101">
        <ele>496.68632182862</ele>
        <time>2021-06-21T11:51:23.667Z</time>
      </trkpt>
      <trkpt lat="42.9548" lon="-0.07119">
        <ele>497.7194888514</ele>
        <time>2021-06-21T11:51:31.554Z</time>
      </trkpt>
      <trkpt lat="42.95472" lon="-0.07131">
        <ele>498.64994919069</ele>
        <time>2021-06-21T11:51:39.443Z</time>
      </trkpt>
      <trkpt lat="42.95472" lon="-0.07131">
        <ele>499.39967824595</ele>
        <time>2021-06-21T11:51:47.332Z</time>
      </trkpt>
      <trkpt lat="42.95442" lon="-0.07104">
        <ele>500.3147599903</ele>
        <time>2021-06-21T11:51:55.227Z</time>
      </trkpt>
      <trkpt lat="42.95343" lon="-0.07037">
        <ele>500.93618223368</ele>
        <time>2021-06-21T11:52:03.140Z</time>
      </trkpt>
      <trkpt lat="42.95318" lon="-0.07022">
        <ele>501.62408490312</ele>
        <time>2021-06-21T11:52:11.057Z</time>
      </trkpt>
      <trkpt lat="42.95263" lon="-0.06995">
        <ele>502.23015329354</ele>
        <time>2021-06-21T11:52:18.983Z</time>
      </trkpt>
      <trkpt lat="42.9524" lon="-0.06987">
        <ele>502.78702423693</ele>
        <time>2021-06-21T11:52:26.913Z</time>
      </trkpt>
      <trkpt lat="42.95215" lon="-0.06987">
        <ele>503.46638691351</ele>
        <time>2021-06-21T11:52:34.847Z</time>
      </trkpt>
      <trkpt lat="42.95203" lon="-0.06982">
        <ele>503.82781683985</ele>
        <time>2021-06-21T11:52:42.783Z</time>
      </trkpt>
      <trkpt lat="42.95203" lon="-0.06982">
        <ele>504.0563502585</ele>
        <time>2021-06-21T11:52:50.719Z</time>
      </trkpt>
      <trkpt lat="42.95191" lon="-0.06978">
        <ele>504.25718117828</ele>
        <time>2021-06-21T11:52:58.657Z</time>
      </trkpt>
      <trkpt lat="42.95174" lon="-0.06969">
        <ele>504.36264606076</ele>
        <time>2021-06-21T11:53:06.598Z</time>
      </trkpt>
      <trkpt lat="42.95164" lon="-0.06961">
        <ele>504.36306148536</ele>
        <time>2021-06-21T11:53:14.541Z</time>
      </trkpt>
      <trkpt lat="42.95156" lon="-0.06946">
        <ele>504.22284553028</ele>
        <time>2021-06-21T11:53:22.486Z</time>
      </trkpt>
      <trkpt lat="42.95141" lon="-0.06904">
        <ele>503.77045634345</ele>
        <time>2021-06-21T11:53:30.436Z</time>
      </trkpt>
      <trkpt lat="42.95139" lon="-0.06896">
        <ele>503.49477577127</ele>
        <time>2021-06-21T11:53:38.387Z</time>
      </trkpt>
      <trkpt lat="42.95139" lon="-0.06896">
        <ele>503.29084352281</ele>
        <time>2021-06-21T11:53:46.338Z</time>
      </trkpt>
      <trkpt lat="42.95124" lon="-0.06855">
        <ele>502.76110112143</ele>
        <time>2021-06-21T11:53:54.295Z</time>
      </trkpt>
      <trkpt lat="42.9511" lon="-0.0683">
        <ele>502.37769701299</ele>
        <time>2021-06-21T11:54:02.256Z</time>
      </trkpt>
      <trkpt lat="42.95102" lon="-0.06815">
        <ele>501.97361173214</ele>
        <time>2021-06-21T11:54:10.219Z</time>
      </trkpt>
      <trkpt lat="42.95091" lon="-0.06778">
        <ele>501.44142024306</ele>
        <time>2021-06-21T11:54:18.186Z</time>
      </trkpt>
      <trkpt lat="42.95084" lon="-0.06777">
        <ele>501.26501682126</ele>
        <time>2021-06-21T11:54:26.155Z</time>
      </trkpt>
      <trkpt lat="42.95074" lon="-0.0677">
        <ele>501.10850828417</ele>
        <time>2021-06-21T11:54:34.125Z</time>
      </trkpt>
      <trkpt lat="42.95072" lon="-0.06762">
        <ele>500.8405221092</ele>
        <time>2021-06-21T11:54:42.096Z</time>
      </trkpt>
      <trkpt lat="42.95071" lon="-0.06753">
        <ele>500.56443368792</ele>
        <time>2021-06-21T11:54:50.068Z</time>
      </trkpt>
      <trkpt lat="42.95072" lon="-0.06744">
        <ele>500.28012693256</ele>
        <time>2021-06-21T11:54:58.041Z</time>
      </trkpt>
      <trkpt lat="42.95059" lon="-0.06733">
        <ele>500.19361382551</ele>
        <time>2021-06-21T11:55:06.017Z</time>
      </trkpt>
      <trkpt lat="42.95056" lon="-0.06728">
        <ele>499.9975421303</ele>
        <time>2021-06-21T11:55:13.994Z</time>
      </trkpt>
      <trkpt lat="42.95048" lon="-0.06702">
        <ele>499.75179636124</ele>
        <time>2021-06-21T11:55:21.974Z</time>
      </trkpt>
      <trkpt lat="42.95034" lon="-0.06644">
        <ele>499.68195908312</ele>
        <time>2021-06-21T11:55:29.961Z</time>
      </trkpt>
      <trkpt lat="42.94997" lon="-0.06463">
        <ele>499.73289135218</ele>
        <time>2021-06-21T11:55:37.970Z</time>
      </trkpt>
      <trkpt lat="42.9499" lon="-0.06438">
        <ele>499.86574025951</ele>
        <time>2021-06-21T11:55:45.982Z</time>
      </trkpt>
      <trkpt lat="42.94947" lon="-0.06325">
        <ele>500.07349068234</ele>
        <time>2021-06-21T11:55:54.009Z</time>
      </trkpt>
      <trkpt lat="42.9493" lon="-0.06292">
        <ele>499.75738641556</ele>
        <time>2021-06-21T11:56:02.041Z</time>
      </trkpt>
      <trkpt lat="42.949" lon="-0.06242">
        <ele>500.61153195071</ele>
        <time>2021-06-21T11:56:10.081Z</time>
      </trkpt>
      <trkpt lat="42.94849" lon="-0.06135">
        <ele>500.40492143291</ele>
        <time>2021-06-21T11:56:18.136Z</time>
      </trkpt>
      <trkpt lat="42.94806" lon="-0.06055">
        <ele>501.1778698741</ele>
        <time>2021-06-21T11:56:26.202Z</time>
      </trkpt>
      <trkpt lat="42.94767" lon="-0.05994">
        <ele>501.37030895288</ele>
        <time>2021-06-21T11:56:34.278Z</time>
      </trkpt>
      <trkpt lat="42.9475" lon="-0.05961">
        <ele>501.36173434681</ele>
        <time>2021-06-21T11:56:42.359Z</time>
      </trkpt>
      <trkpt lat="42.94736" lon="-0.05926">
        <ele>502.08386867564</ele>
        <time>2021-06-21T11:56:50.444Z</time>
      </trkpt>
      <trkpt lat="42.94723" lon="-0.0589">
        <ele>502.5473644463</ele>
        <time>2021-06-21T11:56:58.534Z</time>
      </trkpt>
      <trkpt lat="42.94713" lon="-0.05854">
        <ele>503.15024656008</ele>
        <time>2021-06-21T11:57:06.628Z</time>
      </trkpt>
      <trkpt lat="42.94694" lon="-0.05754">
        <ele>503.76083258405</ele>
        <time>2021-06-21T11:57:14.735Z</time>
      </trkpt>
      <trkpt lat="42.94685" lon="-0.05725">
        <ele>504.28599222419</ele>
        <time>2021-06-21T11:57:22.845Z</time>
      </trkpt>
      <trkpt lat="42.94669" lon="-0.05692">
        <ele>504.98880191608</ele>
        <time>2021-06-21T11:57:30.960Z</time>
      </trkpt>
      <trkpt lat="42.94551" lon="-0.05553">
        <ele>506.00180736447</ele>
        <time>2021-06-21T11:57:39.100Z</time>
      </trkpt>
      <trkpt lat="42.94419" lon="-0.05394">
        <ele>506.61997768299</ele>
        <time>2021-06-21T11:57:47.268Z</time>
      </trkpt>
      <trkpt lat="42.94389" lon="-0.05367">
        <ele>507.79851089677</ele>
        <time>2021-06-21T11:57:55.442Z</time>
      </trkpt>
      <trkpt lat="42.94352" lon="-0.05341">
        <ele>508.96590493154</ele>
        <time>2021-06-21T11:58:03.623Z</time>
      </trkpt>
      <trkpt lat="42.94282" lon="-0.05298">
        <ele>509.87791610911</ele>
        <time>2021-06-21T11:58:11.816Z</time>
      </trkpt>
      <trkpt lat="42.94267" lon="-0.05285">
        <ele>511.08501918017</ele>
        <time>2021-06-21T11:58:20.012Z</time>
      </trkpt>
      <trkpt lat="42.9424" lon="-0.05252">
        <ele>512.33229609199</ele>
        <time>2021-06-21T11:58:28.213Z</time>
      </trkpt>
      <trkpt lat="42.94202" lon="-0.05216">
        <ele>513.42280518935</ele>
        <time>2021-06-21T11:58:36.422Z</time>
      </trkpt>
      <trkpt lat="42.94179" lon="-0.05211">
        <ele>514.56385675297</ele>
        <time>2021-06-21T11:58:44.635Z</time>
      </trkpt>
      <trkpt lat="42.94166" lon="-0.05213">
        <ele>515.9508979993</ele>
        <time>2021-06-21T11:58:52.850Z</time>
      </trkpt>
      <trkpt lat="42.94153" lon="-0.05223">
        <ele>517.43332185244</ele>
        <time>2021-06-21T11:59:01.067Z</time>
      </trkpt>
      <trkpt lat="42.94089" lon="-0.05285">
        <ele>519.03159758973</ele>
        <time>2021-06-21T11:59:09.297Z</time>
      </trkpt>
      <trkpt lat="42.94054" lon="-0.05322">
        <ele>521.00061328554</ele>
        <time>2021-06-21T11:59:17.534Z</time>
      </trkpt>
      <trkpt lat="42.94039" lon="-0.0533">
        <ele>522.74106720756</ele>
        <time>2021-06-21T11:59:25.773Z</time>
      </trkpt>
      <trkpt lat="42.94025" lon="-0.05331">
        <ele>524.41068494704</ele>
        <time>2021-06-21T11:59:34.015Z</time>
      </trkpt>
      <trkpt lat="42.94008" lon="-0.05328">
        <ele>526.06172488743</ele>
        <time>2021-06-21T11:59:42.259Z</time>
      </trkpt>
      <trkpt lat="42.93993" lon="-0.05315">
        <ele>528.03855992467</ele>
        <time>2021-06-21T11:59:50.506Z</time>
      </trkpt>
      <trkpt lat="42.93981" lon="-0.05293">
        <ele>529.33034465942</ele>
        <time>2021-06-21T11:59:58.756Z</time>
      </trkpt>
      <trkpt lat="42.93957" lon="-0.0523">
        <ele>531.20589273983</ele>
        <time>2021-06-21T12:00:07.015Z</time>
      </trkpt>
      <trkpt lat="42.93947" lon="-0.05188">
        <ele>532.92471036721</ele>
        <time>2021-06-21T12:00:15.279Z</time>
      </trkpt>
      <trkpt lat="42.93941" lon="-0.05144">
        <ele>534.45344208952</ele>
        <time>2021-06-21T12:00:23.548Z</time>
      </trkpt>
      <trkpt lat="42.93931" lon="-0.05109">
        <ele>536.12219691907</ele>
        <time>2021-06-21T12:00:31.821Z</time>
      </trkpt>
      <trkpt lat="42.93917" lon="-0.05082">
        <ele>537.87222364587</ele>
        <time>2021-06-21T12:00:40.098Z</time>
      </trkpt>
      <trkpt lat="42.93901" lon="-0.05058">
        <ele>539.83569174571</ele>
        <time>2021-06-21T12:00:48.379Z</time>
      </trkpt>
      <trkpt lat="42.93884" lon="-0.05036">
        <ele>541.46534866375</ele>
        <time>2021-06-21T12:00:56.664Z</time>
      </trkpt>
      <trkpt lat="42.93863" lon="-0.05022">
        <ele>543.39112756427</ele>
        <time>2021-06-21T12:01:04.953Z</time>
      </trkpt>
      <trkpt lat="42.93725" lon="-0.04947">
        <ele>545.63145959921</ele>
        <time>2021-06-21T12:01:13.265Z</time>
      </trkpt>
      <trkpt lat="42.93715" lon="-0.04937">
        <ele>547.48100935162</ele>
        <time>2021-06-21T12:01:21.580Z</time>
      </trkpt>
      <trkpt lat="42.93705" lon="-0.04929">
        <ele>549.28088700672</ele>
        <time>2021-06-21T12:01:29.896Z</time>
      </trkpt>
      <trkpt lat="42.93693" lon="-0.04907">
        <ele>550.47154742972</ele>
        <time>2021-06-21T12:01:38.216Z</time>
      </trkpt>
      <trkpt lat="42.93682" lon="-0.04882">
        <ele>551.5513011776</ele>
        <time>2021-06-21T12:01:46.539Z</time>
      </trkpt>
      <trkpt lat="42.93672" lon="-0.04862">
        <ele>553.09738801991</ele>
        <time>2021-06-21T12:01:54.865Z</time>
      </trkpt>
      <trkpt lat="42.93662" lon="-0.04853">
        <ele>554.74977962676</ele>
        <time>2021-06-21T12:02:03.193Z</time>
      </trkpt>
      <trkpt lat="42.93648" lon="-0.04848">
        <ele>556.31437020647</ele>
        <time>2021-06-21T12:02:11.523Z</time>
      </trkpt>
      <trkpt lat="42.93593" lon="-0.04848">
        <ele>558.05344057861</ele>
        <time>2021-06-21T12:02:19.862Z</time>
      </trkpt>
      <trkpt lat="42.93534" lon="-0.04857">
        <ele>560.53153526177</ele>
        <time>2021-06-21T12:02:28.210Z</time>
      </trkpt>
      <trkpt lat="42.93515" lon="-0.04863">
        <ele>562.05142470083</ele>
        <time>2021-06-21T12:02:36.561Z</time>
      </trkpt>
      <trkpt lat="42.93503" lon="-0.0487">
        <ele>563.3286021738</ele>
        <time>2021-06-21T12:02:44.914Z</time>
      </trkpt>
      <trkpt lat="42.9349" lon="-0.04871">
        <ele>564.55135959454</ele>
        <time>2021-06-21T12:02:53.270Z</time>
      </trkpt>
      <trkpt lat="42.93477" lon="-0.04868">
        <ele>565.68955877946</ele>
        <time>2021-06-21T12:03:01.628Z</time>
      </trkpt>
      <trkpt lat="42.93469" lon="-0.04859">
        <ele>566.70227950787</ele>
        <time>2021-06-21T12:03:09.987Z</time>
      </trkpt>
      <trkpt lat="42.93457" lon="-0.04841">
        <ele>567.61718091653</ele>
        <time>2021-06-21T12:03:18.349Z</time>
      </trkpt>
      <trkpt lat="42.93445" lon="-0.04804">
        <ele>567.36308932557</ele>
        <time>2021-06-21T12:03:26.716Z</time>
      </trkpt>
      <trkpt lat="42.93437" lon="-0.04783">
        <ele>567.86885719037</ele>
        <time>2021-06-21T12:03:35.086Z</time>
      </trkpt>
      <trkpt lat="42.93425" lon="-0.04766">
        <ele>568.61122768534</ele>
        <time>2021-06-21T12:03:43.459Z</time>
      </trkpt>
      <trkpt lat="42.93402" lon="-0.04741">
        <ele>569.85591423046</ele>
        <time>2021-06-21T12:03:51.836Z</time>
      </trkpt>
      <trkpt lat="42.93316" lon="-0.04673">
        <ele>569.90370334736</ele>
        <time>2021-06-21T12:04:00.229Z</time>
      </trkpt>
      <trkpt lat="42.9329" lon="-0.04658">
        <ele>570.53001993172</ele>
        <time>2021-06-21T12:04:08.627Z</time>
      </trkpt>
      <trkpt lat="42.93274" lon="-0.04654">
        <ele>570.7811048872</ele>
        <time>2021-06-21T12:04:17.027Z</time>
      </trkpt>
      <trkpt lat="42.93225" lon="-0.04624">
        <ele>570.90150600318</ele>
        <time>2021-06-21T12:04:25.436Z</time>
      </trkpt>
      <trkpt lat="42.93187" lon="-0.0461">
        <ele>571.87776784805</ele>
        <time>2021-06-21T12:04:33.851Z</time>
      </trkpt>
      <trkpt lat="42.93169" lon="-0.04608">
        <ele>572.43967771134</ele>
        <time>2021-06-21T12:04:42.269Z</time>
      </trkpt>
      <trkpt lat="42.93127" lon="-0.04614">
        <ele>573.0458351823</ele>
        <time>2021-06-21T12:04:50.694Z</time>
      </trkpt>
      <trkpt lat="42.93108" lon="-0.04613">
        <ele>573.80508014019</ele>
        <time>2021-06-21T12:04:59.122Z</time>
      </trkpt>
      <trkpt lat="42.93108" lon="-0.04613">
        <ele>574.60709673047</ele>
        <time>2021-06-21T12:05:07.550Z</time>
      </trkpt>
      <trkpt lat="42.93092" lon="-0.04608">
        <ele>575.4095001082</ele>
        <time>2021-06-21T12:05:15.980Z</time>
      </trkpt>
      <trkpt lat="42.93077" lon="-0.04595">
        <ele>576.60140174257</ele>
        <time>2021-06-21T12:05:24.413Z</time>
      </trkpt>
      <trkpt lat="42.93032" lon="-0.04535">
        <ele>577.4814624696</ele>
        <time>2021-06-21T12:05:32.856Z</time>
      </trkpt>
      <trkpt lat="42.93" lon="-0.0447">
        <ele>578.71533158644</ele>
        <time>2021-06-21T12:05:41.309Z</time>
      </trkpt>
      <trkpt lat="42.92984" lon="-0.04427">
        <ele>580.39479584112</ele>
        <time>2021-06-21T12:05:49.767Z</time>
      </trkpt>
      <trkpt lat="42.92975" lon="-0.04387">
        <ele>581.72248475976</ele>
        <time>2021-06-21T12:05:58.230Z</time>
      </trkpt>
      <trkpt lat="42.9297" lon="-0.04376">
        <ele>582.77199294564</ele>
        <time>2021-06-21T12:06:06.695Z</time>
      </trkpt>
      <trkpt lat="42.92965" lon="-0.04368">
        <ele>584.10040526141</ele>
        <time>2021-06-21T12:06:15.161Z</time>
      </trkpt>
      <trkpt lat="42.9293" lon="-0.04326">
        <ele>585.12748169386</ele>
        <time>2021-06-21T12:06:23.634Z</time>
      </trkpt>
      <trkpt lat="42.9293" lon="-0.04326">
        <ele>586.43128976761</ele>
        <time>2021-06-21T12:06:32.107Z</time>
      </trkpt>
      <trkpt lat="42.92891" lon="-0.04271">
        <ele>588.21405038541</ele>
        <time>2021-06-21T12:06:40.589Z</time>
      </trkpt>
      <trkpt lat="42.92866" lon="-0.04243">
        <ele>589.78961885153</ele>
        <time>2021-06-21T12:06:49.077Z</time>
      </trkpt>
      <trkpt lat="42.92847" lon="-0.0423">
        <ele>590.91991077795</ele>
        <time>2021-06-21T12:06:57.568Z</time>
      </trkpt>
      <trkpt lat="42.92847" lon="-0.0423">
        <ele>592.32455104378</ele>
        <time>2021-06-21T12:07:06.059Z</time>
      </trkpt>
      <trkpt lat="42.92774" lon="-0.04191">
        <ele>593.76753838686</ele>
        <time>2021-06-21T12:07:14.563Z</time>
      </trkpt>
      <trkpt lat="42.92762" lon="-0.04186">
        <ele>595.13494315687</ele>
        <time>2021-06-21T12:07:23.068Z</time>
      </trkpt>
      <trkpt lat="42.92694" lon="-0.04165">
        <ele>596.68055460811</ele>
        <time>2021-06-21T12:07:31.585Z</time>
      </trkpt>
      <trkpt lat="42.92635" lon="-0.04161">
        <ele>598.23740887682</ele>
        <time>2021-06-21T12:07:40.111Z</time>
      </trkpt>
      <trkpt lat="42.9262" lon="-0.04164">
        <ele>599.78189194271</ele>
        <time>2021-06-21T12:07:48.639Z</time>
      </trkpt>
      <trkpt lat="42.92611" lon="-0.0417">
        <ele>601.17156094499</ele>
        <time>2021-06-21T12:07:57.169Z</time>
      </trkpt>
      <trkpt lat="42.92582" lon="-0.04206">
        <ele>602.21831288298</ele>
        <time>2021-06-21T12:08:05.705Z</time>
      </trkpt>
      <trkpt lat="42.9257" lon="-0.04214">
        <ele>603.66489279948</ele>
        <time>2021-06-21T12:08:14.244Z</time>
      </trkpt>
      <trkpt lat="42.92546" lon="-0.04213">
        <ele>605.05508749706</ele>
        <time>2021-06-21T12:08:22.786Z</time>
      </trkpt>
      <trkpt lat="42.92534" lon="-0.04208">
        <ele>606.25552051786</ele>
        <time>2021-06-21T12:08:31.330Z</time>
      </trkpt>
      <trkpt lat="42.92482" lon="-0.04166">
        <ele>608.05389512496</ele>
        <time>2021-06-21T12:08:39.884Z</time>
      </trkpt>
      <trkpt lat="42.92449" lon="-0.04135">
        <ele>608.76466088116</ele>
        <time>2021-06-21T12:08:48.445Z</time>
      </trkpt>
      <trkpt lat="42.9241" lon="-0.04089">
        <ele>610.45572709961</ele>
        <time>2021-06-21T12:08:57.014Z</time>
      </trkpt>
      <trkpt lat="42.92401" lon="-0.04082">
        <ele>611.72170984228</ele>
        <time>2021-06-21T12:09:05.584Z</time>
      </trkpt>
      <trkpt lat="42.92394" lon="-0.04081">
        <ele>612.7663790278</ele>
        <time>2021-06-21T12:09:14.156Z</time>
      </trkpt>
      <trkpt lat="42.92364" lon="-0.04087">
        <ele>613.77999190608</ele>
        <time>2021-06-21T12:09:22.732Z</time>
      </trkpt>
      <trkpt lat="42.92349" lon="-0.04088">
        <ele>614.29435623904</ele>
        <time>2021-06-21T12:09:31.311Z</time>
      </trkpt>
      <trkpt lat="42.92329" lon="-0.04083">
        <ele>614.30887257175</ele>
        <time>2021-06-21T12:09:39.893Z</time>
      </trkpt>
      <trkpt lat="42.92292" lon="-0.04072">
        <ele>614.09638791748</ele>
        <time>2021-06-21T12:09:48.481Z</time>
      </trkpt>
      <trkpt lat="42.92275" lon="-0.04073">
        <ele>614.47770360885</ele>
        <time>2021-06-21T12:09:57.072Z</time>
      </trkpt>
      <trkpt lat="42.92251" lon="-0.04079">
        <ele>614.65496119836</ele>
        <time>2021-06-21T12:10:05.667Z</time>
      </trkpt>
      <trkpt lat="42.92235" lon="-0.04081">
        <ele>614.54943357778</ele>
        <time>2021-06-21T12:10:14.264Z</time>
      </trkpt>
      <trkpt lat="42.92219" lon="-0.04079">
        <ele>614.4133961296</ele>
        <time>2021-06-21T12:10:22.864Z</time>
      </trkpt>
      <trkpt lat="42.92208" lon="-0.0408">
        <ele>614.18885992375</ele>
        <time>2021-06-21T12:10:31.466Z</time>
      </trkpt>
      <trkpt lat="42.9217" lon="-0.04097">
        <ele>613.54176675957</ele>
        <time>2021-06-21T12:10:40.074Z</time>
      </trkpt>
      <trkpt lat="42.9217" lon="-0.04097">
        <ele>613.19256405735</ele>
        <time>2021-06-21T12:10:48.682Z</time>
      </trkpt>
      <trkpt lat="42.9215" lon="-0.04103">
        <ele>612.52867863327</ele>
        <time>2021-06-21T12:10:57.293Z</time>
      </trkpt>
      <trkpt lat="42.92133" lon="-0.04102">
        <ele>611.94571669239</ele>
        <time>2021-06-21T12:11:05.907Z</time>
      </trkpt>
      <trkpt lat="42.92085" lon="-0.04094">
        <ele>611.09241330669</ele>
        <time>2021-06-21T12:11:14.529Z</time>
      </trkpt>
      <trkpt lat="42.92058" lon="-0.0408">
        <ele>610.59506204761</ele>
        <time>2021-06-21T12:11:23.155Z</time>
      </trkpt>
      <trkpt lat="42.92049" lon="-0.04074">
        <ele>610.02546362077</ele>
        <time>2021-06-21T12:11:31.783Z</time>
      </trkpt>
      <trkpt lat="42.9204" lon="-0.04064">
        <ele>609.42411065678</ele>
        <time>2021-06-21T12:11:40.413Z</time>
      </trkpt>
      <trkpt lat="42.92019" lon="-0.04033">
        <ele>609.01778713988</ele>
        <time>2021-06-21T12:11:49.048Z</time>
      </trkpt>
      <trkpt lat="42.92013" lon="-0.04028">
        <ele>608.45871798677</ele>
        <time>2021-06-21T12:11:57.684Z</time>
      </trkpt>
      <trkpt lat="42.92005" lon="-0.04025">
        <ele>607.84523133918</ele>
        <time>2021-06-21T12:12:06.321Z</time>
      </trkpt>
      <trkpt lat="42.91997" lon="-0.04027">
        <ele>607.31067834379</ele>
        <time>2021-06-21T12:12:14.960Z</time>
      </trkpt>
      <trkpt lat="42.91975" lon="-0.04028">
        <ele>606.80499303088</ele>
        <time>2021-06-21T12:12:23.602Z</time>
      </trkpt>
      <trkpt lat="42.91975" lon="-0.04028">
        <ele>606.35392947602</ele>
        <time>2021-06-21T12:12:32.244Z</time>
      </trkpt>
      <trkpt lat="42.91964" lon="-0.04029">
        <ele>605.92405914934</ele>
        <time>2021-06-21T12:12:40.888Z</time>
      </trkpt>
      <trkpt lat="42.91943" lon="-0.04021">
        <ele>605.6936319912</ele>
        <time>2021-06-21T12:12:49.535Z</time>
      </trkpt>
      <trkpt lat="42.91926" lon="-0.0402">
        <ele>605.3728083297</ele>
        <time>2021-06-21T12:12:58.185Z</time>
      </trkpt>
      <trkpt lat="42.9191" lon="-0.04024">
        <ele>605.02879215407</ele>
        <time>2021-06-21T12:13:06.838Z</time>
      </trkpt>
      <trkpt lat="42.91885" lon="-0.04037">
        <ele>604.59555814583</ele>
        <time>2021-06-21T12:13:15.495Z</time>
      </trkpt>
      <trkpt lat="42.91872" lon="-0.04042">
        <ele>604.37266305603</ele>
        <time>2021-06-21T12:13:24.154Z</time>
      </trkpt>
      <trkpt lat="42.91864" lon="-0.0404">
        <ele>604.30486147652</ele>
        <time>2021-06-21T12:13:32.814Z</time>
      </trkpt>
      <trkpt lat="42.91855" lon="-0.04036">
        <ele>604.35485399292</ele>
        <time>2021-06-21T12:13:41.476Z</time>
      </trkpt>
      <trkpt lat="42.91826" lon="-0.04004">
        <ele>604.73537793945</ele>
        <time>2021-06-21T12:13:50.144Z</time>
      </trkpt>
      <trkpt lat="42.91808" lon="-0.0399">
        <ele>604.92769183168</ele>
        <time>2021-06-21T12:13:58.815Z</time>
      </trkpt>
      <trkpt lat="42.91753" lon="-0.03986">
        <ele>604.73541699782</ele>
        <time>2021-06-21T12:14:07.495Z</time>
      </trkpt>
      <trkpt lat="42.91746" lon="-0.03981">
        <ele>605.03408130655</ele>
        <time>2021-06-21T12:14:16.176Z</time>
      </trkpt>
      <trkpt lat="42.91737" lon="-0.03974">
        <ele>605.36453452015</ele>
        <time>2021-06-21T12:14:24.859Z</time>
      </trkpt>
      <trkpt lat="42.91695" lon="-0.03912">
        <ele>605.82335351963</ele>
        <time>2021-06-21T12:14:33.552Z</time>
      </trkpt>
      <trkpt lat="42.91658" lon="-0.03847">
        <ele>606.50031930891</ele>
        <time>2021-06-21T12:14:42.254Z</time>
      </trkpt>
      <trkpt lat="42.9164" lon="-0.03826">
        <ele>607.11167550753</ele>
        <time>2021-06-21T12:14:50.960Z</time>
      </trkpt>
      <trkpt lat="42.91613" lon="-0.03808">
        <ele>607.3357217215</ele>
        <time>2021-06-21T12:14:59.671Z</time>
      </trkpt>
      <trkpt lat="42.91507" lon="-0.03754">
        <ele>607.69233900394</ele>
        <time>2021-06-21T12:15:08.400Z</time>
      </trkpt>
      <trkpt lat="42.91463" lon="-0.03729">
        <ele>608.39033803281</ele>
        <time>2021-06-21T12:15:17.137Z</time>
      </trkpt>
      <trkpt lat="42.91412" lon="-0.03701">
        <ele>608.97430172815</ele>
        <time>2021-06-21T12:15:25.883Z</time>
      </trkpt>
      <trkpt lat="42.91412" lon="-0.03701">
        <ele>609.51657891668</ele>
        <time>2021-06-21T12:15:34.629Z</time>
      </trkpt>
      <trkpt lat="42.91404" lon="-0.03697">
        <ele>610.20752669933</ele>
        <time>2021-06-21T12:15:43.376Z</time>
      </trkpt>
      <trkpt lat="42.9139" lon="-0.03695">
        <ele>610.84248596149</ele>
        <time>2021-06-21T12:15:52.125Z</time>
      </trkpt>
      <trkpt lat="42.91378" lon="-0.03696">
        <ele>611.37664190165</ele>
        <time>2021-06-21T12:16:00.876Z</time>
      </trkpt>
      <trkpt lat="42.91335" lon="-0.03718">
        <ele>611.65710644463</ele>
        <time>2021-06-21T12:16:09.634Z</time>
      </trkpt>
      <trkpt lat="42.91307" lon="-0.03718">
        <ele>612.42905047845</ele>
        <time>2021-06-21T12:16:18.397Z</time>
      </trkpt>
      <trkpt lat="42.91294" lon="-0.03721">
        <ele>613.07898479301</ele>
        <time>2021-06-21T12:16:27.162Z</time>
      </trkpt>
      <trkpt lat="42.91266" lon="-0.03735">
        <ele>613.88625134272</ele>
        <time>2021-06-21T12:16:35.932Z</time>
      </trkpt>
      <trkpt lat="42.91247" lon="-0.0374">
        <ele>614.52854387421</ele>
        <time>2021-06-21T12:16:44.705Z</time>
      </trkpt>
      <trkpt lat="42.91225" lon="-0.03739">
        <ele>615.09054113833</ele>
        <time>2021-06-21T12:16:53.481Z</time>
      </trkpt>
      <trkpt lat="42.91188" lon="-0.03723">
        <ele>615.4195758799</ele>
        <time>2021-06-21T12:17:02.264Z</time>
      </trkpt>
      <trkpt lat="42.91154" lon="-0.03711">
        <ele>615.77605642235</ele>
        <time>2021-06-21T12:17:11.052Z</time>
      </trkpt>
      <trkpt lat="42.91106" lon="-0.03685">
        <ele>616.36606177955</ele>
        <time>2021-06-21T12:17:19.848Z</time>
      </trkpt>
      <trkpt lat="42.91083" lon="-0.03676">
        <ele>616.62289622561</ele>
        <time>2021-06-21T12:17:28.648Z</time>
      </trkpt>
      <trkpt lat="42.91003" lon="-0.03664">
        <ele>616.88257754957</ele>
        <time>2021-06-21T12:17:37.461Z</time>
      </trkpt>
      <trkpt lat="42.90957" lon="-0.03665">
        <ele>617.31425941858</ele>
        <time>2021-06-21T12:17:46.282Z</time>
      </trkpt>
      <trkpt lat="42.90914" lon="-0.03649">
        <ele>617.42316834338</ele>
        <time>2021-06-21T12:17:55.110Z</time>
      </trkpt>
      <trkpt lat="42.90894" lon="-0.03639">
        <ele>617.53505860443</ele>
        <time>2021-06-21T12:18:03.941Z</time>
      </trkpt>
      <trkpt lat="42.90875" lon="-0.03625">
        <ele>617.38207207511</ele>
        <time>2021-06-21T12:18:12.776Z</time>
      </trkpt>
      <trkpt lat="42.90855" lon="-0.03609">
        <ele>617.67164664921</ele>
        <time>2021-06-21T12:18:21.614Z</time>
      </trkpt>
      <trkpt lat="42.90841" lon="-0.03593">
        <ele>617.67367035372</ele>
        <time>2021-06-21T12:18:30.455Z</time>
      </trkpt>
      <trkpt lat="42.90747" lon="-0.03517">
        <ele>617.34038190919</ele>
        <time>2021-06-21T12:18:39.314Z</time>
      </trkpt>
      <trkpt lat="42.90732" lon="-0.03507">
        <ele>617.68652460225</ele>
        <time>2021-06-21T12:18:48.175Z</time>
      </trkpt>
      <trkpt lat="42.90687" lon="-0.03486">
        <ele>617.74949569721</ele>
        <time>2021-06-21T12:18:57.044Z</time>
      </trkpt>
      <trkpt lat="42.90666" lon="-0.03474">
        <ele>617.92602873432</ele>
        <time>2021-06-21T12:19:05.917Z</time>
      </trkpt>
      <trkpt lat="42.90649" lon="-0.03458">
        <ele>618.13856853185</ele>
        <time>2021-06-21T12:19:14.793Z</time>
      </trkpt>
      <trkpt lat="42.90635" lon="-0.03454">
        <ele>618.47686839086</ele>
        <time>2021-06-21T12:19:23.671Z</time>
      </trkpt>
      <trkpt lat="42.90604" lon="-0.03466">
        <ele>618.8069342011</ele>
        <time>2021-06-21T12:19:32.554Z</time>
      </trkpt>
      <trkpt lat="42.90598" lon="-0.03465">
        <ele>619.15279743143</ele>
        <time>2021-06-21T12:19:41.438Z</time>
      </trkpt>
      <trkpt lat="42.90597" lon="-0.03464">
        <ele>619.53848005138</ele>
        <time>2021-06-21T12:19:50.323Z</time>
      </trkpt>
      <trkpt lat="42.90591" lon="-0.03459">
        <ele>619.93169171477</ele>
        <time>2021-06-21T12:19:59.209Z</time>
      </trkpt>
      <trkpt lat="42.90585" lon="-0.03447">
        <ele>620.51721543903</ele>
        <time>2021-06-21T12:20:08.096Z</time>
      </trkpt>
      <trkpt lat="42.90582" lon="-0.03438">
        <ele>621.11400923799</ele>
        <time>2021-06-21T12:20:16.985Z</time>
      </trkpt>
      <trkpt lat="42.90582" lon="-0.03438">
        <ele>621.69297993477</ele>
        <time>2021-06-21T12:20:25.874Z</time>
      </trkpt>
      <trkpt lat="42.9057" lon="-0.03405">
        <ele>622.55052711757</ele>
        <time>2021-06-21T12:20:34.767Z</time>
      </trkpt>
      <trkpt lat="42.90552" lon="-0.03369">
        <ele>623.40749830917</ele>
        <time>2021-06-21T12:20:43.665Z</time>
      </trkpt>
      <trkpt lat="42.90491" lon="-0.03272">
        <ele>624.45391334093</ele>
        <time>2021-06-21T12:20:52.578Z</time>
      </trkpt>
      <trkpt lat="42.90437" lon="-0.03173">
        <ele>625.29299332967</ele>
        <time>2021-06-21T12:21:01.506Z</time>
      </trkpt>
      <trkpt lat="42.90411" lon="-0.03146">
        <ele>626.00127328293</ele>
        <time>2021-06-21T12:21:10.439Z</time>
      </trkpt>
      <trkpt lat="42.90401" lon="-0.03138">
        <ele>626.79848143068</ele>
        <time>2021-06-21T12:21:19.374Z</time>
      </trkpt>
      <trkpt lat="42.90392" lon="-0.03135">
        <ele>627.62499577678</ele>
        <time>2021-06-21T12:21:28.310Z</time>
      </trkpt>
      <trkpt lat="42.90381" lon="-0.03135">
        <ele>628.52594555617</ele>
        <time>2021-06-21T12:21:37.248Z</time>
      </trkpt>
      <trkpt lat="42.90369" lon="-0.03138">
        <ele>629.49990044922</ele>
        <time>2021-06-21T12:21:46.188Z</time>
      </trkpt>
      <trkpt lat="42.90352" lon="-0.03148">
        <ele>630.59583824683</ele>
        <time>2021-06-21T12:21:55.131Z</time>
      </trkpt>
      <trkpt lat="42.90341" lon="-0.0315">
        <ele>631.60740559721</ele>
        <time>2021-06-21T12:22:04.076Z</time>
      </trkpt>
      <trkpt lat="42.90333" lon="-0.0315">
        <ele>632.61120480312</ele>
        <time>2021-06-21T12:22:13.022Z</time>
      </trkpt>
      <trkpt lat="42.90323" lon="-0.03147">
        <ele>633.5999654233</ele>
        <time>2021-06-21T12:22:21.969Z</time>
      </trkpt>
      <trkpt lat="42.90237" lon="-0.03098">
        <ele>634.56436902824</ele>
        <time>2021-06-21T12:22:30.931Z</time>
      </trkpt>
      <trkpt lat="42.9021" lon="-0.03078">
        <ele>635.62801165876</ele>
        <time>2021-06-21T12:22:39.898Z</time>
      </trkpt>
      <trkpt lat="42.90141" lon="-0.03028">
        <ele>636.52212783346</ele>
        <time>2021-06-21T12:22:48.878Z</time>
      </trkpt>
      <trkpt lat="42.90039" lon="-0.02947">
        <ele>637.82607505237</ele>
        <time>2021-06-21T12:22:57.877Z</time>
      </trkpt>
      <trkpt lat="42.89953" lon="-0.0289">
        <ele>639.03370258492</ele>
        <time>2021-06-21T12:23:06.891Z</time>
      </trkpt>
      <trkpt lat="42.89893" lon="-0.02838">
        <ele>639.84956990124</ele>
        <time>2021-06-21T12:23:15.916Z</time>
      </trkpt>
      <trkpt lat="42.89855" lon="-0.02816">
        <ele>640.8691226708</ele>
        <time>2021-06-21T12:23:24.948Z</time>
      </trkpt>
      <trkpt lat="42.89799" lon="-0.02784">
        <ele>642.01281193249</ele>
        <time>2021-06-21T12:23:33.990Z</time>
      </trkpt>
      <trkpt lat="42.89798" lon="-0.02784">
        <ele>643.21392907485</ele>
        <time>2021-06-21T12:23:43.032Z</time>
      </trkpt>
      <trkpt lat="42.89773" lon="-0.0277">
        <ele>644.47503632093</ele>
        <time>2021-06-21T12:23:52.078Z</time>
      </trkpt>
      <trkpt lat="42.89653" lon="-0.02695">
        <ele>645.71186399814</ele>
        <time>2021-06-21T12:24:01.145Z</time>
      </trkpt>
      <trkpt lat="42.8948" lon="-0.02589">
        <ele>647.39968348542</ele>
        <time>2021-06-21T12:24:10.243Z</time>
      </trkpt>
      <trkpt lat="42.8948" lon="-0.02589">
        <ele>648.64310389527</ele>
        <time>2021-06-21T12:24:19.341Z</time>
      </trkpt>
      <trkpt lat="42.89213" lon="-0.02421">
        <ele>650.10949594783</ele>
        <time>2021-06-21T12:24:28.486Z</time>
      </trkpt>
      <trkpt lat="42.89213" lon="-0.02421">
        <ele>651.34136782443</ele>
        <time>2021-06-21T12:24:37.631Z</time>
      </trkpt>
      <trkpt lat="42.89141" lon="-0.02379">
        <ele>652.86358636024</ele>
        <time>2021-06-21T12:24:46.788Z</time>
      </trkpt>
      <trkpt lat="42.89125" lon="-0.02365">
        <ele>654.29089786261</ele>
        <time>2021-06-21T12:24:55.948Z</time>
      </trkpt>
      <trkpt lat="42.89106" lon="-0.02344">
        <ele>655.62347810293</ele>
        <time>2021-06-21T12:25:05.112Z</time>
      </trkpt>
      <trkpt lat="42.89087" lon="-0.02314">
        <ele>656.65788254932</ele>
        <time>2021-06-21T12:25:14.281Z</time>
      </trkpt>
      <trkpt lat="42.8904" lon="-0.02222">
        <ele>657.79358831061</ele>
        <time>2021-06-21T12:25:23.463Z</time>
      </trkpt>
      <trkpt lat="42.8904" lon="-0.02222">
        <ele>658.8521185869</ele>
        <time>2021-06-21T12:25:32.645Z</time>
      </trkpt>
      <trkpt lat="42.89001" lon="-0.02146">
        <ele>659.96996904175</ele>
        <time>2021-06-21T12:25:41.838Z</time>
      </trkpt>
      <trkpt lat="42.88977" lon="-0.02114">
        <ele>661.12204368675</ele>
        <time>2021-06-21T12:25:51.036Z</time>
      </trkpt>
      <trkpt lat="42.88919" lon="-0.02055">
        <ele>662.40478509686</ele>
        <time>2021-06-21T12:26:00.246Z</time>
      </trkpt>
      <trkpt lat="42.88893" lon="-0.02019">
        <ele>663.41026098838</ele>
        <time>2021-06-21T12:26:09.462Z</time>
      </trkpt>
      <trkpt lat="42.88865" lon="-0.01969">
        <ele>664.20712530524</ele>
        <time>2021-06-21T12:26:18.685Z</time>
      </trkpt>
      <trkpt lat="42.88839" lon="-0.01916">
        <ele>664.82803751235</ele>
        <time>2021-06-21T12:26:27.916Z</time>
      </trkpt>
      <trkpt lat="42.88828" lon="-0.01899">
        <ele>665.52801845919</ele>
        <time>2021-06-21T12:26:37.149Z</time>
      </trkpt>
      <trkpt lat="42.88792" lon="-0.01864">
        <ele>666.38143301228</ele>
        <time>2021-06-21T12:26:46.390Z</time>
      </trkpt>
      <trkpt lat="42.88742" lon="-0.01822">
        <ele>666.98215996037</ele>
        <time>2021-06-21T12:26:55.640Z</time>
      </trkpt>
      <trkpt lat="42.88742" lon="-0.01822">
        <ele>667.56134217851</ele>
        <time>2021-06-21T12:27:04.890Z</time>
      </trkpt>
      <trkpt lat="42.88674" lon="-0.01761">
        <ele>668.13393569831</ele>
        <time>2021-06-21T12:27:14.153Z</time>
      </trkpt>
      <trkpt lat="42.88564" lon="-0.01663">
        <ele>668.10214832647</ele>
        <time>2021-06-21T12:27:23.437Z</time>
      </trkpt>
      <trkpt lat="42.88544" lon="-0.01639">
        <ele>668.28134046096</ele>
        <time>2021-06-21T12:27:32.725Z</time>
      </trkpt>
      <trkpt lat="42.8854" lon="-0.01628">
        <ele>668.5989229055</ele>
        <time>2021-06-21T12:27:42.015Z</time>
      </trkpt>
      <trkpt lat="42.88539" lon="-0.01619">
        <ele>669.07371093396</ele>
        <time>2021-06-21T12:27:51.306Z</time>
      </trkpt>
      <trkpt lat="42.88536" lon="-0.01583">
        <ele>669.55787887991</ele>
        <time>2021-06-21T12:28:00.601Z</time>
      </trkpt>
      <trkpt lat="42.88529" lon="-0.01555">
        <ele>669.94658318084</ele>
        <time>2021-06-21T12:28:09.900Z</time>
      </trkpt>
      <trkpt lat="42.88525" lon="-0.01546">
        <ele>670.45586095924</ele>
        <time>2021-06-21T12:28:19.200Z</time>
      </trkpt>
      <trkpt lat="42.88515" lon="-0.01536">
        <ele>671.04736888885</ele>
        <time>2021-06-21T12:28:28.502Z</time>
      </trkpt>
      <trkpt lat="42.88482" lon="-0.01513">
        <ele>671.70482536298</ele>
        <time>2021-06-21T12:28:37.810Z</time>
      </trkpt>
      <trkpt lat="42.88429" lon="-0.01473">
        <ele>672.46701029163</ele>
        <time>2021-06-21T12:28:47.127Z</time>
      </trkpt>
      <trkpt lat="42.88337" lon="-0.01404">
        <ele>673.28050838755</ele>
        <time>2021-06-21T12:28:56.461Z</time>
      </trkpt>
      <trkpt lat="42.88275" lon="-0.01357">
        <ele>674.13354492085</ele>
        <time>2021-06-21T12:29:05.806Z</time>
      </trkpt>
      <trkpt lat="42.88275" lon="-0.01357">
        <ele>674.92596461085</ele>
        <time>2021-06-21T12:29:15.151Z</time>
      </trkpt>
      <trkpt lat="42.88144" lon="-0.01257">
        <ele>676.028646</ele>
        <time>2021-06-21T12:29:24.521Z</time>
      </trkpt>
      <trkpt lat="42.88028" lon="-0.01168">
        <ele>677.14618946767</ele>
        <time>2021-06-21T12:29:33.912Z</time>
      </trkpt>
      <trkpt lat="42.87967" lon="-0.01087">
        <ele>678.23173158802</ele>
        <time>2021-06-21T12:29:43.316Z</time>
      </trkpt>
      <trkpt lat="42.87967" lon="-0.01087">
        <ele>679.16805095693</ele>
        <time>2021-06-21T12:29:52.720Z</time>
      </trkpt>
      <trkpt lat="42.87954" lon="-0.01068">
        <ele>680.16304098606</ele>
        <time>2021-06-21T12:30:02.128Z</time>
      </trkpt>
      <trkpt lat="42.87902" lon="-0.0099">
        <ele>681.2057866659</ele>
        <time>2021-06-21T12:30:11.548Z</time>
      </trkpt>
      <trkpt lat="42.87879" lon="-0.00957">
        <ele>682.29296220732</ele>
        <time>2021-06-21T12:30:20.973Z</time>
      </trkpt>
      <trkpt lat="42.87833" lon="-0.0089">
        <ele>683.41099393822</ele>
        <time>2021-06-21T12:30:30.409Z</time>
      </trkpt>
      <trkpt lat="42.87772" lon="-0.008">
        <ele>684.64888395522</ele>
        <time>2021-06-21T12:30:39.859Z</time>
      </trkpt>
      <trkpt lat="42.87772" lon="-0.008">
        <ele>685.70707716488</ele>
        <time>2021-06-21T12:30:49.309Z</time>
      </trkpt>
      <trkpt lat="42.87769" lon="-0.00796">
        <ele>686.78289306476</ele>
        <time>2021-06-21T12:30:58.760Z</time>
      </trkpt>
      <trkpt lat="42.87742" lon="-0.00757">
        <ele>687.89720009258</ele>
        <time>2021-06-21T12:31:08.217Z</time>
      </trkpt>
      <trkpt lat="42.87736" lon="-0.0075">
        <ele>688.97526930037</ele>
        <time>2021-06-21T12:31:17.676Z</time>
      </trkpt>
      <trkpt lat="42.87704" lon="-0.00704">
        <ele>690.14944543125</ele>
        <time>2021-06-21T12:31:27.142Z</time>
      </trkpt>
      <trkpt lat="42.87704" lon="-0.00704">
        <ele>691.21686934667</ele>
        <time>2021-06-21T12:31:36.608Z</time>
      </trkpt>
      <trkpt lat="42.87671" lon="-0.00657">
        <ele>692.35722182626</ele>
        <time>2021-06-21T12:31:46.082Z</time>
      </trkpt>
      <trkpt lat="42.87656" lon="-0.00634">
        <ele>693.42855983381</ele>
        <time>2021-06-21T12:31:55.559Z</time>
      </trkpt>
      <trkpt lat="42.87643" lon="-0.00616">
        <ele>694.47269669332</ele>
        <time>2021-06-21T12:32:05.039Z</time>
      </trkpt>
      <trkpt lat="42.87577" lon="-0.00518">
        <ele>695.59864195911</ele>
        <time>2021-06-21T12:32:14.535Z</time>
      </trkpt>
      <trkpt lat="42.87577" lon="-0.00518">
        <ele>696.60790469565</ele>
        <time>2021-06-21T12:32:24.031Z</time>
      </trkpt>
      <trkpt lat="42.87574" lon="-0.00515">
        <ele>697.60573952211</ele>
        <time>2021-06-21T12:32:33.528Z</time>
      </trkpt>
      <trkpt lat="42.87574" lon="-0.00515">
        <ele>698.5781378791</ele>
        <time>2021-06-21T12:32:43.025Z</time>
      </trkpt>
      <trkpt lat="42.87554" lon="-0.00486">
        <ele>699.59541303013</ele>
        <time>2021-06-21T12:32:52.526Z</time>
      </trkpt>
      <trkpt lat="42.87527" lon="-0.00445">
        <ele>700.65520724488</ele>
        <time>2021-06-21T12:33:02.034Z</time>
      </trkpt>
      <trkpt lat="42.87485" lon="-0.00383">
        <ele>701.68511264338</ele>
        <time>2021-06-21T12:33:11.552Z</time>
      </trkpt>
      <trkpt lat="42.87485" lon="-0.00383">
        <ele>702.56760254033</ele>
        <time>2021-06-21T12:33:21.070Z</time>
      </trkpt>
      <trkpt lat="42.87476" lon="-0.00369">
        <ele>703.44433009519</ele>
        <time>2021-06-21T12:33:30.590Z</time>
      </trkpt>
      <trkpt lat="42.8746" lon="-0.00345">
        <ele>704.309528439</ele>
        <time>2021-06-21T12:33:40.114Z</time>
      </trkpt>
      <trkpt lat="42.87444" lon="-0.00321">
        <ele>705.19764417229</ele>
        <time>2021-06-21T12:33:49.642Z</time>
      </trkpt>
      <trkpt lat="42.87435" lon="-0.00314">
        <ele>706.01163486298</ele>
        <time>2021-06-21T12:33:59.171Z</time>
      </trkpt>
      <trkpt lat="42.87424" lon="-0.00315">
        <ele>706.78518182599</ele>
        <time>2021-06-21T12:34:08.702Z</time>
      </trkpt>
      <trkpt lat="42.87385" lon="-0.0032">
        <ele>707.54596920137</ele>
        <time>2021-06-21T12:34:18.239Z</time>
      </trkpt>
      <trkpt lat="42.87371" lon="-0.00322">
        <ele>708.26848941835</ele>
        <time>2021-06-21T12:34:27.778Z</time>
      </trkpt>
      <trkpt lat="42.87369" lon="-0.00323">
        <ele>708.97041140636</ele>
        <time>2021-06-21T12:34:37.318Z</time>
      </trkpt>
      <trkpt lat="42.87369" lon="-0.00323">
        <ele>709.6597011143</ele>
        <time>2021-06-21T12:34:46.858Z</time>
      </trkpt>
      <trkpt lat="42.87364" lon="-0.00325">
        <ele>710.33478054443</ele>
        <time>2021-06-21T12:34:56.399Z</time>
      </trkpt>
      <trkpt lat="42.87338" lon="-0.00328">
        <ele>711.01068931021</ele>
        <time>2021-06-21T12:35:05.944Z</time>
      </trkpt>
      <trkpt lat="42.87322" lon="-0.00327">
        <ele>711.72015721544</ele>
        <time>2021-06-21T12:35:15.491Z</time>
      </trkpt>
      <trkpt lat="42.87317" lon="-0.00323">
        <ele>712.40508574756</ele>
        <time>2021-06-21T12:35:25.039Z</time>
      </trkpt>
      <trkpt lat="42.87309" lon="-0.00315">
        <ele>713.09797487513</ele>
        <time>2021-06-21T12:35:34.589Z</time>
      </trkpt>
      <trkpt lat="42.87298" lon="-0.00296">
        <ele>713.81082343866</ele>
        <time>2021-06-21T12:35:44.142Z</time>
      </trkpt>
      <trkpt lat="42.8723" lon="-0.00178">
        <ele>714.84202546153</ele>
        <time>2021-06-21T12:35:53.712Z</time>
      </trkpt>
      <trkpt lat="42.8723" lon="-0.00178">
        <ele>715.52291083881</ele>
        <time>2021-06-21T12:36:03.282Z</time>
      </trkpt>
      <trkpt lat="42.8723" lon="-0.00174">
        <ele>716.22433436444</ele>
        <time>2021-06-21T12:36:12.853Z</time>
      </trkpt>
      <trkpt lat="42.87239" lon="-0.00138">
        <ele>716.9740520077</ele>
        <time>2021-06-21T12:36:22.428Z</time>
      </trkpt>
      <trkpt lat="42.87263" lon="-0.00053">
        <ele>717.72799006948</ele>
        <time>2021-06-21T12:36:32.014Z</time>
      </trkpt>
      <trkpt lat="42.87277" lon="0">
        <ele>718.71744181107</ele>
        <time>2021-06-21T12:36:41.607Z</time>
      </trkpt>
      <trkpt lat="42.87279" lon="8.0E-5">
        <ele>719.52057748521</ele>
        <time>2021-06-21T12:36:51.201Z</time>
      </trkpt>
      <trkpt lat="42.87294" lon="0.0006">
        <ele>720.42516939522</ele>
        <time>2021-06-21T12:37:00.801Z</time>
      </trkpt>
      <trkpt lat="42.87294" lon="0.00061">
        <ele>721.29504573173</ele>
        <time>2021-06-21T12:37:10.401Z</time>
      </trkpt>
      <trkpt lat="42.87301" lon="0.00088">
        <ele>722.24074738853</ele>
        <time>2021-06-21T12:37:20.005Z</time>
      </trkpt>
      <trkpt lat="42.87301" lon="0.00088">
        <ele>723.21304272073</ele>
        <time>2021-06-21T12:37:29.609Z</time>
      </trkpt>
      <trkpt lat="42.8732" lon="0.00159">
        <ele>724.26240086923</ele>
        <time>2021-06-21T12:37:39.222Z</time>
      </trkpt>
      <trkpt lat="42.8732" lon="0.00159">
        <ele>725.36826102046</ele>
        <time>2021-06-21T12:37:48.835Z</time>
      </trkpt>
      <trkpt lat="42.87344" lon="0.00247">
        <ele>726.53226122181</ele>
        <time>2021-06-21T12:37:58.459Z</time>
      </trkpt>
      <trkpt lat="42.87344" lon="0.00247">
        <ele>727.80273453508</ele>
        <time>2021-06-21T12:38:08.083Z</time>
      </trkpt>
      <trkpt lat="42.87359" lon="0.00301">
        <ele>729.23501100243</ele>
        <time>2021-06-21T12:38:17.713Z</time>
      </trkpt>
      <trkpt lat="42.87359" lon="0.00301">
        <ele>730.70088540719</ele>
        <time>2021-06-21T12:38:27.343Z</time>
      </trkpt>
      <trkpt lat="42.87385" lon="0.00395">
        <ele>732.44386665538</ele>
        <time>2021-06-21T12:38:36.985Z</time>
      </trkpt>
      <trkpt lat="42.87385" lon="0.00395">
        <ele>734.13356177462</ele>
        <time>2021-06-21T12:38:46.627Z</time>
      </trkpt>
      <trkpt lat="42.87398" lon="0.00443">
        <ele>736.03179197642</ele>
        <time>2021-06-21T12:38:56.275Z</time>
      </trkpt>
      <trkpt lat="42.87398" lon="0.00443">
        <ele>737.97179420821</ele>
        <time>2021-06-21T12:39:05.923Z</time>
      </trkpt>
      <trkpt lat="42.87408" lon="0.00482">
        <ele>740.13961684438</ele>
        <time>2021-06-21T12:39:15.576Z</time>
      </trkpt>
      <trkpt lat="42.87408" lon="0.00482">
        <ele>742.3543760133</ele>
        <time>2021-06-21T12:39:25.229Z</time>
      </trkpt>
      <trkpt lat="42.87418" lon="0.00512">
        <ele>744.8014741326</ele>
        <time>2021-06-21T12:39:34.886Z</time>
      </trkpt>
      <trkpt lat="42.87425" lon="0.00527">
        <ele>747.35386654463</ele>
        <time>2021-06-21T12:39:44.545Z</time>
      </trkpt>
      <trkpt lat="42.87439" lon="0.00548">
        <ele>750.08318382162</ele>
        <time>2021-06-21T12:39:54.207Z</time>
      </trkpt>
      <trkpt lat="42.87439" lon="0.00548">
        <ele>752.90504301762</ele>
        <time>2021-06-21T12:40:03.869Z</time>
      </trkpt>
      <trkpt lat="42.87452" lon="0.00565">
        <ele>755.94367533601</ele>
        <time>2021-06-21T12:40:13.534Z</time>
      </trkpt>
      <trkpt lat="42.87471" lon="0.00595">
        <ele>759.19513917087</ele>
        <time>2021-06-21T12:40:23.204Z</time>
      </trkpt>
      <trkpt lat="42.87496" lon="0.00633">
        <ele>762.62991101435</ele>
        <time>2021-06-21T12:40:32.880Z</time>
      </trkpt>
      <trkpt lat="42.875" lon="0.00637">
        <ele>766.10372164176</ele>
        <time>2021-06-21T12:40:42.557Z</time>
      </trkpt>
      <trkpt lat="42.87592" lon="0.00772">
        <ele>770.39622659224</ele>
        <time>2021-06-21T12:40:52.255Z</time>
      </trkpt>
      <trkpt lat="42.87592" lon="0.00772">
        <ele>774.1793657375</ele>
        <time>2021-06-21T12:41:01.953Z</time>
      </trkpt>
      <trkpt lat="42.87606" lon="0.00793">
        <ele>778.22872728299</ele>
        <time>2021-06-21T12:41:11.655Z</time>
      </trkpt>
      <trkpt lat="42.87663" lon="0.00878">
        <ele>782.49055498565</ele>
        <time>2021-06-21T12:41:21.370Z</time>
      </trkpt>
      <trkpt lat="42.87675" lon="0.00896">
        <ele>786.70417178303</ele>
        <time>2021-06-21T12:41:31.088Z</time>
      </trkpt>
      <trkpt lat="42.87684" lon="0.00916">
        <ele>791.12689029275</ele>
        <time>2021-06-21T12:41:40.809Z</time>
      </trkpt>
      <trkpt lat="42.87729" lon="0.0106">
        <ele>795.91181410157</ele>
        <time>2021-06-21T12:41:50.548Z</time>
      </trkpt>
      <trkpt lat="42.87764" lon="0.01151">
        <ele>800.83487910326</ele>
        <time>2021-06-21T12:42:00.299Z</time>
      </trkpt>
      <trkpt lat="42.87796" lon="0.01243">
        <ele>805.8656069841</ele>
        <time>2021-06-21T12:42:10.062Z</time>
      </trkpt>
      <trkpt lat="42.87807" lon="0.01281">
        <ele>810.7464296938</ele>
        <time>2021-06-21T12:42:19.830Z</time>
      </trkpt>
      <trkpt lat="42.87815" lon="0.01322">
        <ele>815.71500419756</ele>
        <time>2021-06-21T12:42:29.603Z</time>
      </trkpt>
      <trkpt lat="42.8782" lon="0.01515">
        <ele>821.047349864</ele>
        <time>2021-06-21T12:42:39.399Z</time>
      </trkpt>
      <trkpt lat="42.87825" lon="0.0163">
        <ele>826.38343014861</ele>
        <time>2021-06-21T12:42:49.208Z</time>
      </trkpt>
      <trkpt lat="42.87825" lon="0.0163">
        <ele>831.56669409265</ele>
        <time>2021-06-21T12:42:59.017Z</time>
      </trkpt>
      <trkpt lat="42.87835" lon="0.0177">
        <ele>836.89853378501</ele>
        <time>2021-06-21T12:43:08.843Z</time>
      </trkpt>
      <trkpt lat="42.87844" lon="0.01961">
        <ele>842.83669081144</ele>
        <time>2021-06-21T12:43:18.691Z</time>
      </trkpt>
      <trkpt lat="42.87854" lon="0.02204">
        <ele>848.9601681522</ele>
        <time>2021-06-21T12:43:28.568Z</time>
      </trkpt>
      <trkpt lat="42.87856" lon="0.02225">
        <ele>854.35770200581</ele>
        <time>2021-06-21T12:43:38.448Z</time>
      </trkpt>
      <trkpt lat="42.87859" lon="0.02265">
        <ele>859.87936079015</ele>
        <time>2021-06-21T12:43:48.332Z</time>
      </trkpt>
      <trkpt lat="42.87863" lon="0.02287">
        <ele>865.28910168057</ele>
        <time>2021-06-21T12:43:58.219Z</time>
      </trkpt>
      <trkpt lat="42.87883" lon="0.0236">
        <ele>870.60430707485</ele>
        <time>2021-06-21T12:44:08.115Z</time>
      </trkpt>
      <trkpt lat="42.87895" lon="0.02429">
        <ele>876.05003291034</ele>
        <time>2021-06-21T12:44:18.020Z</time>
      </trkpt>
      <trkpt lat="42.87921" lon="0.02545">
        <ele>881.4568979275</ele>
        <time>2021-06-21T12:44:27.939Z</time>
      </trkpt>
      <trkpt lat="42.87935" lon="0.02597">
        <ele>886.92721006055</ele>
        <time>2021-06-21T12:44:37.864Z</time>
      </trkpt>
      <trkpt lat="42.87951" lon="0.02633">
        <ele>892.21113398355</ele>
        <time>2021-06-21T12:44:47.794Z</time>
      </trkpt>
      <trkpt lat="42.87956" lon="0.02639">
        <ele>897.3172330024</ele>
        <time>2021-06-21T12:44:57.725Z</time>
      </trkpt>
      <trkpt lat="42.87983" lon="0.02675">
        <ele>902.37745275738</ele>
        <time>2021-06-21T12:45:07.662Z</time>
      </trkpt>
      <trkpt lat="42.88184" lon="0.02902">
        <ele>908.21204445208</ele>
        <time>2021-06-21T12:45:17.641Z</time>
      </trkpt>
      <trkpt lat="42.88184" lon="0.02902">
        <ele>913.08753081506</ele>
        <time>2021-06-21T12:45:27.620Z</time>
      </trkpt>
      <trkpt lat="42.88302" lon="0.03038">
        <ele>918.34443522053</ele>
        <time>2021-06-21T12:45:37.624Z</time>
      </trkpt>
      <trkpt lat="42.88313" lon="0.03053">
        <ele>923.03150765197</ele>
        <time>2021-06-21T12:45:47.630Z</time>
      </trkpt>
      <trkpt lat="42.88318" lon="0.03067">
        <ele>927.62007624927</ele>
        <time>2021-06-21T12:45:57.638Z</time>
      </trkpt>
      <trkpt lat="42.88329" lon="0.03101">
        <ele>932.13885571513</ele>
        <time>2021-06-21T12:46:07.650Z</time>
      </trkpt>
      <trkpt lat="42.88333" lon="0.03131">
        <ele>936.6062339878</ele>
        <time>2021-06-21T12:46:17.666Z</time>
      </trkpt>
      <trkpt lat="42.88334" lon="0.03144">
        <ele>940.84860011056</ele>
        <time>2021-06-21T12:46:27.684Z</time>
      </trkpt>
      <trkpt lat="42.88333" lon="0.03154">
        <ele>944.99535660851</ele>
        <time>2021-06-21T12:46:37.703Z</time>
      </trkpt>
      <trkpt lat="42.88299" lon="0.03264">
        <ele>949.68314730638</ele>
        <time>2021-06-21T12:46:47.736Z</time>
      </trkpt>
      <trkpt lat="42.88298" lon="0.03286">
        <ele>953.59196769887</ele>
        <time>2021-06-21T12:46:57.772Z</time>
      </trkpt>
      <trkpt lat="42.88298" lon="0.03446">
        <ele>957.48203954147</ele>
        <time>2021-06-21T12:47:07.826Z</time>
      </trkpt>
      <trkpt lat="42.88293" lon="0.03468">
        <ele>961.12521793588</ele>
        <time>2021-06-21T12:47:17.883Z</time>
      </trkpt>
      <trkpt lat="42.88289" lon="0.03488">
        <ele>964.71875986833</ele>
        <time>2021-06-21T12:47:27.942Z</time>
      </trkpt>
      <trkpt lat="42.88276" lon="0.03525">
        <ele>968.05129008286</ele>
        <time>2021-06-21T12:47:38.006Z</time>
      </trkpt>
      <trkpt lat="42.88267" lon="0.03571">
        <ele>971.34044242933</ele>
        <time>2021-06-21T12:47:48.076Z</time>
      </trkpt>
      <trkpt lat="42.88267" lon="0.03647">
        <ele>974.65267279349</ele>
        <time>2021-06-21T12:47:58.155Z</time>
      </trkpt>
      <trkpt lat="42.8827" lon="0.03686">
        <ele>977.832766824</ele>
        <time>2021-06-21T12:48:08.238Z</time>
      </trkpt>
      <trkpt lat="42.88272" lon="0.03707">
        <ele>980.79125866053</ele>
        <time>2021-06-21T12:48:18.324Z</time>
      </trkpt>
      <trkpt lat="42.88288" lon="0.03786">
        <ele>983.73347902732</ele>
        <time>2021-06-21T12:48:28.420Z</time>
      </trkpt>
      <trkpt lat="42.88288" lon="0.03786">
        <ele>986.37937146265</ele>
        <time>2021-06-21T12:48:38.516Z</time>
      </trkpt>
      <trkpt lat="42.88295" lon="0.03807">
        <ele>988.9271141334</ele>
        <time>2021-06-21T12:48:48.614Z</time>
      </trkpt>
      <trkpt lat="42.88348" lon="0.03937">
        <ele>991.47677171346</ele>
        <time>2021-06-21T12:48:58.730Z</time>
      </trkpt>
      <trkpt lat="42.88348" lon="0.03937">
        <ele>993.83191310812</ele>
        <time>2021-06-21T12:49:08.846Z</time>
      </trkpt>
      <trkpt lat="42.88377" lon="0.04008">
        <ele>996.39617154123</ele>
        <time>2021-06-21T12:49:18.971Z</time>
      </trkpt>
      <trkpt lat="42.88377" lon="0.04016">
        <ele>998.66588068427</ele>
        <time>2021-06-21T12:49:29.097Z</time>
      </trkpt>
      <trkpt lat="42.88374" lon="0.04027">
        <ele>1000.9226312869</ele>
        <time>2021-06-21T12:49:39.225Z</time>
      </trkpt>
      <trkpt lat="42.88366" lon="0.04034">
        <ele>1003.1146014548</ele>
        <time>2021-06-21T12:49:49.354Z</time>
      </trkpt>
      <trkpt lat="42.88362" lon="0.04035">
        <ele>1005.1536595115</ele>
        <time>2021-06-21T12:49:59.484Z</time>
      </trkpt>
      <trkpt lat="42.88358" lon="0.04034">
        <ele>1007.118706931</ele>
        <time>2021-06-21T12:50:09.614Z</time>
      </trkpt>
      <trkpt lat="42.88353" lon="0.04032">
        <ele>1009.0291157956</ele>
        <time>2021-06-21T12:50:19.745Z</time>
      </trkpt>
      <trkpt lat="42.88345" lon="0.04019">
        <ele>1010.8275062551</ele>
        <time>2021-06-21T12:50:29.878Z</time>
      </trkpt>
      <trkpt lat="42.88327" lon="0.03988">
        <ele>1012.4641312714</ele>
        <time>2021-06-21T12:50:40.016Z</time>
      </trkpt>
      <trkpt lat="42.88314" lon="0.03975">
        <ele>1014.23150586</ele>
        <time>2021-06-21T12:50:50.156Z</time>
      </trkpt>
      <trkpt lat="42.88276" lon="0.03947">
        <ele>1016.0928671825</ele>
        <time>2021-06-21T12:51:00.303Z</time>
      </trkpt>
      <trkpt lat="42.88265" lon="0.03944">
        <ele>1017.9653175607</ele>
        <time>2021-06-21T12:51:10.452Z</time>
      </trkpt>
      <trkpt lat="42.88258" lon="0.03949">
        <ele>1019.8374453601</ele>
        <time>2021-06-21T12:51:20.602Z</time>
      </trkpt>
      <trkpt lat="42.88252" lon="0.03959">
        <ele>1021.7512419443</ele>
        <time>2021-06-21T12:51:30.754Z</time>
      </trkpt>
      <trkpt lat="42.88252" lon="0.03966">
        <ele>1023.6608305454</ele>
        <time>2021-06-21T12:51:40.907Z</time>
      </trkpt>
      <trkpt lat="42.88255" lon="0.03976">
        <ele>1025.5752275789</ele>
        <time>2021-06-21T12:51:51.061Z</time>
      </trkpt>
      <trkpt lat="42.88262" lon="0.03983">
        <ele>1027.4540800839</ele>
        <time>2021-06-21T12:52:01.216Z</time>
      </trkpt>
      <trkpt lat="42.88293" lon="0.0399">
        <ele>1029.2507198315</ele>
        <time>2021-06-21T12:52:11.376Z</time>
      </trkpt>
      <trkpt lat="42.8831" lon="0.04004">
        <ele>1031.2118800927</ele>
        <time>2021-06-21T12:52:21.540Z</time>
      </trkpt>
      <trkpt lat="42.88374" lon="0.04096">
        <ele>1033.6815018964</ele>
        <time>2021-06-21T12:52:31.718Z</time>
      </trkpt>
      <trkpt lat="42.88424" lon="0.04166">
        <ele>1035.9989962374</ele>
        <time>2021-06-21T12:52:41.908Z</time>
      </trkpt>
      <trkpt lat="42.88424" lon="0.04166">
        <ele>1037.9852623957</ele>
        <time>2021-06-21T12:52:52.098Z</time>
      </trkpt>
      <trkpt lat="42.8846" lon="0.04215">
        <ele>1040.2816474129</ele>
        <time>2021-06-21T12:53:02.296Z</time>
      </trkpt>
      <trkpt lat="42.88517" lon="0.04286">
        <ele>1042.6442359177</ele>
        <time>2021-06-21T12:53:12.507Z</time>
      </trkpt>
      <trkpt lat="42.88529" lon="0.04303">
        <ele>1044.6867828994</ele>
        <time>2021-06-21T12:53:22.720Z</time>
      </trkpt>
      <trkpt lat="42.88553" lon="0.04348">
        <ele>1046.8760820024</ele>
        <time>2021-06-21T12:53:32.940Z</time>
      </trkpt>
      <trkpt lat="42.88612" lon="0.04435">
        <ele>1049.2469544262</ele>
        <time>2021-06-21T12:53:43.174Z</time>
      </trkpt>
      <trkpt lat="42.88637" lon="0.0446">
        <ele>1051.3117500626</ele>
        <time>2021-06-21T12:53:53.413Z</time>
      </trkpt>
      <trkpt lat="42.88637" lon="0.0446">
        <ele>1053.3107458631</ele>
        <time>2021-06-21T12:54:03.652Z</time>
      </trkpt>
      <trkpt lat="42.8867" lon="0.0449">
        <ele>1055.3370795385</ele>
        <time>2021-06-21T12:54:13.897Z</time>
      </trkpt>
      <trkpt lat="42.88723" lon="0.04532">
        <ele>1057.1747455072</ele>
        <time>2021-06-21T12:54:24.152Z</time>
      </trkpt>
      <trkpt lat="42.88752" lon="0.0456">
        <ele>1059.1627256168</ele>
        <time>2021-06-21T12:54:34.413Z</time>
      </trkpt>
      <trkpt lat="42.88797" lon="0.04607">
        <ele>1061.4366903899</ele>
        <time>2021-06-21T12:54:44.683Z</time>
      </trkpt>
      <trkpt lat="42.88818" lon="0.0462">
        <ele>1063.3802935338</ele>
        <time>2021-06-21T12:54:54.956Z</time>
      </trkpt>
      <trkpt lat="42.88838" lon="0.04629">
        <ele>1065.2285620865</ele>
        <time>2021-06-21T12:55:05.233Z</time>
      </trkpt>
      <trkpt lat="42.88879" lon="0.04643">
        <ele>1067.2007171459</ele>
        <time>2021-06-21T12:55:15.516Z</time>
      </trkpt>
      <trkpt lat="42.88879" lon="0.04643">
        <ele>1069.0870852413</ele>
        <time>2021-06-21T12:55:25.799Z</time>
      </trkpt>
      <trkpt lat="42.8895" lon="0.04683">
        <ele>1071.2379519392</ele>
        <time>2021-06-21T12:55:36.095Z</time>
      </trkpt>
      <trkpt lat="42.89008" lon="0.04706">
        <ele>1073.2383835532</ele>
        <time>2021-06-21T12:55:46.400Z</time>
      </trkpt>
      <trkpt lat="42.89021" lon="0.04712">
        <ele>1075.1023201752</ele>
        <time>2021-06-21T12:55:56.708Z</time>
      </trkpt>
      <trkpt lat="42.89029" lon="0.04721">
        <ele>1076.9610864086</ele>
        <time>2021-06-21T12:56:07.017Z</time>
      </trkpt>
      <trkpt lat="42.89036" lon="0.04729">
        <ele>1078.8044476954</ele>
        <time>2021-06-21T12:56:17.328Z</time>
      </trkpt>
      <trkpt lat="42.89044" lon="0.0474">
        <ele>1080.6434971272</ele>
        <time>2021-06-21T12:56:27.641Z</time>
      </trkpt>
      <trkpt lat="42.89106" lon="0.0484">
        <ele>1082.8465022699</ele>
        <time>2021-06-21T12:56:37.969Z</time>
      </trkpt>
      <trkpt lat="42.8911" lon="0.04846">
        <ele>1084.6374673786</ele>
        <time>2021-06-21T12:56:48.298Z</time>
      </trkpt>
      <trkpt lat="42.89113" lon="0.04858">
        <ele>1086.4372017294</ele>
        <time>2021-06-21T12:56:58.628Z</time>
      </trkpt>
      <trkpt lat="42.89112" lon="0.04864">
        <ele>1088.2056640224</ele>
        <time>2021-06-21T12:57:08.959Z</time>
      </trkpt>
      <trkpt lat="42.89108" lon="0.04874">
        <ele>1089.9784455159</ele>
        <time>2021-06-21T12:57:19.291Z</time>
      </trkpt>
      <trkpt lat="42.89098" lon="0.04879">
        <ele>1091.7251337773</ele>
        <time>2021-06-21T12:57:29.625Z</time>
      </trkpt>
      <trkpt lat="42.89091" lon="0.04878">
        <ele>1093.4663379615</ele>
        <time>2021-06-21T12:57:39.960Z</time>
      </trkpt>
      <trkpt lat="42.89085" lon="0.04874">
        <ele>1095.2216762691</ele>
        <time>2021-06-21T12:57:50.296Z</time>
      </trkpt>
      <trkpt lat="42.89067" lon="0.04854">
        <ele>1096.9480211016</ele>
        <time>2021-06-21T12:58:00.636Z</time>
      </trkpt>
      <trkpt lat="42.8905" lon="0.04824">
        <ele>1098.6585545124</ele>
        <time>2021-06-21T12:58:10.981Z</time>
      </trkpt>
      <trkpt lat="42.89039" lon="0.04805">
        <ele>1100.4236793082</ele>
        <time>2021-06-21T12:58:21.328Z</time>
      </trkpt>
      <trkpt lat="42.8903" lon="0.04801">
        <ele>1102.2624692977</ele>
        <time>2021-06-21T12:58:31.677Z</time>
      </trkpt>
      <trkpt lat="42.89022" lon="0.04803">
        <ele>1104.1565401958</ele>
        <time>2021-06-21T12:58:42.027Z</time>
      </trkpt>
      <trkpt lat="42.89015" lon="0.04812">
        <ele>1106.1382000472</ele>
        <time>2021-06-21T12:58:52.379Z</time>
      </trkpt>
      <trkpt lat="42.89013" lon="0.04817">
        <ele>1108.1261724918</ele>
        <time>2021-06-21T12:59:02.731Z</time>
      </trkpt>
      <trkpt lat="42.89012" lon="0.04824">
        <ele>1110.1554652223</ele>
        <time>2021-06-21T12:59:13.084Z</time>
      </trkpt>
      <trkpt lat="42.89014" lon="0.04837">
        <ele>1112.2523736331</ele>
        <time>2021-06-21T12:59:23.439Z</time>
      </trkpt>
      <trkpt lat="42.89045" lon="0.04877">
        <ele>1114.4239644027</ele>
        <time>2021-06-21T12:59:33.801Z</time>
      </trkpt>
      <trkpt lat="42.89052" lon="0.04892">
        <ele>1116.6024184522</ele>
        <time>2021-06-21T12:59:44.165Z</time>
      </trkpt>
      <trkpt lat="42.89055" lon="0.04912">
        <ele>1118.8705657496</ele>
        <time>2021-06-21T12:59:54.531Z</time>
      </trkpt>
      <trkpt lat="42.89056" lon="0.04945">
        <ele>1121.371041117</ele>
        <time>2021-06-21T13:00:04.901Z</time>
      </trkpt>
      <trkpt lat="42.8906" lon="0.04965">
        <ele>1123.793324808</ele>
        <time>2021-06-21T13:00:15.273Z</time>
      </trkpt>
      <trkpt lat="42.89061" lon="0.04974">
        <ele>1126.1498919162</ele>
        <time>2021-06-21T13:00:25.646Z</time>
      </trkpt>
      <trkpt lat="42.89087" lon="0.05014">
        <ele>1128.7110666011</ele>
        <time>2021-06-21T13:00:36.026Z</time>
      </trkpt>
      <trkpt lat="42.89113" lon="0.0505">
        <ele>1131.1244270246</ele>
        <time>2021-06-21T13:00:46.412Z</time>
      </trkpt>
      <trkpt lat="42.89128" lon="0.05065">
        <ele>1133.3905599671</ele>
        <time>2021-06-21T13:00:56.801Z</time>
      </trkpt>
      <trkpt lat="42.89187" lon="0.05096">
        <ele>1135.2942291492</ele>
        <time>2021-06-21T13:01:07.200Z</time>
      </trkpt>
      <trkpt lat="42.89193" lon="0.051">
        <ele>1137.6619708805</ele>
        <time>2021-06-21T13:01:17.600Z</time>
      </trkpt>
      <trkpt lat="42.89206" lon="0.05114">
        <ele>1140.0894071053</ele>
        <time>2021-06-21T13:01:28.002Z</time>
      </trkpt>
      <trkpt lat="42.89206" lon="0.05114">
        <ele>1142.50557051</ele>
        <time>2021-06-21T13:01:38.404Z</time>
      </trkpt>
      <trkpt lat="42.89241" lon="0.05183">
        <ele>1145.1522953719</ele>
        <time>2021-06-21T13:01:48.816Z</time>
      </trkpt>
      <trkpt lat="42.89252" lon="0.05208">
        <ele>1147.6692961167</ele>
        <time>2021-06-21T13:01:59.232Z</time>
      </trkpt>
      <trkpt lat="42.89281" lon="0.05266">
        <ele>1150.4405819886</ele>
        <time>2021-06-21T13:02:09.656Z</time>
      </trkpt>
      <trkpt lat="42.89289" lon="0.05295">
        <ele>1153.0867228462</ele>
        <time>2021-06-21T13:02:20.083Z</time>
      </trkpt>
      <trkpt lat="42.89296" lon="0.05354">
        <ele>1155.8151002321</ele>
        <time>2021-06-21T13:02:30.518Z</time>
      </trkpt>
      <trkpt lat="42.89303" lon="0.05379">
        <ele>1158.3415642037</ele>
        <time>2021-06-21T13:02:40.956Z</time>
      </trkpt>
      <trkpt lat="42.89312" lon="0.05407">
        <ele>1160.8393756775</ele>
        <time>2021-06-21T13:02:51.397Z</time>
      </trkpt>
      <trkpt lat="42.89355" lon="0.05506">
        <ele>1163.5483462105</ele>
        <time>2021-06-21T13:03:01.852Z</time>
      </trkpt>
      <trkpt lat="42.89358" lon="0.05511">
        <ele>1165.8189868023</ele>
        <time>2021-06-21T13:03:12.308Z</time>
      </trkpt>
      <trkpt lat="42.89412" lon="0.05637">
        <ele>1168.0990992336</ele>
        <time>2021-06-21T13:03:22.781Z</time>
      </trkpt>
      <trkpt lat="42.8942" lon="0.05663">
        <ele>1170.2729474059</ele>
        <time>2021-06-21T13:03:33.257Z</time>
      </trkpt>
      <trkpt lat="42.89438" lon="0.05724">
        <ele>1172.5789286049</ele>
        <time>2021-06-21T13:03:43.741Z</time>
      </trkpt>
      <trkpt lat="42.89448" lon="0.05746">
        <ele>1174.7056108421</ele>
        <time>2021-06-21T13:03:54.228Z</time>
      </trkpt>
      <trkpt lat="42.89448" lon="0.05746">
        <ele>1176.6155409272</ele>
        <time>2021-06-21T13:04:04.715Z</time>
      </trkpt>
      <trkpt lat="42.89466" lon="0.05779">
        <ele>1178.5836560459</ele>
        <time>2021-06-21T13:04:15.207Z</time>
      </trkpt>
      <trkpt lat="42.89488" lon="0.05813">
        <ele>1180.2884634516</ele>
        <time>2021-06-21T13:04:25.704Z</time>
      </trkpt>
      <trkpt lat="42.89506" lon="0.05833">
        <ele>1181.8146478927</ele>
        <time>2021-06-21T13:04:36.205Z</time>
      </trkpt>
      <trkpt lat="42.8952" lon="0.05842">
        <ele>1183.4051361309</ele>
        <time>2021-06-21T13:04:46.708Z</time>
      </trkpt>
      <trkpt lat="42.89529" lon="0.05848">
        <ele>1184.9254868123</ele>
        <time>2021-06-21T13:04:57.213Z</time>
      </trkpt>
      <trkpt lat="42.8956" lon="0.05867">
        <ele>1186.3878441716</ele>
        <time>2021-06-21T13:05:07.723Z</time>
      </trkpt>
      <trkpt lat="42.89564" lon="0.05873">
        <ele>1187.7659549422</ele>
        <time>2021-06-21T13:05:18.234Z</time>
      </trkpt>
      <trkpt lat="42.89565" lon="0.05888">
        <ele>1189.1227633051</ele>
        <time>2021-06-21T13:05:28.747Z</time>
      </trkpt>
      <trkpt lat="42.89562" lon="0.05898">
        <ele>1190.3867006808</ele>
        <time>2021-06-21T13:05:39.261Z</time>
      </trkpt>
      <trkpt lat="42.8956" lon="0.05903">
        <ele>1191.5595189128</ele>
        <time>2021-06-21T13:05:49.776Z</time>
      </trkpt>
      <trkpt lat="42.89551" lon="0.05911">
        <ele>1192.6936805765</ele>
        <time>2021-06-21T13:06:00.293Z</time>
      </trkpt>
      <trkpt lat="42.89545" lon="0.05912">
        <ele>1193.7249591538</ele>
        <time>2021-06-21T13:06:10.810Z</time>
      </trkpt>
      <trkpt lat="42.89536" lon="0.05908">
        <ele>1194.6989257492</ele>
        <time>2021-06-21T13:06:21.329Z</time>
      </trkpt>
      <trkpt lat="42.89524" lon="0.05898">
        <ele>1195.5761133338</ele>
        <time>2021-06-21T13:06:31.850Z</time>
      </trkpt>
      <trkpt lat="42.89514" lon="0.05894">
        <ele>1196.4674704999</ele>
        <time>2021-06-21T13:06:42.373Z</time>
      </trkpt>
      <trkpt lat="42.89509" lon="0.05894">
        <ele>1197.3246134673</ele>
        <time>2021-06-21T13:06:52.897Z</time>
      </trkpt>
      <trkpt lat="42.89506" lon="0.05897">
        <ele>1198.1646339651</ele>
        <time>2021-06-21T13:07:03.421Z</time>
      </trkpt>
      <trkpt lat="42.89499" lon="0.05904">
        <ele>1199.0954147534</ele>
        <time>2021-06-21T13:07:13.947Z</time>
      </trkpt>
      <trkpt lat="42.89494" lon="0.05917">
        <ele>1200.0377574538</ele>
        <time>2021-06-21T13:07:24.474Z</time>
      </trkpt>
      <trkpt lat="42.89495" lon="0.05932">
        <ele>1200.8850406841</ele>
        <time>2021-06-21T13:07:35.003Z</time>
      </trkpt>
      <trkpt lat="42.89499" lon="0.05943">
        <ele>1201.6298955704</ele>
        <time>2021-06-21T13:07:45.534Z</time>
      </trkpt>
      <trkpt lat="42.89507" lon="0.05951">
        <ele>1202.3000436293</ele>
        <time>2021-06-21T13:07:56.066Z</time>
      </trkpt>
      <trkpt lat="42.8952" lon="0.05952">
        <ele>1202.935382237</ele>
        <time>2021-06-21T13:08:06.600Z</time>
      </trkpt>
      <trkpt lat="42.89547" lon="0.05946">
        <ele>1203.4192806976</ele>
        <time>2021-06-21T13:08:17.139Z</time>
      </trkpt>
      <trkpt lat="42.89567" lon="0.05945">
        <ele>1204.0231655856</ele>
        <time>2021-06-21T13:08:27.681Z</time>
      </trkpt>
      <trkpt lat="42.89573" lon="0.05947">
        <ele>1204.7601511897</ele>
        <time>2021-06-21T13:08:38.224Z</time>
      </trkpt>
      <trkpt lat="42.89587" lon="0.05959">
        <ele>1205.5787290095</ele>
        <time>2021-06-21T13:08:48.770Z</time>
      </trkpt>
      <trkpt lat="42.89591" lon="0.05967">
        <ele>1206.4375403328</ele>
        <time>2021-06-21T13:08:59.317Z</time>
      </trkpt>
      <trkpt lat="42.89598" lon="0.05982">
        <ele>1207.3754223227</ele>
        <time>2021-06-21T13:09:09.866Z</time>
      </trkpt>
      <trkpt lat="42.896" lon="0.05991">
        <ele>1208.3448328072</ele>
        <time>2021-06-21T13:09:20.416Z</time>
      </trkpt>
      <trkpt lat="42.89602" lon="0.06001">
        <ele>1209.377698427</ele>
        <time>2021-06-21T13:09:30.967Z</time>
      </trkpt>
      <trkpt lat="42.89602" lon="0.06011">
        <ele>1210.4872187517</ele>
        <time>2021-06-21T13:09:41.519Z</time>
      </trkpt>
      <trkpt lat="42.89602" lon="0.06011">
        <ele>1211.5986366967</ele>
        <time>2021-06-21T13:09:52.071Z</time>
      </trkpt>
      <trkpt lat="42.89612" lon="0.06093">
        <ele>1213.0829299228</ele>
        <time>2021-06-21T13:10:02.633Z</time>
      </trkpt>
      <trkpt lat="42.89613" lon="0.06111">
        <ele>1214.4083096699</ele>
        <time>2021-06-21T13:10:13.197Z</time>
      </trkpt>
      <trkpt lat="42.89613" lon="0.0612">
        <ele>1215.7697922741</ele>
        <time>2021-06-21T13:10:23.762Z</time>
      </trkpt>
      <trkpt lat="42.89616" lon="0.0621">
        <ele>1217.3341028003</ele>
        <time>2021-06-21T13:10:34.338Z</time>
      </trkpt>
      <trkpt lat="42.89616" lon="0.0621">
        <ele>1218.8057608453</ele>
        <time>2021-06-21T13:10:44.914Z</time>
      </trkpt>
      <trkpt lat="42.89621" lon="0.06302">
        <ele>1220.6319084785</ele>
        <time>2021-06-21T13:10:55.501Z</time>
      </trkpt>
      <trkpt lat="42.89621" lon="0.06312">
        <ele>1222.291508839</ele>
        <time>2021-06-21T13:11:06.089Z</time>
      </trkpt>
      <trkpt lat="42.89624" lon="0.06336">
        <ele>1224.1103632096</ele>
        <time>2021-06-21T13:11:16.680Z</time>
      </trkpt>
      <trkpt lat="42.89633" lon="0.06364">
        <ele>1226.0041554822</ele>
        <time>2021-06-21T13:11:27.274Z</time>
      </trkpt>
      <trkpt lat="42.89633" lon="0.06364">
        <ele>1227.86133821</ele>
        <time>2021-06-21T13:11:37.868Z</time>
      </trkpt>
      <trkpt lat="42.89657" lon="0.06428">
        <ele>1229.8284271701</ele>
        <time>2021-06-21T13:11:48.471Z</time>
      </trkpt>
      <trkpt lat="42.89656" lon="0.06435">
        <ele>1231.8821310051</ele>
        <time>2021-06-21T13:11:59.075Z</time>
      </trkpt>
      <trkpt lat="42.89662" lon="0.06452">
        <ele>1233.9972717932</ele>
        <time>2021-06-21T13:12:09.681Z</time>
      </trkpt>
      <trkpt lat="42.89669" lon="0.06459">
        <ele>1236.1281129455</ele>
        <time>2021-06-21T13:12:20.288Z</time>
      </trkpt>
      <trkpt lat="42.89712" lon="0.06572">
        <ele>1238.723181636</ele>
        <time>2021-06-21T13:12:30.910Z</time>
      </trkpt>
      <trkpt lat="42.89716" lon="0.06586">
        <ele>1241.0694989176</ele>
        <time>2021-06-21T13:12:41.534Z</time>
      </trkpt>
      <trkpt lat="42.89719" lon="0.06597">
        <ele>1243.5391984918</ele>
        <time>2021-06-21T13:12:52.159Z</time>
      </trkpt>
      <trkpt lat="42.89719" lon="0.06597">
        <ele>1246.0261940918</ele>
        <time>2021-06-21T13:13:02.784Z</time>
      </trkpt>
      <trkpt lat="42.89756" lon="0.06701">
        <ele>1248.7646673082</ele>
        <time>2021-06-21T13:13:13.423Z</time>
      </trkpt>
      <trkpt lat="42.89756" lon="0.06701">
        <ele>1251.4002721649</ele>
        <time>2021-06-21T13:13:24.062Z</time>
      </trkpt>
      <trkpt lat="42.89767" lon="0.06736">
        <ele>1254.3155877981</ele>
        <time>2021-06-21T13:13:34.705Z</time>
      </trkpt>
      <trkpt lat="42.89774" lon="0.06762">
        <ele>1257.309038124</ele>
        <time>2021-06-21T13:13:45.352Z</time>
      </trkpt>
      <trkpt lat="42.89774" lon="0.06762">
        <ele>1260.1495040955</ele>
        <time>2021-06-21T13:13:55.999Z</time>
      </trkpt>
      <trkpt lat="42.89775" lon="0.0677">
        <ele>1263.1179676476</ele>
        <time>2021-06-21T13:14:06.647Z</time>
      </trkpt>
      <trkpt lat="42.89783" lon="0.06826">
        <ele>1266.2831869052</ele>
        <time>2021-06-21T13:14:17.301Z</time>
      </trkpt>
      <trkpt lat="42.89807" lon="0.06958">
        <ele>1269.7873418855</ele>
        <time>2021-06-21T13:14:27.971Z</time>
      </trkpt>
      <trkpt lat="42.89822" lon="0.07043">
        <ele>1273.133166296</ele>
        <time>2021-06-21T13:14:38.652Z</time>
      </trkpt>
      <trkpt lat="42.89822" lon="0.07043">
        <ele>1279.4052850322</ele>
        <time>2021-06-21T13:14:49.333Z</time>
      </trkpt>
      <trkpt lat="42.89835" lon="0.07104">
        <ele>1282.6383992409</ele>
        <time>2021-06-21T13:15:00.021Z</time>
      </trkpt>
      <trkpt lat="42.89841" lon="0.07144">
        <ele>1285.9686726539</ele>
        <time>2021-06-21T13:15:10.714Z</time>
      </trkpt>
      <trkpt lat="42.89844" lon="0.07232">
        <ele>1289.6272404123</ele>
        <time>2021-06-21T13:15:21.417Z</time>
      </trkpt>
      <trkpt lat="42.89854" lon="0.07291">
        <ele>1293.0450525732</ele>
        <time>2021-06-21T13:15:32.127Z</time>
      </trkpt>
      <trkpt lat="42.89861" lon="0.0734">
        <ele>1296.4670508876</ele>
        <time>2021-06-21T13:15:42.843Z</time>
      </trkpt>
      <trkpt lat="42.89867" lon="0.0742">
        <ele>1300.0511162946</ele>
        <time>2021-06-21T13:15:53.569Z</time>
      </trkpt>
      <trkpt lat="42.89869" lon="0.07478">
        <ele>1303.6313046754</ele>
        <time>2021-06-21T13:16:04.302Z</time>
      </trkpt>
      <trkpt lat="42.89869" lon="0.07487">
        <ele>1307.1142495887</ele>
        <time>2021-06-21T13:16:15.036Z</time>
      </trkpt>
      <trkpt lat="42.89878" lon="0.07507">
        <ele>1310.5657384025</ele>
        <time>2021-06-21T13:16:25.772Z</time>
      </trkpt>
      <trkpt lat="42.89912" lon="0.0757">
        <ele>1313.9163497263</ele>
        <time>2021-06-21T13:16:36.518Z</time>
      </trkpt>
      <trkpt lat="42.89914" lon="0.07575">
        <ele>1317.4468530937</ele>
        <time>2021-06-21T13:16:47.264Z</time>
      </trkpt>
      <trkpt lat="42.8992" lon="0.07584">
        <ele>1320.997459728</ele>
        <time>2021-06-21T13:16:58.012Z</time>
      </trkpt>
      <trkpt lat="42.8992" lon="0.07584">
        <ele>1324.6068849303</ele>
        <time>2021-06-21T13:17:08.760Z</time>
      </trkpt>
      <trkpt lat="42.89937" lon="0.07614">
        <ele>1328.3130276036</ele>
        <time>2021-06-21T13:17:19.512Z</time>
      </trkpt>
      <trkpt lat="42.89943" lon="0.07626">
        <ele>1332.0346453428</ele>
        <time>2021-06-21T13:17:30.266Z</time>
      </trkpt>
      <trkpt lat="42.89948" lon="0.0764">
        <ele>1335.7905113909</ele>
        <time>2021-06-21T13:17:41.022Z</time>
      </trkpt>
      <trkpt lat="42.89961" lon="0.07727">
        <ele>1339.9562539418</ele>
        <time>2021-06-21T13:17:51.788Z</time>
      </trkpt>
      <trkpt lat="42.89983" lon="0.07815">
        <ele>1344.0345521812</ele>
        <time>2021-06-21T13:18:02.565Z</time>
      </trkpt>
      <trkpt lat="42.90004" lon="0.07882">
        <ele>1348.3025422357</ele>
        <time>2021-06-21T13:18:13.351Z</time>
      </trkpt>
      <trkpt lat="42.90005" lon="0.07882">
        <ele>1352.1228730211</ele>
        <time>2021-06-21T13:18:24.137Z</time>
      </trkpt>
      <trkpt lat="42.90032" lon="0.07966">
        <ele>1356.3940466067</ele>
        <time>2021-06-21T13:18:34.933Z</time>
      </trkpt>
      <trkpt lat="42.90057" lon="0.08037">
        <ele>1360.4188587699</ele>
        <time>2021-06-21T13:18:45.739Z</time>
      </trkpt>
      <trkpt lat="42.90057" lon="0.08037">
        <ele>1364.2609336292</ele>
        <time>2021-06-21T13:18:56.545Z</time>
      </trkpt>
      <trkpt lat="42.90057" lon="0.08037">
        <ele>1368.1016341089</ele>
        <time>2021-06-21T13:19:07.351Z</time>
      </trkpt>
      <trkpt lat="42.90104" lon="0.08209">
        <ele>1372.5983682008</ele>
        <time>2021-06-21T13:19:18.178Z</time>
      </trkpt>
      <trkpt lat="42.9014" lon="0.08279">
        <ele>1376.3584749468</ele>
        <time>2021-06-21T13:19:29.015Z</time>
      </trkpt>
      <trkpt lat="42.90149" lon="0.08299">
        <ele>1380.1478151701</ele>
        <time>2021-06-21T13:19:39.855Z</time>
      </trkpt>
      <trkpt lat="42.90155" lon="0.08317">
        <ele>1383.940142485</ele>
        <time>2021-06-21T13:19:50.697Z</time>
      </trkpt>
      <trkpt lat="42.90159" lon="0.08336">
        <ele>1387.741146979</ele>
        <time>2021-06-21T13:20:01.542Z</time>
      </trkpt>
      <trkpt lat="42.90159" lon="0.08361">
        <ele>1391.6426154149</ele>
        <time>2021-06-21T13:20:12.390Z</time>
      </trkpt>
      <trkpt lat="42.90158" lon="0.08382">
        <ele>1395.5261968112</ele>
        <time>2021-06-21T13:20:23.240Z</time>
      </trkpt>
      <trkpt lat="42.90159" lon="0.08402">
        <ele>1399.3132468912</ele>
        <time>2021-06-21T13:20:34.092Z</time>
      </trkpt>
      <trkpt lat="42.90192" lon="0.08693">
        <ele>1403.9279925669</ele>
        <time>2021-06-21T13:20:44.979Z</time>
      </trkpt>
      <trkpt lat="42.90224" lon="0.08814">
        <ele>1407.6774631701</ele>
        <time>2021-06-21T13:20:55.881Z</time>
      </trkpt>
      <trkpt lat="42.90272" lon="0.08991">
        <ele>1411.084304301</ele>
        <time>2021-06-21T13:21:06.805Z</time>
      </trkpt>
      <trkpt lat="42.90275" lon="0.09009">
        <ele>1414.5789660601</ele>
        <time>2021-06-21T13:21:17.732Z</time>
      </trkpt>
      <trkpt lat="42.90275" lon="0.09025">
        <ele>1418.0605366636</ele>
        <time>2021-06-21T13:21:28.660Z</time>
      </trkpt>
      <trkpt lat="42.90268" lon="0.09084">
        <ele>1421.7289564616</ele>
        <time>2021-06-21T13:21:39.595Z</time>
      </trkpt>
      <trkpt lat="42.90267" lon="0.09106">
        <ele>1425.2207242381</ele>
        <time>2021-06-21T13:21:50.533Z</time>
      </trkpt>
      <trkpt lat="42.90268" lon="0.0913">
        <ele>1428.6433175715</ele>
        <time>2021-06-21T13:22:01.474Z</time>
      </trkpt>
      <trkpt lat="42.90272" lon="0.09155">
        <ele>1431.9659964716</ele>
        <time>2021-06-21T13:22:12.418Z</time>
      </trkpt>
      <trkpt lat="42.90312" lon="0.09336">
        <ele>1435.5050327765</ele>
        <time>2021-06-21T13:22:23.384Z</time>
      </trkpt>
      <trkpt lat="42.90325" lon="0.09402">
        <ele>1438.7829694137</ele>
        <time>2021-06-21T13:22:34.358Z</time>
      </trkpt>
      <trkpt lat="42.90327" lon="0.09424">
        <ele>1441.9280529341</ele>
        <time>2021-06-21T13:22:45.335Z</time>
      </trkpt>
      <trkpt lat="42.90327" lon="0.09424">
        <ele>1445.0329613151</ele>
        <time>2021-06-21T13:22:56.312Z</time>
      </trkpt>
      <trkpt lat="42.9033" lon="0.09441">
        <ele>1448.0815581289</ele>
        <time>2021-06-21T13:23:07.291Z</time>
      </trkpt>
      <trkpt lat="42.90331" lon="0.09505">
        <ele>1451.2628217525</ele>
        <time>2021-06-21T13:23:18.277Z</time>
      </trkpt>
      <trkpt lat="42.90326" lon="0.09512">
        <ele>1454.4004694209</ele>
        <time>2021-06-21T13:23:29.264Z</time>
      </trkpt>
      <trkpt lat="42.90324" lon="0.0952">
        <ele>1457.4334568421</ele>
        <time>2021-06-21T13:23:40.252Z</time>
      </trkpt>
      <trkpt lat="42.90321" lon="0.09741">
        <ele>1460.9532305168</ele>
        <time>2021-06-21T13:23:51.266Z</time>
      </trkpt>
      <trkpt lat="42.90335" lon="0.09957">
        <ele>1463.907214886</ele>
        <time>2021-06-21T13:24:02.306Z</time>
      </trkpt>
      <trkpt lat="42.90335" lon="0.09978">
        <ele>1466.6684313675</ele>
        <time>2021-06-21T13:24:13.348Z</time>
      </trkpt>
      <trkpt lat="42.90334" lon="0.09987">
        <ele>1469.4642294351</ele>
        <time>2021-06-21T13:24:24.392Z</time>
      </trkpt>
      <trkpt lat="42.90332" lon="0.09995">
        <ele>1472.2622980134</ele>
        <time>2021-06-21T13:24:35.436Z</time>
      </trkpt>
      <trkpt lat="42.90285" lon="0.1008">
        <ele>1475.3261732934</ele>
        <time>2021-06-21T13:24:46.493Z</time>
      </trkpt>
      <trkpt lat="42.90267" lon="0.10112">
        <ele>1477.9433056459</ele>
        <time>2021-06-21T13:24:57.555Z</time>
      </trkpt>
      <trkpt lat="42.90256" lon="0.10128">
        <ele>1480.6428985985</ele>
        <time>2021-06-21T13:25:08.619Z</time>
      </trkpt>
      <trkpt lat="42.90237" lon="0.10154">
        <ele>1483.646727532</ele>
        <time>2021-06-21T13:25:19.688Z</time>
      </trkpt>
      <trkpt lat="42.90229" lon="0.10168">
        <ele>1486.4664364072</ele>
        <time>2021-06-21T13:25:30.759Z</time>
      </trkpt>
      <trkpt lat="42.90229" lon="0.10168">
        <ele>1489.1234785264</ele>
        <time>2021-06-21T13:25:41.830Z</time>
      </trkpt>
      <trkpt lat="42.90208" lon="0.102">
        <ele>1491.7643991731</ele>
        <time>2021-06-21T13:25:52.906Z</time>
      </trkpt>
      <trkpt lat="42.90187" lon="0.10229">
        <ele>1494.4465679327</ele>
        <time>2021-06-21T13:26:03.986Z</time>
      </trkpt>
      <trkpt lat="42.90164" lon="0.10252">
        <ele>1497.10322824</ele>
        <time>2021-06-21T13:26:15.071Z</time>
      </trkpt>
      <trkpt lat="42.90134" lon="0.10292">
        <ele>1499.6313998456</ele>
        <time>2021-06-21T13:26:26.163Z</time>
      </trkpt>
      <trkpt lat="42.90125" lon="0.10299">
        <ele>1502.2966315777</ele>
        <time>2021-06-21T13:26:37.256Z</time>
      </trkpt>
      <trkpt lat="42.90079" lon="0.10311">
        <ele>1505.1604564134</ele>
        <time>2021-06-21T13:26:48.357Z</time>
      </trkpt>
      <trkpt lat="42.89934" lon="0.10368">
        <ele>1508.2071630569</ele>
        <time>2021-06-21T13:26:59.482Z</time>
      </trkpt>
      <trkpt lat="42.89848" lon="0.10412">
        <ele>1511.0928235521</ele>
        <time>2021-06-21T13:27:10.622Z</time>
      </trkpt>
      <trkpt lat="42.89834" lon="0.10421">
        <ele>1513.6791181174</ele>
        <time>2021-06-21T13:27:21.764Z</time>
      </trkpt>
      <trkpt lat="42.89834" lon="0.10421">
        <ele>1516.2027619953</ele>
        <time>2021-06-21T13:27:32.906Z</time>
      </trkpt>
      <trkpt lat="42.89798" lon="0.10445">
        <ele>1518.8328568779</ele>
        <time>2021-06-21T13:27:44.055Z</time>
      </trkpt>
      <trkpt lat="42.89782" lon="0.10451">
        <ele>1521.3616363103</ele>
        <time>2021-06-21T13:27:55.206Z</time>
      </trkpt>
      <trkpt lat="42.89782" lon="0.10451">
        <ele>1523.8214367115</ele>
        <time>2021-06-21T13:28:06.357Z</time>
      </trkpt>
      <trkpt lat="42.89752" lon="0.10461">
        <ele>1526.3637298761</ele>
        <time>2021-06-21T13:28:17.513Z</time>
      </trkpt>
      <trkpt lat="42.89729" lon="0.10462">
        <ele>1528.8924013583</ele>
        <time>2021-06-21T13:28:28.673Z</time>
      </trkpt>
      <trkpt lat="42.8967" lon="0.10483">
        <ele>1531.5272744714</ele>
        <time>2021-06-21T13:28:39.843Z</time>
      </trkpt>
      <trkpt lat="42.8965" lon="0.10486">
        <ele>1533.9333776384</ele>
        <time>2021-06-21T13:28:51.016Z</time>
      </trkpt>
      <trkpt lat="42.8963" lon="0.10484">
        <ele>1536.3235052552</ele>
        <time>2021-06-21T13:29:02.192Z</time>
      </trkpt>
      <trkpt lat="42.89611" lon="0.10479">
        <ele>1538.6869913568</ele>
        <time>2021-06-21T13:29:13.371Z</time>
      </trkpt>
      <trkpt lat="42.89576" lon="0.10464">
        <ele>1541.1257076285</ele>
        <time>2021-06-21T13:29:24.556Z</time>
      </trkpt>
      <trkpt lat="42.89562" lon="0.10455">
        <ele>1543.4681029485</ele>
        <time>2021-06-21T13:29:35.743Z</time>
      </trkpt>
      <trkpt lat="42.89559" lon="0.10455">
        <ele>1545.6920593255</ele>
        <time>2021-06-21T13:29:46.931Z</time>
      </trkpt>
      <trkpt lat="42.89555" lon="0.10456">
        <ele>1547.882226168</ele>
        <time>2021-06-21T13:29:58.120Z</time>
      </trkpt>
      <trkpt lat="42.89549" lon="0.10464">
        <ele>1550.0374628943</ele>
        <time>2021-06-21T13:30:09.310Z</time>
      </trkpt>
      <trkpt lat="42.89542" lon="0.10484">
        <ele>1552.1987504306</ele>
        <time>2021-06-21T13:30:20.503Z</time>
      </trkpt>
      <trkpt lat="42.89529" lon="0.10527">
        <ele>1554.3216509155</ele>
        <time>2021-06-21T13:30:31.701Z</time>
      </trkpt>
      <trkpt lat="42.89512" lon="0.10597">
        <ele>1556.6115976826</ele>
        <time>2021-06-21T13:30:42.908Z</time>
      </trkpt>
      <trkpt lat="42.89512" lon="0.10597">
        <ele>1558.6165647294</ele>
        <time>2021-06-21T13:30:54.115Z</time>
      </trkpt>
      <trkpt lat="42.89509" lon="0.10623">
        <ele>1560.6967663526</ele>
        <time>2021-06-21T13:31:05.325Z</time>
      </trkpt>
      <trkpt lat="42.89509" lon="0.10637">
        <ele>1562.7617170919</ele>
        <time>2021-06-21T13:31:16.536Z</time>
      </trkpt>
      <trkpt lat="42.89513" lon="0.10654">
        <ele>1564.8377136157</ele>
        <time>2021-06-21T13:31:27.750Z</time>
      </trkpt>
      <trkpt lat="42.89526" lon="0.10672">
        <ele>1566.8144110635</ele>
        <time>2021-06-21T13:31:38.967Z</time>
      </trkpt>
      <trkpt lat="42.89542" lon="0.10689">
        <ele>1568.7101796953</ele>
        <time>2021-06-21T13:31:50.187Z</time>
      </trkpt>
      <trkpt lat="42.89555" lon="0.10699">
        <ele>1570.4986091257</ele>
        <time>2021-06-21T13:32:01.409Z</time>
      </trkpt>
      <trkpt lat="42.89564" lon="0.1071">
        <ele>1572.298660455</ele>
        <time>2021-06-21T13:32:12.633Z</time>
      </trkpt>
      <trkpt lat="42.89573" lon="0.10727">
        <ele>1574.1477681587</ele>
        <time>2021-06-21T13:32:23.860Z</time>
      </trkpt>
      <trkpt lat="42.89583" lon="0.10736">
        <ele>1575.8566851772</ele>
        <time>2021-06-21T13:32:35.089Z</time>
      </trkpt>
      <trkpt lat="42.89601" lon="0.10747">
        <ele>1577.5446024382</ele>
        <time>2021-06-21T13:32:46.321Z</time>
      </trkpt>
      <trkpt lat="42.89625" lon="0.10747">
        <ele>1579.0888369561</ele>
        <time>2021-06-21T13:32:57.556Z</time>
      </trkpt>
      <trkpt lat="42.89639" lon="0.10751">
        <ele>1580.6750106411</ele>
        <time>2021-06-21T13:33:08.794Z</time>
      </trkpt>
      <trkpt lat="42.89668" lon="0.10771">
        <ele>1582.4062255332</ele>
        <time>2021-06-21T13:33:20.037Z</time>
      </trkpt>
      <trkpt lat="42.89668" lon="0.10771">
        <ele>1583.8955175475</ele>
        <time>2021-06-21T13:33:31.280Z</time>
      </trkpt>
      <trkpt lat="42.89673" lon="0.10776">
        <ele>1585.4189670002</ele>
        <time>2021-06-21T13:33:42.524Z</time>
      </trkpt>
      <trkpt lat="42.89697" lon="0.1079">
        <ele>1586.9568986787</ele>
        <time>2021-06-21T13:33:53.772Z</time>
      </trkpt>
      <trkpt lat="42.89719" lon="0.10796">
        <ele>1588.3694571058</ele>
        <time>2021-06-21T13:34:05.024Z</time>
      </trkpt>
      <trkpt lat="42.89763" lon="0.10818">
        <ele>1589.8956511075</ele>
        <time>2021-06-21T13:34:16.283Z</time>
      </trkpt>
      <trkpt lat="42.89786" lon="0.10825">
        <ele>1591.339930597</ele>
        <time>2021-06-21T13:34:27.546Z</time>
      </trkpt>
      <trkpt lat="42.89809" lon="0.10826">
        <ele>1592.6900687365</ele>
        <time>2021-06-21T13:34:38.813Z</time>
      </trkpt>
      <trkpt lat="42.89825" lon="0.10831">
        <ele>1594.0720307769</ele>
        <time>2021-06-21T13:34:50.082Z</time>
      </trkpt>
      <trkpt lat="42.89844" lon="0.1084">
        <ele>1595.5139215542</ele>
        <time>2021-06-21T13:35:01.355Z</time>
      </trkpt>
      <trkpt lat="42.89882" lon="0.10869">
        <ele>1597.2163937124</ele>
        <time>2021-06-21T13:35:12.635Z</time>
      </trkpt>
      <trkpt lat="42.89898" lon="0.10879">
        <ele>1598.6681589778</ele>
        <time>2021-06-21T13:35:23.917Z</time>
      </trkpt>
      <trkpt lat="42.89933" lon="0.10892">
        <ele>1600.2199176474</ele>
        <time>2021-06-21T13:35:35.205Z</time>
      </trkpt>
      <trkpt lat="42.89969" lon="0.1089">
        <ele>1601.5970899233</ele>
        <time>2021-06-21T13:35:46.499Z</time>
      </trkpt>
      <trkpt lat="42.90001" lon="0.10892">
        <ele>1603.0472479565</ele>
        <time>2021-06-21T13:35:57.798Z</time>
      </trkpt>
      <trkpt lat="42.90017" lon="0.10891">
        <ele>1604.4441442967</ele>
        <time>2021-06-21T13:36:09.100Z</time>
      </trkpt>
      <trkpt lat="42.90106" lon="0.10861">
        <ele>1605.6671233219</ele>
        <time>2021-06-21T13:36:20.416Z</time>
      </trkpt>
      <trkpt lat="42.90164" lon="0.10844">
        <ele>1607.2488942369</ele>
        <time>2021-06-21T13:36:31.742Z</time>
      </trkpt>
      <trkpt lat="42.9021" lon="0.10834">
        <ele>1609.0137966475</ele>
        <time>2021-06-21T13:36:43.075Z</time>
      </trkpt>
      <trkpt lat="42.9025" lon="0.10822">
        <ele>1610.6210486923</ele>
        <time>2021-06-21T13:36:54.415Z</time>
      </trkpt>
      <trkpt lat="42.90278" lon="0.10817">
        <ele>1611.7703302575</ele>
        <time>2021-06-21T13:37:05.759Z</time>
      </trkpt>
      <trkpt lat="42.9032" lon="0.10814">
        <ele>1613.1755850334</ele>
        <time>2021-06-21T13:37:17.110Z</time>
      </trkpt>
      <trkpt lat="42.90327" lon="0.10816">
        <ele>1614.8076280669</ele>
        <time>2021-06-21T13:37:28.462Z</time>
      </trkpt>
      <trkpt lat="42.90333" lon="0.10824">
        <ele>1616.5548085309</ele>
        <time>2021-06-21T13:37:39.816Z</time>
      </trkpt>
      <trkpt lat="42.90371" lon="0.10909">
        <ele>1618.051223544</ele>
        <time>2021-06-21T13:37:51.181Z</time>
      </trkpt>
      <trkpt lat="42.90394" lon="0.10948">
        <ele>1619.7179280937</ele>
        <time>2021-06-21T13:38:02.552Z</time>
      </trkpt>
      <trkpt lat="42.90398" lon="0.10958">
        <ele>1621.7615801961</ele>
        <time>2021-06-21T13:38:13.924Z</time>
      </trkpt>
      <trkpt lat="42.90406" lon="0.10995">
        <ele>1623.8168370532</ele>
        <time>2021-06-21T13:38:25.301Z</time>
      </trkpt>
      <trkpt lat="42.90448" lon="0.11148">
        <ele>1625.6031763089</ele>
        <time>2021-06-21T13:38:36.697Z</time>
      </trkpt>
      <trkpt lat="42.90463" lon="0.11193">
        <ele>1628.0529016329</ele>
        <time>2021-06-21T13:38:48.099Z</time>
      </trkpt>
      <trkpt lat="42.90474" lon="0.11237">
        <ele>1630.7330388499</ele>
        <time>2021-06-21T13:38:59.507Z</time>
      </trkpt>
      <trkpt lat="42.9048" lon="0.11282">
        <ele>1633.7223528418</ele>
        <time>2021-06-21T13:39:10.920Z</time>
      </trkpt>
      <trkpt lat="42.90484" lon="0.11299">
        <ele>1636.7701045383</ele>
        <time>2021-06-21T13:39:22.335Z</time>
      </trkpt>
      <trkpt lat="42.90497" lon="0.11338">
        <ele>1639.9157494316</ele>
        <time>2021-06-21T13:39:33.755Z</time>
      </trkpt>
      <trkpt lat="42.90518" lon="0.11379">
        <ele>1643.252752794</ele>
        <time>2021-06-21T13:39:45.181Z</time>
      </trkpt>
      <trkpt lat="42.90522" lon="0.11395">
        <ele>1646.8097979854</ele>
        <time>2021-06-21T13:39:56.609Z</time>
      </trkpt>
      <trkpt lat="42.90522" lon="0.11634">
        <ele>1651.7732695092</ele>
        <time>2021-06-21T13:40:08.065Z</time>
      </trkpt>
      <trkpt lat="42.90527" lon="0.11682">
        <ele>1656.1716009038</ele>
        <time>2021-06-21T13:40:19.527Z</time>
      </trkpt>
      <trkpt lat="42.90526" lon="0.11714">
        <ele>1660.541906975</ele>
        <time>2021-06-21T13:40:30.992Z</time>
      </trkpt>
      <trkpt lat="42.90518" lon="0.11789">
        <ele>1665.7905128497</ele>
        <time>2021-06-21T13:40:42.466Z</time>
      </trkpt>
      <trkpt lat="42.90533" lon="0.1185">
        <ele>1670.1992178742</ele>
        <time>2021-06-21T13:40:53.948Z</time>
      </trkpt>
      <trkpt lat="42.9054" lon="0.11886">
        <ele>1674.4873346377</ele>
        <time>2021-06-21T13:41:05.434Z</time>
      </trkpt>
      <trkpt lat="42.90538" lon="0.11914">
        <ele>1678.8296688307</ele>
        <time>2021-06-21T13:41:16.924Z</time>
      </trkpt>
      <trkpt lat="42.9054" lon="0.11997">
        <ele>1683.4504203724</ele>
        <time>2021-06-21T13:41:28.423Z</time>
      </trkpt>
      <trkpt lat="42.90539" lon="0.12021">
        <ele>1687.2867703457</ele>
        <time>2021-06-21T13:41:39.925Z</time>
      </trkpt>
      <trkpt lat="42.90532" lon="0.12048">
        <ele>1691.1669052064</ele>
        <time>2021-06-21T13:41:51.431Z</time>
      </trkpt>
      <trkpt lat="42.90532" lon="0.12048">
        <ele>1694.9912160184</ele>
        <time>2021-06-21T13:42:02.937Z</time>
      </trkpt>
      <trkpt lat="42.90517" lon="0.12092">
        <ele>1698.7203598189</ele>
        <time>2021-06-21T13:42:14.448Z</time>
      </trkpt>
      <trkpt lat="42.90509" lon="0.12107">
        <ele>1702.3928401017</ele>
        <time>2021-06-21T13:42:25.961Z</time>
      </trkpt>
      <trkpt lat="42.90501" lon="0.12125">
        <ele>1705.9297795261</ele>
        <time>2021-06-21T13:42:37.477Z</time>
      </trkpt>
      <trkpt lat="42.90482" lon="0.12207">
        <ele>1709.5236562093</ele>
        <time>2021-06-21T13:42:49.003Z</time>
      </trkpt>
      <trkpt lat="42.90478" lon="0.12217">
        <ele>1713.0436336843</ele>
        <time>2021-06-21T13:43:00.530Z</time>
      </trkpt>
      <trkpt lat="42.90466" lon="0.12231">
        <ele>1716.6167299493</ele>
        <time>2021-06-21T13:43:12.060Z</time>
      </trkpt>
      <trkpt lat="42.90463" lon="0.12243">
        <ele>1719.963150753</ele>
        <time>2021-06-21T13:43:23.591Z</time>
      </trkpt>
      <trkpt lat="42.90464" lon="0.12275">
        <ele>1723.0865189942</ele>
        <time>2021-06-21T13:43:35.126Z</time>
      </trkpt>
      <trkpt lat="42.90462" lon="0.12294">
        <ele>1726.1392412437</ele>
        <time>2021-06-21T13:43:46.663Z</time>
      </trkpt>
      <trkpt lat="42.90434" lon="0.12399">
        <ele>1729.1116418223</ele>
        <time>2021-06-21T13:43:58.214Z</time>
      </trkpt>
      <trkpt lat="42.90434" lon="0.12399">
        <ele>1732.034104998</ele>
        <time>2021-06-21T13:44:09.765Z</time>
      </trkpt>
      <trkpt lat="42.90419" lon="0.12454">
        <ele>1734.7174698474</ele>
        <time>2021-06-21T13:44:21.322Z</time>
      </trkpt>
      <trkpt lat="42.90412" lon="0.12463">
        <ele>1737.6101941924</ele>
        <time>2021-06-21T13:44:32.881Z</time>
      </trkpt>
      <trkpt lat="42.90398" lon="0.12472">
        <ele>1740.7081301148</ele>
        <time>2021-06-21T13:44:44.442Z</time>
      </trkpt>
      <trkpt lat="42.90394" lon="0.12479">
        <ele>1743.505847546</ele>
        <time>2021-06-21T13:44:56.004Z</time>
      </trkpt>
      <trkpt lat="42.90391" lon="0.12488">
        <ele>1746.2308211464</ele>
        <time>2021-06-21T13:45:07.568Z</time>
      </trkpt>
      <trkpt lat="42.90396" lon="0.12556">
        <ele>1748.4569809873</ele>
        <time>2021-06-21T13:45:19.140Z</time>
      </trkpt>
      <trkpt lat="42.90388" lon="0.12603">
        <ele>1750.8796450013</ele>
        <time>2021-06-21T13:45:30.717Z</time>
      </trkpt>
      <trkpt lat="42.90386" lon="0.12634">
        <ele>1753.3657439655</ele>
        <time>2021-06-21T13:45:42.298Z</time>
      </trkpt>
      <trkpt lat="42.90386" lon="0.12647">
        <ele>1755.8948227311</ele>
        <time>2021-06-21T13:45:53.881Z</time>
      </trkpt>
      <trkpt lat="42.90378" lon="0.12665">
        <ele>1758.6507727742</ele>
        <time>2021-06-21T13:46:05.466Z</time>
      </trkpt>
      <trkpt lat="42.90371" lon="0.1269">
        <ele>1761.4152062729</ele>
        <time>2021-06-21T13:46:17.054Z</time>
      </trkpt>
      <trkpt lat="42.90371" lon="0.12703">
        <ele>1764.0042015136</ele>
        <time>2021-06-21T13:46:28.644Z</time>
      </trkpt>
      <trkpt lat="42.90374" lon="0.12723">
        <ele>1766.6602018047</ele>
        <time>2021-06-21T13:46:40.236Z</time>
      </trkpt>
      <trkpt lat="42.90372" lon="0.1274">
        <ele>1769.4801931627</ele>
        <time>2021-06-21T13:46:51.830Z</time>
      </trkpt>
      <trkpt lat="42.90364" lon="0.12761">
        <ele>1772.4487240731</ele>
        <time>2021-06-21T13:47:03.427Z</time>
      </trkpt>
      <trkpt lat="42.90359" lon="0.1278">
        <ele>1775.3398950709</ele>
        <time>2021-06-21T13:47:15.026Z</time>
      </trkpt>
      <trkpt lat="42.90356" lon="0.12794">
        <ele>1778.1516901087</ele>
        <time>2021-06-21T13:47:26.627Z</time>
      </trkpt>
      <trkpt lat="42.90357" lon="0.1281">
        <ele>1781.0579485087</ele>
        <time>2021-06-21T13:47:38.230Z</time>
      </trkpt>
      <trkpt lat="42.90378" lon="0.12878">
        <ele>1783.8047042754</ele>
        <time>2021-06-21T13:47:49.841Z</time>
      </trkpt>
      <trkpt lat="42.90378" lon="0.12907">
        <ele>1786.7840583133</ele>
        <time>2021-06-21T13:48:01.456Z</time>
      </trkpt>
      <trkpt lat="42.90376" lon="0.12933">
        <ele>1789.7003008463</ele>
        <time>2021-06-21T13:48:13.074Z</time>
      </trkpt>
      <trkpt lat="42.90374" lon="0.12944">
        <ele>1792.5439937173</ele>
        <time>2021-06-21T13:48:24.693Z</time>
      </trkpt>
      <trkpt lat="42.90355" lon="0.12996">
        <ele>1795.6098129944</ele>
        <time>2021-06-21T13:48:36.319Z</time>
      </trkpt>
      <trkpt lat="42.90339" lon="0.13055">
        <ele>1798.6202990427</ele>
        <time>2021-06-21T13:48:47.953Z</time>
      </trkpt>
      <trkpt lat="42.90336" lon="0.1307">
        <ele>1801.4864925532</ele>
        <time>2021-06-21T13:48:59.588Z</time>
      </trkpt>
      <trkpt lat="42.90334" lon="0.13085">
        <ele>1804.3253294939</ele>
        <time>2021-06-21T13:49:11.225Z</time>
      </trkpt>
      <trkpt lat="42.9034" lon="0.13115">
        <ele>1807.0534575924</ele>
        <time>2021-06-21T13:49:22.866Z</time>
      </trkpt>
      <trkpt lat="42.90338" lon="0.13129">
        <ele>1809.8562420286</ele>
        <time>2021-06-21T13:49:34.509Z</time>
      </trkpt>
      <trkpt lat="42.90333" lon="0.13143">
        <ele>1812.6783524155</ele>
        <time>2021-06-21T13:49:46.153Z</time>
      </trkpt>
      <trkpt lat="42.90327" lon="0.13151">
        <ele>1815.4546930298</ele>
        <time>2021-06-21T13:49:57.799Z</time>
      </trkpt>
      <trkpt lat="42.9031" lon="0.13169">
        <ele>1818.3941682483</ele>
        <time>2021-06-21T13:50:09.448Z</time>
      </trkpt>
      <trkpt lat="42.90281" lon="0.13214">
        <ele>1821.228713698</ele>
        <time>2021-06-21T13:50:21.104Z</time>
      </trkpt>
      <trkpt lat="42.90275" lon="0.1322">
        <ele>1823.8618533866</ele>
        <time>2021-06-21T13:50:32.761Z</time>
      </trkpt>
      <trkpt lat="42.90267" lon="0.13224">
        <ele>1826.427160799</ele>
        <time>2021-06-21T13:50:44.420Z</time>
      </trkpt>
      <trkpt lat="42.9023" lon="0.13234">
        <ele>1829.2867149706</ele>
        <time>2021-06-21T13:50:56.085Z</time>
      </trkpt>
      <trkpt lat="42.90203" lon="0.13236">
        <ele>1831.993726648</ele>
        <time>2021-06-21T13:51:07.754Z</time>
      </trkpt>
      <trkpt lat="42.90198" lon="0.1324">
        <ele>1834.3588030626</ele>
        <time>2021-06-21T13:51:19.424Z</time>
      </trkpt>
      <trkpt lat="42.90193" lon="0.13248">
        <ele>1836.6502040062</ele>
        <time>2021-06-21T13:51:31.095Z</time>
      </trkpt>
      <trkpt lat="42.90192" lon="0.13259">
        <ele>1838.822900215</ele>
        <time>2021-06-21T13:51:42.768Z</time>
      </trkpt>
      <trkpt lat="42.90193" lon="0.13268">
        <ele>1840.8748455878</ele>
        <time>2021-06-21T13:51:54.442Z</time>
      </trkpt>
      <trkpt lat="42.90219" lon="0.13336">
        <ele>1842.7184802351</ele>
        <time>2021-06-21T13:52:06.125Z</time>
      </trkpt>
      <trkpt lat="42.90222" lon="0.1336">
        <ele>1844.6708497406</ele>
        <time>2021-06-21T13:52:17.810Z</time>
      </trkpt>
      <trkpt lat="42.90223" lon="0.13381">
        <ele>1846.5885945775</ele>
        <time>2021-06-21T13:52:29.498Z</time>
      </trkpt>
      <trkpt lat="42.90227" lon="0.13393">
        <ele>1848.3627068888</ele>
        <time>2021-06-21T13:52:41.187Z</time>
      </trkpt>
      <trkpt lat="42.90234" lon="0.13401">
        <ele>1849.9542329426</ele>
        <time>2021-06-21T13:52:52.878Z</time>
      </trkpt>
      <trkpt lat="42.90258" lon="0.13411">
        <ele>1851.2133582823</ele>
        <time>2021-06-21T13:53:04.573Z</time>
      </trkpt>
      <trkpt lat="42.90265" lon="0.1342">
        <ele>1852.7053816738</ele>
        <time>2021-06-21T13:53:16.270Z</time>
      </trkpt>
      <trkpt lat="42.90278" lon="0.13453">
        <ele>1854.3289806855</ele>
        <time>2021-06-21T13:53:27.971Z</time>
      </trkpt>
      <trkpt lat="42.90279" lon="0.13467">
        <ele>1855.8303737955</ele>
        <time>2021-06-21T13:53:39.674Z</time>
      </trkpt>
      <trkpt lat="42.90278" lon="0.13481">
        <ele>1857.2896048158</ele>
        <time>2021-06-21T13:53:51.378Z</time>
      </trkpt>
      <trkpt lat="42.90272" lon="0.13507">
        <ele>1858.5972820101</ele>
        <time>2021-06-21T13:54:03.085Z</time>
      </trkpt>
      <trkpt lat="42.90273" lon="0.13523">
        <ele>1859.8363978704</ele>
        <time>2021-06-21T13:54:14.794Z</time>
      </trkpt>
      <trkpt lat="42.90283" lon="0.13567">
        <ele>1861.0838444065</ele>
        <time>2021-06-21T13:54:26.509Z</time>
      </trkpt>
      <trkpt lat="42.90287" lon="0.136">
        <ele>1862.3849002129</ele>
        <time>2021-06-21T13:54:38.228Z</time>
      </trkpt>
      <trkpt lat="42.90291" lon="0.13606">
        <ele>1863.5783276308</ele>
        <time>2021-06-21T13:54:49.948Z</time>
      </trkpt>
      <trkpt lat="42.90291" lon="0.13606">
        <ele>1864.7572888793</ele>
        <time>2021-06-21T13:55:01.668Z</time>
      </trkpt>
      <trkpt lat="42.903" lon="0.13611">
        <ele>1865.9163643692</ele>
        <time>2021-06-21T13:55:13.389Z</time>
      </trkpt>
      <trkpt lat="42.90319" lon="0.13613">
        <ele>1867.0343903166</ele>
        <time>2021-06-21T13:55:25.113Z</time>
      </trkpt>
      <trkpt lat="42.90332" lon="0.1362">
        <ele>1868.2049420106</ele>
        <time>2021-06-21T13:55:36.840Z</time>
      </trkpt>
      <trkpt lat="42.90342" lon="0.1363">
        <ele>1869.4168176836</ele>
        <time>2021-06-21T13:55:48.569Z</time>
      </trkpt>
      <trkpt lat="42.9035" lon="0.13638">
        <ele>1870.6793949832</ele>
        <time>2021-06-21T13:56:00.299Z</time>
      </trkpt>
      <trkpt lat="42.90357" lon="0.13652">
        <ele>1871.9967881333</ele>
        <time>2021-06-21T13:56:12.031Z</time>
      </trkpt>
      <trkpt lat="42.90366" lon="0.13681">
        <ele>1873.4156264488</ele>
        <time>2021-06-21T13:56:23.767Z</time>
      </trkpt>
      <trkpt lat="42.90371" lon="0.13688">
        <ele>1874.7769788718</ele>
        <time>2021-06-21T13:56:35.504Z</time>
      </trkpt>
      <trkpt lat="42.90382" lon="0.13695">
        <ele>1876.1761397079</ele>
        <time>2021-06-21T13:56:47.243Z</time>
      </trkpt>
      <trkpt lat="42.90408" lon="0.13708">
        <ele>1877.6182989332</ele>
        <time>2021-06-21T13:56:58.986Z</time>
      </trkpt>
      <trkpt lat="42.90438" lon="0.13715">
        <ele>1879.1345182066</ele>
        <time>2021-06-21T13:57:10.734Z</time>
      </trkpt>
      <trkpt lat="42.90449" lon="0.13715">
        <ele>1880.6781182261</ele>
        <time>2021-06-21T13:57:22.484Z</time>
      </trkpt>
      <trkpt lat="42.90469" lon="0.13709">
        <ele>1882.2390808046</ele>
        <time>2021-06-21T13:57:34.237Z</time>
      </trkpt>
      <trkpt lat="42.90485" lon="0.13711">
        <ele>1883.9116853282</ele>
        <time>2021-06-21T13:57:45.993Z</time>
      </trkpt>
      <trkpt lat="42.90498" lon="0.13722">
        <ele>1885.7039771759</ele>
        <time>2021-06-21T13:57:57.751Z</time>
      </trkpt>
      <trkpt lat="42.90514" lon="0.13741">
        <ele>1887.6131000489</ele>
        <time>2021-06-21T13:58:09.513Z</time>
      </trkpt>
      <trkpt lat="42.90526" lon="0.13762">
        <ele>1889.5644262117</ele>
        <time>2021-06-21T13:58:21.278Z</time>
      </trkpt>
      <trkpt lat="42.90526" lon="0.13762">
        <ele>1891.3805208613</ele>
        <time>2021-06-21T13:58:33.043Z</time>
      </trkpt>
      <trkpt lat="42.90531" lon="0.13777">
        <ele>1893.3630984707</ele>
        <time>2021-06-21T13:58:44.810Z</time>
      </trkpt>
      <trkpt lat="42.90541" lon="0.13793">
        <ele>1895.3866325022</ele>
        <time>2021-06-21T13:58:56.579Z</time>
      </trkpt>
      <trkpt lat="42.90557" lon="0.1381">
        <ele>1897.4600000177</ele>
        <time>2021-06-21T13:59:08.351Z</time>
      </trkpt>
      <trkpt lat="42.90576" lon="0.13827">
        <ele>1899.5537201729</ele>
        <time>2021-06-21T13:59:20.127Z</time>
      </trkpt>
      <trkpt lat="42.9061" lon="0.13843">
        <ele>1901.6941341418</ele>
        <time>2021-06-21T13:59:31.909Z</time>
      </trkpt>
      <trkpt lat="42.90619" lon="0.13857">
        <ele>1903.7973141151</ele>
        <time>2021-06-21T13:59:43.693Z</time>
      </trkpt>
      <trkpt lat="42.9063" lon="0.13865">
        <ele>1905.8401336229</ele>
        <time>2021-06-21T13:59:55.479Z</time>
      </trkpt>
      <trkpt lat="42.90642" lon="0.1387">
        <ele>1907.8570237696</ele>
        <time>2021-06-21T14:00:07.267Z</time>
      </trkpt>
      <trkpt lat="42.90656" lon="0.1387">
        <ele>1909.8134829494</ele>
        <time>2021-06-21T14:00:19.057Z</time>
      </trkpt>
      <trkpt lat="42.90694" lon="0.13858">
        <ele>1911.7721160993</ele>
        <time>2021-06-21T14:00:30.854Z</time>
      </trkpt>
      <trkpt lat="42.90706" lon="0.13856">
        <ele>1913.7137038929</ele>
        <time>2021-06-21T14:00:42.652Z</time>
      </trkpt>
      <trkpt lat="42.90729" lon="0.13861">
        <ele>1915.7721274967</ele>
        <time>2021-06-21T14:00:54.454Z</time>
      </trkpt>
      <trkpt lat="42.90738" lon="0.1386">
        <ele>1917.6409569911</ele>
        <time>2021-06-21T14:01:06.258Z</time>
      </trkpt>
      <trkpt lat="42.90756" lon="0.13847">
        <ele>1919.6066047777</ele>
        <time>2021-06-21T14:01:18.065Z</time>
      </trkpt>
      <trkpt lat="42.90784" lon="0.1381">
        <ele>1921.4509359691</ele>
        <time>2021-06-21T14:01:29.878Z</time>
      </trkpt>
      <trkpt lat="42.90825" lon="0.13785">
        <ele>1922.7173466176</ele>
        <time>2021-06-21T14:01:41.698Z</time>
      </trkpt>
      <trkpt lat="42.90836" lon="0.1378">
        <ele>1924.258287682</ele>
        <time>2021-06-21T14:01:53.520Z</time>
      </trkpt>
      <trkpt lat="42.90861" lon="0.1378">
        <ele>1925.9416327703</ele>
        <time>2021-06-21T14:02:05.346Z</time>
      </trkpt>
      <trkpt lat="42.90893" lon="0.13781">
        <ele>1927.6346783599</ele>
        <time>2021-06-21T14:02:17.177Z</time>
      </trkpt>
      <trkpt lat="42.90933" lon="0.13796">
        <ele>1929.5397085665</ele>
        <time>2021-06-21T14:02:29.015Z</time>
      </trkpt>
      <trkpt lat="42.90955" lon="0.13801">
        <ele>1931.0727706653</ele>
        <time>2021-06-21T14:02:40.856Z</time>
      </trkpt>
      <trkpt lat="42.90983" lon="0.13802">
        <ele>1932.450734413</ele>
        <time>2021-06-21T14:02:52.702Z</time>
      </trkpt>
      <trkpt lat="42.91015" lon="0.13806">
        <ele>1933.7933697122</ele>
        <time>2021-06-21T14:03:04.553Z</time>
      </trkpt>
      <trkpt lat="42.91045" lon="0.13804">
        <ele>1934.8595719462</ele>
        <time>2021-06-21T14:03:16.409Z</time>
      </trkpt>
      <trkpt lat="42.91056" lon="0.13805">
        <ele>1935.9583888851</ele>
        <time>2021-06-21T14:03:28.267Z</time>
      </trkpt>
      <trkpt lat="42.91066" lon="0.1381">
        <ele>1937.0890408277</ele>
        <time>2021-06-21T14:03:40.126Z</time>
      </trkpt>
      <trkpt lat="42.91089" lon="0.13854">
        <ele>1939.0573438071</ele>
        <time>2021-06-21T14:03:51.992Z</time>
      </trkpt>
      <trkpt lat="42.91093" lon="0.13856">
        <ele>1939.9579009583</ele>
        <time>2021-06-21T14:04:03.858Z</time>
      </trkpt>
      <trkpt lat="42.91102" lon="0.13857">
        <ele>1940.7368403132</ele>
        <time>2021-06-21T14:04:15.726Z</time>
      </trkpt>
      <trkpt lat="42.91106" lon="0.13855">
        <ele>1941.4073883242</ele>
        <time>2021-06-21T14:04:27.594Z</time>
      </trkpt>
      <trkpt lat="42.91125" lon="0.13826">
        <ele>1941.3267346974</ele>
        <time>2021-06-21T14:04:39.467Z</time>
      </trkpt>
      <trkpt lat="42.91149" lon="0.13797">
        <ele>1941.4801082919</ele>
        <time>2021-06-21T14:04:51.345Z</time>
      </trkpt>
      <trkpt lat="42.91159" lon="0.13789">
        <ele>1941.9602981764</ele>
        <time>2021-06-21T14:05:03.225Z</time>
      </trkpt>
      <trkpt lat="42.91187" lon="0.13784">
        <ele>1942.6253033304</ele>
        <time>2021-06-21T14:05:15.109Z</time>
      </trkpt>
      <trkpt lat="42.91206" lon="0.13787">
        <ele>1943.4380486296</ele>
        <time>2021-06-21T14:05:26.997Z</time>
      </trkpt>
      <trkpt lat="42.91217" lon="0.13785">
        <ele>1944.1546804561</ele>
        <time>2021-06-21T14:05:38.886Z</time>
      </trkpt>
      <trkpt lat="42.91231" lon="0.1378">
        <ele>1944.8414465231</ele>
        <time>2021-06-21T14:05:50.778Z</time>
      </trkpt>
      <trkpt lat="42.91252" lon="0.13767">
        <ele>1945.6384873342</ele>
        <time>2021-06-21T14:06:02.673Z</time>
      </trkpt>
      <trkpt lat="42.91261" lon="0.13759">
        <ele>1946.5015774376</ele>
        <time>2021-06-21T14:06:14.570Z</time>
      </trkpt>
      <trkpt lat="42.91273" lon="0.13739">
        <ele>1947.4639089122</ele>
        <time>2021-06-21T14:06:26.470Z</time>
      </trkpt>
      <trkpt lat="42.91284" lon="0.13708">
        <ele>1947.7431316487</ele>
        <time>2021-06-21T14:06:38.374Z</time>
      </trkpt>
      <trkpt lat="42.91292" lon="0.13695">
        <ele>1948.5882630455</ele>
        <time>2021-06-21T14:06:50.280Z</time>
      </trkpt>
      <trkpt lat="42.91305" lon="0.13681">
        <ele>1949.5389742647</ele>
        <time>2021-06-21T14:07:02.189Z</time>
      </trkpt>
      <trkpt lat="42.91322" lon="0.13676">
        <ele>1950.8556297579</ele>
        <time>2021-06-21T14:07:14.101Z</time>
      </trkpt>
      <trkpt lat="42.9133" lon="0.13677">
        <ele>1952.2387614172</ele>
        <time>2021-06-21T14:07:26.014Z</time>
      </trkpt>
      <trkpt lat="42.91335" lon="0.13684">
        <ele>1953.7377163256</ele>
        <time>2021-06-21T14:07:37.928Z</time>
      </trkpt>
      <trkpt lat="42.91339" lon="0.13692">
        <ele>1955.3450187219</ele>
        <time>2021-06-21T14:07:49.843Z</time>
      </trkpt>
      <trkpt lat="42.9134" lon="0.13702">
        <ele>1957.0251268167</ele>
        <time>2021-06-21T14:08:01.759Z</time>
      </trkpt>
      <trkpt lat="42.91338" lon="0.13709">
        <ele>1958.7596950283</ele>
        <time>2021-06-21T14:08:13.676Z</time>
      </trkpt>
      <trkpt lat="42.91333" lon="0.13717">
        <ele>1960.7595243091</ele>
        <time>2021-06-21T14:08:25.594Z</time>
      </trkpt>
      <trkpt lat="42.91299" lon="0.13738">
        <ele>1963.1825418579</ele>
        <time>2021-06-21T14:08:37.518Z</time>
      </trkpt>
      <trkpt lat="42.91292" lon="0.13747">
        <ele>1965.3984020841</ele>
        <time>2021-06-21T14:08:49.444Z</time>
      </trkpt>
      <trkpt lat="42.91273" lon="0.13783">
        <ele>1967.3418596118</ele>
        <time>2021-06-21T14:09:01.375Z</time>
      </trkpt>
      <trkpt lat="42.91259" lon="0.13805">
        <ele>1969.5618935895</ele>
        <time>2021-06-21T14:09:13.310Z</time>
      </trkpt>
      <trkpt lat="42.9125" lon="0.13816">
        <ele>1972.1289932365</ele>
        <time>2021-06-21T14:09:25.246Z</time>
      </trkpt>
      <trkpt lat="42.91229" lon="0.13828">
        <ele>1974.7505341614</ele>
        <time>2021-06-21T14:09:37.186Z</time>
      </trkpt>
      <trkpt lat="42.91211" lon="0.13837">
        <ele>1977.2304073126</ele>
        <time>2021-06-21T14:09:49.129Z</time>
      </trkpt>
      <trkpt lat="42.91196" lon="0.13839">
        <ele>1979.3592467449</ele>
        <time>2021-06-21T14:10:01.074Z</time>
      </trkpt>
      <trkpt lat="42.91181" lon="0.13843">
        <ele>1981.5730243498</ele>
        <time>2021-06-21T14:10:13.022Z</time>
      </trkpt>
      <trkpt lat="42.91171" lon="0.13851">
        <ele>1984.0464489029</ele>
        <time>2021-06-21T14:10:24.972Z</time>
      </trkpt>
      <trkpt lat="42.9114" lon="0.13912">
        <ele>1988.3712926101</ele>
        <time>2021-06-21T14:10:36.931Z</time>
      </trkpt>
      <trkpt lat="42.9113" lon="0.13942">
        <ele>1991.7540274656</ele>
        <time>2021-06-21T14:10:48.893Z</time>
      </trkpt>
      <trkpt lat="42.91122" lon="0.13949">
        <ele>1994.4580707464</ele>
        <time>2021-06-21T14:11:00.857Z</time>
      </trkpt>
      <trkpt lat="42.91116" lon="0.13951">
        <ele>1997.0515552718</ele>
        <time>2021-06-21T14:11:12.822Z</time>
      </trkpt>
      <trkpt lat="42.91087" lon="0.13949">
        <ele>1999.5108754737</ele>
        <time>2021-06-21T14:11:24.792Z</time>
      </trkpt>
      <trkpt lat="42.91053" lon="0.13938">
        <ele>2001.8241121755</ele>
        <time>2021-06-21T14:11:36.767Z</time>
      </trkpt>
      <trkpt lat="42.91026" lon="0.13934">
        <ele>2004.148400473</ele>
        <time>2021-06-21T14:11:48.747Z</time>
      </trkpt>
      <trkpt lat="42.91008" lon="0.13934">
        <ele>2006.5536221918</ele>
        <time>2021-06-21T14:12:00.729Z</time>
      </trkpt>
      <trkpt lat="42.90983" lon="0.13938">
        <ele>2009.1134488838</ele>
        <time>2021-06-21T14:12:12.715Z</time>
      </trkpt>
      <trkpt lat="42.90951" lon="0.13932">
        <ele>2011.5307563929</ele>
        <time>2021-06-21T14:12:24.707Z</time>
      </trkpt>
      <trkpt lat="42.90918" lon="0.13937">
        <ele>2013.9340837427</ele>
        <time>2021-06-21T14:12:36.704Z</time>
      </trkpt>
      <trkpt lat="42.90907" lon="0.13942">
        <ele>2016.2197745926</ele>
        <time>2021-06-21T14:12:48.703Z</time>
      </trkpt>
      <trkpt lat="42.90883" lon="0.13959">
        <ele>2018.4944228231</ele>
        <time>2021-06-21T14:13:00.706Z</time>
      </trkpt>
      <trkpt lat="42.90876" lon="0.13967">
        <ele>2020.9390170101</ele>
        <time>2021-06-21T14:13:12.711Z</time>
      </trkpt>
      <trkpt lat="42.90843" lon="0.1401">
        <ele>2023.6531044565</ele>
        <time>2021-06-21T14:13:24.723Z</time>
      </trkpt>
      <trkpt lat="42.9083" lon="0.14018">
        <ele>2026.0526730632</ele>
        <time>2021-06-21T14:13:36.737Z</time>
      </trkpt>
      <trkpt lat="42.90809" lon="0.14035">
        <ele>2028.496892461</ele>
        <time>2021-06-21T14:13:48.755Z</time>
      </trkpt>
      <trkpt lat="42.90792" lon="0.14066">
        <ele>2031.115835233</ele>
        <time>2021-06-21T14:14:00.778Z</time>
      </trkpt>
      <trkpt lat="42.90775" lon="0.14083">
        <ele>2033.5208292381</ele>
        <time>2021-06-21T14:14:12.804Z</time>
      </trkpt>
      <trkpt lat="42.90744" lon="0.14129">
        <ele>2036.024153937</ele>
        <time>2021-06-21T14:14:24.837Z</time>
      </trkpt>
      <trkpt lat="42.90738" lon="0.14147">
        <ele>2038.5455897843</ele>
        <time>2021-06-21T14:14:36.873Z</time>
      </trkpt>
      <trkpt lat="42.90724" lon="0.142">
        <ele>2041.082855437</ele>
        <time>2021-06-21T14:14:48.915Z</time>
      </trkpt>
      <trkpt lat="42.9072" lon="0.14221">
        <ele>2043.6367460467</ele>
        <time>2021-06-21T14:15:00.960Z</time>
      </trkpt>
      <trkpt lat="42.90718" lon="0.14243">
        <ele>2046.2413443998</ele>
        <time>2021-06-21T14:15:13.007Z</time>
      </trkpt>
      <trkpt lat="42.9072" lon="0.14262">
        <ele>2048.9668130356</ele>
        <time>2021-06-21T14:15:25.057Z</time>
      </trkpt>
      <trkpt lat="42.90727" lon="0.14275">
        <ele>2051.7881808627</ele>
        <time>2021-06-21T14:15:37.108Z</time>
      </trkpt>
      <trkpt lat="42.90743" lon="0.14314">
        <ele>2054.9906814733</ele>
        <time>2021-06-21T14:15:49.165Z</time>
      </trkpt>
      <trkpt lat="42.90747" lon="0.14334">
        <ele>2057.8655700372</ele>
        <time>2021-06-21T14:16:01.224Z</time>
      </trkpt>
      <trkpt lat="42.90749" lon="0.14363">
        <ele>2060.7837050635</ele>
        <time>2021-06-21T14:16:13.287Z</time>
      </trkpt>
      <trkpt lat="42.90746" lon="0.1438">
        <ele>2063.5903089873</ele>
        <time>2021-06-21T14:16:25.352Z</time>
      </trkpt>
      <trkpt lat="42.90739" lon="0.14391">
        <ele>2066.3216445514</ele>
        <time>2021-06-21T14:16:37.418Z</time>
      </trkpt>
      <trkpt lat="42.90715" lon="0.14408">
        <ele>2068.9409505076</ele>
        <time>2021-06-21T14:16:49.489Z</time>
      </trkpt>
      <trkpt lat="42.907" lon="0.14423">
        <ele>2071.6158729419</ele>
        <time>2021-06-21T14:17:01.563Z</time>
      </trkpt>
      <trkpt lat="42.90679" lon="0.14436">
        <ele>2074.1752679873</ele>
        <time>2021-06-21T14:17:13.640Z</time>
      </trkpt>
      <trkpt lat="42.90647" lon="0.14452">
        <ele>2076.5658694602</ele>
        <time>2021-06-21T14:17:25.723Z</time>
      </trkpt>
      <trkpt lat="42.90635" lon="0.14459">
        <ele>2078.972751211</ele>
        <time>2021-06-21T14:17:37.808Z</time>
      </trkpt>
      <trkpt lat="42.90626" lon="0.14471">
        <ele>2081.4317611064</ele>
        <time>2021-06-21T14:17:49.895Z</time>
      </trkpt>
      <trkpt lat="42.90605" lon="0.1452">
        <ele>2084.0834764974</ele>
        <time>2021-06-21T14:18:01.989Z</time>
      </trkpt>
      <trkpt lat="42.90599" lon="0.14544">
        <ele>2086.5780693749</ele>
        <time>2021-06-21T14:18:14.086Z</time>
      </trkpt>
      <trkpt lat="42.90595" lon="0.14569">
        <ele>2089.0582616332</ele>
        <time>2021-06-21T14:18:26.186Z</time>
      </trkpt>
      <trkpt lat="42.90587" lon="0.14587">
        <ele>2091.44494329</ele>
        <time>2021-06-21T14:18:38.288Z</time>
      </trkpt>
      <trkpt lat="42.90558" lon="0.14634">
        <ele>2093.8618399527</ele>
        <time>2021-06-21T14:18:50.397Z</time>
      </trkpt>
      <trkpt lat="42.90547" lon="0.14642">
        <ele>2095.8304645093</ele>
        <time>2021-06-21T14:19:02.508Z</time>
      </trkpt>
      <trkpt lat="42.90523" lon="0.14651">
        <ele>2097.7069654819</ele>
        <time>2021-06-21T14:19:14.623Z</time>
      </trkpt>
      <trkpt lat="42.90516" lon="0.14659">
        <ele>2099.7365968527</ele>
        <time>2021-06-21T14:19:26.740Z</time>
      </trkpt>
      <trkpt lat="42.90517" lon="0.14666">
        <ele>2101.6241034561</ele>
        <time>2021-06-21T14:19:38.858Z</time>
      </trkpt>
      <trkpt lat="42.90517" lon="0.14666">
        <ele>2103.3052768826</ele>
        <time>2021-06-21T14:19:50.976Z</time>
      </trkpt>
      <trkpt lat="42.90521" lon="0.14671">
        <ele>2104.9216401105</ele>
        <time>2021-06-21T14:20:03.094Z</time>
      </trkpt>
      <trkpt lat="42.90529" lon="0.14671">
        <ele>2106.3307881113</ele>
        <time>2021-06-21T14:20:15.214Z</time>
      </trkpt>
      <trkpt lat="42.90563" lon="0.14656">
        <ele>2107.6672815083</ele>
        <time>2021-06-21T14:20:27.339Z</time>
      </trkpt>
      <trkpt lat="42.90581" lon="0.14641">
        <ele>2109.0364996414</ele>
        <time>2021-06-21T14:20:39.468Z</time>
      </trkpt>
      <trkpt lat="42.90598" lon="0.14616">
        <ele>2110.114773903</ele>
        <time>2021-06-21T14:20:51.601Z</time>
      </trkpt>
      <trkpt lat="42.90612" lon="0.14601">
        <ele>2110.9765221297</ele>
        <time>2021-06-21T14:21:03.737Z</time>
      </trkpt>
      <trkpt lat="42.90631" lon="0.14584">
        <ele>2111.7253134985</ele>
        <time>2021-06-21T14:21:15.876Z</time>
      </trkpt>
      <trkpt lat="42.90663" lon="0.14559">
        <ele>2112.9034984965</ele>
        <time>2021-06-21T14:21:28.021Z</time>
      </trkpt>
      <trkpt lat="42.90683" lon="0.14529">
        <ele>2113.4539957081</ele>
        <time>2021-06-21T14:21:40.171Z</time>
      </trkpt>
      <trkpt lat="42.90695" lon="0.14519">
        <ele>2113.8170868019</ele>
        <time>2021-06-21T14:21:52.323Z</time>
      </trkpt>
      <trkpt lat="42.90737" lon="0.14512">
        <ele>2114.3021920987</ele>
        <time>2021-06-21T14:22:04.482Z</time>
      </trkpt>
      <trkpt lat="42.90748" lon="0.14512">
        <ele>2114.5132358337</ele>
        <time>2021-06-21T14:22:16.643Z</time>
      </trkpt>
      <trkpt lat="42.90781" lon="0.1452">
        <ele>2114.5521692526</ele>
        <time>2021-06-21T14:22:28.809Z</time>
      </trkpt>
      <trkpt lat="42.90781" lon="0.1452">
        <ele>2114.3369584496</ele>
        <time>2021-06-21T14:22:40.975Z</time>
      </trkpt>
      <trkpt lat="42.90793" lon="0.14517">
        <ele>2113.895576929</ele>
        <time>2021-06-21T14:22:53.143Z</time>
      </trkpt>
      <trkpt lat="42.90804" lon="0.14511">
        <ele>2113.2700615014</ele>
        <time>2021-06-21T14:23:05.313Z</time>
      </trkpt>
      <trkpt lat="42.90825" lon="0.14508">
        <ele>2112.7029541574</ele>
        <time>2021-06-21T14:23:17.486Z</time>
      </trkpt>
      <trkpt lat="42.90839" lon="0.14528">
        <ele>2111.9512312496</ele>
        <time>2021-06-21T14:23:29.663Z</time>
      </trkpt>
      <trkpt lat="42.9086" lon="0.14576">
        <ele>2110.7354496767</ele>
        <time>2021-06-21T14:23:41.846Z</time>
      </trkpt>
      <trkpt lat="42.90862" lon="0.14589">
        <ele>2109.5149075331</ele>
        <time>2021-06-21T14:23:54.031Z</time>
      </trkpt>
      <trkpt lat="42.90862" lon="0.14589">
        <ele>2108.2443775471</ele>
        <time>2021-06-21T14:24:06.216Z</time>
      </trkpt>
      <trkpt lat="42.90859" lon="0.14601">
        <ele>2106.7621029085</ele>
        <time>2021-06-21T14:24:18.402Z</time>
      </trkpt>
      <trkpt lat="42.90854" lon="0.14611">
        <ele>2105.1691667518</ele>
        <time>2021-06-21T14:24:30.590Z</time>
      </trkpt>
      <trkpt lat="42.90762" lon="0.14731">
        <ele>2102.8093384471</ele>
        <time>2021-06-21T14:24:42.798Z</time>
      </trkpt>
      <trkpt lat="42.90749" lon="0.14746">
        <ele>2100.9176154651</ele>
        <time>2021-06-21T14:24:55.009Z</time>
      </trkpt>
      <trkpt lat="42.90734" lon="0.14759">
        <ele>2098.9579297812</ele>
        <time>2021-06-21T14:25:07.222Z</time>
      </trkpt>
      <trkpt lat="42.90732" lon="0.14761">
        <ele>2096.9996256544</ele>
        <time>2021-06-21T14:25:19.436Z</time>
      </trkpt>
      <trkpt lat="42.90732" lon="0.14761">
        <ele>2094.9777989082</ele>
        <time>2021-06-21T14:25:31.650Z</time>
      </trkpt>
      <trkpt lat="42.90694" lon="0.14773">
        <ele>2092.765222328</ele>
        <time>2021-06-21T14:25:43.870Z</time>
      </trkpt>
      <trkpt lat="42.9063" lon="0.1479">
        <ele>2090.6122953707</ele>
        <time>2021-06-21T14:25:56.101Z</time>
      </trkpt>
      <trkpt lat="42.90609" lon="0.14802">
        <ele>2088.3521438751</ele>
        <time>2021-06-21T14:26:08.335Z</time>
      </trkpt>
      <trkpt lat="42.90606" lon="0.14803">
        <ele>2086.065952711</ele>
        <time>2021-06-21T14:26:20.570Z</time>
      </trkpt>
      <trkpt lat="42.906" lon="0.1481">
        <ele>2083.681201029</ele>
        <time>2021-06-21T14:26:32.806Z</time>
      </trkpt>
      <trkpt lat="42.906" lon="0.14821">
        <ele>2081.191668211</ele>
        <time>2021-06-21T14:26:45.043Z</time>
      </trkpt>
      <trkpt lat="42.90604" lon="0.14828">
        <ele>2078.6698708517</ele>
        <time>2021-06-21T14:26:57.281Z</time>
      </trkpt>
      <trkpt lat="42.90609" lon="0.14829">
        <ele>2076.1824427361</ele>
        <time>2021-06-21T14:27:09.520Z</time>
      </trkpt>
      <trkpt lat="42.90614" lon="0.14832">
        <ele>2073.6490480152</ele>
        <time>2021-06-21T14:27:21.760Z</time>
      </trkpt>
      <trkpt lat="42.90639" lon="0.14819">
        <ele>2071.1699571048</ele>
        <time>2021-06-21T14:27:34.004Z</time>
      </trkpt>
      <trkpt lat="42.90654" lon="0.1482">
        <ele>2068.5693386117</ele>
        <time>2021-06-21T14:27:46.251Z</time>
      </trkpt>
      <trkpt lat="42.90672" lon="0.14825">
        <ele>2065.8869226827</ele>
        <time>2021-06-21T14:27:58.501Z</time>
      </trkpt>
      <trkpt lat="42.90705" lon="0.14849">
        <ele>2063.1182936957</ele>
        <time>2021-06-21T14:28:10.757Z</time>
      </trkpt>
      <trkpt lat="42.90725" lon="0.14866">
        <ele>2060.4058937548</ele>
        <time>2021-06-21T14:28:23.016Z</time>
      </trkpt>
      <trkpt lat="42.90725" lon="0.14866">
        <ele>2057.8573675964</ele>
        <time>2021-06-21T14:28:35.275Z</time>
      </trkpt>
      <trkpt lat="42.90739" lon="0.14874">
        <ele>2055.2377517506</ele>
        <time>2021-06-21T14:28:47.537Z</time>
      </trkpt>
      <trkpt lat="42.90772" lon="0.14872">
        <ele>2052.7579013685</ele>
        <time>2021-06-21T14:28:59.804Z</time>
      </trkpt>
      <trkpt lat="42.90799" lon="0.14888">
        <ele>2050.0862215121</ele>
        <time>2021-06-21T14:29:12.076Z</time>
      </trkpt>
      <trkpt lat="42.9082" lon="0.14891">
        <ele>2047.5523408724</ele>
        <time>2021-06-21T14:29:24.351Z</time>
      </trkpt>
      <trkpt lat="42.90842" lon="0.14888">
        <ele>2045.0923889405</ele>
        <time>2021-06-21T14:29:36.630Z</time>
      </trkpt>
      <trkpt lat="42.90861" lon="0.14892">
        <ele>2042.7223761558</ele>
        <time>2021-06-21T14:29:48.912Z</time>
      </trkpt>
      <trkpt lat="42.90867" lon="0.14901">
        <ele>2040.231596753</ele>
        <time>2021-06-21T14:30:01.195Z</time>
      </trkpt>
      <trkpt lat="42.90868" lon="0.14911">
        <ele>2037.6991048158</ele>
        <time>2021-06-21T14:30:13.479Z</time>
      </trkpt>
      <trkpt lat="42.90859" lon="0.14953">
        <ele>2034.7636484358</ele>
        <time>2021-06-21T14:30:25.769Z</time>
      </trkpt>
      <trkpt lat="42.90857" lon="0.14967">
        <ele>2032.2200628906</ele>
        <time>2021-06-21T14:30:38.060Z</time>
      </trkpt>
      <trkpt lat="42.9086" lon="0.14992">
        <ele>2029.6958263591</ele>
        <time>2021-06-21T14:30:50.354Z</time>
      </trkpt>
      <trkpt lat="42.90864" lon="0.1501">
        <ele>2027.2593508469</ele>
        <time>2021-06-21T14:31:02.650Z</time>
      </trkpt>
      <trkpt lat="42.90877" lon="0.15033">
        <ele>2024.9168295478</ele>
        <time>2021-06-21T14:31:14.950Z</time>
      </trkpt>
      <trkpt lat="42.90885" lon="0.15055">
        <ele>2022.599945058</ele>
        <time>2021-06-21T14:31:27.253Z</time>
      </trkpt>
      <trkpt lat="42.90896" lon="0.15093">
        <ele>2020.3223700558</ele>
        <time>2021-06-21T14:31:39.561Z</time>
      </trkpt>
      <trkpt lat="42.90901" lon="0.15128">
        <ele>2018.036776418</ele>
        <time>2021-06-21T14:31:51.873Z</time>
      </trkpt>
      <trkpt lat="42.90884" lon="0.1519">
        <ele>2015.5014794668</ele>
        <time>2021-06-21T14:32:04.193Z</time>
      </trkpt>
      <trkpt lat="42.90876" lon="0.15238">
        <ele>2013.1792288023</ele>
        <time>2021-06-21T14:32:16.518Z</time>
      </trkpt>
      <trkpt lat="42.90846" lon="0.15318">
        <ele>2010.756507012</ele>
        <time>2021-06-21T14:32:28.854Z</time>
      </trkpt>
      <trkpt lat="42.90841" lon="0.15336">
        <ele>2008.5564300778</ele>
        <time>2021-06-21T14:32:41.192Z</time>
      </trkpt>
      <trkpt lat="42.9084" lon="0.15351">
        <ele>2006.4405967927</ele>
        <time>2021-06-21T14:32:53.532Z</time>
      </trkpt>
      <trkpt lat="42.90841" lon="0.15366">
        <ele>2004.3882671737</ele>
        <time>2021-06-21T14:33:05.874Z</time>
      </trkpt>
      <trkpt lat="42.90847" lon="0.15388">
        <ele>2002.356973654</ele>
        <time>2021-06-21T14:33:18.218Z</time>
      </trkpt>
      <trkpt lat="42.9087" lon="0.15447">
        <ele>2000.2452550975</ele>
        <time>2021-06-21T14:33:30.570Z</time>
      </trkpt>
      <trkpt lat="42.90878" lon="0.15457">
        <ele>1998.3878189772</ele>
        <time>2021-06-21T14:33:42.924Z</time>
      </trkpt>
      <trkpt lat="42.90887" lon="0.15461">
        <ele>1996.6221507944</ele>
        <time>2021-06-21T14:33:55.280Z</time>
      </trkpt>
      <trkpt lat="42.90912" lon="0.15462">
        <ele>1995.0030818351</ele>
        <time>2021-06-21T14:34:07.640Z</time>
      </trkpt>
      <trkpt lat="42.90924" lon="0.15476">
        <ele>1993.2473831218</ele>
        <time>2021-06-21T14:34:20.002Z</time>
      </trkpt>
      <trkpt lat="42.90934" lon="0.15491">
        <ele>1991.5133173039</ele>
        <time>2021-06-21T14:34:32.366Z</time>
      </trkpt>
      <trkpt lat="42.90958" lon="0.1553">
        <ele>1989.6977713303</ele>
        <time>2021-06-21T14:34:44.736Z</time>
      </trkpt>
      <trkpt lat="42.90968" lon="0.1554">
        <ele>1988.0891951535</ele>
        <time>2021-06-21T14:34:57.108Z</time>
      </trkpt>
      <trkpt lat="42.9099" lon="0.15556">
        <ele>1986.5728265125</ele>
        <time>2021-06-21T14:35:09.484Z</time>
      </trkpt>
      <trkpt lat="42.91003" lon="0.1557">
        <ele>1985.0637494206</ele>
        <time>2021-06-21T14:35:21.863Z</time>
      </trkpt>
      <trkpt lat="42.91013" lon="0.15586">
        <ele>1983.6026953033</ele>
        <time>2021-06-21T14:35:34.244Z</time>
      </trkpt>
      <trkpt lat="42.91016" lon="0.15599">
        <ele>1982.1251703802</ele>
        <time>2021-06-21T14:35:46.627Z</time>
      </trkpt>
      <trkpt lat="42.91015" lon="0.15612">
        <ele>1980.6127877796</ele>
        <time>2021-06-21T14:35:59.012Z</time>
      </trkpt>
      <trkpt lat="42.91012" lon="0.15619">
        <ele>1979.1176893367</ele>
        <time>2021-06-21T14:36:11.398Z</time>
      </trkpt>
      <trkpt lat="42.91004" lon="0.15625">
        <ele>1977.6060041974</ele>
        <time>2021-06-21T14:36:23.785Z</time>
      </trkpt>
      <trkpt lat="42.90996" lon="0.15627">
        <ele>1976.1760455815</ele>
        <time>2021-06-21T14:36:36.173Z</time>
      </trkpt>
      <trkpt lat="42.90984" lon="0.1562">
        <ele>1974.7721039602</ele>
        <time>2021-06-21T14:36:48.563Z</time>
      </trkpt>
      <trkpt lat="42.90971" lon="0.15602">
        <ele>1973.4183475966</ele>
        <time>2021-06-21T14:37:00.956Z</time>
      </trkpt>
      <trkpt lat="42.90964" lon="0.15599">
        <ele>1972.0310984433</ele>
        <time>2021-06-21T14:37:13.351Z</time>
      </trkpt>
      <trkpt lat="42.90955" lon="0.156">
        <ele>1970.6220961727</ele>
        <time>2021-06-21T14:37:25.747Z</time>
      </trkpt>
      <trkpt lat="42.90941" lon="0.15605">
        <ele>1969.1693592807</ele>
        <time>2021-06-21T14:37:38.145Z</time>
      </trkpt>
      <trkpt lat="42.90922" lon="0.15619">
        <ele>1967.6556987177</ele>
        <time>2021-06-21T14:37:50.547Z</time>
      </trkpt>
      <trkpt lat="42.90899" lon="0.15638">
        <ele>1966.0395917236</ele>
        <time>2021-06-21T14:38:02.953Z</time>
      </trkpt>
      <trkpt lat="42.9089" lon="0.15642">
        <ele>1964.5812761197</ele>
        <time>2021-06-21T14:38:15.361Z</time>
      </trkpt>
      <trkpt lat="42.90857" lon="0.15634">
        <ele>1963.0707250262</ele>
        <time>2021-06-21T14:38:27.774Z</time>
      </trkpt>
      <trkpt lat="42.90838" lon="0.15621">
        <ele>1961.6471591152</ele>
        <time>2021-06-21T14:38:40.190Z</time>
      </trkpt>
      <trkpt lat="42.90832" lon="0.15619">
        <ele>1960.1927080976</ele>
        <time>2021-06-21T14:38:52.607Z</time>
      </trkpt>
      <trkpt lat="42.90815" lon="0.15625">
        <ele>1958.5624965086</ele>
        <time>2021-06-21T14:39:05.027Z</time>
      </trkpt>
      <trkpt lat="42.90806" lon="0.15624">
        <ele>1957.0510513661</ele>
        <time>2021-06-21T14:39:17.449Z</time>
      </trkpt>
      <trkpt lat="42.90797" lon="0.15616">
        <ele>1955.5744468376</ele>
        <time>2021-06-21T14:39:29.872Z</time>
      </trkpt>
      <trkpt lat="42.90783" lon="0.15594">
        <ele>1954.1155165823</ele>
        <time>2021-06-21T14:39:42.299Z</time>
      </trkpt>
      <trkpt lat="42.90758" lon="0.15563">
        <ele>1952.5876915926</ele>
        <time>2021-06-21T14:39:54.731Z</time>
      </trkpt>
      <trkpt lat="42.90736" lon="0.15558">
        <ele>1950.8445740021</ele>
        <time>2021-06-21T14:40:07.167Z</time>
      </trkpt>
      <trkpt lat="42.9073" lon="0.15551">
        <ele>1949.2642605325</ele>
        <time>2021-06-21T14:40:19.604Z</time>
      </trkpt>
      <trkpt lat="42.90717" lon="0.1553">
        <ele>1947.6585391349</ele>
        <time>2021-06-21T14:40:32.044Z</time>
      </trkpt>
      <trkpt lat="42.90689" lon="0.15497">
        <ele>1945.8907203021</ele>
        <time>2021-06-21T14:40:44.490Z</time>
      </trkpt>
      <trkpt lat="42.90677" lon="0.15478">
        <ele>1944.2034722128</ele>
        <time>2021-06-21T14:40:56.939Z</time>
      </trkpt>
      <trkpt lat="42.90673" lon="0.15461">
        <ele>1942.5655520075</ele>
        <time>2021-06-21T14:41:09.390Z</time>
      </trkpt>
      <trkpt lat="42.90674" lon="0.15442">
        <ele>1940.873557052</ele>
        <time>2021-06-21T14:41:21.844Z</time>
      </trkpt>
      <trkpt lat="42.90679" lon="0.15403">
        <ele>1939.1962553444</ele>
        <time>2021-06-21T14:41:34.302Z</time>
      </trkpt>
      <trkpt lat="42.90674" lon="0.15391">
        <ele>1937.333275878</ele>
        <time>2021-06-21T14:41:46.762Z</time>
      </trkpt>
      <trkpt lat="42.90666" lon="0.15387">
        <ele>1935.4081436513</ele>
        <time>2021-06-21T14:41:59.223Z</time>
      </trkpt>
      <trkpt lat="42.90663" lon="0.15389">
        <ele>1933.4550729924</ele>
        <time>2021-06-21T14:42:11.685Z</time>
      </trkpt>
      <trkpt lat="42.90658" lon="0.15396">
        <ele>1931.4243208262</ele>
        <time>2021-06-21T14:42:24.148Z</time>
      </trkpt>
      <trkpt lat="42.90653" lon="0.15408">
        <ele>1929.32871982</ele>
        <time>2021-06-21T14:42:36.612Z</time>
      </trkpt>
      <trkpt lat="42.9065" lon="0.15441">
        <ele>1927.1673027772</ele>
        <time>2021-06-21T14:42:49.080Z</time>
      </trkpt>
      <trkpt lat="42.90651" lon="0.1551">
        <ele>1924.6711743682</ele>
        <time>2021-06-21T14:43:01.556Z</time>
      </trkpt>
      <trkpt lat="42.90654" lon="0.15525">
        <ele>1922.3814074765</ele>
        <time>2021-06-21T14:43:14.034Z</time>
      </trkpt>
      <trkpt lat="42.90657" lon="0.15538">
        <ele>1920.0498915851</ele>
        <time>2021-06-21T14:43:26.514Z</time>
      </trkpt>
      <trkpt lat="42.90662" lon="0.15555">
        <ele>1917.636934885</ele>
        <time>2021-06-21T14:43:38.996Z</time>
      </trkpt>
      <trkpt lat="42.90665" lon="0.15591">
        <ele>1914.9818849926</ele>
        <time>2021-06-21T14:43:51.482Z</time>
      </trkpt>
      <trkpt lat="42.90671" lon="0.15613">
        <ele>1912.4093837784</ele>
        <time>2021-06-21T14:44:03.971Z</time>
      </trkpt>
      <trkpt lat="42.90683" lon="0.15651">
        <ele>1909.7433548011</ele>
        <time>2021-06-21T14:44:16.465Z</time>
      </trkpt>
      <trkpt lat="42.90695" lon="0.15689">
        <ele>1907.0598320938</ele>
        <time>2021-06-21T14:44:28.964Z</time>
      </trkpt>
      <trkpt lat="42.90723" lon="0.15735">
        <ele>1904.3999531018</ele>
        <time>2021-06-21T14:44:41.470Z</time>
      </trkpt>
      <trkpt lat="42.90723" lon="0.15735">
        <ele>1901.7361135764</ele>
        <time>2021-06-21T14:44:53.976Z</time>
      </trkpt>
      <trkpt lat="42.90729" lon="0.15748">
        <ele>1898.9804067998</ele>
        <time>2021-06-21T14:45:06.484Z</time>
      </trkpt>
      <trkpt lat="42.90737" lon="0.15776">
        <ele>1896.0938910386</ele>
        <time>2021-06-21T14:45:18.995Z</time>
      </trkpt>
      <trkpt lat="42.90745" lon="0.15792">
        <ele>1893.2462073913</ele>
        <time>2021-06-21T14:45:31.508Z</time>
      </trkpt>
      <trkpt lat="42.90754" lon="0.15807">
        <ele>1890.3581458292</ele>
        <time>2021-06-21T14:45:44.024Z</time>
      </trkpt>
      <trkpt lat="42.90763" lon="0.15816">
        <ele>1887.4885274433</ele>
        <time>2021-06-21T14:45:56.542Z</time>
      </trkpt>
      <trkpt lat="42.90778" lon="0.15844">
        <ele>1884.4506345135</ele>
        <time>2021-06-21T14:46:09.064Z</time>
      </trkpt>
      <trkpt lat="42.90797" lon="0.15873">
        <ele>1881.4303413831</ele>
        <time>2021-06-21T14:46:21.590Z</time>
      </trkpt>
      <trkpt lat="42.90826" lon="0.1591">
        <ele>1878.5387341684</ele>
        <time>2021-06-21T14:46:34.123Z</time>
      </trkpt>
      <trkpt lat="42.90852" lon="0.15969">
        <ele>1875.4500993837</ele>
        <time>2021-06-21T14:46:46.664Z</time>
      </trkpt>
      <trkpt lat="42.90872" lon="0.16092">
        <ele>1872.0277806761</ele>
        <time>2021-06-21T14:46:59.219Z</time>
      </trkpt>
      <trkpt lat="42.90891" lon="0.16169">
        <ele>1868.7383439568</ele>
        <time>2021-06-21T14:47:11.784Z</time>
      </trkpt>
      <trkpt lat="42.90901" lon="0.16208">
        <ele>1865.6680264106</ele>
        <time>2021-06-21T14:47:24.354Z</time>
      </trkpt>
      <trkpt lat="42.90915" lon="0.16243">
        <ele>1862.6774658305</ele>
        <time>2021-06-21T14:47:36.929Z</time>
      </trkpt>
      <trkpt lat="42.90938" lon="0.16293">
        <ele>1859.7822927215</ele>
        <time>2021-06-21T14:47:49.510Z</time>
      </trkpt>
      <trkpt lat="42.90945" lon="0.16317">
        <ele>1856.879613851</ele>
        <time>2021-06-21T14:48:02.095Z</time>
      </trkpt>
      <trkpt lat="42.90951" lon="0.16371">
        <ele>1853.8131568041</ele>
        <time>2021-06-21T14:48:14.686Z</time>
      </trkpt>
      <trkpt lat="42.90963" lon="0.16418">
        <ele>1851.1004378519</ele>
        <time>2021-06-21T14:48:27.283Z</time>
      </trkpt>
      <trkpt lat="42.90963" lon="0.16452">
        <ele>1848.1876521229</ele>
        <time>2021-06-21T14:48:39.884Z</time>
      </trkpt>
      <trkpt lat="42.90956" lon="0.16495">
        <ele>1845.2350326717</ele>
        <time>2021-06-21T14:48:52.490Z</time>
      </trkpt>
      <trkpt lat="42.90955" lon="0.16535">
        <ele>1842.4931234444</ele>
        <time>2021-06-21T14:49:05.101Z</time>
      </trkpt>
      <trkpt lat="42.90945" lon="0.16577">
        <ele>1839.6106530548</ele>
        <time>2021-06-21T14:49:17.717Z</time>
      </trkpt>
      <trkpt lat="42.90942" lon="0.16602">
        <ele>1836.9620944773</ele>
        <time>2021-06-21T14:49:30.336Z</time>
      </trkpt>
      <trkpt lat="42.90941" lon="0.16626">
        <ele>1834.4071598202</ele>
        <time>2021-06-21T14:49:42.958Z</time>
      </trkpt>
      <trkpt lat="42.90944" lon="0.16727">
        <ele>1831.4902018271</ele>
        <time>2021-06-21T14:49:55.592Z</time>
      </trkpt>
      <trkpt lat="42.90952" lon="0.16763">
        <ele>1828.9687841977</ele>
        <time>2021-06-21T14:50:08.230Z</time>
      </trkpt>
      <trkpt lat="42.90958" lon="0.16778">
        <ele>1826.6316250313</ele>
        <time>2021-06-21T14:50:20.870Z</time>
      </trkpt>
      <trkpt lat="42.9098" lon="0.16819">
        <ele>1824.3331790608</ele>
        <time>2021-06-21T14:50:33.516Z</time>
      </trkpt>
      <trkpt lat="42.90988" lon="0.16853">
        <ele>1821.9627150515</ele>
        <time>2021-06-21T14:50:46.166Z</time>
      </trkpt>
      <trkpt lat="42.90997" lon="0.16883">
        <ele>1819.7540630367</ele>
        <time>2021-06-21T14:50:58.820Z</time>
      </trkpt>
      <trkpt lat="42.91017" lon="0.16934">
        <ele>1817.798507909</ele>
        <time>2021-06-21T14:51:11.481Z</time>
      </trkpt>
      <trkpt lat="42.91021" lon="0.16947">
        <ele>1815.8455729354</ele>
        <time>2021-06-21T14:51:24.143Z</time>
      </trkpt>
      <trkpt lat="42.91021" lon="0.16947">
        <ele>1813.9635915748</ele>
        <time>2021-06-21T14:51:36.805Z</time>
      </trkpt>
      <trkpt lat="42.91023" lon="0.16966">
        <ele>1812.1299617384</ele>
        <time>2021-06-21T14:51:49.469Z</time>
      </trkpt>
      <trkpt lat="42.91024" lon="0.16981">
        <ele>1810.3530190711</ele>
        <time>2021-06-21T14:52:02.135Z</time>
      </trkpt>
      <trkpt lat="42.91024" lon="0.16993">
        <ele>1808.6122092494</ele>
        <time>2021-06-21T14:52:14.803Z</time>
      </trkpt>
      <trkpt lat="42.91025" lon="0.17013">
        <ele>1806.9188373348</ele>
        <time>2021-06-21T14:52:27.473Z</time>
      </trkpt>
      <trkpt lat="42.91026" lon="0.17032">
        <ele>1805.293246975</ele>
        <time>2021-06-21T14:52:40.145Z</time>
      </trkpt>
      <trkpt lat="42.91026" lon="0.1705">
        <ele>1803.7343413062</ele>
        <time>2021-06-21T14:52:52.819Z</time>
      </trkpt>
      <trkpt lat="42.91027" lon="0.17069">
        <ele>1802.2834428227</ele>
        <time>2021-06-21T14:53:05.496Z</time>
      </trkpt>
      <trkpt lat="42.91028" lon="0.17091">
        <ele>1800.9003064303</ele>
        <time>2021-06-21T14:53:18.175Z</time>
      </trkpt>
      <trkpt lat="42.91028" lon="0.17108">
        <ele>1799.5756509706</ele>
        <time>2021-06-21T14:53:30.856Z</time>
      </trkpt>
      <trkpt lat="42.91028" lon="0.17128">
        <ele>1798.3005307808</ele>
        <time>2021-06-21T14:53:43.540Z</time>
      </trkpt>
      <trkpt lat="42.91028" lon="0.17147">
        <ele>1797.0774946172</ele>
        <time>2021-06-21T14:53:56.226Z</time>
      </trkpt>
      <trkpt lat="42.91028" lon="0.17165">
        <ele>1795.9278168471</ele>
        <time>2021-06-21T14:54:08.914Z</time>
      </trkpt>
      <trkpt lat="42.91028" lon="0.17182">
        <ele>1794.8274039098</ele>
        <time>2021-06-21T14:54:21.604Z</time>
      </trkpt>
      <trkpt lat="42.91027" lon="0.172">
        <ele>1793.7531572867</ele>
        <time>2021-06-21T14:54:34.296Z</time>
      </trkpt>
      <trkpt lat="42.91027" lon="0.17211">
        <ele>1792.7390811809</ele>
        <time>2021-06-21T14:54:46.989Z</time>
      </trkpt>
      <trkpt lat="42.91027" lon="0.1722">
        <ele>1791.725454663</ele>
        <time>2021-06-21T14:54:59.683Z</time>
      </trkpt>
      <trkpt lat="42.91026" lon="0.17236">
        <ele>1790.7040168922</ele>
        <time>2021-06-21T14:55:12.379Z</time>
      </trkpt>
      <trkpt lat="42.91026" lon="0.17236">
        <ele>1789.7902996457</ele>
        <time>2021-06-21T14:55:25.075Z</time>
      </trkpt>
      <trkpt lat="42.91025" lon="0.17255">
        <ele>1788.8431524567</ele>
        <time>2021-06-21T14:55:37.774Z</time>
      </trkpt>
      <trkpt lat="42.91025" lon="0.17273">
        <ele>1787.9243568822</ele>
        <time>2021-06-21T14:55:50.475Z</time>
      </trkpt>
      <trkpt lat="42.91025" lon="0.17293">
        <ele>1787.0152070354</ele>
        <time>2021-06-21T14:56:03.178Z</time>
      </trkpt>
      <trkpt lat="42.91026" lon="0.17312">
        <ele>1786.1238258062</ele>
        <time>2021-06-21T14:56:15.883Z</time>
      </trkpt>
      <trkpt lat="42.91028" lon="0.1733">
        <ele>1785.2552114756</ele>
        <time>2021-06-21T14:56:28.590Z</time>
      </trkpt>
      <trkpt lat="42.91032" lon="0.17346">
        <ele>1784.4095967385</ele>
        <time>2021-06-21T14:56:41.299Z</time>
      </trkpt>
      <trkpt lat="42.91038" lon="0.17362">
        <ele>1783.5690018717</ele>
        <time>2021-06-21T14:56:54.011Z</time>
      </trkpt>
      <trkpt lat="42.91043" lon="0.17381">
        <ele>1782.707375177</ele>
        <time>2021-06-21T14:57:06.725Z</time>
      </trkpt>
      <trkpt lat="42.91048" lon="0.17399">
        <ele>1781.7848358364</ele>
        <time>2021-06-21T14:57:19.441Z</time>
      </trkpt>
      <trkpt lat="42.91052" lon="0.17418">
        <ele>1780.8235355519</ele>
        <time>2021-06-21T14:57:32.160Z</time>
      </trkpt>
      <trkpt lat="42.91055" lon="0.17438">
        <ele>1779.8660088357</ele>
        <time>2021-06-21T14:57:44.881Z</time>
      </trkpt>
      <trkpt lat="42.91055" lon="0.17458">
        <ele>1778.8713739309</ele>
        <time>2021-06-21T14:57:57.604Z</time>
      </trkpt>
      <trkpt lat="42.91056" lon="0.17477">
        <ele>1777.8511525322</ele>
        <time>2021-06-21T14:58:10.330Z</time>
      </trkpt>
      <trkpt lat="42.91056" lon="0.17497">
        <ele>1776.7972357345</ele>
        <time>2021-06-21T14:58:23.058Z</time>
      </trkpt>
      <trkpt lat="42.91056" lon="0.17516">
        <ele>1775.7211421577</ele>
        <time>2021-06-21T14:58:35.788Z</time>
      </trkpt>
      <trkpt lat="42.91055" lon="0.17535">
        <ele>1774.6186628214</ele>
        <time>2021-06-21T14:58:48.520Z</time>
      </trkpt>
      <trkpt lat="42.91055" lon="0.17555">
        <ele>1773.5008104197</ele>
        <time>2021-06-21T14:59:01.255Z</time>
      </trkpt>
      <trkpt lat="42.91054" lon="0.1756">
        <ele>1772.3972375649</ele>
        <time>2021-06-21T14:59:13.990Z</time>
      </trkpt>
      <trkpt lat="42.91054" lon="0.17574">
        <ele>1771.2448032022</ele>
        <time>2021-06-21T14:59:26.727Z</time>
      </trkpt>
      <trkpt lat="42.91056" lon="0.17593">
        <ele>1770.0599394023</ele>
        <time>2021-06-21T14:59:39.466Z</time>
      </trkpt>
      <trkpt lat="42.91059" lon="0.1761">
        <ele>1768.84702343</ele>
        <time>2021-06-21T14:59:52.207Z</time>
      </trkpt>
      <trkpt lat="42.91059" lon="0.1761">
        <ele>1767.6508160447</ele>
        <time>2021-06-21T15:00:04.948Z</time>
      </trkpt>
      <trkpt lat="42.91075" lon="0.17663">
        <ele>1766.2630361549</ele>
        <time>2021-06-21T15:00:17.696Z</time>
      </trkpt>
      <trkpt lat="42.91092" lon="0.17711">
        <ele>1764.8611061842</ele>
        <time>2021-06-21T15:00:30.450Z</time>
      </trkpt>
      <trkpt lat="42.911" lon="0.17735">
        <ele>1763.5537569424</ele>
        <time>2021-06-21T15:00:43.207Z</time>
      </trkpt>
      <trkpt lat="42.91104" lon="0.17763">
        <ele>1762.1810862015</ele>
        <time>2021-06-21T15:00:55.968Z</time>
      </trkpt>
      <trkpt lat="42.91107" lon="0.17827">
        <ele>1760.7360514081</ele>
        <time>2021-06-21T15:01:08.736Z</time>
      </trkpt>
      <trkpt lat="42.91105" lon="0.17855">
        <ele>1759.4084350016</ele>
        <time>2021-06-21T15:01:21.508Z</time>
      </trkpt>
      <trkpt lat="42.91101" lon="0.17868">
        <ele>1758.0151512487</ele>
        <time>2021-06-21T15:01:34.281Z</time>
      </trkpt>
      <trkpt lat="42.91098" lon="0.17877">
        <ele>1756.5936885335</ele>
        <time>2021-06-21T15:01:47.055Z</time>
      </trkpt>
      <trkpt lat="42.91087" lon="0.17889">
        <ele>1755.0868397678</ele>
        <time>2021-06-21T15:01:59.832Z</time>
      </trkpt>
      <trkpt lat="42.9108" lon="0.17896">
        <ele>1753.5722595251</ele>
        <time>2021-06-21T15:02:12.610Z</time>
      </trkpt>
      <trkpt lat="42.9108" lon="0.17896">
        <ele>1752.0683882144</ele>
        <time>2021-06-21T15:02:25.388Z</time>
      </trkpt>
      <trkpt lat="42.91036" lon="0.17916">
        <ele>1750.3040523959</ele>
        <time>2021-06-21T15:02:38.174Z</time>
      </trkpt>
      <trkpt lat="42.91024" lon="0.17923">
        <ele>1748.6447815586</ele>
        <time>2021-06-21T15:02:50.962Z</time>
      </trkpt>
      <trkpt lat="42.91014" lon="0.17938">
        <ele>1746.9520212206</ele>
        <time>2021-06-21T15:03:03.752Z</time>
      </trkpt>
      <trkpt lat="42.91013" lon="0.17939">
        <ele>1745.3456061185</ele>
        <time>2021-06-21T15:03:16.542Z</time>
      </trkpt>
      <trkpt lat="42.91008" lon="0.17953">
        <ele>1743.6478322447</ele>
        <time>2021-06-21T15:03:29.334Z</time>
      </trkpt>
      <trkpt lat="42.91004" lon="0.17975">
        <ele>1741.974844876</ele>
        <time>2021-06-21T15:03:42.129Z</time>
      </trkpt>
      <trkpt lat="42.91008" lon="0.18002">
        <ele>1740.2979696896</ele>
        <time>2021-06-21T15:03:54.927Z</time>
      </trkpt>
      <trkpt lat="42.91024" lon="0.18096">
        <ele>1738.4512836039</ele>
        <time>2021-06-21T15:04:07.736Z</time>
      </trkpt>
      <trkpt lat="42.91026" lon="0.18107">
        <ele>1736.7461353207</ele>
        <time>2021-06-21T15:04:20.547Z</time>
      </trkpt>
      <trkpt lat="42.9104" lon="0.18144">
        <ele>1734.8992444417</ele>
        <time>2021-06-21T15:04:33.362Z</time>
      </trkpt>
      <trkpt lat="42.91055" lon="0.18179">
        <ele>1732.9985693963</ele>
        <time>2021-06-21T15:04:46.182Z</time>
      </trkpt>
      <trkpt lat="42.91086" lon="0.18228">
        <ele>1731.1304603971</ele>
        <time>2021-06-21T15:04:59.010Z</time>
      </trkpt>
      <trkpt lat="42.91093" lon="0.18243">
        <ele>1729.3776353906</ele>
        <time>2021-06-21T15:05:11.840Z</time>
      </trkpt>
      <trkpt lat="42.91111" lon="0.18303">
        <ele>1727.6656113001</ele>
        <time>2021-06-21T15:05:24.678Z</time>
      </trkpt>
      <trkpt lat="42.91127" lon="0.18348">
        <ele>1725.9318517819</ele>
        <time>2021-06-21T15:05:37.521Z</time>
      </trkpt>
      <trkpt lat="42.91133" lon="0.18359">
        <ele>1724.129302301</ele>
        <time>2021-06-21T15:05:50.366Z</time>
      </trkpt>
      <trkpt lat="42.91142" lon="0.18368">
        <ele>1722.2752975425</ele>
        <time>2021-06-21T15:06:03.213Z</time>
      </trkpt>
      <trkpt lat="42.9117" lon="0.18402">
        <ele>1720.3367446409</ele>
        <time>2021-06-21T15:06:16.066Z</time>
      </trkpt>
      <trkpt lat="42.91179" lon="0.1841">
        <ele>1718.4750641857</ele>
        <time>2021-06-21T15:06:28.921Z</time>
      </trkpt>
      <trkpt lat="42.91195" lon="0.18416">
        <ele>1716.5244698869</ele>
        <time>2021-06-21T15:06:41.778Z</time>
      </trkpt>
      <trkpt lat="42.9122" lon="0.18418">
        <ele>1714.4255787151</ele>
        <time>2021-06-21T15:06:54.639Z</time>
      </trkpt>
      <trkpt lat="42.9124" lon="0.18426">
        <ele>1712.3982985307</ele>
        <time>2021-06-21T15:07:07.504Z</time>
      </trkpt>
      <trkpt lat="42.91261" lon="0.18442">
        <ele>1710.3936869951</ele>
        <time>2021-06-21T15:07:20.372Z</time>
      </trkpt>
      <trkpt lat="42.91282" lon="0.18465">
        <ele>1708.3048527626</ele>
        <time>2021-06-21T15:07:33.245Z</time>
      </trkpt>
      <trkpt lat="42.91294" lon="0.18486">
        <ele>1706.3169867661</ele>
        <time>2021-06-21T15:07:46.121Z</time>
      </trkpt>
      <trkpt lat="42.91301" lon="0.18501">
        <ele>1704.3548320029</ele>
        <time>2021-06-21T15:07:58.999Z</time>
      </trkpt>
      <trkpt lat="42.91327" lon="0.18582">
        <ele>1702.4811594343</ele>
        <time>2021-06-21T15:08:11.887Z</time>
      </trkpt>
      <trkpt lat="42.91336" lon="0.18612">
        <ele>1700.5156885275</ele>
        <time>2021-06-21T15:08:24.779Z</time>
      </trkpt>
      <trkpt lat="42.91336" lon="0.18612">
        <ele>1698.4343917725</ele>
        <time>2021-06-21T15:08:37.671Z</time>
      </trkpt>
      <trkpt lat="42.91346" lon="0.18645">
        <ele>1696.5417930934</ele>
        <time>2021-06-21T15:08:50.567Z</time>
      </trkpt>
      <trkpt lat="42.91351" lon="0.18653">
        <ele>1694.4072120922</ele>
        <time>2021-06-21T15:09:03.465Z</time>
      </trkpt>
      <trkpt lat="42.9136" lon="0.18659">
        <ele>1692.0936359756</ele>
        <time>2021-06-21T15:09:16.364Z</time>
      </trkpt>
      <trkpt lat="42.9137" lon="0.18662">
        <ele>1689.6316662354</ele>
        <time>2021-06-21T15:09:29.265Z</time>
      </trkpt>
      <trkpt lat="42.91411" lon="0.18656">
        <ele>1686.5174213951</ele>
        <time>2021-06-21T15:09:42.172Z</time>
      </trkpt>
      <trkpt lat="42.91424" lon="0.18656">
        <ele>1683.8211954601</ele>
        <time>2021-06-21T15:09:55.081Z</time>
      </trkpt>
      <trkpt lat="42.91435" lon="0.18662">
        <ele>1681.1831013335</ele>
        <time>2021-06-21T15:10:07.992Z</time>
      </trkpt>
      <trkpt lat="42.91472" lon="0.18684">
        <ele>1678.4086574709</ele>
        <time>2021-06-21T15:10:20.910Z</time>
      </trkpt>
      <trkpt lat="42.91508" lon="0.18711">
        <ele>1675.6392639948</ele>
        <time>2021-06-21T15:10:33.834Z</time>
      </trkpt>
      <trkpt lat="42.91516" lon="0.18715">
        <ele>1672.6826446916</ele>
        <time>2021-06-21T15:10:46.760Z</time>
      </trkpt>
      <trkpt lat="42.91525" lon="0.18716">
        <ele>1669.5961601209</ele>
        <time>2021-06-21T15:10:59.687Z</time>
      </trkpt>
      <trkpt lat="42.91567" lon="0.18712">
        <ele>1665.8745871515</ele>
        <time>2021-06-21T15:11:12.621Z</time>
      </trkpt>
      <trkpt lat="42.91576" lon="0.18716">
        <ele>1662.5955989338</ele>
        <time>2021-06-21T15:11:25.557Z</time>
      </trkpt>
      <trkpt lat="42.91585" lon="0.18722">
        <ele>1659.2357837044</ele>
        <time>2021-06-21T15:11:38.494Z</time>
      </trkpt>
      <trkpt lat="42.91596" lon="0.18733">
        <ele>1655.7861331376</ele>
        <time>2021-06-21T15:11:51.433Z</time>
      </trkpt>
      <trkpt lat="42.91603" lon="0.18743">
        <ele>1652.2705971529</ele>
        <time>2021-06-21T15:12:04.374Z</time>
      </trkpt>
      <trkpt lat="42.91612" lon="0.18765">
        <ele>1648.7193910286</ele>
        <time>2021-06-21T15:12:17.318Z</time>
      </trkpt>
      <trkpt lat="42.91629" lon="0.18797">
        <ele>1645.030197323</ele>
        <time>2021-06-21T15:12:30.266Z</time>
      </trkpt>
      <trkpt lat="42.91641" lon="0.1881">
        <ele>1641.1533337453</ele>
        <time>2021-06-21T15:12:43.217Z</time>
      </trkpt>
      <trkpt lat="42.91686" lon="0.18855">
        <ele>1637.0769628657</ele>
        <time>2021-06-21T15:12:56.177Z</time>
      </trkpt>
      <trkpt lat="42.91721" lon="0.18886">
        <ele>1632.7989682505</ele>
        <time>2021-06-21T15:13:09.144Z</time>
      </trkpt>
      <trkpt lat="42.91757" lon="0.18922">
        <ele>1628.4306951671</ele>
        <time>2021-06-21T15:13:22.118Z</time>
      </trkpt>
      <trkpt lat="42.91784" lon="0.18959">
        <ele>1623.9304269984</ele>
        <time>2021-06-21T15:13:35.098Z</time>
      </trkpt>
      <trkpt lat="42.91816" lon="0.18996">
        <ele>1619.0733514484</ele>
        <time>2021-06-21T15:13:48.085Z</time>
      </trkpt>
      <trkpt lat="42.9185" lon="0.19028">
        <ele>1614.0565629607</ele>
        <time>2021-06-21T15:14:01.078Z</time>
      </trkpt>
      <trkpt lat="42.9185" lon="0.19028">
        <ele>1609.2724790312</ele>
        <time>2021-06-21T15:14:14.071Z</time>
      </trkpt>
      <trkpt lat="42.91923" lon="0.19097">
        <ele>1603.9473205675</ele>
        <time>2021-06-21T15:14:27.078Z</time>
      </trkpt>
      <trkpt lat="42.91943" lon="0.1913">
        <ele>1598.8593817295</ele>
        <time>2021-06-21T15:14:40.090Z</time>
      </trkpt>
      <trkpt lat="42.91957" lon="0.1916">
        <ele>1593.5153193095</ele>
        <time>2021-06-21T15:14:53.107Z</time>
      </trkpt>
      <trkpt lat="42.91961" lon="0.19178">
        <ele>1588.2481018421</ele>
        <time>2021-06-21T15:15:06.126Z</time>
      </trkpt>
      <trkpt lat="42.91965" lon="0.19193">
        <ele>1582.9033322854</ele>
        <time>2021-06-21T15:15:19.147Z</time>
      </trkpt>
      <trkpt lat="42.91969" lon="0.19241">
        <ele>1577.2454151727</ele>
        <time>2021-06-21T15:15:32.173Z</time>
      </trkpt>
      <trkpt lat="42.91971" lon="0.1934">
        <ele>1571.5409892039</ele>
        <time>2021-06-21T15:15:45.211Z</time>
      </trkpt>
      <trkpt lat="42.91979" lon="0.1941">
        <ele>1565.8632731106</ele>
        <time>2021-06-21T15:15:58.257Z</time>
      </trkpt>
      <trkpt lat="42.91995" lon="0.19467">
        <ele>1560.0236037561</ele>
        <time>2021-06-21T15:16:11.311Z</time>
      </trkpt>
      <trkpt lat="42.92057" lon="0.19632">
        <ele>1554.067754007</ele>
        <time>2021-06-21T15:16:24.386Z</time>
      </trkpt>
      <trkpt lat="42.92079" lon="0.19688">
        <ele>1548.3642566359</ele>
        <time>2021-06-21T15:16:37.469Z</time>
      </trkpt>
      <trkpt lat="42.92166" lon="0.19864">
        <ele>1542.1077814537</ele>
        <time>2021-06-21T15:16:50.577Z</time>
      </trkpt>
      <trkpt lat="42.92236" lon="0.20036">
        <ele>1535.4478553104</ele>
        <time>2021-06-21T15:17:03.708Z</time>
      </trkpt>
      <trkpt lat="42.92243" lon="0.20063">
        <ele>1529.3662852871</ele>
        <time>2021-06-21T15:17:16.842Z</time>
      </trkpt>
      <trkpt lat="42.92246" lon="0.20094">
        <ele>1523.2380821728</ele>
        <time>2021-06-21T15:17:29.980Z</time>
      </trkpt>
      <trkpt lat="42.92245" lon="0.2011">
        <ele>1517.4202817418</ele>
        <time>2021-06-21T15:17:43.120Z</time>
      </trkpt>
      <trkpt lat="42.9224" lon="0.20129">
        <ele>1511.7039699208</ele>
        <time>2021-06-21T15:17:56.262Z</time>
      </trkpt>
      <trkpt lat="42.92189" lon="0.20281">
        <ele>1505.7306751035</ele>
        <time>2021-06-21T15:18:09.424Z</time>
      </trkpt>
      <trkpt lat="42.92172" lon="0.20345">
        <ele>1499.7937022217</ele>
        <time>2021-06-21T15:18:22.594Z</time>
      </trkpt>
      <trkpt lat="42.92161" lon="0.20368">
        <ele>1494.3195474392</ele>
        <time>2021-06-21T15:18:35.767Z</time>
      </trkpt>
      <trkpt lat="42.92133" lon="0.20414">
        <ele>1488.9357006421</ele>
        <time>2021-06-21T15:18:48.947Z</time>
      </trkpt>
      <trkpt lat="42.92099" lon="0.20463">
        <ele>1483.5054386499</ele>
        <time>2021-06-21T15:19:02.135Z</time>
      </trkpt>
      <trkpt lat="42.92058" lon="0.2051">
        <ele>1478.2059810871</ele>
        <time>2021-06-21T15:19:15.332Z</time>
      </trkpt>
      <trkpt lat="42.92039" lon="0.20536">
        <ele>1473.0850593435</ele>
        <time>2021-06-21T15:19:28.533Z</time>
      </trkpt>
      <trkpt lat="42.92001" lon="0.20569">
        <ele>1468.2158579403</ele>
        <time>2021-06-21T15:19:41.741Z</time>
      </trkpt>
      <trkpt lat="42.91988" lon="0.20589">
        <ele>1463.36628107</ele>
        <time>2021-06-21T15:19:54.952Z</time>
      </trkpt>
      <trkpt lat="42.91966" lon="0.20628">
        <ele>1458.4932225455</ele>
        <time>2021-06-21T15:20:08.169Z</time>
      </trkpt>
      <trkpt lat="42.91926" lon="0.20685">
        <ele>1453.6900427683</ele>
        <time>2021-06-21T15:20:21.395Z</time>
      </trkpt>
      <trkpt lat="42.91896" lon="0.20725">
        <ele>1449.1326798875</ele>
        <time>2021-06-21T15:20:34.628Z</time>
      </trkpt>
      <trkpt lat="42.91806" lon="0.20816">
        <ele>1444.5044489076</ele>
        <time>2021-06-21T15:20:47.879Z</time>
      </trkpt>
      <trkpt lat="42.91725" lon="0.20893">
        <ele>1439.990221768</ele>
        <time>2021-06-21T15:21:01.146Z</time>
      </trkpt>
      <trkpt lat="42.91715" lon="0.20907">
        <ele>1435.9905761724</ele>
        <time>2021-06-21T15:21:14.415Z</time>
      </trkpt>
      <trkpt lat="42.91706" lon="0.20916">
        <ele>1432.1701680334</ele>
        <time>2021-06-21T15:21:27.686Z</time>
      </trkpt>
      <trkpt lat="42.917" lon="0.20924">
        <ele>1428.4939475929</ele>
        <time>2021-06-21T15:21:40.958Z</time>
      </trkpt>
      <trkpt lat="42.91696" lon="0.20935">
        <ele>1424.9224823011</ele>
        <time>2021-06-21T15:21:54.231Z</time>
      </trkpt>
      <trkpt lat="42.91696" lon="0.20945">
        <ele>1421.4697536718</ele>
        <time>2021-06-21T15:22:07.506Z</time>
      </trkpt>
      <trkpt lat="42.91698" lon="0.20948">
        <ele>1418.1733167581</ele>
        <time>2021-06-21T15:22:20.781Z</time>
      </trkpt>
      <trkpt lat="42.91704" lon="0.20956">
        <ele>1414.9399235119</ele>
        <time>2021-06-21T15:22:34.057Z</time>
      </trkpt>
      <trkpt lat="42.9171" lon="0.20957">
        <ele>1411.8551151002</ele>
        <time>2021-06-21T15:22:47.334Z</time>
      </trkpt>
      <trkpt lat="42.91717" lon="0.20956">
        <ele>1408.8859997278</ele>
        <time>2021-06-21T15:23:00.612Z</time>
      </trkpt>
      <trkpt lat="42.91725" lon="0.2095">
        <ele>1406.0255325514</ele>
        <time>2021-06-21T15:23:13.892Z</time>
      </trkpt>
      <trkpt lat="42.91785" lon="0.20889">
        <ele>1403.3114448476</ele>
        <time>2021-06-21T15:23:27.184Z</time>
      </trkpt>
      <trkpt lat="42.91806" lon="0.20864">
        <ele>1400.6490083266</ele>
        <time>2021-06-21T15:23:40.480Z</time>
      </trkpt>
      <trkpt lat="42.91825" lon="0.2085">
        <ele>1398.0376947242</ele>
        <time>2021-06-21T15:23:53.780Z</time>
      </trkpt>
      <trkpt lat="42.91852" lon="0.20849">
        <ele>1395.2493366166</ele>
        <time>2021-06-21T15:24:07.084Z</time>
      </trkpt>
      <trkpt lat="42.91862" lon="0.20853">
        <ele>1392.6497683636</ele>
        <time>2021-06-21T15:24:20.390Z</time>
      </trkpt>
      <trkpt lat="42.91877" lon="0.20853">
        <ele>1390.1156864099</ele>
        <time>2021-06-21T15:24:33.698Z</time>
      </trkpt>
      <trkpt lat="42.91882" lon="0.20853">
        <ele>1387.6813071696</ele>
        <time>2021-06-21T15:24:47.007Z</time>
      </trkpt>
      <trkpt lat="42.91888" lon="0.20849">
        <ele>1385.3253943382</ele>
        <time>2021-06-21T15:25:00.317Z</time>
      </trkpt>
      <trkpt lat="42.9196" lon="0.20798">
        <ele>1382.570931654</ele>
        <time>2021-06-21T15:25:13.640Z</time>
      </trkpt>
      <trkpt lat="42.92002" lon="0.20759">
        <ele>1380.1522459653</ele>
        <time>2021-06-21T15:25:26.971Z</time>
      </trkpt>
      <trkpt lat="42.92028" lon="0.20743">
        <ele>1377.7625059208</ele>
        <time>2021-06-21T15:25:40.307Z</time>
      </trkpt>
      <trkpt lat="42.92079" lon="0.20705">
        <ele>1375.2767260148</ele>
        <time>2021-06-21T15:25:53.652Z</time>
      </trkpt>
      <trkpt lat="42.92093" lon="0.20696">
        <ele>1372.9648123817</ele>
        <time>2021-06-21T15:26:07.000Z</time>
      </trkpt>
      <trkpt lat="42.92162" lon="0.20659">
        <ele>1370.3574847529</ele>
        <time>2021-06-21T15:26:20.359Z</time>
      </trkpt>
      <trkpt lat="42.92223" lon="0.20598">
        <ele>1368.2852321466</ele>
        <time>2021-06-21T15:26:33.730Z</time>
      </trkpt>
      <trkpt lat="42.9228" lon="0.20573">
        <ele>1365.59415887</ele>
        <time>2021-06-21T15:26:47.111Z</time>
      </trkpt>
      <trkpt lat="42.92288" lon="0.20565">
        <ele>1363.3673521295</ele>
        <time>2021-06-21T15:27:00.494Z</time>
      </trkpt>
      <trkpt lat="42.92294" lon="0.20558">
        <ele>1361.1398207572</ele>
        <time>2021-06-21T15:27:13.878Z</time>
      </trkpt>
      <trkpt lat="42.92325" lon="0.20503">
        <ele>1359.0824575515</ele>
        <time>2021-06-21T15:27:27.270Z</time>
      </trkpt>
      <trkpt lat="42.92356" lon="0.2046">
        <ele>1356.6831349622</ele>
        <time>2021-06-21T15:27:40.669Z</time>
      </trkpt>
      <trkpt lat="42.92427" lon="0.20317">
        <ele>1354.1420470256</ele>
        <time>2021-06-21T15:27:54.088Z</time>
      </trkpt>
      <trkpt lat="42.92434" lon="0.20297">
        <ele>1351.9651703792</ele>
        <time>2021-06-21T15:28:07.510Z</time>
      </trkpt>
      <trkpt lat="42.92441" lon="0.20254">
        <ele>1349.7735243094</ele>
        <time>2021-06-21T15:28:20.937Z</time>
      </trkpt>
      <trkpt lat="42.92459" lon="0.20127">
        <ele>1347.2899049903</ele>
        <time>2021-06-21T15:28:34.379Z</time>
      </trkpt>
      <trkpt lat="42.92471" lon="0.20072">
        <ele>1344.9721813077</ele>
        <time>2021-06-21T15:28:47.828Z</time>
      </trkpt>
      <trkpt lat="42.92479" lon="0.19943">
        <ele>1342.462439257</ele>
        <time>2021-06-21T15:29:01.292Z</time>
      </trkpt>
      <trkpt lat="42.92479" lon="0.19864">
        <ele>1339.951861342</ele>
        <time>2021-06-21T15:29:14.766Z</time>
      </trkpt>
      <trkpt lat="42.92479" lon="0.19841">
        <ele>1337.5937664583</ele>
        <time>2021-06-21T15:29:28.242Z</time>
      </trkpt>
      <trkpt lat="42.92471" lon="0.19801">
        <ele>1335.4456314029</ele>
        <time>2021-06-21T15:29:41.723Z</time>
      </trkpt>
      <trkpt lat="42.92471" lon="0.19801">
        <ele>1333.0923882454</ele>
        <time>2021-06-21T15:29:55.204Z</time>
      </trkpt>
      <trkpt lat="42.9247" lon="0.19791">
        <ele>1330.7228461857</ele>
        <time>2021-06-21T15:30:08.686Z</time>
      </trkpt>
      <trkpt lat="42.92472" lon="0.19776">
        <ele>1328.2054719804</ele>
        <time>2021-06-21T15:30:22.170Z</time>
      </trkpt>
      <trkpt lat="42.92475" lon="0.19772">
        <ele>1325.6513567516</ele>
        <time>2021-06-21T15:30:35.655Z</time>
      </trkpt>
      <trkpt lat="42.9248" lon="0.19769">
        <ele>1323.0320468454</ele>
        <time>2021-06-21T15:30:49.141Z</time>
      </trkpt>
      <trkpt lat="42.92485" lon="0.19769">
        <ele>1320.3836162377</ele>
        <time>2021-06-21T15:31:02.627Z</time>
      </trkpt>
      <trkpt lat="42.92499" lon="0.19769">
        <ele>1317.5520054568</ele>
        <time>2021-06-21T15:31:16.116Z</time>
      </trkpt>
      <trkpt lat="42.92509" lon="0.19765">
        <ele>1314.7849082243</ele>
        <time>2021-06-21T15:31:29.606Z</time>
      </trkpt>
      <trkpt lat="42.92545" lon="0.19749">
        <ele>1311.7711923439</ele>
        <time>2021-06-21T15:31:43.102Z</time>
      </trkpt>
      <trkpt lat="42.92557" lon="0.1974">
        <ele>1308.9908538981</ele>
        <time>2021-06-21T15:31:56.601Z</time>
      </trkpt>
      <trkpt lat="42.92577" lon="0.1972">
        <ele>1306.157272285</ele>
        <time>2021-06-21T15:32:10.104Z</time>
      </trkpt>
      <trkpt lat="42.92577" lon="0.1972">
        <ele>1303.3524660674</ele>
        <time>2021-06-21T15:32:23.607Z</time>
      </trkpt>
      <trkpt lat="42.92583" lon="0.19713">
        <ele>1300.489176823</ele>
        <time>2021-06-21T15:32:37.111Z</time>
      </trkpt>
      <trkpt lat="42.92588" lon="0.19711">
        <ele>1297.5514305911</ele>
        <time>2021-06-21T15:32:50.616Z</time>
      </trkpt>
      <trkpt lat="42.92594" lon="0.1971">
        <ele>1294.5930313978</ele>
        <time>2021-06-21T15:33:04.122Z</time>
      </trkpt>
      <trkpt lat="42.926" lon="0.19712">
        <ele>1291.5800733147</ele>
        <time>2021-06-21T15:33:17.629Z</time>
      </trkpt>
      <trkpt lat="42.92611" lon="0.19722">
        <ele>1288.4610894594</ele>
        <time>2021-06-21T15:33:31.138Z</time>
      </trkpt>
      <trkpt lat="42.92619" lon="0.19739">
        <ele>1285.2269939176</ele>
        <time>2021-06-21T15:33:44.649Z</time>
      </trkpt>
      <trkpt lat="42.92633" lon="0.19774">
        <ele>1281.8302915172</ele>
        <time>2021-06-21T15:33:58.165Z</time>
      </trkpt>
      <trkpt lat="42.92663" lon="0.19815">
        <ele>1278.3231044832</ele>
        <time>2021-06-21T15:34:11.688Z</time>
      </trkpt>
      <trkpt lat="42.92683" lon="0.19834">
        <ele>1275.0374592851</ele>
        <time>2021-06-21T15:34:25.215Z</time>
      </trkpt>
      <trkpt lat="42.92691" lon="0.1984">
        <ele>1271.8101009418</ele>
        <time>2021-06-21T15:34:38.743Z</time>
      </trkpt>
      <trkpt lat="42.927" lon="0.19852">
        <ele>1268.5086749108</ele>
        <time>2021-06-21T15:34:52.273Z</time>
      </trkpt>
      <trkpt lat="42.92706" lon="0.19884">
        <ele>1264.963941026</ele>
        <time>2021-06-21T15:35:05.807Z</time>
      </trkpt>
      <trkpt lat="42.92706" lon="0.19884">
        <ele>1261.6075201379</ele>
        <time>2021-06-21T15:35:19.341Z</time>
      </trkpt>
      <trkpt lat="42.92708" lon="0.19894">
        <ele>1258.1018168716</ele>
        <time>2021-06-21T15:35:32.876Z</time>
      </trkpt>
      <trkpt lat="42.92715" lon="0.19908">
        <ele>1254.5756573619</ele>
        <time>2021-06-21T15:35:46.413Z</time>
      </trkpt>
      <trkpt lat="42.9273" lon="0.19931">
        <ele>1251.0040975928</ele>
        <time>2021-06-21T15:35:59.954Z</time>
      </trkpt>
      <trkpt lat="42.92829" lon="0.20051">
        <ele>1247.1509221529</ele>
        <time>2021-06-21T15:36:13.516Z</time>
      </trkpt>
      <trkpt lat="42.92864" lon="0.20107">
        <ele>1243.3252816979</ele>
        <time>2021-06-21T15:36:27.087Z</time>
      </trkpt>
      <trkpt lat="42.92883" lon="0.20129">
        <ele>1239.7984785147</ele>
        <time>2021-06-21T15:36:40.662Z</time>
      </trkpt>
      <trkpt lat="42.92896" lon="0.20142">
        <ele>1236.3443620307</ele>
        <time>2021-06-21T15:36:54.239Z</time>
      </trkpt>
      <trkpt lat="42.9297" lon="0.20193">
        <ele>1232.7817345162</ele>
        <time>2021-06-21T15:37:07.829Z</time>
      </trkpt>
      <trkpt lat="42.93007" lon="0.20224">
        <ele>1229.269411097</ele>
        <time>2021-06-21T15:37:21.426Z</time>
      </trkpt>
      <trkpt lat="42.93024" lon="0.20241">
        <ele>1225.9628897469</ele>
        <time>2021-06-21T15:37:35.027Z</time>
      </trkpt>
      <trkpt lat="42.93051" lon="0.20283">
        <ele>1222.6123201044</ele>
        <time>2021-06-21T15:37:48.634Z</time>
      </trkpt>
      <trkpt lat="42.93082" lon="0.20341">
        <ele>1219.0716629111</ele>
        <time>2021-06-21T15:38:02.250Z</time>
      </trkpt>
      <trkpt lat="42.93092" lon="0.20356">
        <ele>1215.7992218796</ele>
        <time>2021-06-21T15:38:15.868Z</time>
      </trkpt>
      <trkpt lat="42.93113" lon="0.20377">
        <ele>1212.5310499179</ele>
        <time>2021-06-21T15:38:29.490Z</time>
      </trkpt>
      <trkpt lat="42.93261" lon="0.20479">
        <ele>1209.025319519</ele>
        <time>2021-06-21T15:38:43.139Z</time>
      </trkpt>
      <trkpt lat="42.93347" lon="0.20571">
        <ele>1205.5280937362</ele>
        <time>2021-06-21T15:38:56.805Z</time>
      </trkpt>
      <trkpt lat="42.93347" lon="0.20571">
        <ele>1202.5310617767</ele>
        <time>2021-06-21T15:39:10.471Z</time>
      </trkpt>
      <trkpt lat="42.93362" lon="0.20583">
        <ele>1199.6193229631</ele>
        <time>2021-06-21T15:39:24.140Z</time>
      </trkpt>
      <trkpt lat="42.93378" lon="0.20602">
        <ele>1196.7175837542</ele>
        <time>2021-06-21T15:39:37.812Z</time>
      </trkpt>
      <trkpt lat="42.93389" lon="0.20618">
        <ele>1193.8584542046</ele>
        <time>2021-06-21T15:39:51.487Z</time>
      </trkpt>
      <trkpt lat="42.93411" lon="0.20668">
        <ele>1190.6580519003</ele>
        <time>2021-06-21T15:40:05.169Z</time>
      </trkpt>
      <trkpt lat="42.93429" lon="0.20692">
        <ele>1187.8389898377</ele>
        <time>2021-06-21T15:40:18.855Z</time>
      </trkpt>
      <trkpt lat="42.93472" lon="0.2074">
        <ele>1185.1852928384</ele>
        <time>2021-06-21T15:40:32.550Z</time>
      </trkpt>
      <trkpt lat="42.93482" lon="0.20754">
        <ele>1182.5652236819</ele>
        <time>2021-06-21T15:40:46.247Z</time>
      </trkpt>
      <trkpt lat="42.93499" lon="0.20797">
        <ele>1179.7677925591</ele>
        <time>2021-06-21T15:40:59.950Z</time>
      </trkpt>
      <trkpt lat="42.93505" lon="0.2081">
        <ele>1177.1617454667</ele>
        <time>2021-06-21T15:41:13.655Z</time>
      </trkpt>
      <trkpt lat="42.93514" lon="0.20819">
        <ele>1174.6524310535</ele>
        <time>2021-06-21T15:41:27.361Z</time>
      </trkpt>
      <trkpt lat="42.93537" lon="0.20831">
        <ele>1172.2533958442</ele>
        <time>2021-06-21T15:41:41.072Z</time>
      </trkpt>
      <trkpt lat="42.93563" lon="0.20841">
        <ele>1169.9573219925</ele>
        <time>2021-06-21T15:41:54.787Z</time>
      </trkpt>
      <trkpt lat="42.9357" lon="0.20847">
        <ele>1167.5584199582</ele>
        <time>2021-06-21T15:42:08.503Z</time>
      </trkpt>
      <trkpt lat="42.93593" lon="0.20875">
        <ele>1164.9623786695</ele>
        <time>2021-06-21T15:42:22.224Z</time>
      </trkpt>
      <trkpt lat="42.936" lon="0.20878">
        <ele>1162.6108556602</ele>
        <time>2021-06-21T15:42:35.946Z</time>
      </trkpt>
      <trkpt lat="42.93605" lon="0.20878">
        <ele>1160.2998556344</ele>
        <time>2021-06-21T15:42:49.669Z</time>
      </trkpt>
      <trkpt lat="42.93612" lon="0.20875">
        <ele>1158.0334222059</ele>
        <time>2021-06-21T15:43:03.393Z</time>
      </trkpt>
      <trkpt lat="42.93634" lon="0.20859">
        <ele>1156.0693556645</ele>
        <time>2021-06-21T15:43:17.121Z</time>
      </trkpt>
      <trkpt lat="42.9364" lon="0.20858">
        <ele>1153.6940087437</ele>
        <time>2021-06-21T15:43:30.850Z</time>
      </trkpt>
      <trkpt lat="42.93646" lon="0.2086">
        <ele>1151.2032592635</ele>
        <time>2021-06-21T15:43:44.580Z</time>
      </trkpt>
      <trkpt lat="42.93651" lon="0.20871">
        <ele>1148.503090575</ele>
        <time>2021-06-21T15:43:58.312Z</time>
      </trkpt>
      <trkpt lat="42.93653" lon="0.20884">
        <ele>1145.6971256946</ele>
        <time>2021-06-21T15:44:12.045Z</time>
      </trkpt>
      <trkpt lat="42.93654" lon="0.20907">
        <ele>1142.7004979999</ele>
        <time>2021-06-21T15:44:25.781Z</time>
      </trkpt>
      <trkpt lat="42.93657" lon="0.2092">
        <ele>1139.7752958612</ele>
        <time>2021-06-21T15:44:39.519Z</time>
      </trkpt>
      <trkpt lat="42.93657" lon="0.2092">
        <ele>1136.9241642325</ele>
        <time>2021-06-21T15:44:53.257Z</time>
      </trkpt>
      <trkpt lat="42.93671" lon="0.20933">
        <ele>1133.9135642821</ele>
        <time>2021-06-21T15:45:06.997Z</time>
      </trkpt>
      <trkpt lat="42.93701" lon="0.20951">
        <ele>1131.0842608137</ele>
        <time>2021-06-21T15:45:20.742Z</time>
      </trkpt>
      <trkpt lat="42.93717" lon="0.20963">
        <ele>1128.0591144006</ele>
        <time>2021-06-21T15:45:34.490Z</time>
      </trkpt>
      <trkpt lat="42.93728" lon="0.20979">
        <ele>1124.7656757469</ele>
        <time>2021-06-21T15:45:48.241Z</time>
      </trkpt>
      <trkpt lat="42.93755" lon="0.21024">
        <ele>1121.1274511625</ele>
        <time>2021-06-21T15:46:01.999Z</time>
      </trkpt>
      <trkpt lat="42.93809" lon="0.21091">
        <ele>1117.4465572493</ele>
        <time>2021-06-21T15:46:15.768Z</time>
      </trkpt>
      <trkpt lat="42.93836" lon="0.21128">
        <ele>1113.802043864</ele>
        <time>2021-06-21T15:46:29.544Z</time>
      </trkpt>
      <trkpt lat="42.93934" lon="0.2128">
        <ele>1109.7549626316</ele>
        <time>2021-06-21T15:46:43.343Z</time>
      </trkpt>
      <trkpt lat="42.93973" lon="0.21319">
        <ele>1105.8684237702</ele>
        <time>2021-06-21T15:46:57.150Z</time>
      </trkpt>
      <trkpt lat="42.94028" lon="0.21357">
        <ele>1102.1367608419</ele>
        <time>2021-06-21T15:47:10.967Z</time>
      </trkpt>
      <trkpt lat="42.94125" lon="0.21474">
        <ele>1098.3049662828</ele>
        <time>2021-06-21T15:47:24.805Z</time>
      </trkpt>
      <trkpt lat="42.94142" lon="0.21498">
        <ele>1094.530176221</ele>
        <time>2021-06-21T15:47:38.647Z</time>
      </trkpt>
      <trkpt lat="42.94157" lon="0.21534">
        <ele>1090.5780060822</ele>
        <time>2021-06-21T15:47:52.493Z</time>
      </trkpt>
      <trkpt lat="42.94184" lon="0.21618">
        <ele>1085.979548018</ele>
        <time>2021-06-21T15:48:06.350Z</time>
      </trkpt>
      <trkpt lat="42.94201" lon="0.21635">
        <ele>1082.2024250021</ele>
        <time>2021-06-21T15:48:20.211Z</time>
      </trkpt>
      <trkpt lat="42.94217" lon="0.21646">
        <ele>1078.5120856855</ele>
        <time>2021-06-21T15:48:34.074Z</time>
      </trkpt>
      <trkpt lat="42.94224" lon="0.21659">
        <ele>1074.6579930949</ele>
        <time>2021-06-21T15:48:47.939Z</time>
      </trkpt>
      <trkpt lat="42.94241" lon="0.2169">
        <ele>1070.7073006364</ele>
        <time>2021-06-21T15:49:01.809Z</time>
      </trkpt>
      <trkpt lat="42.94282" lon="0.21756">
        <ele>1066.7073089649</ele>
        <time>2021-06-21T15:49:15.689Z</time>
      </trkpt>
      <trkpt lat="42.94436" lon="0.21946">
        <ele>1062.2248447529</ele>
        <time>2021-06-21T15:49:29.602Z</time>
      </trkpt>
      <trkpt lat="42.94458" lon="0.21968">
        <ele>1058.4637782243</ele>
        <time>2021-06-21T15:49:43.520Z</time>
      </trkpt>
      <trkpt lat="42.94511" lon="0.22009">
        <ele>1054.9708456261</ele>
        <time>2021-06-21T15:49:57.447Z</time>
      </trkpt>
      <trkpt lat="42.94526" lon="0.22028">
        <ele>1051.3562371096</ele>
        <time>2021-06-21T15:50:11.378Z</time>
      </trkpt>
      <trkpt lat="42.94563" lon="0.22095">
        <ele>1047.6154404069</ele>
        <time>2021-06-21T15:50:25.319Z</time>
      </trkpt>
      <trkpt lat="42.94572" lon="0.22108">
        <ele>1044.1815932515</ele>
        <time>2021-06-21T15:50:39.262Z</time>
      </trkpt>
      <trkpt lat="42.94587" lon="0.22122">
        <ele>1040.8483191062</ele>
        <time>2021-06-21T15:50:53.207Z</time>
      </trkpt>
      <trkpt lat="42.94595" lon="0.22127">
        <ele>1037.6046803432</ele>
        <time>2021-06-21T15:51:07.154Z</time>
      </trkpt>
      <trkpt lat="42.94606" lon="0.22131">
        <ele>1034.4430758951</ele>
        <time>2021-06-21T15:51:21.103Z</time>
      </trkpt>
      <trkpt lat="42.94626" lon="0.22136">
        <ele>1031.3772062547</ele>
        <time>2021-06-21T15:51:35.055Z</time>
      </trkpt>
      <trkpt lat="42.94641" lon="0.22145">
        <ele>1028.3669540926</ele>
        <time>2021-06-21T15:51:49.010Z</time>
      </trkpt>
      <trkpt lat="42.94657" lon="0.22169">
        <ele>1025.3786825776</ele>
        <time>2021-06-21T15:52:02.968Z</time>
      </trkpt>
      <trkpt lat="42.94664" lon="0.22193">
        <ele>1022.4694323099</ele>
        <time>2021-06-21T15:52:16.929Z</time>
      </trkpt>
      <trkpt lat="42.94668" lon="0.22216">
        <ele>1019.6471294426</ele>
        <time>2021-06-21T15:52:30.893Z</time>
      </trkpt>
      <trkpt lat="42.94668" lon="0.22216">
        <ele>1017.0104162849</ele>
        <time>2021-06-21T15:52:44.857Z</time>
      </trkpt>
      <trkpt lat="42.94679" lon="0.22259">
        <ele>1014.3171336978</ele>
        <time>2021-06-21T15:52:58.827Z</time>
      </trkpt>
      <trkpt lat="42.94693" lon="0.22302">
        <ele>1011.722900973</ele>
        <time>2021-06-21T15:53:12.802Z</time>
      </trkpt>
      <trkpt lat="42.94709" lon="0.22331">
        <ele>1009.2783258547</ele>
        <time>2021-06-21T15:53:26.781Z</time>
      </trkpt>
      <trkpt lat="42.94732" lon="0.22362">
        <ele>1006.928995398</ele>
        <time>2021-06-21T15:53:40.766Z</time>
      </trkpt>
      <trkpt lat="42.9476" lon="0.22391">
        <ele>1004.6721107489</ele>
        <time>2021-06-21T15:53:54.756Z</time>
      </trkpt>
      <trkpt lat="42.94831" lon="0.22438">
        <ele>1002.3771144302</ele>
        <time>2021-06-21T15:54:08.759Z</time>
      </trkpt>
      <trkpt lat="42.94871" lon="0.2245">
        <ele>1000.2938109578</ele>
        <time>2021-06-21T15:54:22.768Z</time>
      </trkpt>
      <trkpt lat="42.94893" lon="0.22463">
        <ele>998.2748591638</ele>
        <time>2021-06-21T15:54:36.781Z</time>
      </trkpt>
      <trkpt lat="42.94911" lon="0.22505">
        <ele>996.20548895344</ele>
        <time>2021-06-21T15:54:50.800Z</time>
      </trkpt>
      <trkpt lat="42.9492" lon="0.22519">
        <ele>994.31976858347</ele>
        <time>2021-06-21T15:55:04.821Z</time>
      </trkpt>
      <trkpt lat="42.94935" lon="0.22538">
        <ele>992.48085879247</ele>
        <time>2021-06-21T15:55:18.845Z</time>
      </trkpt>
      <trkpt lat="42.94955" lon="0.22552">
        <ele>990.73451230694</ele>
        <time>2021-06-21T15:55:32.873Z</time>
      </trkpt>
      <trkpt lat="42.94993" lon="0.22558">
        <ele>989.08584282383</ele>
        <time>2021-06-21T15:55:46.907Z</time>
      </trkpt>
      <trkpt lat="42.95014" lon="0.22568">
        <ele>987.48144254142</ele>
        <time>2021-06-21T15:56:00.945Z</time>
      </trkpt>
      <trkpt lat="42.9506" lon="0.22595">
        <ele>985.82109904769</ele>
        <time>2021-06-21T15:56:14.991Z</time>
      </trkpt>
      <trkpt lat="42.9506" lon="0.22595">
        <ele>984.38270914719</ele>
        <time>2021-06-21T15:56:29.037Z</time>
      </trkpt>
      <trkpt lat="42.95105" lon="0.22617">
        <ele>982.86771592344</ele>
        <time>2021-06-21T15:56:43.090Z</time>
      </trkpt>
      <trkpt lat="42.95133" lon="0.22637">
        <ele>981.47947260419</ele>
        <time>2021-06-21T15:56:57.148Z</time>
      </trkpt>
      <trkpt lat="42.95167" lon="0.22665">
        <ele>980.14140083682</ele>
        <time>2021-06-21T15:57:11.213Z</time>
      </trkpt>
      <trkpt lat="42.95167" lon="0.22665">
        <ele>978.92034960689</ele>
        <time>2021-06-21T15:57:25.278Z</time>
      </trkpt>
      <trkpt lat="42.95228" lon="0.22716">
        <ele>977.64673184213</ele>
        <time>2021-06-21T15:57:39.354Z</time>
      </trkpt>
      <trkpt lat="42.95251" lon="0.22729">
        <ele>976.48388214557</ele>
        <time>2021-06-21T15:57:53.434Z</time>
      </trkpt>
      <trkpt lat="42.95379" lon="0.22788">
        <ele>975.35907948776</ele>
        <time>2021-06-21T15:58:07.536Z</time>
      </trkpt>
      <trkpt lat="42.95391" lon="0.22791">
        <ele>974.29484200669</ele>
        <time>2021-06-21T15:58:21.640Z</time>
      </trkpt>
      <trkpt lat="42.9541" lon="0.22792">
        <ele>973.26121298911</ele>
        <time>2021-06-21T15:58:35.747Z</time>
      </trkpt>
      <trkpt lat="42.95443" lon="0.22794">
        <ele>972.22379278036</ele>
        <time>2021-06-21T15:58:49.859Z</time>
      </trkpt>
      <trkpt lat="42.95514" lon="0.22796">
        <ele>971.13370342012</ele>
        <time>2021-06-21T15:59:03.982Z</time>
      </trkpt>
      <trkpt lat="42.95549" lon="0.22793">
        <ele>970.22365388624</ele>
        <time>2021-06-21T15:59:18.111Z</time>
      </trkpt>
      <trkpt lat="42.95549" lon="0.22793">
        <ele>969.33723990944</ele>
        <time>2021-06-21T15:59:32.240Z</time>
      </trkpt>
      <trkpt lat="42.95558" lon="0.22791">
        <ele>968.47746049465</ele>
        <time>2021-06-21T15:59:46.370Z</time>
      </trkpt>
      <trkpt lat="42.95558" lon="0.22791">
        <ele>967.63559356</ele>
        <time>2021-06-21T16:00:00.500Z</time>
      </trkpt>
      <trkpt lat="42.95586" lon="0.22787">
        <ele>966.82343939316</ele>
        <time>2021-06-21T16:00:14.635Z</time>
      </trkpt>
      <trkpt lat="42.95602" lon="0.22789">
        <ele>965.98860942093</ele>
        <time>2021-06-21T16:00:28.773Z</time>
      </trkpt>
      <trkpt lat="42.95602" lon="0.22789">
        <ele>965.19351224344</ele>
        <time>2021-06-21T16:00:42.911Z</time>
      </trkpt>
      <trkpt lat="42.95695" lon="0.22828">
        <ele>964.09535523452</ele>
        <time>2021-06-21T16:00:57.064Z</time>
      </trkpt>
      <trkpt lat="42.95695" lon="0.22828">
        <ele>963.32270144177</ele>
        <time>2021-06-21T16:01:11.217Z</time>
      </trkpt>
      <trkpt lat="42.95723" lon="0.22838">
        <ele>962.5074005918</ele>
        <time>2021-06-21T16:01:25.375Z</time>
      </trkpt>
      <trkpt lat="42.95752" lon="0.22851">
        <ele>961.72736431671</ele>
        <time>2021-06-21T16:01:39.538Z</time>
      </trkpt>
      <trkpt lat="42.95749" lon="0.22862">
        <ele>960.92059580167</ele>
        <time>2021-06-21T16:01:53.702Z</time>
      </trkpt>
      <trkpt lat="42.95747" lon="0.22867">
        <ele>960.14823570302</ele>
        <time>2021-06-21T16:02:07.867Z</time>
      </trkpt>
      <trkpt lat="42.95747" lon="0.22867">
        <ele>959.40805907192</ele>
        <time>2021-06-21T16:02:22.032Z</time>
      </trkpt>
      <trkpt lat="42.95749" lon="0.22862">
        <ele>960.92059580167</ele>
        <time>2021-06-21T16:02:36.197Z</time>
      </trkpt>
      <trkpt lat="42.95752" lon="0.22851">
        <ele>958.0173575216</ele>
        <time>2021-06-21T16:02:50.364Z</time>
      </trkpt>
      <trkpt lat="42.95776" lon="0.22865">
        <ele>957.17437584966</ele>
        <time>2021-06-21T16:03:04.535Z</time>
      </trkpt>
      <trkpt lat="42.95792" lon="0.22869">
        <ele>956.37872124822</ele>
        <time>2021-06-21T16:03:18.708Z</time>
      </trkpt>
      <trkpt lat="42.95847" lon="0.22873">
        <ele>955.54601427111</ele>
        <time>2021-06-21T16:03:32.890Z</time>
      </trkpt>
      <trkpt lat="42.95868" lon="0.22884">
        <ele>954.75019786752</ele>
        <time>2021-06-21T16:03:47.076Z</time>
      </trkpt>
      <trkpt lat="42.95868" lon="0.22884">
        <ele>953.99569999091</ele>
        <time>2021-06-21T16:04:01.262Z</time>
      </trkpt>
      <trkpt lat="42.95889" lon="0.22896">
        <ele>953.22818352843</ele>
        <time>2021-06-21T16:04:15.452Z</time>
      </trkpt>
      <trkpt lat="42.95918" lon="0.22922">
        <ele>952.42171123823</ele>
        <time>2021-06-21T16:04:29.647Z</time>
      </trkpt>
      <trkpt lat="42.95939" lon="0.2294">
        <ele>951.61424088185</ele>
        <time>2021-06-21T16:04:43.846Z</time>
      </trkpt>
      <trkpt lat="42.95939" lon="0.2294">
        <ele>950.83608497711</ele>
        <time>2021-06-21T16:04:58.045Z</time>
      </trkpt>
      <trkpt lat="42.95999" lon="0.2299">
        <ele>949.97875689724</ele>
        <time>2021-06-21T16:05:12.255Z</time>
      </trkpt>
      <trkpt lat="42.96026" lon="0.23008">
        <ele>949.10133560366</ele>
        <time>2021-06-21T16:05:26.470Z</time>
      </trkpt>
      <trkpt lat="42.96036" lon="0.23011">
        <ele>948.26586324721</ele>
        <time>2021-06-21T16:05:40.687Z</time>
      </trkpt>
      <trkpt lat="42.96105" lon="0.23022">
        <ele>947.31615102491</ele>
        <time>2021-06-21T16:05:54.915Z</time>
      </trkpt>
      <trkpt lat="42.96105" lon="0.23022">
        <ele>946.50789861035</ele>
        <time>2021-06-21T16:06:09.143Z</time>
      </trkpt>
      <trkpt lat="42.96149" lon="0.23028">
        <ele>945.66832739171</ele>
        <time>2021-06-21T16:06:23.378Z</time>
      </trkpt>
      <trkpt lat="42.96215" lon="0.23033">
        <ele>944.70324706072</ele>
        <time>2021-06-21T16:06:37.624Z</time>
      </trkpt>
      <trkpt lat="42.96244" lon="0.2304">
        <ele>943.78135832995</ele>
        <time>2021-06-21T16:06:51.874Z</time>
      </trkpt>
      <trkpt lat="42.96262" lon="0.23042">
        <ele>942.92342049163</ele>
        <time>2021-06-21T16:07:06.127Z</time>
      </trkpt>
      <trkpt lat="42.96279" lon="0.2304">
        <ele>942.08571344599</ele>
        <time>2021-06-21T16:07:20.383Z</time>
      </trkpt>
      <trkpt lat="42.96279" lon="0.2304">
        <ele>941.24963448505</ele>
        <time>2021-06-21T16:07:34.639Z</time>
      </trkpt>
      <trkpt lat="42.96314" lon="0.23034">
        <ele>940.40881835557</ele>
        <time>2021-06-21T16:07:48.901Z</time>
      </trkpt>
      <trkpt lat="42.96465" lon="0.23031">
        <ele>939.44925376112</ele>
        <time>2021-06-21T16:08:03.187Z</time>
      </trkpt>
      <trkpt lat="42.96494" lon="0.23033">
        <ele>938.59386592995</ele>
        <time>2021-06-21T16:08:17.477Z</time>
      </trkpt>
      <trkpt lat="42.96506" lon="0.23035">
        <ele>937.74584906164</ele>
        <time>2021-06-21T16:08:31.769Z</time>
      </trkpt>
      <trkpt lat="42.96602" lon="0.23043">
        <ele>936.8795485168</ele>
        <time>2021-06-21T16:08:46.077Z</time>
      </trkpt>
      <trkpt lat="42.96635" lon="0.23044">
        <ele>935.96246326525</ele>
        <time>2021-06-21T16:09:00.390Z</time>
      </trkpt>
      <trkpt lat="42.96654" lon="0.23043">
        <ele>935.05624175494</ele>
        <time>2021-06-21T16:09:14.706Z</time>
      </trkpt>
      <trkpt lat="42.96725" lon="0.23022">
        <ele>934.24143438563</ele>
        <time>2021-06-21T16:09:29.034Z</time>
      </trkpt>
      <trkpt lat="42.96751" lon="0.23018">
        <ele>933.34416049003</ele>
        <time>2021-06-21T16:09:43.366Z</time>
      </trkpt>
      <trkpt lat="42.96845" lon="0.23033">
        <ele>932.36654428055</ele>
        <time>2021-06-21T16:09:57.713Z</time>
      </trkpt>
      <trkpt lat="42.9687" lon="0.23043">
        <ele>931.25676587121</ele>
        <time>2021-06-21T16:10:12.064Z</time>
      </trkpt>
      <trkpt lat="42.96884" lon="0.23052">
        <ele>930.20171159721</ele>
        <time>2021-06-21T16:10:26.418Z</time>
      </trkpt>
      <trkpt lat="42.96936" lon="0.23084">
        <ele>929.04222405621</ele>
        <time>2021-06-21T16:10:40.781Z</time>
      </trkpt>
      <trkpt lat="42.96946" lon="0.2309">
        <ele>927.95592786028</ele>
        <time>2021-06-21T16:10:55.145Z</time>
      </trkpt>
      <trkpt lat="42.97012" lon="0.2311">
        <ele>926.71675670262</ele>
        <time>2021-06-21T16:11:09.520Z</time>
      </trkpt>
      <trkpt lat="42.97024" lon="0.23113">
        <ele>925.59655788625</ele>
        <time>2021-06-21T16:11:23.897Z</time>
      </trkpt>
      <trkpt lat="42.97063" lon="0.23115">
        <ele>924.43481803599</ele>
        <time>2021-06-21T16:11:38.280Z</time>
      </trkpt>
      <trkpt lat="42.97074" lon="0.23114">
        <ele>923.28730898549</ele>
        <time>2021-06-21T16:11:52.665Z</time>
      </trkpt>
      <trkpt lat="42.97089" lon="0.23108">
        <ele>922.09781634002</ele>
        <time>2021-06-21T16:12:07.053Z</time>
      </trkpt>
      <trkpt lat="42.97131" lon="0.23079">
        <ele>920.85776407611</ele>
        <time>2021-06-21T16:12:21.448Z</time>
      </trkpt>
      <trkpt lat="42.97131" lon="0.23079">
        <ele>919.65393024</ele>
        <time>2021-06-21T16:12:35.843Z</time>
      </trkpt>
      <trkpt lat="42.9719" lon="0.23034">
        <ele>918.37056508197</ele>
        <time>2021-06-21T16:12:50.249Z</time>
      </trkpt>
      <trkpt lat="42.97214" lon="0.23018">
        <ele>917.10748699104</ele>
        <time>2021-06-21T16:13:04.659Z</time>
      </trkpt>
      <trkpt lat="42.97228" lon="0.23013">
        <ele>915.81488972707</ele>
        <time>2021-06-21T16:13:19.072Z</time>
      </trkpt>
      <trkpt lat="42.97273" lon="0.23009">
        <ele>914.3702439665</ele>
        <time>2021-06-21T16:13:33.492Z</time>
      </trkpt>
      <trkpt lat="42.9728" lon="0.23009">
        <ele>913.05213083845</ele>
        <time>2021-06-21T16:13:47.913Z</time>
      </trkpt>
      <trkpt lat="42.97311" lon="0.23006">
        <ele>911.63449381511</ele>
        <time>2021-06-21T16:14:02.339Z</time>
      </trkpt>
      <trkpt lat="42.97322" lon="0.23003">
        <ele>910.27596698295</ele>
        <time>2021-06-21T16:14:16.767Z</time>
      </trkpt>
      <trkpt lat="42.97344" lon="0.2299">
        <ele>908.88475907493</ele>
        <time>2021-06-21T16:14:31.199Z</time>
      </trkpt>
      <trkpt lat="42.97362" lon="0.22976">
        <ele>907.53131363093</ele>
        <time>2021-06-21T16:14:45.634Z</time>
      </trkpt>
      <trkpt lat="42.9741" lon="0.22939">
        <ele>906.28427584941</ele>
        <time>2021-06-21T16:15:00.078Z</time>
      </trkpt>
      <trkpt lat="42.9743" lon="0.22923">
        <ele>904.82073319259</ele>
        <time>2021-06-21T16:15:14.525Z</time>
      </trkpt>
      <trkpt lat="42.97532" lon="0.22843">
        <ele>903.39906957577</ele>
        <time>2021-06-21T16:15:28.991Z</time>
      </trkpt>
      <trkpt lat="42.97532" lon="0.22843">
        <ele>902.02552194</ele>
        <time>2021-06-21T16:15:43.457Z</time>
      </trkpt>
      <trkpt lat="42.97566" lon="0.22828">
        <ele>900.55223612742</ele>
        <time>2021-06-21T16:15:57.929Z</time>
      </trkpt>
      <trkpt lat="42.97594" lon="0.22821">
        <ele>899.03954910409</ele>
        <time>2021-06-21T16:16:12.406Z</time>
      </trkpt>
      <trkpt lat="42.9761" lon="0.22821">
        <ele>897.61080855439</ele>
        <time>2021-06-21T16:16:26.885Z</time>
      </trkpt>
      <trkpt lat="42.9764" lon="0.22827">
        <ele>896.1392111005</ele>
        <time>2021-06-21T16:16:41.369Z</time>
      </trkpt>
      <trkpt lat="42.97661" lon="0.22831">
        <ele>894.70510472267</ele>
        <time>2021-06-21T16:16:55.856Z</time>
      </trkpt>
      <trkpt lat="42.97679" lon="0.22836">
        <ele>893.27450707296</ele>
        <time>2021-06-21T16:17:10.346Z</time>
      </trkpt>
      <trkpt lat="42.97715" lon="0.22838">
        <ele>891.75258104512</ele>
        <time>2021-06-21T16:17:24.842Z</time>
      </trkpt>
      <trkpt lat="42.97744" lon="0.22838">
        <ele>890.29415505151</ele>
        <time>2021-06-21T16:17:39.343Z</time>
      </trkpt>
      <trkpt lat="42.97763" lon="0.22835">
        <ele>888.90785026846</ele>
        <time>2021-06-21T16:17:53.847Z</time>
      </trkpt>
      <trkpt lat="42.97801" lon="0.22818">
        <ele>887.53225217576</ele>
        <time>2021-06-21T16:18:08.357Z</time>
      </trkpt>
      <trkpt lat="42.97816" lon="0.22815">
        <ele>886.20939560722</ele>
        <time>2021-06-21T16:18:22.870Z</time>
      </trkpt>
      <trkpt lat="42.97857" lon="0.22812">
        <ele>884.8406730658</ele>
        <time>2021-06-21T16:18:37.389Z</time>
      </trkpt>
      <trkpt lat="42.979" lon="0.22796">
        <ele>883.51059830331</ele>
        <time>2021-06-21T16:18:51.915Z</time>
      </trkpt>
      <trkpt lat="42.979" lon="0.22796">
        <ele>882.27098094117</ele>
        <time>2021-06-21T16:19:06.441Z</time>
      </trkpt>
      <trkpt lat="42.97919" lon="0.22792">
        <ele>881.01000480502</ele>
        <time>2021-06-21T16:19:20.970Z</time>
      </trkpt>
      <trkpt lat="42.97947" lon="0.22788">
        <ele>879.77688763116</ele>
        <time>2021-06-21T16:19:35.504Z</time>
      </trkpt>
      <trkpt lat="42.9797" lon="0.22774">
        <ele>878.61673215905</ele>
        <time>2021-06-21T16:19:50.042Z</time>
      </trkpt>
      <trkpt lat="42.9797" lon="0.22774">
        <ele>877.43607240923</ele>
        <time>2021-06-21T16:20:04.580Z</time>
      </trkpt>
      <trkpt lat="42.98003" lon="0.22754">
        <ele>876.2296618582</ele>
        <time>2021-06-21T16:20:19.124Z</time>
      </trkpt>
      <trkpt lat="42.98023" lon="0.22746">
        <ele>875.02375588443</ele>
        <time>2021-06-21T16:20:33.671Z</time>
      </trkpt>
      <trkpt lat="42.98037" lon="0.22739">
        <ele>873.84699966297</ele>
        <time>2021-06-21T16:20:48.220Z</time>
      </trkpt>
      <trkpt lat="42.98062" lon="0.22725">
        <ele>872.67534067217</ele>
        <time>2021-06-21T16:21:02.774Z</time>
      </trkpt>
      <trkpt lat="42.98077" lon="0.22719">
        <ele>871.5029731931</ele>
        <time>2021-06-21T16:21:17.330Z</time>
      </trkpt>
      <trkpt lat="42.9809" lon="0.22718">
        <ele>870.32199296028</ele>
        <time>2021-06-21T16:21:31.888Z</time>
      </trkpt>
      <trkpt lat="42.9809" lon="0.22718">
        <ele>869.16299320937</ele>
        <time>2021-06-21T16:21:46.446Z</time>
      </trkpt>
      <trkpt lat="42.98138" lon="0.22709">
        <ele>867.92481887791</ele>
        <time>2021-06-21T16:22:01.012Z</time>
      </trkpt>
      <trkpt lat="42.98202" lon="0.22705">
        <ele>866.62268719891</ele>
        <time>2021-06-21T16:22:15.588Z</time>
      </trkpt>
      <trkpt lat="42.98235" lon="0.22694">
        <ele>865.43357616805</ele>
        <time>2021-06-21T16:22:30.170Z</time>
      </trkpt>
      <trkpt lat="42.98324" lon="0.2268">
        <ele>864.0573766881</ele>
        <time>2021-06-21T16:22:44.766Z</time>
      </trkpt>
      <trkpt lat="42.98339" lon="0.22682">
        <ele>862.78856260676</ele>
        <time>2021-06-21T16:22:59.364Z</time>
      </trkpt>
      <trkpt lat="42.98378" lon="0.22691">
        <ele>861.49813196249</ele>
        <time>2021-06-21T16:23:13.969Z</time>
      </trkpt>
      <trkpt lat="42.98378" lon="0.22691">
        <ele>860.24967604755</ele>
        <time>2021-06-21T16:23:28.574Z</time>
      </trkpt>
      <trkpt lat="42.98404" lon="0.227">
        <ele>858.93714465146</ele>
        <time>2021-06-21T16:23:43.183Z</time>
      </trkpt>
      <trkpt lat="42.9843" lon="0.22708">
        <ele>857.59602117334</ele>
        <time>2021-06-21T16:23:57.796Z</time>
      </trkpt>
      <trkpt lat="42.98447" lon="0.22713">
        <ele>856.22969160115</ele>
        <time>2021-06-21T16:24:12.412Z</time>
      </trkpt>
      <trkpt lat="42.98451" lon="0.22716">
        <ele>854.86784239385</ele>
        <time>2021-06-21T16:24:27.029Z</time>
      </trkpt>
      <trkpt lat="42.98453" lon="0.22722">
        <ele>853.47480632259</ele>
        <time>2021-06-21T16:24:41.647Z</time>
      </trkpt>
      <trkpt lat="42.98457" lon="0.22732">
        <ele>852.03522963977</ele>
        <time>2021-06-21T16:24:56.266Z</time>
      </trkpt>
      <trkpt lat="42.98459" lon="0.2275">
        <ele>850.53835684774</ele>
        <time>2021-06-21T16:25:10.887Z</time>
      </trkpt>
      <trkpt lat="42.98468" lon="0.22749">
        <ele>849.0513923956</ele>
        <time>2021-06-21T16:25:25.510Z</time>
      </trkpt>
      <trkpt lat="42.9848" lon="0.22744">
        <ele>847.52479351041</ele>
        <time>2021-06-21T16:25:40.135Z</time>
      </trkpt>
      <trkpt lat="42.98492" lon="0.22734">
        <ele>845.96894576479</ele>
        <time>2021-06-21T16:25:54.762Z</time>
      </trkpt>
      <trkpt lat="42.98499" lon="0.22731">
        <ele>844.36813730275</ele>
        <time>2021-06-21T16:26:09.390Z</time>
      </trkpt>
      <trkpt lat="42.98516" lon="0.22728">
        <ele>842.7139395704</ele>
        <time>2021-06-21T16:26:24.021Z</time>
      </trkpt>
      <trkpt lat="42.98559" lon="0.2272">
        <ele>840.97566488551</ele>
        <time>2021-06-21T16:26:38.659Z</time>
      </trkpt>
      <trkpt lat="42.98649" lon="0.22717">
        <ele>838.96808690803</ele>
        <time>2021-06-21T16:26:53.311Z</time>
      </trkpt>
      <trkpt lat="42.98689" lon="0.22713">
        <ele>837.06674068674</ele>
        <time>2021-06-21T16:27:07.970Z</time>
      </trkpt>
      <trkpt lat="42.98713" lon="0.22701">
        <ele>835.2296462599</ele>
        <time>2021-06-21T16:27:22.633Z</time>
      </trkpt>
      <trkpt lat="42.98729" lon="0.22683">
        <ele>833.40296630196</ele>
        <time>2021-06-21T16:27:37.299Z</time>
      </trkpt>
      <trkpt lat="42.98729" lon="0.22683">
        <ele>831.54542744183</ele>
        <time>2021-06-21T16:27:51.965Z</time>
      </trkpt>
      <trkpt lat="42.98745" lon="0.2267">
        <ele>829.64120613183</ele>
        <time>2021-06-21T16:28:06.634Z</time>
      </trkpt>
      <trkpt lat="42.98758" lon="0.22667">
        <ele>827.69256405465</ele>
        <time>2021-06-21T16:28:21.305Z</time>
      </trkpt>
      <trkpt lat="42.98784" lon="0.22666">
        <ele>825.68322335408</ele>
        <time>2021-06-21T16:28:35.980Z</time>
      </trkpt>
      <trkpt lat="42.9884" lon="0.22645">
        <ele>823.53387585141</ele>
        <time>2021-06-21T16:28:50.665Z</time>
      </trkpt>
      <trkpt lat="42.98903" lon="0.2263">
        <ele>821.39935465307</ele>
        <time>2021-06-21T16:29:05.360Z</time>
      </trkpt>
      <trkpt lat="42.98994" lon="0.2259">
        <ele>819.20084001537</ele>
        <time>2021-06-21T16:29:20.070Z</time>
      </trkpt>
      <trkpt lat="42.98994" lon="0.2259">
        <ele>817.19734215825</ele>
        <time>2021-06-21T16:29:34.780Z</time>
      </trkpt>
      <trkpt lat="42.99044" lon="0.22558">
        <ele>814.93215794752</ele>
        <time>2021-06-21T16:29:49.499Z</time>
      </trkpt>
      <trkpt lat="42.99069" lon="0.22538">
        <ele>812.95206532328</ele>
        <time>2021-06-21T16:30:04.223Z</time>
      </trkpt>
      <trkpt lat="42.99086" lon="0.22519">
        <ele>810.8714181835</ele>
        <time>2021-06-21T16:30:18.950Z</time>
      </trkpt>
      <trkpt lat="42.99115" lon="0.22476">
        <ele>808.64167466294</ele>
        <time>2021-06-21T16:30:33.684Z</time>
      </trkpt>
      <trkpt lat="42.99115" lon="0.22476">
        <ele>806.66154930905</ele>
        <time>2021-06-21T16:30:48.418Z</time>
      </trkpt>
      <trkpt lat="42.99143" lon="0.22421">
        <ele>804.68755999359</ele>
        <time>2021-06-21T16:31:03.160Z</time>
      </trkpt>
      <trkpt lat="42.99208" lon="0.22257">
        <ele>802.49381903637</ele>
        <time>2021-06-21T16:31:17.924Z</time>
      </trkpt>
      <trkpt lat="42.99212" lon="0.22239">
        <ele>800.56345165732</ele>
        <time>2021-06-21T16:31:32.690Z</time>
      </trkpt>
      <trkpt lat="42.99217" lon="0.22204">
        <ele>798.59503244068</ele>
        <time>2021-06-21T16:31:47.460Z</time>
      </trkpt>
      <trkpt lat="42.99217" lon="0.22204">
        <ele>796.73347701008</ele>
        <time>2021-06-21T16:32:02.230Z</time>
      </trkpt>
      <trkpt lat="42.99223" lon="0.22171">
        <ele>794.82860379181</ele>
        <time>2021-06-21T16:32:17.004Z</time>
      </trkpt>
      <trkpt lat="42.99235" lon="0.22126">
        <ele>792.9161858711</ele>
        <time>2021-06-21T16:32:31.784Z</time>
      </trkpt>
      <trkpt lat="42.99255" lon="0.22064">
        <ele>791.07058329686</ele>
        <time>2021-06-21T16:32:46.572Z</time>
      </trkpt>
      <trkpt lat="42.99257" lon="0.22036">
        <ele>789.33259195345</ele>
        <time>2021-06-21T16:33:01.363Z</time>
      </trkpt>
      <trkpt lat="42.99256" lon="0.2202">
        <ele>787.63617405536</ele>
        <time>2021-06-21T16:33:16.156Z</time>
      </trkpt>
      <trkpt lat="42.99253" lon="0.21972">
        <ele>785.95488989314</ele>
        <time>2021-06-21T16:33:30.955Z</time>
      </trkpt>
      <trkpt lat="42.99254" lon="0.21944">
        <ele>784.30447434446</ele>
        <time>2021-06-21T16:33:45.757Z</time>
      </trkpt>
      <trkpt lat="42.99255" lon="0.21923">
        <ele>782.69534063543</ele>
        <time>2021-06-21T16:34:00.561Z</time>
      </trkpt>
      <trkpt lat="42.99257" lon="0.21855">
        <ele>781.08882601763</ele>
        <time>2021-06-21T16:34:15.373Z</time>
      </trkpt>
      <trkpt lat="42.9926" lon="0.21793">
        <ele>779.61440226158</ele>
        <time>2021-06-21T16:34:30.193Z</time>
      </trkpt>
      <trkpt lat="42.9926" lon="0.21772">
        <ele>778.16051361906</ele>
        <time>2021-06-21T16:34:45.015Z</time>
      </trkpt>
      <trkpt lat="42.99261" lon="0.21739">
        <ele>776.74043862869</ele>
        <time>2021-06-21T16:34:59.841Z</time>
      </trkpt>
      <trkpt lat="42.99265" lon="0.21716">
        <ele>775.35023012228</ele>
        <time>2021-06-21T16:35:14.670Z</time>
      </trkpt>
      <trkpt lat="42.99267" lon="0.21699">
        <ele>773.96856588883</ele>
        <time>2021-06-21T16:35:29.501Z</time>
      </trkpt>
      <trkpt lat="42.99275" lon="0.21652">
        <ele>772.52559037416</ele>
        <time>2021-06-21T16:35:44.337Z</time>
      </trkpt>
      <trkpt lat="42.99281" lon="0.21623">
        <ele>771.19507797167</ele>
        <time>2021-06-21T16:35:59.177Z</time>
      </trkpt>
      <trkpt lat="42.99287" lon="0.21604">
        <ele>769.92120249031</ele>
        <time>2021-06-21T16:36:14.019Z</time>
      </trkpt>
      <trkpt lat="42.993" lon="0.21571">
        <ele>768.6569305164</ele>
        <time>2021-06-21T16:36:28.866Z</time>
      </trkpt>
      <trkpt lat="42.99354" lon="0.21458">
        <ele>767.25751394144</ele>
        <time>2021-06-21T16:36:43.729Z</time>
      </trkpt>
      <trkpt lat="42.99369" lon="0.2142">
        <ele>766.08757234736</ele>
        <time>2021-06-21T16:36:58.597Z</time>
      </trkpt>
      <trkpt lat="42.99369" lon="0.2142">
        <ele>764.97378864994</ele>
        <time>2021-06-21T16:37:13.465Z</time>
      </trkpt>
      <trkpt lat="42.99386" lon="0.21376">
        <ele>763.84223859666</ele>
        <time>2021-06-21T16:37:28.338Z</time>
      </trkpt>
      <trkpt lat="42.99409" lon="0.21306">
        <ele>762.70520962469</ele>
        <time>2021-06-21T16:37:43.221Z</time>
      </trkpt>
      <trkpt lat="42.99424" lon="0.21251">
        <ele>761.65968578198</ele>
        <time>2021-06-21T16:37:58.110Z</time>
      </trkpt>
      <trkpt lat="42.9945" lon="0.2116">
        <ele>760.61855607912</ele>
        <time>2021-06-21T16:38:13.011Z</time>
      </trkpt>
      <trkpt lat="42.99465" lon="0.2111">
        <ele>759.63637563107</ele>
        <time>2021-06-21T16:38:27.918Z</time>
      </trkpt>
      <trkpt lat="42.99465" lon="0.21108">
        <ele>758.6919367619</ele>
        <time>2021-06-21T16:38:42.825Z</time>
      </trkpt>
      <trkpt lat="42.99471" lon="0.2108">
        <ele>757.72668085683</ele>
        <time>2021-06-21T16:38:57.736Z</time>
      </trkpt>
      <trkpt lat="42.99475" lon="0.21064">
        <ele>756.80205194062</ele>
        <time>2021-06-21T16:39:12.649Z</time>
      </trkpt>
      <trkpt lat="42.99487" lon="0.21003">
        <ele>755.81403871061</ele>
        <time>2021-06-21T16:39:27.569Z</time>
      </trkpt>
      <trkpt lat="42.99496" lon="0.20975">
        <ele>754.88762169838</ele>
        <time>2021-06-21T16:39:42.493Z</time>
      </trkpt>
      <trkpt lat="42.99507" lon="0.20953">
        <ele>753.99845363003</ele>
        <time>2021-06-21T16:39:57.420Z</time>
      </trkpt>
      <trkpt lat="42.99521" lon="0.20934">
        <ele>753.14087262677</ele>
        <time>2021-06-21T16:40:12.350Z</time>
      </trkpt>
      <trkpt lat="42.99521" lon="0.20934">
        <ele>752.33783999717</ele>
        <time>2021-06-21T16:40:27.280Z</time>
      </trkpt>
      <trkpt lat="42.99548" lon="0.20912">
        <ele>751.49069536236</ele>
        <time>2021-06-21T16:40:42.215Z</time>
      </trkpt>
      <trkpt lat="42.99565" lon="0.20893">
        <ele>750.67152034942</ele>
        <time>2021-06-21T16:40:57.154Z</time>
      </trkpt>
      <trkpt lat="42.9958" lon="0.20869">
        <ele>749.88046816788</ele>
        <time>2021-06-21T16:41:12.096Z</time>
      </trkpt>
      <trkpt lat="42.99591" lon="0.20843">
        <ele>749.120982943</ele>
        <time>2021-06-21T16:41:27.042Z</time>
      </trkpt>
      <trkpt lat="42.99596" lon="0.20816">
        <ele>748.36695361994</ele>
        <time>2021-06-21T16:41:41.991Z</time>
      </trkpt>
      <trkpt lat="42.99605" lon="0.20757">
        <ele>747.62379390077</ele>
        <time>2021-06-21T16:41:56.947Z</time>
      </trkpt>
      <trkpt lat="42.99609" lon="0.2074">
        <ele>746.86046800392</ele>
        <time>2021-06-21T16:42:11.905Z</time>
      </trkpt>
      <trkpt lat="42.99618" lon="0.20715">
        <ele>746.10246752662</ele>
        <time>2021-06-21T16:42:26.867Z</time>
      </trkpt>
      <trkpt lat="42.99637" lon="0.20673">
        <ele>745.25748772</ele>
        <time>2021-06-21T16:42:41.834Z</time>
      </trkpt>
      <trkpt lat="42.99641" lon="0.20656">
        <ele>744.46469000637</ele>
        <time>2021-06-21T16:42:56.804Z</time>
      </trkpt>
      <trkpt lat="42.9964" lon="0.20617">
        <ele>743.65425838106</ele>
        <time>2021-06-21T16:43:11.778Z</time>
      </trkpt>
      <trkpt lat="42.99635" lon="0.20563">
        <ele>742.80185987187</ele>
        <time>2021-06-21T16:43:26.759Z</time>
      </trkpt>
      <trkpt lat="42.99636" lon="0.20546">
        <ele>741.97480031827</ele>
        <time>2021-06-21T16:43:41.742Z</time>
      </trkpt>
      <trkpt lat="42.99648" lon="0.20506">
        <ele>741.17704748677</ele>
        <time>2021-06-21T16:43:56.730Z</time>
      </trkpt>
      <trkpt lat="42.9968" lon="0.20443">
        <ele>740.16922104617</ele>
        <time>2021-06-21T16:44:11.727Z</time>
      </trkpt>
      <trkpt lat="42.9968" lon="0.20443">
        <ele>739.30289374418</ele>
        <time>2021-06-21T16:44:26.724Z</time>
      </trkpt>
      <trkpt lat="42.99701" lon="0.20399">
        <ele>738.42127556054</ele>
        <time>2021-06-21T16:44:41.727Z</time>
      </trkpt>
      <trkpt lat="42.99748" lon="0.2031">
        <ele>737.36184622355</ele>
        <time>2021-06-21T16:44:56.743Z</time>
      </trkpt>
      <trkpt lat="42.99761" lon="0.20284">
        <ele>736.39706987125</ele>
        <time>2021-06-21T16:45:11.762Z</time>
      </trkpt>
      <trkpt lat="42.99876" lon="0.20092">
        <ele>735.32876633227</ele>
        <time>2021-06-21T16:45:26.810Z</time>
      </trkpt>
      <trkpt lat="42.99876" lon="0.20092">
        <ele>734.37589122848</ele>
        <time>2021-06-21T16:45:41.858Z</time>
      </trkpt>
      <trkpt lat="42.9993" lon="0.19996">
        <ele>733.21964956561</ele>
        <time>2021-06-21T16:45:56.921Z</time>
      </trkpt>
      <trkpt lat="42.99945" lon="0.19965">
        <ele>732.18077053015</ele>
        <time>2021-06-21T16:46:11.988Z</time>
      </trkpt>
      <trkpt lat="42.99975" lon="0.19902">
        <ele>731.12786206413</ele>
        <time>2021-06-21T16:46:27.064Z</time>
      </trkpt>
      <trkpt lat="43.00033" lon="0.19805">
        <ele>730.09895142085</ele>
        <time>2021-06-21T16:46:42.154Z</time>
      </trkpt>
      <trkpt lat="43.00038" lon="0.19793">
        <ele>729.05386185996</ele>
        <time>2021-06-21T16:46:57.246Z</time>
      </trkpt>
      <trkpt lat="43.00038" lon="0.19793">
        <ele>728.00766187383</ele>
        <time>2021-06-21T16:47:12.338Z</time>
      </trkpt>
      <trkpt lat="43.00039" lon="0.19789">
        <ele>726.94214593452</ele>
        <time>2021-06-21T16:47:27.431Z</time>
      </trkpt>
      <trkpt lat="43.00046" lon="0.19774">
        <ele>725.84511591025</ele>
        <time>2021-06-21T16:47:42.526Z</time>
      </trkpt>
      <trkpt lat="43.00058" lon="0.19735">
        <ele>724.73772662937</ele>
        <time>2021-06-21T16:47:57.626Z</time>
      </trkpt>
      <trkpt lat="43.00071" lon="0.19705">
        <ele>723.63312309805</ele>
        <time>2021-06-21T16:48:12.730Z</time>
      </trkpt>
      <trkpt lat="43.00127" lon="0.19629">
        <ele>722.37031145307</ele>
        <time>2021-06-21T16:48:27.846Z</time>
      </trkpt>
      <trkpt lat="43.00127" lon="0.19628">
        <ele>721.21881877586</ele>
        <time>2021-06-21T16:48:42.963Z</time>
      </trkpt>
      <trkpt lat="43.00136" lon="0.19617">
        <ele>720.00750307285</ele>
        <time>2021-06-21T16:48:58.081Z</time>
      </trkpt>
      <trkpt lat="43.00145" lon="0.19595">
        <ele>718.77946935159</ele>
        <time>2021-06-21T16:49:13.202Z</time>
      </trkpt>
      <trkpt lat="43.0016" lon="0.19543">
        <ele>717.5795824877</ele>
        <time>2021-06-21T16:49:28.330Z</time>
      </trkpt>
      <trkpt lat="43.00174" lon="0.19507">
        <ele>716.32047640011</ele>
        <time>2021-06-21T16:49:43.463Z</time>
      </trkpt>
      <trkpt lat="43.00198" lon="0.1947">
        <ele>715.0062900028</ele>
        <time>2021-06-21T16:49:58.602Z</time>
      </trkpt>
      <trkpt lat="43.0023" lon="0.1942">
        <ele>713.66076555887</ele>
        <time>2021-06-21T16:50:13.748Z</time>
      </trkpt>
      <trkpt lat="43.00306" lon="0.19311">
        <ele>712.23942977614</ele>
        <time>2021-06-21T16:50:28.912Z</time>
      </trkpt>
      <trkpt lat="43.00342" lon="0.19265">
        <ele>710.80831753983</ele>
        <time>2021-06-21T16:50:44.084Z</time>
      </trkpt>
      <trkpt lat="43.00367" lon="0.19226">
        <ele>709.46535237181</ele>
        <time>2021-06-21T16:50:59.262Z</time>
      </trkpt>
      <trkpt lat="43.00387" lon="0.19199">
        <ele>708.08324845048</ele>
        <time>2021-06-21T16:51:14.444Z</time>
      </trkpt>
      <trkpt lat="43.00413" lon="0.19151">
        <ele>706.67192582099</ele>
        <time>2021-06-21T16:51:29.633Z</time>
      </trkpt>
      <trkpt lat="43.00413" lon="0.19151">
        <ele>705.33079543164</ele>
        <time>2021-06-21T16:51:44.822Z</time>
      </trkpt>
      <trkpt lat="43.00439" lon="0.19103">
        <ele>703.98431311673</ele>
        <time>2021-06-21T16:52:00.019Z</time>
      </trkpt>
      <trkpt lat="43.00512" lon="0.19022">
        <ele>702.65517646893</ele>
        <time>2021-06-21T16:52:15.231Z</time>
      </trkpt>
      <trkpt lat="43.00529" lon="0.18998">
        <ele>701.27431899539</ele>
        <time>2021-06-21T16:52:30.447Z</time>
      </trkpt>
      <trkpt lat="43.00529" lon="0.18998">
        <ele>699.88725823747</ele>
        <time>2021-06-21T16:52:45.663Z</time>
      </trkpt>
      <trkpt lat="43.0055" lon="0.18959">
        <ele>698.51499793727</ele>
        <time>2021-06-21T16:53:00.884Z</time>
      </trkpt>
      <trkpt lat="43.0055" lon="0.18959">
        <ele>697.10510252496</ele>
        <time>2021-06-21T16:53:16.105Z</time>
      </trkpt>
      <trkpt lat="43.00569" lon="0.18918">
        <ele>695.69510873208</ele>
        <time>2021-06-21T16:53:31.332Z</time>
      </trkpt>
      <trkpt lat="43.00576" lon="0.18911">
        <ele>694.24729386853</ele>
        <time>2021-06-21T16:53:46.560Z</time>
      </trkpt>
      <trkpt lat="43.00594" lon="0.18889">
        <ele>692.75964471755</ele>
        <time>2021-06-21T16:54:01.792Z</time>
      </trkpt>
      <trkpt lat="43.00631" lon="0.18849">
        <ele>691.21714595946</ele>
        <time>2021-06-21T16:54:17.032Z</time>
      </trkpt>
      <trkpt lat="43.00668" lon="0.18819">
        <ele>689.66749471686</ele>
        <time>2021-06-21T16:54:32.278Z</time>
      </trkpt>
      <trkpt lat="43.00703" lon="0.18792">
        <ele>688.10836800958</ele>
        <time>2021-06-21T16:54:47.531Z</time>
      </trkpt>
      <trkpt lat="43.00739" lon="0.18755">
        <ele>686.59044425415</ele>
        <time>2021-06-21T16:55:02.791Z</time>
      </trkpt>
      <trkpt lat="43.00847" lon="0.18637">
        <ele>684.93907618428</ele>
        <time>2021-06-21T16:55:18.073Z</time>
      </trkpt>
      <trkpt lat="43.00847" lon="0.18637">
        <ele>683.50554212527</ele>
        <time>2021-06-21T16:55:33.355Z</time>
      </trkpt>
      <trkpt lat="43.00937" lon="0.18535">
        <ele>681.95770307979</ele>
        <time>2021-06-21T16:55:48.656Z</time>
      </trkpt>
      <trkpt lat="43.00997" lon="0.18454">
        <ele>680.55773154262</ele>
        <time>2021-06-21T16:56:03.971Z</time>
      </trkpt>
      <trkpt lat="43.01063" lon="0.18367">
        <ele>679.05489619882</ele>
        <time>2021-06-21T16:56:19.300Z</time>
      </trkpt>
      <trkpt lat="43.01103" lon="0.18309">
        <ele>677.68170044074</ele>
        <time>2021-06-21T16:56:34.639Z</time>
      </trkpt>
      <trkpt lat="43.01138" lon="0.18262">
        <ele>676.28136031598</ele>
        <time>2021-06-21T16:56:49.985Z</time>
      </trkpt>
      <trkpt lat="43.0119" lon="0.18203">
        <ele>674.93441443137</ele>
        <time>2021-06-21T16:57:05.342Z</time>
      </trkpt>
      <trkpt lat="43.01206" lon="0.18181">
        <ele>673.60432571677</ele>
        <time>2021-06-21T16:57:20.703Z</time>
      </trkpt>
      <trkpt lat="43.01267" lon="0.18082">
        <ele>672.29895821836</ele>
        <time>2021-06-21T16:57:36.079Z</time>
      </trkpt>
      <trkpt lat="43.01292" lon="0.18056">
        <ele>671.09865631223</ele>
        <time>2021-06-21T16:57:51.460Z</time>
      </trkpt>
      <trkpt lat="43.01292" lon="0.18056">
        <ele>669.94687457574</ele>
        <time>2021-06-21T16:58:06.841Z</time>
      </trkpt>
      <trkpt lat="43.01294" lon="0.18052">
        <ele>668.83458889479</ele>
        <time>2021-06-21T16:58:22.223Z</time>
      </trkpt>
      <trkpt lat="43.01353" lon="0.17998">
        <ele>667.66217439225</ele>
        <time>2021-06-21T16:58:37.616Z</time>
      </trkpt>
      <trkpt lat="43.01449" lon="0.17909">
        <ele>666.54539565624</ele>
        <time>2021-06-21T16:58:53.028Z</time>
      </trkpt>
      <trkpt lat="43.01477" lon="0.17885">
        <ele>665.58560957288</ele>
        <time>2021-06-21T16:59:08.445Z</time>
      </trkpt>
      <trkpt lat="43.01513" lon="0.1786">
        <ele>664.66721867671</ele>
        <time>2021-06-21T16:59:23.868Z</time>
      </trkpt>
      <trkpt lat="43.01528" lon="0.17852">
        <ele>663.78790941894</ele>
        <time>2021-06-21T16:59:39.294Z</time>
      </trkpt>
      <trkpt lat="43.01528" lon="0.17852">
        <ele>662.98706784356</ele>
        <time>2021-06-21T16:59:54.720Z</time>
      </trkpt>
      <trkpt lat="43.0153" lon="0.17851">
        <ele>662.23871910855</ele>
        <time>2021-06-21T17:00:10.146Z</time>
      </trkpt>
      <trkpt lat="43.01547" lon="0.17839">
        <ele>661.52658499783</ele>
        <time>2021-06-21T17:00:25.575Z</time>
      </trkpt>
      <trkpt lat="43.01557" lon="0.17829">
        <ele>660.86765559792</ele>
        <time>2021-06-21T17:00:41.006Z</time>
      </trkpt>
      <trkpt lat="43.01559" lon="0.17826">
        <ele>660.28728613041</ele>
        <time>2021-06-21T17:00:56.438Z</time>
      </trkpt>
      <trkpt lat="43.01559" lon="0.17826">
        <ele>659.7724017117</ele>
        <time>2021-06-21T17:01:11.870Z</time>
      </trkpt>
      <trkpt lat="43.01569" lon="0.17812">
        <ele>659.2830839173</ele>
        <time>2021-06-21T17:01:27.304Z</time>
      </trkpt>
      <trkpt lat="43.01591" lon="0.17789">
        <ele>658.81888475092</ele>
        <time>2021-06-21T17:01:42.742Z</time>
      </trkpt>
      <trkpt lat="43.01603" lon="0.17781">
        <ele>658.48118776212</ele>
        <time>2021-06-21T17:01:58.183Z</time>
      </trkpt>
      <trkpt lat="43.01637" lon="0.17767">
        <ele>658.20602244641</ele>
        <time>2021-06-21T17:02:13.629Z</time>
      </trkpt>
      <trkpt lat="43.01637" lon="0.17767">
        <ele>657.98212464002</ele>
        <time>2021-06-21T17:02:29.075Z</time>
      </trkpt>
      <trkpt lat="43.01639" lon="0.17766">
        <ele>657.81559575214</ele>
        <time>2021-06-21T17:02:44.522Z</time>
      </trkpt>
      <trkpt lat="43.01675" lon="0.17742">
        <ele>657.71528194135</ele>
        <time>2021-06-21T17:02:59.975Z</time>
      </trkpt>
      <trkpt lat="43.01692" lon="0.17729">
        <ele>657.6417086019</ele>
        <time>2021-06-21T17:03:15.431Z</time>
      </trkpt>
      <trkpt lat="43.01697" lon="0.17726">
        <ele>657.63526506261</ele>
        <time>2021-06-21T17:03:30.888Z</time>
      </trkpt>
      <trkpt lat="43.0171" lon="0.17714">
        <ele>657.67382500005</ele>
        <time>2021-06-21T17:03:46.348Z</time>
      </trkpt>
      <trkpt lat="43.01711" lon="0.1772">
        <ele>657.77218107866</ele>
        <time>2021-06-21T17:04:01.808Z</time>
      </trkpt>
      <trkpt lat="43.01719" lon="0.17715">
        <ele>657.91478970515</ele>
        <time>2021-06-21T17:04:17.270Z</time>
      </trkpt>
      <trkpt lat="43.01721" lon="0.17723">
        <ele>658.10938675118</ele>
        <time>2021-06-21T17:04:32.733Z</time>
      </trkpt>
      <trkpt lat="43.01727" lon="0.1772">
        <ele>658.35137210384</ele>
        <time>2021-06-21T17:04:48.197Z</time>
      </trkpt>
      <trkpt lat="43.01754" lon="0.17792">
        <ele>658.57510267968</ele>
        <time>2021-06-21T17:05:03.670Z</time>
      </trkpt>
      <trkpt lat="43.01769" lon="0.17828">
        <ele>658.888168736</ele>
        <time>2021-06-21T17:05:19.148Z</time>
      </trkpt>
      <trkpt lat="43.01774" lon="0.17835">
        <ele>659.26314183673</ele>
        <time>2021-06-21T17:05:34.627Z</time>
      </trkpt>
      <trkpt lat="43.0179" lon="0.17827">
        <ele>659.68345687885</ele>
        <time>2021-06-21T17:05:50.109Z</time>
      </trkpt>
      <trkpt lat="43.01829" lon="0.17803">
        <ele>660.00814846767</ele>
        <time>2021-06-21T17:06:05.598Z</time>
      </trkpt>
      <trkpt lat="43.01829" lon="0.17803">
        <ele>660.49546234709</ele>
        <time>2021-06-21T17:06:21.087Z</time>
      </trkpt>
      <trkpt lat="43.01847" lon="0.17793">
        <ele>660.96607294919</ele>
        <time>2021-06-21T17:06:36.579Z</time>
      </trkpt>
      <trkpt lat="43.01847" lon="0.17793">
        <ele>661.5114341764</ele>
        <time>2021-06-21T17:06:52.071Z</time>
      </trkpt>
      <trkpt lat="43.01859" lon="0.17791">
        <ele>662.07552508413</ele>
        <time>2021-06-21T17:07:07.565Z</time>
      </trkpt>
      <trkpt lat="43.0187" lon="0.17792">
        <ele>662.65715688032</ele>
        <time>2021-06-21T17:07:23.060Z</time>
      </trkpt>
      <trkpt lat="43.01941" lon="0.17828">
        <ele>663.61318627074</ele>
        <time>2021-06-21T17:07:38.568Z</time>
      </trkpt>
      <trkpt lat="43.01946" lon="0.1783">
        <ele>664.26910515004</ele>
        <time>2021-06-21T17:07:54.076Z</time>
      </trkpt>
      <trkpt lat="43.01956" lon="0.17845">
        <ele>665.07391787806</ele>
        <time>2021-06-21T17:08:09.587Z</time>
      </trkpt>
      <trkpt lat="43.01959" lon="0.17847">
        <ele>665.7063089641</ele>
        <time>2021-06-21T17:08:25.098Z</time>
      </trkpt>
      <trkpt lat="43.01968" lon="0.17844">
        <ele>666.34274725624</ele>
        <time>2021-06-21T17:08:40.611Z</time>
      </trkpt>
      <trkpt lat="43.01968" lon="0.17844">
        <ele>666.91160090378</ele>
        <time>2021-06-21T17:08:56.124Z</time>
      </trkpt>
      <trkpt lat="43.02042" lon="0.17741">
        <ele>667.13892868334</ele>
        <time>2021-06-21T17:09:11.654Z</time>
      </trkpt>
      <trkpt lat="43.02084" lon="0.17688">
        <ele>667.60879448146</ele>
        <time>2021-06-21T17:09:27.193Z</time>
      </trkpt>
      <trkpt lat="43.02096" lon="0.17679">
        <ele>668.06636051685</ele>
        <time>2021-06-21T17:09:42.734Z</time>
      </trkpt>
      <trkpt lat="43.02162" lon="0.1764">
        <ele>668.57871941385</ele>
        <time>2021-06-21T17:09:58.287Z</time>
      </trkpt>
      <trkpt lat="43.02204" lon="0.17623">
        <ele>669.03452029102</ele>
        <time>2021-06-21T17:10:13.847Z</time>
      </trkpt>
      <trkpt lat="43.02228" lon="0.17615">
        <ele>669.45282164579</ele>
        <time>2021-06-21T17:10:29.411Z</time>
      </trkpt>
      <trkpt lat="43.02325" lon="0.17556">
        <ele>669.64850246934</ele>
        <time>2021-06-21T17:10:44.992Z</time>
      </trkpt>
      <trkpt lat="43.02381" lon="0.17524">
        <ele>669.91782846156</ele>
        <time>2021-06-21T17:11:00.582Z</time>
      </trkpt>
      <trkpt lat="43.0239" lon="0.17519">
        <ele>670.13740347576</ele>
        <time>2021-06-21T17:11:16.174Z</time>
      </trkpt>
      <trkpt lat="43.0241" lon="0.17508">
        <ele>670.24480491627</ele>
        <time>2021-06-21T17:11:31.769Z</time>
      </trkpt>
      <trkpt lat="43.02498" lon="0.17487">
        <ele>670.60745008398</ele>
        <time>2021-06-21T17:11:47.379Z</time>
      </trkpt>
      <trkpt lat="43.02534" lon="0.17473">
        <ele>670.70548694815</ele>
        <time>2021-06-21T17:12:02.994Z</time>
      </trkpt>
      <trkpt lat="43.02545" lon="0.17468">
        <ele>670.64433305269</ele>
        <time>2021-06-21T17:12:18.611Z</time>
      </trkpt>
      <trkpt lat="43.02614" lon="0.1744">
        <ele>670.55969201024</ele>
        <time>2021-06-21T17:12:34.240Z</time>
      </trkpt>
      <trkpt lat="43.02626" lon="0.17432">
        <ele>670.32059606324</ele>
        <time>2021-06-21T17:12:49.871Z</time>
      </trkpt>
      <trkpt lat="43.0264" lon="0.17414">
        <ele>669.88107020226</ele>
        <time>2021-06-21T17:13:05.505Z</time>
      </trkpt>
      <trkpt lat="43.02649" lon="0.17404">
        <ele>669.43994127103</ele>
        <time>2021-06-21T17:13:21.141Z</time>
      </trkpt>
      <trkpt lat="43.02666" lon="0.17394">
        <ele>668.94013123356</ele>
        <time>2021-06-21T17:13:36.780Z</time>
      </trkpt>
      <trkpt lat="43.02685" lon="0.17388">
        <ele>668.40628084601</ele>
        <time>2021-06-21T17:13:52.422Z</time>
      </trkpt>
      <trkpt lat="43.02819" lon="0.17383">
        <ele>668.07685671951</ele>
        <time>2021-06-21T17:14:08.086Z</time>
      </trkpt>
      <trkpt lat="43.02853" lon="0.17375">
        <ele>667.30765008301</ele>
        <time>2021-06-21T17:14:23.755Z</time>
      </trkpt>
      <trkpt lat="43.02906" lon="0.1736">
        <ele>666.38795743392</ele>
        <time>2021-06-21T17:14:39.433Z</time>
      </trkpt>
      <trkpt lat="43.02936" lon="0.17357">
        <ele>665.47121244398</ele>
        <time>2021-06-21T17:14:55.115Z</time>
      </trkpt>
      <trkpt lat="43.03021" lon="0.17312">
        <ele>664.02912281427</ele>
        <time>2021-06-21T17:15:10.812Z</time>
      </trkpt>
      <trkpt lat="43.03021" lon="0.17312">
        <ele>662.84419028326</ele>
        <time>2021-06-21T17:15:26.509Z</time>
      </trkpt>
      <trkpt lat="43.03045" lon="0.17295">
        <ele>661.42913236158</ele>
        <time>2021-06-21T17:15:42.210Z</time>
      </trkpt>
      <trkpt lat="43.03045" lon="0.17295">
        <ele>660.06048476207</ele>
        <time>2021-06-21T17:15:57.911Z</time>
      </trkpt>
      <trkpt lat="43.03094" lon="0.17263">
        <ele>658.50289469045</ele>
        <time>2021-06-21T17:16:13.621Z</time>
      </trkpt>
      <trkpt lat="43.0324" lon="0.1717">
        <ele>656.73287843137</ele>
        <time>2021-06-21T17:16:29.357Z</time>
      </trkpt>
      <trkpt lat="43.03274" lon="0.17137">
        <ele>654.96121274809</ele>
        <time>2021-06-21T17:16:45.100Z</time>
      </trkpt>
      <trkpt lat="43.03366" lon="0.17078">
        <ele>653.36596778413</ele>
        <time>2021-06-21T17:17:00.859Z</time>
      </trkpt>
      <trkpt lat="43.0342" lon="0.17034">
        <ele>651.22094471036</ele>
        <time>2021-06-21T17:17:16.628Z</time>
      </trkpt>
      <trkpt lat="43.03454" lon="0.17014">
        <ele>649.46263575878</ele>
        <time>2021-06-21T17:17:32.403Z</time>
      </trkpt>
      <trkpt lat="43.03516" lon="0.16978">
        <ele>647.52677354248</ele>
        <time>2021-06-21T17:17:48.189Z</time>
      </trkpt>
      <trkpt lat="43.03536" lon="0.16966">
        <ele>645.54478015505</ele>
        <time>2021-06-21T17:18:03.978Z</time>
      </trkpt>
      <trkpt lat="43.0357" lon="0.16927">
        <ele>643.42534665377</ele>
        <time>2021-06-21T17:18:19.774Z</time>
      </trkpt>
      <trkpt lat="43.0357" lon="0.16927">
        <ele>641.4773005992</ele>
        <time>2021-06-21T17:18:35.570Z</time>
      </trkpt>
      <trkpt lat="43.03594" lon="0.16918">
        <ele>639.51829288671</ele>
        <time>2021-06-21T17:18:51.370Z</time>
      </trkpt>
      <trkpt lat="43.03644" lon="0.16909">
        <ele>637.77333312406</ele>
        <time>2021-06-21T17:19:07.178Z</time>
      </trkpt>
      <trkpt lat="43.03767" lon="0.16866">
        <ele>635.54362132936</ele>
        <time>2021-06-21T17:19:23.007Z</time>
      </trkpt>
      <trkpt lat="43.0378" lon="0.1685">
        <ele>633.41509154751</ele>
        <time>2021-06-21T17:19:38.838Z</time>
      </trkpt>
      <trkpt lat="43.03785" lon="0.16845">
        <ele>631.36775220175</ele>
        <time>2021-06-21T17:19:54.670Z</time>
      </trkpt>
      <trkpt lat="43.03811" lon="0.16828">
        <ele>629.2360629444</ele>
        <time>2021-06-21T17:20:10.507Z</time>
      </trkpt>
      <trkpt lat="43.03832" lon="0.1682">
        <ele>627.1532680221</ele>
        <time>2021-06-21T17:20:26.347Z</time>
      </trkpt>
      <trkpt lat="43.03929" lon="0.16811">
        <ele>625.01450615553</ele>
        <time>2021-06-21T17:20:42.203Z</time>
      </trkpt>
      <trkpt lat="43.03958" lon="0.1681">
        <ele>622.8749376719</ele>
        <time>2021-06-21T17:20:58.064Z</time>
      </trkpt>
      <trkpt lat="43.03972" lon="0.16813">
        <ele>620.88606623758</ele>
        <time>2021-06-21T17:21:13.927Z</time>
      </trkpt>
      <trkpt lat="43.03998" lon="0.16811">
        <ele>618.86521959958</ele>
        <time>2021-06-21T17:21:29.794Z</time>
      </trkpt>
      <trkpt lat="43.03998" lon="0.16811">
        <ele>616.95250591147</ele>
        <time>2021-06-21T17:21:45.661Z</time>
      </trkpt>
      <trkpt lat="43.04045" lon="0.16797">
        <ele>614.93656278493</ele>
        <time>2021-06-21T17:22:01.536Z</time>
      </trkpt>
      <trkpt lat="43.04089" lon="0.16786">
        <ele>613.03701682751</ele>
        <time>2021-06-21T17:22:17.418Z</time>
      </trkpt>
      <trkpt lat="43.04106" lon="0.16784">
        <ele>611.22325135238</ele>
        <time>2021-06-21T17:22:33.303Z</time>
      </trkpt>
      <trkpt lat="43.04134" lon="0.16779">
        <ele>609.44659341619</ele>
        <time>2021-06-21T17:22:49.192Z</time>
      </trkpt>
      <trkpt lat="43.04134" lon="0.16779">
        <ele>607.71491224079</ele>
        <time>2021-06-21T17:23:05.081Z</time>
      </trkpt>
      <trkpt lat="43.04141" lon="0.16776">
        <ele>606.02158912368</ele>
        <time>2021-06-21T17:23:20.971Z</time>
      </trkpt>
      <trkpt lat="43.04188" lon="0.16744">
        <ele>604.33962683988</ele>
        <time>2021-06-21T17:23:36.870Z</time>
      </trkpt>
      <trkpt lat="43.04312" lon="0.16687">
        <ele>602.61505511351</ele>
        <time>2021-06-21T17:23:52.790Z</time>
      </trkpt>
      <trkpt lat="43.04323" lon="0.16666">
        <ele>601.02193818587</ele>
        <time>2021-06-21T17:24:08.713Z</time>
      </trkpt>
      <trkpt lat="43.04378" lon="0.1658">
        <ele>599.37115338952</ele>
        <time>2021-06-21T17:24:24.649Z</time>
      </trkpt>
      <trkpt lat="43.04404" lon="0.1655">
        <ele>597.8528813046</ele>
        <time>2021-06-21T17:24:40.590Z</time>
      </trkpt>
      <trkpt lat="43.04404" lon="0.1655">
        <ele>596.43259242432</ele>
        <time>2021-06-21T17:24:56.531Z</time>
      </trkpt>
      <trkpt lat="43.04514" lon="0.16414">
        <ele>594.90882904604</ele>
        <time>2021-06-21T17:25:12.496Z</time>
      </trkpt>
      <trkpt lat="43.04538" lon="0.16382">
        <ele>593.53346728844</ele>
        <time>2021-06-21T17:25:28.467Z</time>
      </trkpt>
      <trkpt lat="43.04555" lon="0.16369">
        <ele>592.22667835055</ele>
        <time>2021-06-21T17:25:44.441Z</time>
      </trkpt>
      <trkpt lat="43.04575" lon="0.16359">
        <ele>590.96530099849</ele>
        <time>2021-06-21T17:26:00.418Z</time>
      </trkpt>
      <trkpt lat="43.046" lon="0.16352">
        <ele>589.76323900251</ele>
        <time>2021-06-21T17:26:16.399Z</time>
      </trkpt>
      <trkpt lat="43.04678" lon="0.16338">
        <ele>588.60998238873</ele>
        <time>2021-06-21T17:26:32.393Z</time>
      </trkpt>
      <trkpt lat="43.0469" lon="0.16338">
        <ele>587.49867089428</ele>
        <time>2021-06-21T17:26:48.389Z</time>
      </trkpt>
      <trkpt lat="43.04703" lon="0.16341">
        <ele>586.42807787461</ele>
        <time>2021-06-21T17:27:04.387Z</time>
      </trkpt>
      <trkpt lat="43.04703" lon="0.16341">
        <ele>585.41561357585</ele>
        <time>2021-06-21T17:27:20.385Z</time>
      </trkpt>
      <trkpt lat="43.04747" lon="0.1636">
        <ele>584.38196524897</ele>
        <time>2021-06-21T17:27:36.390Z</time>
      </trkpt>
      <trkpt lat="43.04754" lon="0.16361">
        <ele>583.43528485666</ele>
        <time>2021-06-21T17:27:52.397Z</time>
      </trkpt>
      <trkpt lat="43.04771" lon="0.16359">
        <ele>582.51236464195</ele>
        <time>2021-06-21T17:28:08.406Z</time>
      </trkpt>
      <trkpt lat="43.04787" lon="0.1635">
        <ele>581.62313567487</ele>
        <time>2021-06-21T17:28:24.418Z</time>
      </trkpt>
      <trkpt lat="43.04804" lon="0.16335">
        <ele>580.76641863859</ele>
        <time>2021-06-21T17:28:40.433Z</time>
      </trkpt>
      <trkpt lat="43.04841" lon="0.16292">
        <ele>579.94379831833</ele>
        <time>2021-06-21T17:28:56.456Z</time>
      </trkpt>
      <trkpt lat="43.04885" lon="0.16262">
        <ele>579.11420640499</ele>
        <time>2021-06-21T17:29:12.487Z</time>
      </trkpt>
      <trkpt lat="43.0492" lon="0.1622">
        <ele>578.3147623994</ele>
        <time>2021-06-21T17:29:28.525Z</time>
      </trkpt>
      <trkpt lat="43.0492" lon="0.1622">
        <ele>577.59145405115</ele>
        <time>2021-06-21T17:29:44.563Z</time>
      </trkpt>
      <trkpt lat="43.04945" lon="0.16209">
        <ele>576.88122405718</ele>
        <time>2021-06-21T17:30:00.606Z</time>
      </trkpt>
      <trkpt lat="43.05009" lon="0.16196">
        <ele>576.19361042648</ele>
        <time>2021-06-21T17:30:16.659Z</time>
      </trkpt>
      <trkpt lat="43.05111" lon="0.16204">
        <ele>575.41621775479</ele>
        <time>2021-06-21T17:30:32.728Z</time>
      </trkpt>
      <trkpt lat="43.0514" lon="0.16205">
        <ele>574.75802296654</ele>
        <time>2021-06-21T17:30:48.802Z</time>
      </trkpt>
      <trkpt lat="43.0518" lon="0.16186">
        <ele>574.12568087666</ele>
        <time>2021-06-21T17:31:04.883Z</time>
      </trkpt>
      <trkpt lat="43.05199" lon="0.16179">
        <ele>573.51882200649</ele>
        <time>2021-06-21T17:31:20.967Z</time>
      </trkpt>
      <trkpt lat="43.05244" lon="0.16161">
        <ele>572.8955969377</ele>
        <time>2021-06-21T17:31:37.058Z</time>
      </trkpt>
      <trkpt lat="43.0525" lon="0.16159">
        <ele>572.32972188961</ele>
        <time>2021-06-21T17:31:53.150Z</time>
      </trkpt>
      <trkpt lat="43.05269" lon="0.16152">
        <ele>571.7678210398</ele>
        <time>2021-06-21T17:32:09.245Z</time>
      </trkpt>
      <trkpt lat="43.05273" lon="0.16151">
        <ele>571.24079503111</ele>
        <time>2021-06-21T17:32:25.341Z</time>
      </trkpt>
      <trkpt lat="43.05341" lon="0.16128">
        <ele>570.6322831672</ele>
        <time>2021-06-21T17:32:41.448Z</time>
      </trkpt>
      <trkpt lat="43.05416" lon="0.16117">
        <ele>570.06599890603</ele>
        <time>2021-06-21T17:32:57.567Z</time>
      </trkpt>
      <trkpt lat="43.0542" lon="0.16116">
        <ele>569.58628097354</ele>
        <time>2021-06-21T17:33:13.687Z</time>
      </trkpt>
      <trkpt lat="43.055" lon="0.16107">
        <ele>569.11444128631</ele>
        <time>2021-06-21T17:33:29.820Z</time>
      </trkpt>
      <trkpt lat="43.05529" lon="0.16102">
        <ele>568.65777378102</ele>
        <time>2021-06-21T17:33:45.957Z</time>
      </trkpt>
      <trkpt lat="43.05556" lon="0.16087">
        <ele>568.21201280281</ele>
        <time>2021-06-21T17:34:02.099Z</time>
      </trkpt>
      <trkpt lat="43.05571" lon="0.16073">
        <ele>567.76787804201</ele>
        <time>2021-06-21T17:34:18.244Z</time>
      </trkpt>
      <trkpt lat="43.05586" lon="0.1606">
        <ele>567.33653612676</ele>
        <time>2021-06-21T17:34:34.392Z</time>
      </trkpt>
      <trkpt lat="43.05586" lon="0.1606">
        <ele>566.93496169653</ele>
        <time>2021-06-21T17:34:50.540Z</time>
      </trkpt>
      <trkpt lat="43.05636" lon="0.16007">
        <ele>566.52988030893</ele>
        <time>2021-06-21T17:35:06.698Z</time>
      </trkpt>
      <trkpt lat="43.057" lon="0.16011">
        <ele>566.15310764592</ele>
        <time>2021-06-21T17:35:22.866Z</time>
      </trkpt>
      <trkpt lat="43.0578" lon="0.15986">
        <ele>565.73089419906</ele>
        <time>2021-06-21T17:35:39.047Z</time>
      </trkpt>
      <trkpt lat="43.0578" lon="0.15986">
        <ele>565.368818021</ele>
        <time>2021-06-21T17:35:55.228Z</time>
      </trkpt>
      <trkpt lat="43.05806" lon="0.15977">
        <ele>564.98648599179</ele>
        <time>2021-06-21T17:36:11.414Z</time>
      </trkpt>
      <trkpt lat="43.0583" lon="0.15962">
        <ele>564.6136968841</ele>
        <time>2021-06-21T17:36:27.604Z</time>
      </trkpt>
      <trkpt lat="43.05851" lon="0.15949">
        <ele>564.24328690479</ele>
        <time>2021-06-21T17:36:43.798Z</time>
      </trkpt>
      <trkpt lat="43.0587" lon="0.1594">
        <ele>563.88048586048</ele>
        <time>2021-06-21T17:36:59.995Z</time>
      </trkpt>
      <trkpt lat="43.05893" lon="0.15929">
        <ele>563.52054590573</ele>
        <time>2021-06-21T17:37:16.196Z</time>
      </trkpt>
      <trkpt lat="43.05959" lon="0.15896">
        <ele>563.17022104045</ele>
        <time>2021-06-21T17:37:32.408Z</time>
      </trkpt>
      <trkpt lat="43.05959" lon="0.15896">
        <ele>562.86677405327</ele>
        <time>2021-06-21T17:37:48.620Z</time>
      </trkpt>
      <trkpt lat="43.05977" lon="0.1589">
        <ele>562.57857451953</ele>
        <time>2021-06-21T17:38:04.835Z</time>
      </trkpt>
      <trkpt lat="43.06043" lon="0.15877">
        <ele>562.28753953008</ele>
        <time>2021-06-21T17:38:21.061Z</time>
      </trkpt>
      <trkpt lat="43.06049" lon="0.15901">
        <ele>561.99302565947</ele>
        <time>2021-06-21T17:38:37.290Z</time>
      </trkpt>
      <trkpt lat="43.06049" lon="0.15901">
        <ele>561.71595870118</ele>
        <time>2021-06-21T17:38:53.519Z</time>
      </trkpt>
      <trkpt lat="43.06043" lon="0.15877">
        <ele>562.28753953008</ele>
        <time>2021-06-21T17:39:09.751Z</time>
      </trkpt>
      <trkpt lat="43.06054" lon="0.15873">
        <ele>561.1788807424</ele>
        <time>2021-06-21T17:39:25.984Z</time>
      </trkpt>
      <trkpt lat="43.06098" lon="0.15862">
        <ele>560.89152356034</ele>
        <time>2021-06-21T17:39:42.225Z</time>
      </trkpt>
      <trkpt lat="43.06143" lon="0.1584">
        <ele>560.58454683361</ele>
        <time>2021-06-21T17:39:58.473Z</time>
      </trkpt>
      <trkpt lat="43.06157" lon="0.15836">
        <ele>560.32934785093</ele>
        <time>2021-06-21T17:40:14.723Z</time>
      </trkpt>
      <trkpt lat="43.0617" lon="0.15838">
        <ele>560.07373063598</ele>
        <time>2021-06-21T17:40:30.976Z</time>
      </trkpt>
      <trkpt lat="43.06213" lon="0.15854">
        <ele>559.78053506133</ele>
        <time>2021-06-21T17:40:47.236Z</time>
      </trkpt>
      <trkpt lat="43.06229" lon="0.15859">
        <ele>559.51230414905</ele>
        <time>2021-06-21T17:41:03.498Z</time>
      </trkpt>
      <trkpt lat="43.06247" lon="0.15864">
        <ele>559.24363034087</ele>
        <time>2021-06-21T17:41:19.763Z</time>
      </trkpt>
      <trkpt lat="43.06281" lon="0.15852">
        <ele>558.98794511642</ele>
        <time>2021-06-21T17:41:36.034Z</time>
      </trkpt>
      <trkpt lat="43.06302" lon="0.15848">
        <ele>558.7400558223</ele>
        <time>2021-06-21T17:41:52.308Z</time>
      </trkpt>
      <trkpt lat="43.06326" lon="0.15846">
        <ele>558.48980815</ele>
        <time>2021-06-21T17:42:08.586Z</time>
      </trkpt>
      <trkpt lat="43.06326" lon="0.15846">
        <ele>558.23744585248</ele>
        <time>2021-06-21T17:42:24.864Z</time>
      </trkpt>
      <trkpt lat="43.06365" lon="0.15844">
        <ele>557.96359227669</ele>
        <time>2021-06-21T17:42:41.148Z</time>
      </trkpt>
      <trkpt lat="43.0637" lon="0.15843">
        <ele>557.70155052185</ele>
        <time>2021-06-21T17:42:57.433Z</time>
      </trkpt>
      <trkpt lat="43.06423" lon="0.15824">
        <ele>557.35551231172</ele>
        <time>2021-06-21T17:43:13.727Z</time>
      </trkpt>
      <trkpt lat="43.06434" lon="0.15821">
        <ele>557.07974408498</ele>
        <time>2021-06-21T17:43:30.023Z</time>
      </trkpt>
      <trkpt lat="43.06434" lon="0.15821">
        <ele>556.81033700555</ele>
        <time>2021-06-21T17:43:46.319Z</time>
      </trkpt>
      <trkpt lat="43.06453" lon="0.15815">
        <ele>556.52194586778</ele>
        <time>2021-06-21T17:44:02.618Z</time>
      </trkpt>
      <trkpt lat="43.06517" lon="0.15807">
        <ele>556.17872523926</ele>
        <time>2021-06-21T17:44:18.927Z</time>
      </trkpt>
      <trkpt lat="43.06517" lon="0.15807">
        <ele>555.89185130043</ele>
        <time>2021-06-21T17:44:35.236Z</time>
      </trkpt>
      <trkpt lat="43.06561" lon="0.15803">
        <ele>555.57379257494</ele>
        <time>2021-06-21T17:44:51.552Z</time>
      </trkpt>
      <trkpt lat="43.06597" lon="0.158">
        <ele>555.25167119228</ele>
        <time>2021-06-21T17:45:07.874Z</time>
      </trkpt>
      <trkpt lat="43.06632" lon="0.15805">
        <ele>554.92508410666</ele>
        <time>2021-06-21T17:45:24.202Z</time>
      </trkpt>
      <trkpt lat="43.06653" lon="0.15812">
        <ele>554.59709020227</ele>
        <time>2021-06-21T17:45:40.533Z</time>
      </trkpt>
      <trkpt lat="43.06692" lon="0.15836">
        <ele>554.26447671311</ele>
        <time>2021-06-21T17:45:56.871Z</time>
      </trkpt>
      <trkpt lat="43.06699" lon="0.15838">
        <ele>553.91970013555</ele>
        <time>2021-06-21T17:46:13.210Z</time>
      </trkpt>
      <trkpt lat="43.06713" lon="0.1584">
        <ele>553.56087229356</ele>
        <time>2021-06-21T17:46:29.551Z</time>
      </trkpt>
      <trkpt lat="43.0672" lon="0.15839">
        <ele>553.18515918094</ele>
        <time>2021-06-21T17:46:45.893Z</time>
      </trkpt>
      <trkpt lat="43.06726" lon="0.15835">
        <ele>552.79120214656</ele>
        <time>2021-06-21T17:47:02.237Z</time>
      </trkpt>
      <trkpt lat="43.06775" lon="0.15785">
        <ele>552.35583063783</ele>
        <time>2021-06-21T17:47:18.590Z</time>
      </trkpt>
      <trkpt lat="43.06789" lon="0.15777">
        <ele>551.92014515178</ele>
        <time>2021-06-21T17:47:34.946Z</time>
      </trkpt>
      <trkpt lat="43.06789" lon="0.15777">
        <ele>551.47036526442</ele>
        <time>2021-06-21T17:47:51.302Z</time>
      </trkpt>
      <trkpt lat="43.06855" lon="0.15752">
        <ele>550.9168454148</ele>
        <time>2021-06-21T17:48:07.669Z</time>
      </trkpt>
      <trkpt lat="43.06943" lon="0.15722">
        <ele>550.40473029435</ele>
        <time>2021-06-21T17:48:24.050Z</time>
      </trkpt>
      <trkpt lat="43.06975" lon="0.15708">
        <ele>549.84105687416</ele>
        <time>2021-06-21T17:48:40.437Z</time>
      </trkpt>
      <trkpt lat="43.06986" lon="0.15702">
        <ele>549.28481694536</ele>
        <time>2021-06-21T17:48:56.825Z</time>
      </trkpt>
      <trkpt lat="43.07004" lon="0.15662">
        <ele>548.6866325683</ele>
        <time>2021-06-21T17:49:13.219Z</time>
      </trkpt>
      <trkpt lat="43.07009" lon="0.15663">
        <ele>548.09407577114</ele>
        <time>2021-06-21T17:49:29.614Z</time>
      </trkpt>
      <trkpt lat="43.07013" lon="0.1566">
        <ele>547.47448740671</ele>
        <time>2021-06-21T17:49:46.009Z</time>
      </trkpt>
      <trkpt lat="43.07014" lon="0.15653">
        <ele>546.82628678695</ele>
        <time>2021-06-21T17:50:02.405Z</time>
      </trkpt>
      <trkpt lat="43.07012" lon="0.15648">
        <ele>546.15014300932</ele>
        <time>2021-06-21T17:50:18.802Z</time>
      </trkpt>
      <trkpt lat="43.07015" lon="0.15645">
        <ele>545.44577614683</ele>
        <time>2021-06-21T17:50:35.200Z</time>
      </trkpt>
      <trkpt lat="43.07039" lon="0.15644">
        <ele>544.71253134625</ele>
        <time>2021-06-21T17:50:51.601Z</time>
      </trkpt>
      <trkpt lat="43.07116" lon="0.15617">
        <ele>543.92750923516</ele>
        <time>2021-06-21T17:51:08.015Z</time>
      </trkpt>
      <trkpt lat="43.0721" lon="0.15566">
        <ele>543.04283577645</ele>
        <time>2021-06-21T17:51:24.445Z</time>
      </trkpt>
      <trkpt lat="43.07237" lon="0.1555">
        <ele>542.20940042756</ele>
        <time>2021-06-21T17:51:40.880Z</time>
      </trkpt>
      <trkpt lat="43.07237" lon="0.1555">
        <ele>541.35572373681</ele>
        <time>2021-06-21T17:51:57.315Z</time>
      </trkpt>
      <trkpt lat="43.07277" lon="0.15528">
        <ele>540.43604688353</ele>
        <time>2021-06-21T17:52:13.757Z</time>
      </trkpt>
      <trkpt lat="43.07322" lon="0.15512">
        <ele>539.46577835747</ele>
        <time>2021-06-21T17:52:30.206Z</time>
      </trkpt>
      <trkpt lat="43.07383" lon="0.15495">
        <ele>538.48149837421</ele>
        <time>2021-06-21T17:52:46.665Z</time>
      </trkpt>
      <trkpt lat="43.07429" lon="0.1548">
        <ele>537.47871560003</ele>
        <time>2021-06-21T17:53:03.132Z</time>
      </trkpt>
      <trkpt lat="43.07546" lon="0.15453">
        <ele>536.44843350258</ele>
        <time>2021-06-21T17:53:19.618Z</time>
      </trkpt>
      <trkpt lat="43.07549" lon="0.15461">
        <ele>535.43192407631</ele>
        <time>2021-06-21T17:53:36.105Z</time>
      </trkpt>
      <trkpt lat="43.07555" lon="0.15466">
        <ele>534.39221968766</ele>
        <time>2021-06-21T17:53:52.593Z</time>
      </trkpt>
      <trkpt lat="43.07563" lon="0.15462">
        <ele>533.31835352553</ele>
        <time>2021-06-21T17:54:09.082Z</time>
      </trkpt>
      <trkpt lat="43.07567" lon="0.15455">
        <ele>532.22570016937</ele>
        <time>2021-06-21T17:54:25.572Z</time>
      </trkpt>
      <trkpt lat="43.07567" lon="0.15446">
        <ele>531.11634646135</ele>
        <time>2021-06-21T17:54:42.063Z</time>
      </trkpt>
      <trkpt lat="43.07624" lon="0.15407">
        <ele>529.96395339518</ele>
        <time>2021-06-21T17:54:58.565Z</time>
      </trkpt>
      <trkpt lat="43.07662" lon="0.15378">
        <ele>528.81410140785</ele>
        <time>2021-06-21T17:55:15.074Z</time>
      </trkpt>
      <trkpt lat="43.07687" lon="0.15354">
        <ele>527.63152161082</ele>
        <time>2021-06-21T17:55:31.588Z</time>
      </trkpt>
      <trkpt lat="43.07697" lon="0.15343">
        <ele>526.445700352</ele>
        <time>2021-06-21T17:55:48.104Z</time>
      </trkpt>
      <trkpt lat="43.0808" lon="0.14912">
        <ele>524.92493730599</ele>
        <time>2021-06-21T17:56:04.699Z</time>
      </trkpt>
      <trkpt lat="43.08216" lon="0.14759">
        <ele>523.66135128319</ele>
        <time>2021-06-21T17:56:21.322Z</time>
      </trkpt>
      <trkpt lat="43.0832" lon="0.14642">
        <ele>522.43529265972</ele>
        <time>2021-06-21T17:56:37.967Z</time>
      </trkpt>
      <trkpt lat="43.08321" lon="0.14639">
        <ele>521.28677408383</ele>
        <time>2021-06-21T17:56:54.612Z</time>
      </trkpt>
      <trkpt lat="43.08321" lon="0.14639">
        <ele>520.15308228776</ele>
        <time>2021-06-21T17:57:11.257Z</time>
      </trkpt>
      <trkpt lat="43.0856" lon="0.1437">
        <ele>518.87256382324</ele>
        <time>2021-06-21T17:57:27.952Z</time>
      </trkpt>
      <trkpt lat="43.0856" lon="0.1437">
        <ele>517.77384197128</ele>
        <time>2021-06-21T17:57:44.647Z</time>
      </trkpt>
      <trkpt lat="43.08649" lon="0.1427">
        <ele>516.87812478534</ele>
        <time>2021-06-21T17:58:01.360Z</time>
      </trkpt>
      <trkpt lat="43.08757" lon="0.14149">
        <ele>515.93444867844</ele>
        <time>2021-06-21T17:58:18.096Z</time>
      </trkpt>
      <trkpt lat="43.08836" lon="0.14087">
        <ele>515.01965680302</ele>
        <time>2021-06-21T17:58:34.846Z</time>
      </trkpt>
      <trkpt lat="43.0877" lon="0.14059">
        <ele>513.55042279133</ele>
        <time>2021-06-21T17:58:51.607Z</time>
      </trkpt>
      <trkpt lat="43.08749" lon="0.13995">
        <ele>512.39128710521</ele>
        <time>2021-06-21T17:59:08.376Z</time>
      </trkpt>
      <trkpt lat="43.08749" lon="0.13995">
        <ele>511.46041692129</ele>
        <time>2021-06-21T17:59:25.145Z</time>
      </trkpt>
      <trkpt lat="43.08716" lon="0.13896">
        <ele>510.51841022495</ele>
        <time>2021-06-21T17:59:41.927Z</time>
      </trkpt>
      <trkpt lat="43.08716" lon="0.13896">
        <ele>509.6677523963</ele>
        <time>2021-06-21T17:59:58.709Z</time>
      </trkpt>
      <trkpt lat="43.08695" lon="0.13836">
        <ele>508.87940699944</ele>
        <time>2021-06-21T18:00:15.499Z</time>
      </trkpt>
      <trkpt lat="43.08617" lon="0.13612">
        <ele>508.22055367595</ele>
        <time>2021-06-21T18:00:32.318Z</time>
      </trkpt>
      <trkpt lat="43.08683" lon="0.1357">
        <ele>507.39560939011</ele>
        <time>2021-06-21T18:00:49.149Z</time>
      </trkpt>
      <trkpt lat="43.0864" lon="0.13448">
        <ele>506.6881686555</ele>
        <time>2021-06-21T18:01:05.996Z</time>
      </trkpt>
      <trkpt lat="43.0864" lon="0.13448">
        <ele>506.05901751765</ele>
        <time>2021-06-21T18:01:22.843Z</time>
      </trkpt>
      <trkpt lat="43.08631" lon="0.13408">
        <ele>505.48024191328</ele>
        <time>2021-06-21T18:01:39.695Z</time>
      </trkpt>
      <trkpt lat="43.08632" lon="0.13381">
        <ele>504.94243721585</ele>
        <time>2021-06-21T18:01:56.550Z</time>
      </trkpt>
      <trkpt lat="43.08635" lon="0.13363">
        <ele>504.44260898421</ele>
        <time>2021-06-21T18:02:13.407Z</time>
      </trkpt>
      <trkpt lat="43.08646" lon="0.13335">
        <ele>503.97833148757</ele>
        <time>2021-06-21T18:02:30.268Z</time>
      </trkpt>
      <trkpt lat="43.08661" lon="0.13311">
        <ele>503.55852255262</ele>
        <time>2021-06-21T18:02:47.132Z</time>
      </trkpt>
      <trkpt lat="43.08661" lon="0.13311">
        <ele>503.19995639625</ele>
        <time>2021-06-21T18:03:03.996Z</time>
      </trkpt>
      <trkpt lat="43.08662" lon="0.1331">
        <ele>502.88308580791</ele>
        <time>2021-06-21T18:03:20.860Z</time>
      </trkpt>
      <trkpt lat="43.08668" lon="0.13303">
        <ele>502.60233944235</ele>
        <time>2021-06-21T18:03:37.726Z</time>
      </trkpt>
      <trkpt lat="43.08712" lon="0.13248">
        <ele>502.36046134521</ele>
        <time>2021-06-21T18:03:54.601Z</time>
      </trkpt>
      <trkpt lat="43.08725" lon="0.13231">
        <ele>502.12619407776</ele>
        <time>2021-06-21T18:04:11.479Z</time>
      </trkpt>
      <trkpt lat="43.08731" lon="0.13224">
        <ele>501.95220831288</ele>
        <time>2021-06-21T18:04:28.358Z</time>
      </trkpt>
      <trkpt lat="43.08746" lon="0.13192">
        <ele>501.8056916748</ele>
        <time>2021-06-21T18:04:45.242Z</time>
      </trkpt>
      <trkpt lat="43.08762" lon="0.1306">
        <ele>501.90153042191</ele>
        <time>2021-06-21T18:05:02.142Z</time>
      </trkpt>
      <trkpt lat="43.0877" lon="0.13023">
        <ele>502.00310334014</ele>
        <time>2021-06-21T18:05:19.046Z</time>
      </trkpt>
      <trkpt lat="43.0879" lon="0.12996">
        <ele>502.09063070115</ele>
        <time>2021-06-21T18:05:35.955Z</time>
      </trkpt>
      <trkpt lat="43.08831" lon="0.12951">
        <ele>501.81109010554</ele>
        <time>2021-06-21T18:05:52.872Z</time>
      </trkpt>
      <trkpt lat="43.08841" lon="0.12929">
        <ele>501.72693186795</ele>
        <time>2021-06-21T18:06:09.792Z</time>
      </trkpt>
      <trkpt lat="43.08863" lon="0.1285">
        <ele>501.91336561507</ele>
        <time>2021-06-21T18:06:26.722Z</time>
      </trkpt>
      <trkpt lat="43.08881" lon="0.12815">
        <ele>502.03538067136</ele>
        <time>2021-06-21T18:06:43.657Z</time>
      </trkpt>
      <trkpt lat="43.08941" lon="0.12728">
        <ele>502.03275518174</ele>
        <time>2021-06-21T18:07:00.606Z</time>
      </trkpt>
      <trkpt lat="43.09004" lon="0.12645">
        <ele>502.21548502734</ele>
        <time>2021-06-21T18:07:17.569Z</time>
      </trkpt>
      <trkpt lat="43.09046" lon="0.12603">
        <ele>502.45657589731</ele>
        <time>2021-06-21T18:07:34.540Z</time>
      </trkpt>
      <trkpt lat="43.09124" lon="0.12546">
        <ele>502.43350278633</ele>
        <time>2021-06-21T18:07:51.526Z</time>
      </trkpt>
      <trkpt lat="43.0914" lon="0.12538">
        <ele>502.5860384235</ele>
        <time>2021-06-21T18:08:08.514Z</time>
      </trkpt>
      <trkpt lat="43.09155" lon="0.12533">
        <ele>502.74526996353</ele>
        <time>2021-06-21T18:08:25.505Z</time>
      </trkpt>
      <trkpt lat="43.0921" lon="0.12527">
        <ele>502.8357999882</ele>
        <time>2021-06-21T18:08:42.505Z</time>
      </trkpt>
      <trkpt lat="43.0922" lon="0.12524">
        <ele>503.08631699408</ele>
        <time>2021-06-21T18:08:59.506Z</time>
      </trkpt>
      <trkpt lat="43.09228" lon="0.12516">
        <ele>503.37708350472</ele>
        <time>2021-06-21T18:09:16.509Z</time>
      </trkpt>
      <trkpt lat="43.09289" lon="0.12412">
        <ele>503.71681802632</ele>
        <time>2021-06-21T18:09:33.527Z</time>
      </trkpt>
      <trkpt lat="43.09289" lon="0.12412">
        <ele>504.01516536939</ele>
        <time>2021-06-21T18:09:50.545Z</time>
      </trkpt>
      <trkpt lat="43.09329" lon="0.12331">
        <ele>504.30731216928</ele>
        <time>2021-06-21T18:10:07.575Z</time>
      </trkpt>
      <trkpt lat="43.09351" lon="0.1229">
        <ele>504.64735045582</ele>
        <time>2021-06-21T18:10:24.611Z</time>
      </trkpt>
      <trkpt lat="43.09361" lon="0.12269">
        <ele>505.01310821028</ele>
        <time>2021-06-21T18:10:41.650Z</time>
      </trkpt>
      <trkpt lat="43.09369" lon="0.12244">
        <ele>505.40877163497</ele>
        <time>2021-06-21T18:10:58.692Z</time>
      </trkpt>
      <trkpt lat="43.09374" lon="0.1221">
        <ele>505.79261224862</ele>
        <time>2021-06-21T18:11:15.738Z</time>
      </trkpt>
      <trkpt lat="43.09374" lon="0.1221">
        <ele>506.17937699551</ele>
        <time>2021-06-21T18:11:32.784Z</time>
      </trkpt>
      <trkpt lat="43.09351" lon="0.12098">
        <ele>506.72353253441</ele>
        <time>2021-06-21T18:11:49.844Z</time>
      </trkpt>
      <trkpt lat="43.09351" lon="0.12098">
        <ele>507.12776933574</ele>
        <time>2021-06-21T18:12:06.904Z</time>
      </trkpt>
      <trkpt lat="43.09297" lon="0.11839">
        <ele>507.47999047434</ele>
        <time>2021-06-21T18:12:23.995Z</time>
      </trkpt>
      <trkpt lat="43.09285" lon="0.11791">
        <ele>507.81869486227</ele>
        <time>2021-06-21T18:12:41.092Z</time>
      </trkpt>
      <trkpt lat="43.09285" lon="0.11791">
        <ele>508.23790910133</ele>
        <time>2021-06-21T18:12:58.189Z</time>
      </trkpt>
      <trkpt lat="43.09249" lon="0.11632">
        <ele>508.931758416</ele>
        <time>2021-06-21T18:13:15.306Z</time>
      </trkpt>
      <trkpt lat="43.09238" lon="0.11601">
        <ele>509.40986056458</ele>
        <time>2021-06-21T18:13:32.427Z</time>
      </trkpt>
      <trkpt lat="43.09177" lon="0.11481">
        <ele>510.05213389259</ele>
        <time>2021-06-21T18:13:49.565Z</time>
      </trkpt>
      <trkpt lat="43.09114" lon="0.11344">
        <ele>510.2028038045</ele>
        <time>2021-06-21T18:14:06.722Z</time>
      </trkpt>
      <trkpt lat="43.09114" lon="0.11344">
        <ele>510.61093685475</ele>
        <time>2021-06-21T18:14:23.879Z</time>
      </trkpt>
      <trkpt lat="43.09098" lon="0.11308">
        <ele>510.94514988243</ele>
        <time>2021-06-21T18:14:41.041Z</time>
      </trkpt>
      <trkpt lat="43.09044" lon="0.11214">
        <ele>511.15226321525</ele>
        <time>2021-06-21T18:14:58.217Z</time>
      </trkpt>
      <trkpt lat="43.09035" lon="0.11192">
        <ele>511.61479529953</ele>
        <time>2021-06-21T18:15:15.396Z</time>
      </trkpt>
      <trkpt lat="43.09027" lon="0.11168">
        <ele>512.10486404197</ele>
        <time>2021-06-21T18:15:32.578Z</time>
      </trkpt>
      <trkpt lat="43.09014" lon="0.11108">
        <ele>512.64212415082</ele>
        <time>2021-06-21T18:15:49.767Z</time>
      </trkpt>
      <trkpt lat="43.08985" lon="0.10907">
        <ele>513.00925717079</ele>
        <time>2021-06-21T18:16:06.980Z</time>
      </trkpt>
      <trkpt lat="43.08953" lon="0.10703">
        <ele>513.19126280805</ele>
        <time>2021-06-21T18:16:24.218Z</time>
      </trkpt>
      <trkpt lat="43.08953" lon="0.10703">
        <ele>513.54490130566</ele>
        <time>2021-06-21T18:16:41.456Z</time>
      </trkpt>
      <trkpt lat="43.08941" lon="0.10639">
        <ele>514.11595117624</ele>
        <time>2021-06-21T18:16:58.701Z</time>
      </trkpt>
      <trkpt lat="43.08941" lon="0.10624">
        <ele>514.46911877947</ele>
        <time>2021-06-21T18:17:15.948Z</time>
      </trkpt>
      <trkpt lat="43.08941" lon="0.10601">
        <ele>514.93448641994</ele>
        <time>2021-06-21T18:17:33.198Z</time>
      </trkpt>
      <trkpt lat="43.08944" lon="0.10564">
        <ele>515.45187606341</ele>
        <time>2021-06-21T18:17:50.452Z</time>
      </trkpt>
      <trkpt lat="43.08949" lon="0.10521">
        <ele>515.69932845732</ele>
        <time>2021-06-21T18:18:07.711Z</time>
      </trkpt>
      <trkpt lat="43.08949" lon="0.10521">
        <ele>515.98163613269</ele>
        <time>2021-06-21T18:18:24.970Z</time>
      </trkpt>
      <trkpt lat="43.08969" lon="0.10445">
        <ele>515.97295115482</ele>
        <time>2021-06-21T18:18:42.239Z</time>
      </trkpt>
      <trkpt lat="43.08969" lon="0.1042">
        <ele>516.18982884971</ele>
        <time>2021-06-21T18:18:59.511Z</time>
      </trkpt>
      <trkpt lat="43.08968" lon="0.10406">
        <ele>516.47265912831</ele>
        <time>2021-06-21T18:19:16.784Z</time>
      </trkpt>
      <trkpt lat="43.08968" lon="0.10406">
        <ele>516.72189643453</ele>
        <time>2021-06-21T18:19:34.057Z</time>
      </trkpt>
      <trkpt lat="43.08962" lon="0.10393">
        <ele>517.04355083517</ele>
        <time>2021-06-21T18:19:51.332Z</time>
      </trkpt>
      <trkpt lat="43.08884" lon="0.10254">
        <ele>517.73271120676</ele>
        <time>2021-06-21T18:20:08.628Z</time>
      </trkpt>
      <trkpt lat="43.08882" lon="0.10232">
        <ele>517.92057887817</ele>
        <time>2021-06-21T18:20:25.926Z</time>
      </trkpt>
      <trkpt lat="43.08883" lon="0.10218">
        <ele>518.08685704201</ele>
        <time>2021-06-21T18:20:43.226Z</time>
      </trkpt>
      <trkpt lat="43.08904" lon="0.10163">
        <ele>517.75717569249</ele>
        <time>2021-06-21T18:21:00.533Z</time>
      </trkpt>
      <trkpt lat="43.08907" lon="0.10152">
        <ele>517.96179851913</ele>
        <time>2021-06-21T18:21:17.842Z</time>
      </trkpt>
      <trkpt lat="43.08905" lon="0.10083">
        <ele>518.29842934491</ele>
        <time>2021-06-21T18:21:35.159Z</time>
      </trkpt>
      <trkpt lat="43.0891" lon="0.09912">
        <ele>518.93389253618</ele>
        <time>2021-06-21T18:21:52.496Z</time>
      </trkpt>
      <trkpt lat="43.08911" lon="0.0977">
        <ele>519.23020262695</ele>
        <time>2021-06-21T18:22:09.849Z</time>
      </trkpt>
      <trkpt lat="43.08909" lon="0.0975">
        <ele>519.5632445536</ele>
        <time>2021-06-21T18:22:27.205Z</time>
      </trkpt>
      <trkpt lat="43.08902" lon="0.09728">
        <ele>519.97685056346</ele>
        <time>2021-06-21T18:22:44.563Z</time>
      </trkpt>
      <trkpt lat="43.0887" lon="0.09636">
        <ele>520.86639734976</ele>
        <time>2021-06-21T18:23:01.933Z</time>
      </trkpt>
      <trkpt lat="43.08861" lon="0.096">
        <ele>521.27092459759</ele>
        <time>2021-06-21T18:23:19.308Z</time>
      </trkpt>
      <trkpt lat="43.08855" lon="0.09564">
        <ele>521.63269229447</ele>
        <time>2021-06-21T18:23:36.687Z</time>
      </trkpt>
      <trkpt lat="43.08848" lon="0.09498">
        <ele>521.95563398934</ele>
        <time>2021-06-21T18:23:54.074Z</time>
      </trkpt>
      <trkpt lat="43.08804" lon="0.09386">
        <ele>522.38499786708</ele>
        <time>2021-06-21T18:24:11.476Z</time>
      </trkpt>
      <trkpt lat="43.08804" lon="0.09386">
        <ele>522.88166851707</ele>
        <time>2021-06-21T18:24:28.878Z</time>
      </trkpt>
      <trkpt lat="43.088" lon="0.09374">
        <ele>523.37919117218</ele>
        <time>2021-06-21T18:24:46.281Z</time>
      </trkpt>
      <trkpt lat="43.088" lon="0.09359">
        <ele>523.80559161704</ele>
        <time>2021-06-21T18:25:03.686Z</time>
      </trkpt>
      <trkpt lat="43.088" lon="0.09352">
        <ele>524.38195480675</ele>
        <time>2021-06-21T18:25:21.092Z</time>
      </trkpt>
      <trkpt lat="43.08799" lon="0.09346">
        <ele>525.03311037883</ele>
        <time>2021-06-21T18:25:38.499Z</time>
      </trkpt>
      <trkpt lat="43.08794" lon="0.09236">
        <ele>525.43158450615</ele>
        <time>2021-06-21T18:25:55.919Z</time>
      </trkpt>
      <trkpt lat="43.08794" lon="0.09217">
        <ele>526.3907564455</ele>
        <time>2021-06-21T18:26:13.341Z</time>
      </trkpt>
      <trkpt lat="43.08791" lon="0.09207">
        <ele>527.36090149381</ele>
        <time>2021-06-21T18:26:30.764Z</time>
      </trkpt>
      <trkpt lat="43.08777" lon="0.09187">
        <ele>528.44096672855</ele>
        <time>2021-06-21T18:26:48.190Z</time>
      </trkpt>
      <trkpt lat="43.08761" lon="0.09167">
        <ele>529.59280973145</ele>
        <time>2021-06-21T18:27:05.620Z</time>
      </trkpt>
      <trkpt lat="43.08735" lon="0.09143">
        <ele>530.90535665531</ele>
        <time>2021-06-21T18:27:23.055Z</time>
      </trkpt>
      <trkpt lat="43.0873" lon="0.09133">
        <ele>532.24962044293</ele>
        <time>2021-06-21T18:27:40.491Z</time>
      </trkpt>
      <trkpt lat="43.08726" lon="0.09124">
        <ele>533.66389143911</ele>
        <time>2021-06-21T18:27:57.928Z</time>
      </trkpt>
      <trkpt lat="43.08728" lon="0.09088">
        <ele>535.13775126695</ele>
        <time>2021-06-21T18:28:15.370Z</time>
      </trkpt>
      <trkpt lat="43.08722" lon="0.09018">
        <ele>536.94149801411</ele>
        <time>2021-06-21T18:28:32.820Z</time>
      </trkpt>
      <trkpt lat="43.08719" lon="0.08951">
        <ele>538.85089257394</ele>
        <time>2021-06-21T18:28:50.278Z</time>
      </trkpt>
      <trkpt lat="43.08717" lon="0.08927">
        <ele>540.66743953982</ele>
        <time>2021-06-21T18:29:07.739Z</time>
      </trkpt>
      <trkpt lat="43.08708" lon="0.08903">
        <ele>542.48572194618</ele>
        <time>2021-06-21T18:29:25.203Z</time>
      </trkpt>
      <trkpt lat="43.08687" lon="0.08857">
        <ele>544.43816875313</ele>
        <time>2021-06-21T18:29:42.673Z</time>
      </trkpt>
      <trkpt lat="43.0866" lon="0.08811">
        <ele>546.55556311803</ele>
        <time>2021-06-21T18:30:00.150Z</time>
      </trkpt>
      <trkpt lat="43.08623" lon="0.08774">
        <ele>548.58993523843</ele>
        <time>2021-06-21T18:30:17.634Z</time>
      </trkpt>
      <trkpt lat="43.08614" lon="0.08758">
        <ele>550.80476119666</ele>
        <time>2021-06-21T18:30:35.121Z</time>
      </trkpt>
      <trkpt lat="43.08605" lon="0.08753">
        <ele>552.93569316651</ele>
        <time>2021-06-21T18:30:52.609Z</time>
      </trkpt>
      <trkpt lat="43.08581" lon="0.08744">
        <ele>555.07451048972</ele>
        <time>2021-06-21T18:31:10.101Z</time>
      </trkpt>
      <trkpt lat="43.08547" lon="0.08719">
        <ele>557.57782323314</ele>
        <time>2021-06-21T18:31:27.599Z</time>
      </trkpt>
      <trkpt lat="43.08526" lon="0.0871">
        <ele>559.96976445631</ele>
        <time>2021-06-21T18:31:45.101Z</time>
      </trkpt>
      <trkpt lat="43.08477" lon="0.08699">
        <ele>562.27084779029</ele>
        <time>2021-06-21T18:32:02.611Z</time>
      </trkpt>
      <trkpt lat="43.08458" lon="0.0869">
        <ele>564.74242855282</ele>
        <time>2021-06-21T18:32:20.124Z</time>
      </trkpt>
      <trkpt lat="43.08439" lon="0.08676">
        <ele>567.34198957677</ele>
        <time>2021-06-21T18:32:37.641Z</time>
      </trkpt>
      <trkpt lat="43.08398" lon="0.08636">
        <ele>570.07125518126</ele>
        <time>2021-06-21T18:32:55.166Z</time>
      </trkpt>
      <trkpt lat="43.08395" lon="0.08615">
        <ele>572.79877963107</ele>
        <time>2021-06-21T18:33:12.693Z</time>
      </trkpt>
      <trkpt lat="43.084" lon="0.08549">
        <ele>575.84174184433</ele>
        <time>2021-06-21T18:33:30.228Z</time>
      </trkpt>
      <trkpt lat="43.084" lon="0.08549">
        <ele>578.4338836634</ele>
        <time>2021-06-21T18:33:47.763Z</time>
      </trkpt>
      <trkpt lat="43.08409" lon="0.08462">
        <ele>581.52001363853</ele>
        <time>2021-06-21T18:34:05.308Z</time>
      </trkpt>
      <trkpt lat="43.08413" lon="0.0844">
        <ele>584.31133241528</ele>
        <time>2021-06-21T18:34:22.856Z</time>
      </trkpt>
      <trkpt lat="43.08424" lon="0.08403">
        <ele>587.0978550283</ele>
        <time>2021-06-21T18:34:40.409Z</time>
      </trkpt>
      <trkpt lat="43.08423" lon="0.08393">
        <ele>589.7123752988</ele>
        <time>2021-06-21T18:34:57.963Z</time>
      </trkpt>
      <trkpt lat="43.08419" lon="0.08386">
        <ele>592.2922085467</ele>
        <time>2021-06-21T18:35:15.518Z</time>
      </trkpt>
      <trkpt lat="43.08415" lon="0.08382">
        <ele>594.82453013447</ele>
        <time>2021-06-21T18:35:33.074Z</time>
      </trkpt>
      <trkpt lat="43.08402" lon="0.08385">
        <ele>597.29109079286</ele>
        <time>2021-06-21T18:35:50.632Z</time>
      </trkpt>
      <trkpt lat="43.08368" lon="0.08404">
        <ele>599.60067579379</ele>
        <time>2021-06-21T18:36:08.196Z</time>
      </trkpt>
      <trkpt lat="43.08337" lon="0.08419">
        <ele>601.66957601204</ele>
        <time>2021-06-21T18:36:25.765Z</time>
      </trkpt>
      <trkpt lat="43.08328" lon="0.0842">
        <ele>603.98529170085</ele>
        <time>2021-06-21T18:36:43.335Z</time>
      </trkpt>
      <trkpt lat="43.08321" lon="0.08417">
        <ele>606.32538530878</ele>
        <time>2021-06-21T18:37:00.907Z</time>
      </trkpt>
      <trkpt lat="43.08315" lon="0.08407">
        <ele>608.7200617353</ele>
        <time>2021-06-21T18:37:18.480Z</time>
      </trkpt>
      <trkpt lat="43.0831" lon="0.08387">
        <ele>611.18930370314</ele>
        <time>2021-06-21T18:37:36.055Z</time>
      </trkpt>
      <trkpt lat="43.08308" lon="0.08328">
        <ele>613.89872870742</ele>
        <time>2021-06-21T18:37:53.637Z</time>
      </trkpt>
      <trkpt lat="43.08305" lon="0.08314">
        <ele>616.22433231686</ele>
        <time>2021-06-21T18:38:11.221Z</time>
      </trkpt>
      <trkpt lat="43.083" lon="0.08303">
        <ele>618.4617520012</ele>
        <time>2021-06-21T18:38:28.807Z</time>
      </trkpt>
      <trkpt lat="43.0828" lon="0.08268">
        <ele>620.5842788314</ele>
        <time>2021-06-21T18:38:46.398Z</time>
      </trkpt>
      <trkpt lat="43.08266" lon="0.08224">
        <ele>622.74375834901</ele>
        <time>2021-06-21T18:39:03.994Z</time>
      </trkpt>
      <trkpt lat="43.08265" lon="0.08214">
        <ele>624.81682329026</ele>
        <time>2021-06-21T18:39:21.592Z</time>
      </trkpt>
      <trkpt lat="43.08267" lon="0.08188">
        <ele>626.88595079895</ele>
        <time>2021-06-21T18:39:39.193Z</time>
      </trkpt>
      <trkpt lat="43.08281" lon="0.08153">
        <ele>629.03970518379</ele>
        <time>2021-06-21T18:39:56.798Z</time>
      </trkpt>
      <trkpt lat="43.0831" lon="0.08105">
        <ele>631.30283331076</ele>
        <time>2021-06-21T18:40:14.411Z</time>
      </trkpt>
      <trkpt lat="43.08324" lon="0.08076">
        <ele>633.14858321041</ele>
        <time>2021-06-21T18:40:32.028Z</time>
      </trkpt>
      <trkpt lat="43.08347" lon="0.08002">
        <ele>634.97956833967</ele>
        <time>2021-06-21T18:40:49.654Z</time>
      </trkpt>
      <trkpt lat="43.08358" lon="0.07943">
        <ele>636.78147354862</ele>
        <time>2021-06-21T18:41:07.287Z</time>
      </trkpt>
      <trkpt lat="43.08357" lon="0.07932">
        <ele>638.28008484219</ele>
        <time>2021-06-21T18:41:24.922Z</time>
      </trkpt>
      <trkpt lat="43.0835" lon="0.0791">
        <ele>639.59317538426</ele>
        <time>2021-06-21T18:41:42.559Z</time>
      </trkpt>
      <trkpt lat="43.0835" lon="0.0791">
        <ele>640.91951838154</ele>
        <time>2021-06-21T18:42:00.196Z</time>
      </trkpt>
      <trkpt lat="43.08347" lon="0.07902">
        <ele>642.11034266105</ele>
        <time>2021-06-21T18:42:17.834Z</time>
      </trkpt>
      <trkpt lat="43.08344" lon="0.0787">
        <ele>643.23366574933</ele>
        <time>2021-06-21T18:42:35.476Z</time>
      </trkpt>
      <trkpt lat="43.08352" lon="0.07842">
        <ele>644.36075610027</ele>
        <time>2021-06-21T18:42:53.122Z</time>
      </trkpt>
      <trkpt lat="43.08384" lon="0.07743">
        <ele>645.62072598105</ele>
        <time>2021-06-21T18:43:10.780Z</time>
      </trkpt>
      <trkpt lat="43.08423" lon="0.07636">
        <ele>646.81716461088</ele>
        <time>2021-06-21T18:43:28.452Z</time>
      </trkpt>
      <trkpt lat="43.08429" lon="0.0761">
        <ele>647.667755995</ele>
        <time>2021-06-21T18:43:46.128Z</time>
      </trkpt>
      <trkpt lat="43.08427" lon="0.07595">
        <ele>648.33651728981</ele>
        <time>2021-06-21T18:44:03.805Z</time>
      </trkpt>
      <trkpt lat="43.08393" lon="0.07527">
        <ele>648.76422368797</ele>
        <time>2021-06-21T18:44:21.492Z</time>
      </trkpt>
      <trkpt lat="43.08385" lon="0.07517">
        <ele>649.33412387178</ele>
        <time>2021-06-21T18:44:39.181Z</time>
      </trkpt>
      <trkpt lat="43.08381" lon="0.07512">
        <ele>649.80845699707</ele>
        <time>2021-06-21T18:44:56.871Z</time>
      </trkpt>
      <trkpt lat="43.08371" lon="0.07509">
        <ele>650.16297535068</ele>
        <time>2021-06-21T18:45:14.562Z</time>
      </trkpt>
      <trkpt lat="43.08364" lon="0.07509">
        <ele>650.45173966819</ele>
        <time>2021-06-21T18:45:32.254Z</time>
      </trkpt>
      <trkpt lat="43.08337" lon="0.07519">
        <ele>650.54884351774</ele>
        <time>2021-06-21T18:45:49.951Z</time>
      </trkpt>
      <trkpt lat="43.08318" lon="0.07522">
        <ele>650.93048605883</ele>
        <time>2021-06-21T18:46:07.651Z</time>
      </trkpt>
      <trkpt lat="43.08286" lon="0.07521">
        <ele>651.34982524879</ele>
        <time>2021-06-21T18:46:25.356Z</time>
      </trkpt>
      <trkpt lat="43.08274" lon="0.07525">
        <ele>651.57535890134</ele>
        <time>2021-06-21T18:46:43.063Z</time>
      </trkpt>
      <trkpt lat="43.08248" lon="0.07542">
        <ele>651.72008921755</ele>
        <time>2021-06-21T18:47:00.775Z</time>
      </trkpt>
      <trkpt lat="43.08228" lon="0.07553">
        <ele>651.85489575179</ele>
        <time>2021-06-21T18:47:18.490Z</time>
      </trkpt>
      <trkpt lat="43.08207" lon="0.07577">
        <ele>651.82650302699</ele>
        <time>2021-06-21T18:47:36.209Z</time>
      </trkpt>
      <trkpt lat="43.08197" lon="0.07582">
        <ele>651.94593617682</ele>
        <time>2021-06-21T18:47:53.930Z</time>
      </trkpt>
      <trkpt lat="43.08187" lon="0.07584">
        <ele>652.12516000667</ele>
        <time>2021-06-21T18:48:11.653Z</time>
      </trkpt>
      <trkpt lat="43.08173" lon="0.07581">
        <ele>652.38797135527</ele>
        <time>2021-06-21T18:48:29.378Z</time>
      </trkpt>
      <trkpt lat="43.08162" lon="0.0758">
        <ele>652.58458676435</ele>
        <time>2021-06-21T18:48:47.105Z</time>
      </trkpt>
      <trkpt lat="43.08142" lon="0.07587">
        <ele>652.67317042015</ele>
        <time>2021-06-21T18:49:04.835Z</time>
      </trkpt>
      <trkpt lat="43.08128" lon="0.07585">
        <ele>652.99291113313</ele>
        <time>2021-06-21T18:49:22.567Z</time>
      </trkpt>
      <trkpt lat="43.08115" lon="0.07586">
        <ele>653.34937747911</ele>
        <time>2021-06-21T18:49:40.302Z</time>
      </trkpt>
      <trkpt lat="43.08104" lon="0.07593">
        <ele>653.70201832824</ele>
        <time>2021-06-21T18:49:58.038Z</time>
      </trkpt>
      <trkpt lat="43.08079" lon="0.07621">
        <ele>653.7934868854</ele>
        <time>2021-06-21T18:50:15.780Z</time>
      </trkpt>
      <trkpt lat="43.08074" lon="0.07622">
        <ele>654.21875917215</ele>
        <time>2021-06-21T18:50:33.522Z</time>
      </trkpt>
      <trkpt lat="43.08068" lon="0.07621">
        <ele>654.70796255127</ele>
        <time>2021-06-21T18:50:51.265Z</time>
      </trkpt>
      <trkpt lat="43.08062" lon="0.07614">
        <ele>655.29565961705</ele>
        <time>2021-06-21T18:51:09.010Z</time>
      </trkpt>
      <trkpt lat="43.08058" lon="0.07604">
        <ele>655.97903657083</ele>
        <time>2021-06-21T18:51:26.756Z</time>
      </trkpt>
      <trkpt lat="43.08041" lon="0.07523">
        <ele>657.05940711477</ele>
        <time>2021-06-21T18:51:44.512Z</time>
      </trkpt>
      <trkpt lat="43.0804" lon="0.07497">
        <ele>657.99775892368</ele>
        <time>2021-06-21T18:52:02.271Z</time>
      </trkpt>
      <trkpt lat="43.08036" lon="0.07483">
        <ele>658.91888359287</ele>
        <time>2021-06-21T18:52:20.032Z</time>
      </trkpt>
      <trkpt lat="43.0802" lon="0.07454">
        <ele>659.85957136196</ele>
        <time>2021-06-21T18:52:37.797Z</time>
      </trkpt>
      <trkpt lat="43.08013" lon="0.07437">
        <ele>660.90176305666</ele>
        <time>2021-06-21T18:52:55.564Z</time>
      </trkpt>
      <trkpt lat="43.07907" lon="0.07322">
        <ele>661.94297893915</ele>
        <time>2021-06-21T18:53:13.353Z</time>
      </trkpt>
      <trkpt lat="43.07835" lon="0.07159">
        <ele>663.78311841118</ele>
        <time>2021-06-21T18:53:31.164Z</time>
      </trkpt>
      <trkpt lat="43.07835" lon="0.07159">
        <ele>664.91677461005</ele>
        <time>2021-06-21T18:53:48.975Z</time>
      </trkpt>
      <trkpt lat="43.07813" lon="0.07112">
        <ele>666.45072210118</ele>
        <time>2021-06-21T18:54:06.793Z</time>
      </trkpt>
      <trkpt lat="43.07807" lon="0.071">
        <ele>667.69682956037</ele>
        <time>2021-06-21T18:54:24.612Z</time>
      </trkpt>
      <trkpt lat="43.0778" lon="0.07036">
        <ele>669.06642411152</ele>
        <time>2021-06-21T18:54:42.440Z</time>
      </trkpt>
      <trkpt lat="43.07774" lon="0.07028">
        <ele>670.32041492434</ele>
        <time>2021-06-21T18:55:00.269Z</time>
      </trkpt>
      <trkpt lat="43.07762" lon="0.07021">
        <ele>671.64420644551</ele>
        <time>2021-06-21T18:55:18.101Z</time>
      </trkpt>
      <trkpt lat="43.07741" lon="0.07027">
        <ele>672.96746672369</ele>
        <time>2021-06-21T18:55:35.936Z</time>
      </trkpt>
      <trkpt lat="43.07741" lon="0.07027">
        <ele>674.2193714217</ele>
        <time>2021-06-21T18:55:53.771Z</time>
      </trkpt>
      <trkpt lat="43.07734" lon="0.07027">
        <ele>675.45728647821</ele>
        <time>2021-06-21T18:56:11.607Z</time>
      </trkpt>
      <trkpt lat="43.07685" lon="0.06996">
        <ele>676.53165185663</ele>
        <time>2021-06-21T18:56:29.452Z</time>
      </trkpt>
      <trkpt lat="43.07677" lon="0.06989">
        <ele>677.75746911562</ele>
        <time>2021-06-21T18:56:47.298Z</time>
      </trkpt>
      <trkpt lat="43.07653" lon="0.06965">
        <ele>678.88191387456</ele>
        <time>2021-06-21T18:57:05.149Z</time>
      </trkpt>
      <trkpt lat="43.07647" lon="0.0695">
        <ele>680.21031417431</ele>
        <time>2021-06-21T18:57:23.002Z</time>
      </trkpt>
      <trkpt lat="43.07647" lon="0.06938">
        <ele>681.60411026256</ele>
        <time>2021-06-21T18:57:40.856Z</time>
      </trkpt>
      <trkpt lat="43.07648" lon="0.06919">
        <ele>682.97244537919</ele>
        <time>2021-06-21T18:57:58.713Z</time>
      </trkpt>
      <trkpt lat="43.07674" lon="0.06845">
        <ele>684.30522064002</ele>
        <time>2021-06-21T18:58:16.579Z</time>
      </trkpt>
      <trkpt lat="43.07689" lon="0.06792">
        <ele>685.53817376456</ele>
        <time>2021-06-21T18:58:34.452Z</time>
      </trkpt>
      <trkpt lat="43.07708" lon="0.06752">
        <ele>686.62223651037</ele>
        <time>2021-06-21T18:58:52.331Z</time>
      </trkpt>
      <trkpt lat="43.07745" lon="0.06698">
        <ele>687.6915596675</ele>
        <time>2021-06-21T18:59:10.218Z</time>
      </trkpt>
      <trkpt lat="43.07745" lon="0.06698">
        <ele>688.99425717856</ele>
        <time>2021-06-21T18:59:28.105Z</time>
      </trkpt>
      <trkpt lat="43.07747" lon="0.06692">
        <ele>690.29853288636</ele>
        <time>2021-06-21T18:59:45.993Z</time>
      </trkpt>
      <trkpt lat="43.07748" lon="0.06678">
        <ele>691.69128532621</ele>
        <time>2021-06-21T19:00:03.883Z</time>
      </trkpt>
      <trkpt lat="43.07746" lon="0.06657">
        <ele>693.14364849803</ele>
        <time>2021-06-21T19:00:21.775Z</time>
      </trkpt>
      <trkpt lat="43.07738" lon="0.06643">
        <ele>694.59422626484</ele>
        <time>2021-06-21T19:00:39.669Z</time>
      </trkpt>
      <trkpt lat="43.07729" lon="0.06635">
        <ele>696.0301733562</ele>
        <time>2021-06-21T19:00:57.565Z</time>
      </trkpt>
      <trkpt lat="43.07717" lon="0.06625">
        <ele>697.46795581075</ele>
        <time>2021-06-21T19:01:15.463Z</time>
      </trkpt>
      <trkpt lat="43.07696" lon="0.06612">
        <ele>698.78712089951</ele>
        <time>2021-06-21T19:01:33.365Z</time>
      </trkpt>
      <trkpt lat="43.07687" lon="0.0661">
        <ele>700.15038986038</ele>
        <time>2021-06-21T19:01:51.268Z</time>
      </trkpt>
      <trkpt lat="43.07673" lon="0.06609">
        <ele>701.52926278133</ele>
        <time>2021-06-21T19:02:09.173Z</time>
      </trkpt>
      <trkpt lat="43.07622" lon="0.0661">
        <ele>703.00979242208</ele>
        <time>2021-06-21T19:02:27.087Z</time>
      </trkpt>
      <trkpt lat="43.07607" lon="0.06608">
        <ele>704.33505263184</ele>
        <time>2021-06-21T19:02:45.003Z</time>
      </trkpt>
      <trkpt lat="43.07568" lon="0.06596">
        <ele>705.63293465476</ele>
        <time>2021-06-21T19:03:02.925Z</time>
      </trkpt>
      <trkpt lat="43.07503" lon="0.06584">
        <ele>706.92345764117</ele>
        <time>2021-06-21T19:03:20.858Z</time>
      </trkpt>
      <trkpt lat="43.07487" lon="0.06584">
        <ele>708.19764230375</ele>
        <time>2021-06-21T19:03:38.793Z</time>
      </trkpt>
      <trkpt lat="43.07468" lon="0.06588">
        <ele>709.47215233599</ele>
        <time>2021-06-21T19:03:56.732Z</time>
      </trkpt>
      <trkpt lat="43.07417" lon="0.06605">
        <ele>710.95870591117</ele>
        <time>2021-06-21T19:04:14.679Z</time>
      </trkpt>
      <trkpt lat="43.074" lon="0.06604">
        <ele>712.21802134466</ele>
        <time>2021-06-21T19:04:32.629Z</time>
      </trkpt>
      <trkpt lat="43.07388" lon="0.06596">
        <ele>713.31627416277</ele>
        <time>2021-06-21T19:04:50.581Z</time>
      </trkpt>
      <trkpt lat="43.0738" lon="0.06582">
        <ele>714.30940389146</ele>
        <time>2021-06-21T19:05:08.535Z</time>
      </trkpt>
      <trkpt lat="43.07349" lon="0.06472">
        <ele>715.04432589422</ele>
        <time>2021-06-21T19:05:26.503Z</time>
      </trkpt>
      <trkpt lat="43.07326" lon="0.06419">
        <ele>715.94458635928</ele>
        <time>2021-06-21T19:05:44.478Z</time>
      </trkpt>
      <trkpt lat="43.07264" lon="0.0633">
        <ele>717.11714385091</ele>
        <time>2021-06-21T19:06:02.467Z</time>
      </trkpt>
      <trkpt lat="43.07244" lon="0.06289">
        <ele>718.01098564553</ele>
        <time>2021-06-21T19:06:20.462Z</time>
      </trkpt>
      <trkpt lat="43.07233" lon="0.06255">
        <ele>718.81670397085</ele>
        <time>2021-06-21T19:06:38.461Z</time>
      </trkpt>
      <trkpt lat="43.0723" lon="0.06229">
        <ele>719.41102555709</ele>
        <time>2021-06-21T19:06:56.464Z</time>
      </trkpt>
      <trkpt lat="43.07229" lon="0.06204">
        <ele>719.93318687814</ele>
        <time>2021-06-21T19:07:14.469Z</time>
      </trkpt>
      <trkpt lat="43.07234" lon="0.06187">
        <ele>720.38150696687</ele>
        <time>2021-06-21T19:07:32.477Z</time>
      </trkpt>
      <trkpt lat="43.07244" lon="0.06174">
        <ele>720.67315022328</ele>
        <time>2021-06-21T19:07:50.487Z</time>
      </trkpt>
      <trkpt lat="43.07261" lon="0.06163">
        <ele>720.77309662776</ele>
        <time>2021-06-21T19:08:08.500Z</time>
      </trkpt>
      <trkpt lat="43.07281" lon="0.06138">
        <ele>720.80008026638</ele>
        <time>2021-06-21T19:08:26.517Z</time>
      </trkpt>
      <trkpt lat="43.07289" lon="0.06132">
        <ele>720.89440133457</ele>
        <time>2021-06-21T19:08:44.536Z</time>
      </trkpt>
      <trkpt lat="43.07304" lon="0.06121">
        <ele>720.84031566308</ele>
        <time>2021-06-21T19:09:02.557Z</time>
      </trkpt>
      <trkpt lat="43.07378" lon="0.06083">
        <ele>720.43468822043</ele>
        <time>2021-06-21T19:09:20.591Z</time>
      </trkpt>
      <trkpt lat="43.07378" lon="0.06083">
        <ele>720.41701706034</ele>
        <time>2021-06-21T19:09:38.625Z</time>
      </trkpt>
      <trkpt lat="43.07388" lon="0.06076">
        <ele>720.3248773721</ele>
        <time>2021-06-21T19:09:56.661Z</time>
      </trkpt>
      <trkpt lat="43.07393" lon="0.06069">
        <ele>720.23836453465</ele>
        <time>2021-06-21T19:10:14.698Z</time>
      </trkpt>
      <trkpt lat="43.07397" lon="0.06055">
        <ele>720.18535637464</ele>
        <time>2021-06-21T19:10:32.737Z</time>
      </trkpt>
      <trkpt lat="43.07398" lon="0.0604">
        <ele>720.12069946381</ele>
        <time>2021-06-21T19:10:50.777Z</time>
      </trkpt>
      <trkpt lat="43.07397" lon="0.06019">
        <ele>719.94870802623</ele>
        <time>2021-06-21T19:11:08.820Z</time>
      </trkpt>
      <trkpt lat="43.07395" lon="0.05996">
        <ele>719.76957172438</ele>
        <time>2021-06-21T19:11:26.866Z</time>
      </trkpt>
      <trkpt lat="43.07385" lon="0.05956">
        <ele>719.64540058204</ele>
        <time>2021-06-21T19:11:44.917Z</time>
      </trkpt>
      <trkpt lat="43.07374" lon="0.05927">
        <ele>719.26675025359</ele>
        <time>2021-06-21T19:12:02.971Z</time>
      </trkpt>
      <trkpt lat="43.07364" lon="0.05909">
        <ele>718.92789810853</ele>
        <time>2021-06-21T19:12:21.028Z</time>
      </trkpt>
      <trkpt lat="43.07351" lon="0.05897">
        <ele>718.60628178298</ele>
        <time>2021-06-21T19:12:39.088Z</time>
      </trkpt>
      <trkpt lat="43.0725" lon="0.0583">
        <ele>718.43668861506</ele>
        <time>2021-06-21T19:12:57.166Z</time>
      </trkpt>
      <trkpt lat="43.07171" lon="0.05746">
        <ele>718.07648382887</ele>
        <time>2021-06-21T19:13:15.260Z</time>
      </trkpt>
      <trkpt lat="43.07136" lon="0.05692">
        <ele>717.61108583132</ele>
        <time>2021-06-21T19:13:33.362Z</time>
      </trkpt>
      <trkpt lat="43.0712" lon="0.05672">
        <ele>717.22286873356</ele>
        <time>2021-06-21T19:13:51.468Z</time>
      </trkpt>
      <trkpt lat="43.07086" lon="0.05632">
        <ele>716.89698237331</ele>
        <time>2021-06-21T19:14:09.581Z</time>
      </trkpt>
      <trkpt lat="43.07086" lon="0.05615">
        <ele>716.3761905898</ele>
        <time>2021-06-21T19:14:27.696Z</time>
      </trkpt>
      <trkpt lat="43.07089" lon="0.05609">
        <ele>715.8055568988</ele>
        <time>2021-06-21T19:14:45.812Z</time>
      </trkpt>
      <trkpt lat="43.07098" lon="0.05606">
        <ele>715.14662783059</ele>
        <time>2021-06-21T19:15:03.929Z</time>
      </trkpt>
      <trkpt lat="43.07134" lon="0.056">
        <ele>714.13591745652</ele>
        <time>2021-06-21T19:15:22.052Z</time>
      </trkpt>
      <trkpt lat="43.07153" lon="0.05596">
        <ele>713.3705646191</ele>
        <time>2021-06-21T19:15:40.178Z</time>
      </trkpt>
      <trkpt lat="43.07179" lon="0.05581">
        <ele>712.66673300345</ele>
        <time>2021-06-21T19:15:58.309Z</time>
      </trkpt>
      <trkpt lat="43.0719" lon="0.05566">
        <ele>712.05186069926</ele>
        <time>2021-06-21T19:16:16.442Z</time>
      </trkpt>
      <trkpt lat="43.07202" lon="0.05501">
        <ele>711.92195093355</ele>
        <time>2021-06-21T19:16:34.583Z</time>
      </trkpt>
      <trkpt lat="43.07206" lon="0.05482">
        <ele>711.52902686495</ele>
        <time>2021-06-21T19:16:52.726Z</time>
      </trkpt>
      <trkpt lat="43.07212" lon="0.05472">
        <ele>711.05049890369</ele>
        <time>2021-06-21T19:17:10.871Z</time>
      </trkpt>
      <trkpt lat="43.07222" lon="0.05466">
        <ele>710.50129005479</ele>
        <time>2021-06-21T19:17:29.017Z</time>
      </trkpt>
      <trkpt lat="43.07235" lon="0.05463">
        <ele>709.91505935943</ele>
        <time>2021-06-21T19:17:47.166Z</time>
      </trkpt>
      <trkpt lat="43.07258" lon="0.05467">
        <ele>709.15427786755</ele>
        <time>2021-06-21T19:18:05.318Z</time>
      </trkpt>
      <trkpt lat="43.07292" lon="0.05482">
        <ele>708.47021285282</ele>
        <time>2021-06-21T19:18:23.476Z</time>
      </trkpt>
      <trkpt lat="43.07299" lon="0.05484">
        <ele>708.11843636223</ele>
        <time>2021-06-21T19:18:41.635Z</time>
      </trkpt>
      <trkpt lat="43.07307" lon="0.05481">
        <ele>707.84665689867</ele>
        <time>2021-06-21T19:18:59.795Z</time>
      </trkpt>
      <trkpt lat="43.07314" lon="0.05473">
        <ele>707.6892088184</ele>
        <time>2021-06-21T19:19:17.957Z</time>
      </trkpt>
      <trkpt lat="43.07319" lon="0.05462">
        <ele>707.61363972024</ele>
        <time>2021-06-21T19:19:36.120Z</time>
      </trkpt>
      <trkpt lat="43.07346" lon="0.05281">
        <ele>708.3558877212</ele>
        <time>2021-06-21T19:19:54.305Z</time>
      </trkpt>
      <trkpt lat="43.07346" lon="0.05281">
        <ele>708.26595009564</ele>
        <time>2021-06-21T19:20:12.490Z</time>
      </trkpt>
      <trkpt lat="43.07354" lon="0.05243">
        <ele>708.17849539411</ele>
        <time>2021-06-21T19:20:30.680Z</time>
      </trkpt>
      <trkpt lat="43.07361" lon="0.05224">
        <ele>708.11880179657</ele>
        <time>2021-06-21T19:20:48.872Z</time>
      </trkpt>
      <trkpt lat="43.07369" lon="0.05209">
        <ele>708.13974363364</ele>
        <time>2021-06-21T19:21:07.066Z</time>
      </trkpt>
      <trkpt lat="43.07385" lon="0.05195">
        <ele>707.99960273436</ele>
        <time>2021-06-21T19:21:25.263Z</time>
      </trkpt>
      <trkpt lat="43.07392" lon="0.05182">
        <ele>708.00942139255</ele>
        <time>2021-06-21T19:21:43.462Z</time>
      </trkpt>
      <trkpt lat="43.07396" lon="0.05168">
        <ele>708.10544495193</ele>
        <time>2021-06-21T19:22:01.663Z</time>
      </trkpt>
      <trkpt lat="43.07396" lon="0.05149">
        <ele>708.31440903449</ele>
        <time>2021-06-21T19:22:19.866Z</time>
      </trkpt>
      <trkpt lat="43.07392" lon="0.05125">
        <ele>708.60521415207</ele>
        <time>2021-06-21T19:22:38.072Z</time>
      </trkpt>
      <trkpt lat="43.07393" lon="0.05117">
        <ele>708.75784027936</ele>
        <time>2021-06-21T19:22:56.279Z</time>
      </trkpt>
      <trkpt lat="43.07391" lon="0.05113">
        <ele>708.96038561913</ele>
        <time>2021-06-21T19:23:14.487Z</time>
      </trkpt>
      <trkpt lat="43.07391" lon="0.05112">
        <ele>709.15704564286</ele>
        <time>2021-06-21T19:23:32.695Z</time>
      </trkpt>
      <trkpt lat="43.07352" lon="0.05024">
        <ele>709.64617326168</ele>
        <time>2021-06-21T19:23:50.915Z</time>
      </trkpt>
      <trkpt lat="43.07324" lon="0.04922">
        <ele>709.94093869384</ele>
        <time>2021-06-21T19:24:09.148Z</time>
      </trkpt>
      <trkpt lat="43.07318" lon="0.04888">
        <ele>710.16500958817</ele>
        <time>2021-06-21T19:24:27.385Z</time>
      </trkpt>
      <trkpt lat="43.07315" lon="0.04858">
        <ele>710.42169667163</ele>
        <time>2021-06-21T19:24:45.625Z</time>
      </trkpt>
      <trkpt lat="43.0732" lon="0.04841">
        <ele>710.63120016011</ele>
        <time>2021-06-21T19:25:03.867Z</time>
      </trkpt>
      <trkpt lat="43.07329" lon="0.04824">
        <ele>710.77632653987</ele>
        <time>2021-06-21T19:25:22.112Z</time>
      </trkpt>
      <trkpt lat="43.0735" lon="0.04806">
        <ele>710.73436449856</ele>
        <time>2021-06-21T19:25:40.361Z</time>
      </trkpt>
      <trkpt lat="43.0735" lon="0.04806">
        <ele>711.00997404156</ele>
        <time>2021-06-21T19:25:58.610Z</time>
      </trkpt>
      <trkpt lat="43.07444" lon="0.04725">
        <ele>711.01954826635</ele>
        <time>2021-06-21T19:26:16.877Z</time>
      </trkpt>
      <trkpt lat="43.07472" lon="0.04713">
        <ele>711.31986157078</ele>
        <time>2021-06-21T19:26:35.148Z</time>
      </trkpt>
      <trkpt lat="43.07515" lon="0.04716">
        <ele>711.26061582031</ele>
        <time>2021-06-21T19:26:53.426Z</time>
      </trkpt>
      <trkpt lat="43.07532" lon="0.0471">
        <ele>711.60260146562</ele>
        <time>2021-06-21T19:27:11.707Z</time>
      </trkpt>
      <trkpt lat="43.07569" lon="0.04678">
        <ele>712.15107405952</ele>
        <time>2021-06-21T19:27:29.995Z</time>
      </trkpt>
      <trkpt lat="43.07605" lon="0.04629">
        <ele>712.76291045699</ele>
        <time>2021-06-21T19:27:48.291Z</time>
      </trkpt>
      <trkpt lat="43.07605" lon="0.04629">
        <ele>713.15842215139</ele>
        <time>2021-06-21T19:28:06.587Z</time>
      </trkpt>
      <trkpt lat="43.07652" lon="0.04568">
        <ele>713.51312467936</ele>
        <time>2021-06-21T19:28:24.894Z</time>
      </trkpt>
      <trkpt lat="43.07659" lon="0.04554">
        <ele>713.99601799045</ele>
        <time>2021-06-21T19:28:43.202Z</time>
      </trkpt>
      <trkpt lat="43.07663" lon="0.04542">
        <ele>714.48787153952</ele>
        <time>2021-06-21T19:29:01.512Z</time>
      </trkpt>
      <trkpt lat="43.07664" lon="0.04525">
        <ele>714.90335314986</ele>
        <time>2021-06-21T19:29:19.824Z</time>
      </trkpt>
      <trkpt lat="43.07662" lon="0.04508">
        <ele>715.36891208518</ele>
        <time>2021-06-21T19:29:38.138Z</time>
      </trkpt>
      <trkpt lat="43.07656" lon="0.04488">
        <ele>715.8699817966</ele>
        <time>2021-06-21T19:29:56.455Z</time>
      </trkpt>
      <trkpt lat="43.07632" lon="0.04454">
        <ele>716.49208916277</ele>
        <time>2021-06-21T19:30:14.777Z</time>
      </trkpt>
      <trkpt lat="43.07632" lon="0.04454">
        <ele>716.88216486866</ele>
        <time>2021-06-21T19:30:33.099Z</time>
      </trkpt>
      <trkpt lat="43.07628" lon="0.04445">
        <ele>717.24564661708</ele>
        <time>2021-06-21T19:30:51.422Z</time>
      </trkpt>
      <trkpt lat="43.07573" lon="0.04364">
        <ele>717.74810974238</ele>
        <time>2021-06-21T19:31:09.758Z</time>
      </trkpt>
      <trkpt lat="43.07573" lon="0.04364">
        <ele>718.06178661926</ele>
        <time>2021-06-21T19:31:28.094Z</time>
      </trkpt>
      <trkpt lat="43.07546" lon="0.04326">
        <ele>718.52037901704</ele>
        <time>2021-06-21T19:31:46.437Z</time>
      </trkpt>
      <trkpt lat="43.07533" lon="0.04303">
        <ele>718.80621004468</ele>
        <time>2021-06-21T19:32:04.783Z</time>
      </trkpt>
      <trkpt lat="43.07526" lon="0.0428">
        <ele>719.02285943771</ele>
        <time>2021-06-21T19:32:23.132Z</time>
      </trkpt>
      <trkpt lat="43.07525" lon="0.04257">
        <ele>719.15181702561</ele>
        <time>2021-06-21T19:32:41.484Z</time>
      </trkpt>
      <trkpt lat="43.07532" lon="0.04197">
        <ele>718.98442558938</ele>
        <time>2021-06-21T19:32:59.843Z</time>
      </trkpt>
      <trkpt lat="43.07534" lon="0.04134">
        <ele>719.10317064592</ele>
        <time>2021-06-21T19:33:18.209Z</time>
      </trkpt>
      <trkpt lat="43.0754" lon="0.04109">
        <ele>719.00609162965</ele>
        <time>2021-06-21T19:33:36.578Z</time>
      </trkpt>
      <trkpt lat="43.07548" lon="0.04092">
        <ele>718.78768598964</ele>
        <time>2021-06-21T19:33:54.950Z</time>
      </trkpt>
      <trkpt lat="43.07561" lon="0.04073">
        <ele>718.56836784723</ele>
        <time>2021-06-21T19:34:13.325Z</time>
      </trkpt>
      <trkpt lat="43.07568" lon="0.04053">
        <ele>718.46215572133</ele>
        <time>2021-06-21T19:34:31.702Z</time>
      </trkpt>
      <trkpt lat="43.07579" lon="0.03899">
        <ele>718.58543453881</ele>
        <time>2021-06-21T19:34:50.097Z</time>
      </trkpt>
      <trkpt lat="43.07588" lon="0.03867">
        <ele>718.31025567279</ele>
        <time>2021-06-21T19:35:08.496Z</time>
      </trkpt>
      <trkpt lat="43.07588" lon="0.03867">
        <ele>718.02942896393</ele>
        <time>2021-06-21T19:35:26.895Z</time>
      </trkpt>
      <trkpt lat="43.0759" lon="0.0386">
        <ele>717.68248994088</ele>
        <time>2021-06-21T19:35:45.295Z</time>
      </trkpt>
      <trkpt lat="43.07623" lon="0.0379">
        <ele>717.02821642327</ele>
        <time>2021-06-21T19:36:03.705Z</time>
      </trkpt>
      <trkpt lat="43.07633" lon="0.03768">
        <ele>716.4881704491</ele>
        <time>2021-06-21T19:36:22.118Z</time>
      </trkpt>
      <trkpt lat="43.07636" lon="0.03754">
        <ele>715.96722660269</ele>
        <time>2021-06-21T19:36:40.533Z</time>
      </trkpt>
      <trkpt lat="43.07635" lon="0.0373">
        <ele>715.5205864397</ele>
        <time>2021-06-21T19:36:58.951Z</time>
      </trkpt>
      <trkpt lat="43.07631" lon="0.03713">
        <ele>715.02665535191</ele>
        <time>2021-06-21T19:37:17.371Z</time>
      </trkpt>
      <trkpt lat="43.07621" lon="0.03695">
        <ele>714.40308218132</ele>
        <time>2021-06-21T19:37:35.793Z</time>
      </trkpt>
      <trkpt lat="43.07611" lon="0.03682">
        <ele>713.72403085458</ele>
        <time>2021-06-21T19:37:54.218Z</time>
      </trkpt>
      <trkpt lat="43.07508" lon="0.03597">
        <ele>713.22903563448</ele>
        <time>2021-06-21T19:38:12.662Z</time>
      </trkpt>
      <trkpt lat="43.07489" lon="0.03573">
        <ele>712.42938562711</ele>
        <time>2021-06-21T19:38:31.110Z</time>
      </trkpt>
      <trkpt lat="43.07482" lon="0.03557">
        <ele>711.54316727893</ele>
        <time>2021-06-21T19:38:49.560Z</time>
      </trkpt>
      <trkpt lat="43.07482" lon="0.03557">
        <ele>710.65044138372</ele>
        <time>2021-06-21T19:39:08.010Z</time>
      </trkpt>
      <trkpt lat="43.07477" lon="0.03542">
        <ele>709.64404481674</ele>
        <time>2021-06-21T19:39:26.462Z</time>
      </trkpt>
      <trkpt lat="43.07475" lon="0.0353">
        <ele>708.61845475446</ele>
        <time>2021-06-21T19:39:44.915Z</time>
      </trkpt>
      <trkpt lat="43.07474" lon="0.03497">
        <ele>707.44070581164</ele>
        <time>2021-06-21T19:40:03.372Z</time>
      </trkpt>
      <trkpt lat="43.07475" lon="0.0345">
        <ele>706.14417002579</ele>
        <time>2021-06-21T19:40:21.835Z</time>
      </trkpt>
      <trkpt lat="43.07474" lon="0.03428">
        <ele>704.93608535599</ele>
        <time>2021-06-21T19:40:40.300Z</time>
      </trkpt>
      <trkpt lat="43.07474" lon="0.03421">
        <ele>703.7606832313</ele>
        <time>2021-06-21T19:40:58.766Z</time>
      </trkpt>
      <trkpt lat="43.07471" lon="0.03403">
        <ele>702.54572111348</ele>
        <time>2021-06-21T19:41:17.234Z</time>
      </trkpt>
      <trkpt lat="43.07459" lon="0.03383">
        <ele>701.35819979504</ele>
        <time>2021-06-21T19:41:35.705Z</time>
      </trkpt>
      <trkpt lat="43.07445" lon="0.03366">
        <ele>700.13508212917</ele>
        <time>2021-06-21T19:41:54.179Z</time>
      </trkpt>
      <trkpt lat="43.0744" lon="0.0336">
        <ele>698.88131238534</ele>
        <time>2021-06-21T19:42:12.655Z</time>
      </trkpt>
      <trkpt lat="43.07433" lon="0.03357">
        <ele>697.63064446764</ele>
        <time>2021-06-21T19:42:31.132Z</time>
      </trkpt>
      <trkpt lat="43.07426" lon="0.03352">
        <ele>696.35409457544</ele>
        <time>2021-06-21T19:42:49.610Z</time>
      </trkpt>
      <trkpt lat="43.0742" lon="0.0335">
        <ele>695.01726769997</ele>
        <time>2021-06-21T19:43:08.089Z</time>
      </trkpt>
      <trkpt lat="43.07401" lon="0.03344">
        <ele>693.61746360942</ele>
        <time>2021-06-21T19:43:26.571Z</time>
      </trkpt>
      <trkpt lat="43.07359" lon="0.03342">
        <ele>692.11068024548</ele>
        <time>2021-06-21T19:43:45.060Z</time>
      </trkpt>
      <trkpt lat="43.07346" lon="0.03345">
        <ele>690.74709790141</ele>
        <time>2021-06-21T19:44:03.551Z</time>
      </trkpt>
      <trkpt lat="43.07334" lon="0.03352">
        <ele>689.34792181933</ele>
        <time>2021-06-21T19:44:22.044Z</time>
      </trkpt>
      <trkpt lat="43.07318" lon="0.03366">
        <ele>687.95491605604</ele>
        <time>2021-06-21T19:44:40.540Z</time>
      </trkpt>
      <trkpt lat="43.07298" lon="0.03386">
        <ele>686.61047981357</ele>
        <time>2021-06-21T19:44:59.040Z</time>
      </trkpt>
      <trkpt lat="43.07278" lon="0.03412">
        <ele>685.28786750713</ele>
        <time>2021-06-21T19:45:17.544Z</time>
      </trkpt>
      <trkpt lat="43.07268" lon="0.03434">
        <ele>684.06220266658</ele>
        <time>2021-06-21T19:45:36.051Z</time>
      </trkpt>
      <trkpt lat="43.07263" lon="0.03468">
        <ele>682.97216152037</ele>
        <time>2021-06-21T19:45:54.562Z</time>
      </trkpt>
      <trkpt lat="43.07254" lon="0.03482">
        <ele>681.76341239808</ele>
        <time>2021-06-21T19:46:13.076Z</time>
      </trkpt>
      <trkpt lat="43.07206" lon="0.03568">
        <ele>680.43722553448</ele>
        <time>2021-06-21T19:46:31.602Z</time>
      </trkpt>
      <trkpt lat="43.07173" lon="0.03616">
        <ele>679.12930334082</ele>
        <time>2021-06-21T19:46:50.136Z</time>
      </trkpt>
      <trkpt lat="43.07145" lon="0.03659">
        <ele>677.67502801478</ele>
        <time>2021-06-21T19:47:08.677Z</time>
      </trkpt>
      <trkpt lat="43.07136" lon="0.03677">
        <ele>676.49582930608</ele>
        <time>2021-06-21T19:47:27.220Z</time>
      </trkpt>
      <trkpt lat="43.07135" lon="0.03689">
        <ele>675.4715779707</ele>
        <time>2021-06-21T19:47:45.765Z</time>
      </trkpt>
      <trkpt lat="43.07136" lon="0.03695">
        <ele>674.53797034179</ele>
        <time>2021-06-21T19:48:04.310Z</time>
      </trkpt>
      <trkpt lat="43.07143" lon="0.03707">
        <ele>673.69354501514</ele>
        <time>2021-06-21T19:48:22.857Z</time>
      </trkpt>
      <trkpt lat="43.07189" lon="0.03763">
        <ele>673.0919837018</ele>
        <time>2021-06-21T19:48:41.414Z</time>
      </trkpt>
      <trkpt lat="43.07233" lon="0.03772">
        <ele>672.66186512962</ele>
        <time>2021-06-21T19:48:59.978Z</time>
      </trkpt>
      <trkpt lat="43.07233" lon="0.03772">
        <ele>671.93664945594</ele>
        <time>2021-06-21T19:49:18.542Z</time>
      </trkpt>
      <trkpt lat="43.07237" lon="0.03773">
        <ele>671.28846934933</ele>
        <time>2021-06-21T19:49:37.107Z</time>
      </trkpt>
      <trkpt lat="43.07241" lon="0.03782">
        <ele>670.6522617991</ele>
        <time>2021-06-21T19:49:55.673Z</time>
      </trkpt>
      <trkpt lat="43.07247" lon="0.03803">
        <ele>670.1293450775</ele>
        <time>2021-06-21T19:50:14.242Z</time>
      </trkpt>
      <trkpt lat="43.07245" lon="0.03813">
        <ele>669.61405417593</ele>
        <time>2021-06-21T19:50:32.812Z</time>
      </trkpt>
      <trkpt lat="43.07239" lon="0.03817">
        <ele>669.07436917324</ele>
        <time>2021-06-21T19:50:51.383Z</time>
      </trkpt>
      <trkpt lat="43.07222" lon="0.03838">
        <ele>668.57174356162</ele>
        <time>2021-06-21T19:51:09.958Z</time>
      </trkpt>
      <trkpt lat="43.07142" lon="0.0388">
        <ele>667.4785126673</ele>
        <time>2021-06-21T19:51:28.546Z</time>
      </trkpt>
      <trkpt lat="43.0713" lon="0.03891">
        <ele>666.95463666749</ele>
        <time>2021-06-21T19:51:47.137Z</time>
      </trkpt>
      <trkpt lat="43.07123" lon="0.03903">
        <ele>666.53642327004</ele>
        <time>2021-06-21T19:52:05.729Z</time>
      </trkpt>
      <trkpt lat="43.0712" lon="0.03918">
        <ele>666.14131364789</ele>
        <time>2021-06-21T19:52:24.323Z</time>
      </trkpt>
      <trkpt lat="43.07117" lon="0.03956">
        <ele>665.72962234607</ele>
        <time>2021-06-21T19:52:42.922Z</time>
      </trkpt>
      <trkpt lat="43.07121" lon="0.03983">
        <ele>665.53813723624</ele>
        <time>2021-06-21T19:53:01.524Z</time>
      </trkpt>
      <trkpt lat="43.07151" lon="0.04099">
        <ele>665.93524108402</ele>
        <time>2021-06-21T19:53:20.140Z</time>
      </trkpt>
      <trkpt lat="43.07149" lon="0.04103">
        <ele>665.71267449597</ele>
        <time>2021-06-21T19:53:38.757Z</time>
      </trkpt>
      <trkpt lat="43.07145" lon="0.04104">
        <ele>665.48177659595</ele>
        <time>2021-06-21T19:53:57.375Z</time>
      </trkpt>
      <trkpt lat="43.07112" lon="0.0409">
        <ele>664.89734229145</ele>
        <time>2021-06-21T19:54:15.998Z</time>
      </trkpt>
      <trkpt lat="43.07102" lon="0.04091">
        <ele>664.63868827228</ele>
        <time>2021-06-21T19:54:34.623Z</time>
      </trkpt>
      <trkpt lat="43.07092" lon="0.04095">
        <ele>664.4046422551</ele>
        <time>2021-06-21T19:54:53.249Z</time>
      </trkpt>
      <trkpt lat="43.07082" lon="0.04109">
        <ele>664.25778430104</ele>
        <time>2021-06-21T19:55:11.878Z</time>
      </trkpt>
      <trkpt lat="43.07075" lon="0.04135">
        <ele>664.19971468659</ele>
        <time>2021-06-21T19:55:30.510Z</time>
      </trkpt>
      <trkpt lat="43.07072" lon="0.04156">
        <ele>664.09905993625</ele>
        <time>2021-06-21T19:55:49.145Z</time>
      </trkpt>
      <trkpt lat="43.07073" lon="0.0418">
        <ele>664.00539047191</ele>
        <time>2021-06-21T19:56:07.782Z</time>
      </trkpt>
      <trkpt lat="43.07078" lon="0.04224">
        <ele>664.01152993884</ele>
        <time>2021-06-21T19:56:26.425Z</time>
      </trkpt>
      <trkpt lat="43.07089" lon="0.04266">
        <ele>663.91473247655</ele>
        <time>2021-06-21T19:56:45.073Z</time>
      </trkpt>
      <trkpt lat="43.07088" lon="0.04281">
        <ele>663.74407198368</ele>
        <time>2021-06-21T19:57:03.723Z</time>
      </trkpt>
      <trkpt lat="43.07084" lon="0.0429">
        <ele>663.54364266248</ele>
        <time>2021-06-21T19:57:22.374Z</time>
      </trkpt>
      <trkpt lat="43.07078" lon="0.04293">
        <ele>663.28777958541</ele>
        <time>2021-06-21T19:57:41.026Z</time>
      </trkpt>
      <trkpt lat="43.07068" lon="0.0429">
        <ele>662.98313712637</ele>
        <time>2021-06-21T19:57:59.679Z</time>
      </trkpt>
      <trkpt lat="43.07061" lon="0.04292">
        <ele>662.6268037713</ele>
        <time>2021-06-21T19:58:18.334Z</time>
      </trkpt>
      <trkpt lat="43.07034" lon="0.04317">
        <ele>662.46954724319</ele>
        <time>2021-06-21T19:58:36.994Z</time>
      </trkpt>
      <trkpt lat="43.07027" lon="0.04319">
        <ele>661.95979812797</ele>
        <time>2021-06-21T19:58:55.655Z</time>
      </trkpt>
      <trkpt lat="43.07021" lon="0.04317">
        <ele>661.37658825337</ele>
        <time>2021-06-21T19:59:14.317Z</time>
      </trkpt>
      <trkpt lat="43.07018" lon="0.04311">
        <ele>660.7178021061</ele>
        <time>2021-06-21T19:59:32.980Z</time>
      </trkpt>
      <trkpt lat="43.07023" lon="0.04275">
        <ele>659.83648892391</ele>
        <time>2021-06-21T19:59:51.647Z</time>
      </trkpt>
      <trkpt lat="43.07023" lon="0.04254">
        <ele>658.97697578283</ele>
        <time>2021-06-21T20:00:10.317Z</time>
      </trkpt>
      <trkpt lat="43.07019" lon="0.04239">
        <ele>658.08694075079</ele>
        <time>2021-06-21T20:00:28.988Z</time>
      </trkpt>
      <trkpt lat="43.07" lon="0.04194">
        <ele>657.18689364705</ele>
        <time>2021-06-21T20:00:47.665Z</time>
      </trkpt>
      <trkpt lat="43.06989" lon="0.04158">
        <ele>656.21802694548</ele>
        <time>2021-06-21T20:01:06.347Z</time>
      </trkpt>
      <trkpt lat="43.0698" lon="0.04121">
        <ele>655.16207253514</ele>
        <time>2021-06-21T20:01:25.034Z</time>
      </trkpt>
      <trkpt lat="43.06979" lon="0.04105">
        <ele>654.02715683753</ele>
        <time>2021-06-21T20:01:43.723Z</time>
      </trkpt>
      <trkpt lat="43.0698" lon="0.04079">
        <ele>652.74137985945</ele>
        <time>2021-06-21T20:02:02.415Z</time>
      </trkpt>
      <trkpt lat="43.06979" lon="0.04054">
        <ele>651.44745382664</ele>
        <time>2021-06-21T20:02:21.109Z</time>
      </trkpt>
      <trkpt lat="43.0694" lon="0.03917">
        <ele>650.27141370572</ele>
        <time>2021-06-21T20:02:39.821Z</time>
      </trkpt>
      <trkpt lat="43.06937" lon="0.03862">
        <ele>648.78936141894</ele>
        <time>2021-06-21T20:02:58.539Z</time>
      </trkpt>
      <trkpt lat="43.0693" lon="0.03841">
        <ele>647.43533649461</ele>
        <time>2021-06-21T20:03:17.260Z</time>
      </trkpt>
      <trkpt lat="43.06898" lon="0.03763">
        <ele>646.11360187532</ele>
        <time>2021-06-21T20:03:35.991Z</time>
      </trkpt>
      <trkpt lat="43.06892" lon="0.03739">
        <ele>644.71239193738</ele>
        <time>2021-06-21T20:03:54.725Z</time>
      </trkpt>
      <trkpt lat="43.06865" lon="0.03586">
        <ele>642.24305179206</ele>
        <time>2021-06-21T20:04:13.478Z</time>
      </trkpt>
      <trkpt lat="43.06861" lon="0.03579">
        <ele>640.87232484843</ele>
        <time>2021-06-21T20:04:32.232Z</time>
      </trkpt>
      <trkpt lat="43.06853" lon="0.03576">
        <ele>639.61692450215</ele>
        <time>2021-06-21T20:04:50.987Z</time>
      </trkpt>
      <trkpt lat="43.06844" lon="0.03576">
        <ele>638.44725704282</ele>
        <time>2021-06-21T20:05:09.744Z</time>
      </trkpt>
      <trkpt lat="43.06803" lon="0.03594">
        <ele>637.16546144404</ele>
        <time>2021-06-21T20:05:28.508Z</time>
      </trkpt>
      <trkpt lat="43.06803" lon="0.03594">
        <ele>635.90646005952</ele>
        <time>2021-06-21T20:05:47.272Z</time>
      </trkpt>
      <trkpt lat="43.06789" lon="0.03602">
        <ele>634.7212691647</ele>
        <time>2021-06-21T20:06:06.038Z</time>
      </trkpt>
      <trkpt lat="43.06753" lon="0.03608">
        <ele>633.39009594756</ele>
        <time>2021-06-21T20:06:24.810Z</time>
      </trkpt>
      <trkpt lat="43.06723" lon="0.0363">
        <ele>631.98754320568</ele>
        <time>2021-06-21T20:06:43.587Z</time>
      </trkpt>
      <trkpt lat="43.06708" lon="0.03649">
        <ele>630.81344062683</ele>
        <time>2021-06-21T20:07:02.367Z</time>
      </trkpt>
      <trkpt lat="43.06678" lon="0.03708">
        <ele>629.74830849564</ele>
        <time>2021-06-21T20:07:21.156Z</time>
      </trkpt>
      <trkpt lat="43.06667" lon="0.03731">
        <ele>628.70716114104</ele>
        <time>2021-06-21T20:07:39.948Z</time>
      </trkpt>
      <trkpt lat="43.0666" lon="0.03754">
        <ele>627.74695892738</ele>
        <time>2021-06-21T20:07:58.743Z</time>
      </trkpt>
      <trkpt lat="43.06647" lon="0.03836">
        <ele>627.04802275828</ele>
        <time>2021-06-21T20:08:17.548Z</time>
      </trkpt>
      <trkpt lat="43.06637" lon="0.03863">
        <ele>626.16080952874</ele>
        <time>2021-06-21T20:08:36.356Z</time>
      </trkpt>
      <trkpt lat="43.06621" lon="0.03883">
        <ele>625.22019200328</ele>
        <time>2021-06-21T20:08:55.168Z</time>
      </trkpt>
      <trkpt lat="43.06615" lon="0.03896">
        <ele>624.35220012416</ele>
        <time>2021-06-21T20:09:13.982Z</time>
      </trkpt>
      <trkpt lat="43.06614" lon="0.03905">
        <ele>623.54255432484</ele>
        <time>2021-06-21T20:09:32.797Z</time>
      </trkpt>
      <trkpt lat="43.06623" lon="0.03985">
        <ele>623.1164284161</ele>
        <time>2021-06-21T20:09:51.621Z</time>
      </trkpt>
      <trkpt lat="43.06623" lon="0.03993">
        <ele>622.32643176228</ele>
        <time>2021-06-21T20:10:10.446Z</time>
      </trkpt>
      <trkpt lat="43.0662" lon="0.04">
        <ele>621.52815252542</ele>
        <time>2021-06-21T20:10:29.272Z</time>
      </trkpt>
      <trkpt lat="43.06619" lon="0.04002">
        <ele>620.73897472817</ele>
        <time>2021-06-21T20:10:48.098Z</time>
      </trkpt>
      <trkpt lat="43.06615" lon="0.04001">
        <ele>619.92730271052</ele>
        <time>2021-06-21T20:11:06.925Z</time>
      </trkpt>
      <trkpt lat="43.06611" lon="0.03994">
        <ele>619.10528132443</ele>
        <time>2021-06-21T20:11:25.753Z</time>
      </trkpt>
      <trkpt lat="43.06567" lon="0.03891">
        <ele>618.12057774917</ele>
        <time>2021-06-21T20:11:44.595Z</time>
      </trkpt>
      <trkpt lat="43.06566" lon="0.03874">
        <ele>617.28852804066</ele>
        <time>2021-06-21T20:12:03.439Z</time>
      </trkpt>
      <trkpt lat="43.06568" lon="0.03863">
        <ele>616.3857544756</ele>
        <time>2021-06-21T20:12:22.284Z</time>
      </trkpt>
      <trkpt lat="43.06573" lon="0.03853">
        <ele>615.47880076321</ele>
        <time>2021-06-21T20:12:41.131Z</time>
      </trkpt>
      <trkpt lat="43.06582" lon="0.03837">
        <ele>614.64331446054</ele>
        <time>2021-06-21T20:12:59.980Z</time>
      </trkpt>
      <trkpt lat="43.06585" lon="0.03828">
        <ele>613.89591901229</ele>
        <time>2021-06-21T20:13:18.830Z</time>
      </trkpt>
      <trkpt lat="43.06587" lon="0.03812">
        <ele>613.13683733644</ele>
        <time>2021-06-21T20:13:37.682Z</time>
      </trkpt>
      <trkpt lat="43.06583" lon="0.03764">
        <ele>612.1644051605</ele>
        <time>2021-06-21T20:13:56.540Z</time>
      </trkpt>
      <trkpt lat="43.06584" lon="0.03755">
        <ele>611.48675510207</ele>
        <time>2021-06-21T20:14:15.399Z</time>
      </trkpt>
      <trkpt lat="43.06582" lon="0.03741">
        <ele>610.79582480269</ele>
        <time>2021-06-21T20:14:34.260Z</time>
      </trkpt>
      <trkpt lat="43.06574" lon="0.03734">
        <ele>610.17203678894</ele>
        <time>2021-06-21T20:14:53.122Z</time>
      </trkpt>
      <trkpt lat="43.06562" lon="0.03731">
        <ele>609.60630263503</ele>
        <time>2021-06-21T20:15:11.986Z</time>
      </trkpt>
      <trkpt lat="43.06546" lon="0.03736">
        <ele>609.10322652215</ele>
        <time>2021-06-21T20:15:30.853Z</time>
      </trkpt>
      <trkpt lat="43.06522" lon="0.0375">
        <ele>608.85018569939</ele>
        <time>2021-06-21T20:15:49.724Z</time>
      </trkpt>
      <trkpt lat="43.065" lon="0.03772">
        <ele>608.66378065479</ele>
        <time>2021-06-21T20:16:08.599Z</time>
      </trkpt>
      <trkpt lat="43.06491" lon="0.03779">
        <ele>608.21230208193</ele>
        <time>2021-06-21T20:16:27.476Z</time>
      </trkpt>
      <trkpt lat="43.06479" lon="0.03782">
        <ele>607.72441884013</ele>
        <time>2021-06-21T20:16:46.355Z</time>
      </trkpt>
      <trkpt lat="43.06373" lon="0.03783">
        <ele>606.93473510531</ele>
        <time>2021-06-21T20:17:05.251Z</time>
      </trkpt>
      <trkpt lat="43.06341" lon="0.03794">
        <ele>606.43481403951</ele>
        <time>2021-06-21T20:17:24.152Z</time>
      </trkpt>
      <trkpt lat="43.06312" lon="0.0381">
        <ele>606.37777130391</ele>
        <time>2021-06-21T20:17:43.058Z</time>
      </trkpt>
      <trkpt lat="43.06306" lon="0.03811">
        <ele>605.90356266326</ele>
        <time>2021-06-21T20:18:01.965Z</time>
      </trkpt>
      <trkpt lat="43.06303" lon="0.03809">
        <ele>605.34030297271</ele>
        <time>2021-06-21T20:18:20.873Z</time>
      </trkpt>
      <trkpt lat="43.06295" lon="0.03794">
        <ele>604.65239160518</ele>
        <time>2021-06-21T20:18:39.783Z</time>
      </trkpt>
      <trkpt lat="43.06292" lon="0.03759">
        <ele>603.6966885392</ele>
        <time>2021-06-21T20:18:58.697Z</time>
      </trkpt>
      <trkpt lat="43.06277" lon="0.03728">
        <ele>602.8785758705</ele>
        <time>2021-06-21T20:19:17.615Z</time>
      </trkpt>
      <trkpt lat="43.06239" lon="0.03679">
        <ele>602.08835287275</ele>
        <time>2021-06-21T20:19:36.542Z</time>
      </trkpt>
      <trkpt lat="43.06234" lon="0.03668">
        <ele>601.38274518874</ele>
        <time>2021-06-21T20:19:55.470Z</time>
      </trkpt>
      <trkpt lat="43.06233" lon="0.03663">
        <ele>600.67778474573</ele>
        <time>2021-06-21T20:20:14.399Z</time>
      </trkpt>
      <trkpt lat="43.06198" lon="0.0365">
        <ele>600.03714348482</ele>
        <time>2021-06-21T20:20:33.334Z</time>
      </trkpt>
      <trkpt lat="43.06144" lon="0.03634">
        <ele>599.40682078338</ele>
        <time>2021-06-21T20:20:52.278Z</time>
      </trkpt>
      <trkpt lat="43.06069" lon="0.03615">
        <ele>598.6244129621</ele>
        <time>2021-06-21T20:21:11.234Z</time>
      </trkpt>
      <trkpt lat="43.06037" lon="0.03602">
        <ele>597.87954136711</ele>
        <time>2021-06-21T20:21:30.195Z</time>
      </trkpt>
      <trkpt lat="43.05949" lon="0.0355">
        <ele>596.84128658589</ele>
        <time>2021-06-21T20:21:49.171Z</time>
      </trkpt>
      <trkpt lat="43.0588" lon="0.03486">
        <ele>595.73529447096</ele>
        <time>2021-06-21T20:22:08.161Z</time>
      </trkpt>
      <trkpt lat="43.05849" lon="0.03466">
        <ele>594.76403976984</ele>
        <time>2021-06-21T20:22:27.156Z</time>
      </trkpt>
      <trkpt lat="43.05834" lon="0.03454">
        <ele>593.90317585793</ele>
        <time>2021-06-21T20:22:46.154Z</time>
      </trkpt>
      <trkpt lat="43.05759" lon="0.03369">
        <ele>592.81495335556</ele>
        <time>2021-06-21T20:23:05.168Z</time>
      </trkpt>
      <trkpt lat="43.05657" lon="0.03262">
        <ele>592.24381027122</ele>
        <time>2021-06-21T20:23:24.202Z</time>
      </trkpt>
      <trkpt lat="43.05626" lon="0.03233">
        <ele>591.6367037036</ele>
        <time>2021-06-21T20:23:43.242Z</time>
      </trkpt>
      <trkpt lat="43.05626" lon="0.03233">
        <ele>590.81714141815</ele>
        <time>2021-06-21T20:24:02.282Z</time>
      </trkpt>
      <trkpt lat="43.05601" lon="0.03213">
        <ele>590.13681658984</ele>
        <time>2021-06-21T20:24:21.327Z</time>
      </trkpt>
      <trkpt lat="43.05601" lon="0.03213">
        <ele>589.28052917334</ele>
        <time>2021-06-21T20:24:40.372Z</time>
      </trkpt>
      <trkpt lat="43.05598" lon="0.0321">
        <ele>588.42271467572</ele>
        <time>2021-06-21T20:24:59.417Z</time>
      </trkpt>
      <trkpt lat="43.05587" lon="0.03207">
        <ele>587.59656090197</ele>
        <time>2021-06-21T20:25:18.464Z</time>
      </trkpt>
      <trkpt lat="43.05555" lon="0.03195">
        <ele>586.93177521913</ele>
        <time>2021-06-21T20:25:37.517Z</time>
      </trkpt>
      <trkpt lat="43.05538" lon="0.03188">
        <ele>586.08855615828</ele>
        <time>2021-06-21T20:25:56.572Z</time>
      </trkpt>
      <trkpt lat="43.05521" lon="0.03176">
        <ele>585.15107275189</ele>
        <time>2021-06-21T20:26:15.631Z</time>
      </trkpt>
      <trkpt lat="43.05511" lon="0.03165">
        <ele>584.090209621</ele>
        <time>2021-06-21T20:26:34.692Z</time>
      </trkpt>
      <trkpt lat="43.05508" lon="0.03156">
        <ele>582.93602479869</ele>
        <time>2021-06-21T20:26:53.754Z</time>
      </trkpt>
      <trkpt lat="43.05499" lon="0.0309">
        <ele>581.21418540832</ele>
        <time>2021-06-21T20:27:12.824Z</time>
      </trkpt>
      <trkpt lat="43.05475" lon="0.03017">
        <ele>579.83698064055</ele>
        <time>2021-06-21T20:27:31.903Z</time>
      </trkpt>
      <trkpt lat="43.05454" lon="0.02936">
        <ele>578.64079182212</ele>
        <time>2021-06-21T20:27:50.992Z</time>
      </trkpt>
      <trkpt lat="43.05444" lon="0.02892">
        <ele>577.38595607687</ele>
        <time>2021-06-21T20:28:10.086Z</time>
      </trkpt>
      <trkpt lat="43.05416" lon="0.02773">
        <ele>576.06841142236</ele>
        <time>2021-06-21T20:28:29.195Z</time>
      </trkpt>
      <trkpt lat="43.05399" lon="0.02659">
        <ele>574.91332656958</ele>
        <time>2021-06-21T20:28:48.318Z</time>
      </trkpt>
      <trkpt lat="43.05394" lon="0.02596">
        <ele>573.55004152131</ele>
        <time>2021-06-21T20:29:07.448Z</time>
      </trkpt>
      <trkpt lat="43.0539" lon="0.02524">
        <ele>572.17172234654</ele>
        <time>2021-06-21T20:29:26.587Z</time>
      </trkpt>
      <trkpt lat="43.0539" lon="0.02484">
        <ele>570.79083625293</ele>
        <time>2021-06-21T20:29:45.730Z</time>
      </trkpt>
      <trkpt lat="43.05392" lon="0.02411">
        <ele>569.28455732131</ele>
        <time>2021-06-21T20:30:04.882Z</time>
      </trkpt>
      <trkpt lat="43.05392" lon="0.02359">
        <ele>567.93368198685</ele>
        <time>2021-06-21T20:30:24.040Z</time>
      </trkpt>
      <trkpt lat="43.0539" lon="0.02319">
        <ele>566.60438067029</ele>
        <time>2021-06-21T20:30:43.203Z</time>
      </trkpt>
      <trkpt lat="43.05382" lon="0.02263">
        <ele>565.2772048215</ele>
        <time>2021-06-21T20:31:02.372Z</time>
      </trkpt>
      <trkpt lat="43.05364" lon="0.02061">
        <ele>563.98851166482</ele>
        <time>2021-06-21T20:31:21.565Z</time>
      </trkpt>
      <trkpt lat="43.05345" lon="0.01968">
        <ele>562.66644738315</ele>
        <time>2021-06-21T20:31:40.770Z</time>
      </trkpt>
      <trkpt lat="43.05337" lon="0.01904">
        <ele>561.28394326097</ele>
        <time>2021-06-21T20:31:59.982Z</time>
      </trkpt>
      <trkpt lat="43.05323" lon="0.01832">
        <ele>559.94538230875</ele>
        <time>2021-06-21T20:32:19.203Z</time>
      </trkpt>
      <trkpt lat="43.05313" lon="0.01798">
        <ele>558.60970668113</ele>
        <time>2021-06-21T20:32:38.428Z</time>
      </trkpt>
      <trkpt lat="43.05287" lon="0.01722">
        <ele>557.11296125442</ele>
        <time>2021-06-21T20:32:57.663Z</time>
      </trkpt>
      <trkpt lat="43.05262" lon="0.01617">
        <ele>555.35215390723</ele>
        <time>2021-06-21T20:33:16.911Z</time>
      </trkpt>
      <trkpt lat="43.05262" lon="0.01617">
        <ele>553.92358507852</ele>
        <time>2021-06-21T20:33:36.159Z</time>
      </trkpt>
      <trkpt lat="43.05261" lon="0.01593">
        <ele>552.36622730212</ele>
        <time>2021-06-21T20:33:55.410Z</time>
      </trkpt>
      <trkpt lat="43.05263" lon="0.01586">
        <ele>550.88179750701</ele>
        <time>2021-06-21T20:34:14.662Z</time>
      </trkpt>
      <trkpt lat="43.0528" lon="0.01557">
        <ele>549.24599611038</ele>
        <time>2021-06-21T20:34:33.918Z</time>
      </trkpt>
      <trkpt lat="43.05288" lon="0.01545">
        <ele>547.82565540024</ele>
        <time>2021-06-21T20:34:53.176Z</time>
      </trkpt>
      <trkpt lat="43.05292" lon="0.01532">
        <ele>546.36071206699</ele>
        <time>2021-06-21T20:35:12.436Z</time>
      </trkpt>
      <trkpt lat="43.05295" lon="0.0151">
        <ele>544.842866008</ele>
        <time>2021-06-21T20:35:31.698Z</time>
      </trkpt>
      <trkpt lat="43.05292" lon="0.01446">
        <ele>543.24328706148</ele>
        <time>2021-06-21T20:35:50.968Z</time>
      </trkpt>
      <trkpt lat="43.05293" lon="0.01403">
        <ele>541.69721103287</ele>
        <time>2021-06-21T20:36:10.243Z</time>
      </trkpt>
      <trkpt lat="43.05297" lon="0.01395">
        <ele>540.30447774796</ele>
        <time>2021-06-21T20:36:29.519Z</time>
      </trkpt>
      <trkpt lat="43.05301" lon="0.01392">
        <ele>538.93498454288</ele>
        <time>2021-06-21T20:36:48.796Z</time>
      </trkpt>
      <trkpt lat="43.05316" lon="0.01389">
        <ele>537.62706784429</ele>
        <time>2021-06-21T20:37:08.075Z</time>
      </trkpt>
      <trkpt lat="43.05318" lon="0.01388">
        <ele>536.27763739358</ele>
        <time>2021-06-21T20:37:27.354Z</time>
      </trkpt>
      <trkpt lat="43.05318" lon="0.01388">
        <ele>534.9309388484</ele>
        <time>2021-06-21T20:37:46.633Z</time>
      </trkpt>
      <trkpt lat="43.0532" lon="0.01386">
        <ele>533.59340150348</ele>
        <time>2021-06-21T20:38:05.913Z</time>
      </trkpt>
      <trkpt lat="43.05322" lon="0.01377">
        <ele>532.23829620134</ele>
        <time>2021-06-21T20:38:25.194Z</time>
      </trkpt>
      <trkpt lat="43.05322" lon="0.01377">
        <ele>530.91122641908</ele>
        <time>2021-06-21T20:38:44.475Z</time>
      </trkpt>
      <trkpt lat="43.05321" lon="0.01368">
        <ele>529.56368296011</ele>
        <time>2021-06-21T20:39:03.757Z</time>
      </trkpt>
      <trkpt lat="43.05318" lon="0.01363">
        <ele>528.22052554602</ele>
        <time>2021-06-21T20:39:23.040Z</time>
      </trkpt>
      <trkpt lat="43.05311" lon="0.01355">
        <ele>526.86354666016</ele>
        <time>2021-06-21T20:39:42.324Z</time>
      </trkpt>
      <trkpt lat="43.05311" lon="0.01355">
        <ele>525.5544742214</ele>
        <time>2021-06-21T20:40:01.608Z</time>
      </trkpt>
      <trkpt lat="43.05293" lon="0.01342">
        <ele>524.14461971643</ele>
        <time>2021-06-21T20:40:20.896Z</time>
      </trkpt>
      <trkpt lat="43.05289" lon="0.01337">
        <ele>522.81541966911</ele>
        <time>2021-06-21T20:40:40.184Z</time>
      </trkpt>
      <trkpt lat="43.05287" lon="0.0133">
        <ele>521.49740170512</ele>
        <time>2021-06-21T20:40:59.473Z</time>
      </trkpt>
      <trkpt lat="43.05286" lon="0.01318">
        <ele>520.17562510168</ele>
        <time>2021-06-21T20:41:18.764Z</time>
      </trkpt>
      <trkpt lat="43.05294" lon="0.0125">
        <ele>518.83601031969</ele>
        <time>2021-06-21T20:41:38.063Z</time>
      </trkpt>
      <trkpt lat="43.053" lon="0.01235">
        <ele>517.55827408263</ele>
        <time>2021-06-21T20:41:57.364Z</time>
      </trkpt>
      <trkpt lat="43.05323" lon="0.01193">
        <ele>516.35592380849</ele>
        <time>2021-06-21T20:42:16.671Z</time>
      </trkpt>
      <trkpt lat="43.05325" lon="0.01174">
        <ele>515.05780695372</ele>
        <time>2021-06-21T20:42:35.980Z</time>
      </trkpt>
      <trkpt lat="43.05294" lon="0.00999">
        <ele>513.36523615341</ele>
        <time>2021-06-21T20:42:55.310Z</time>
      </trkpt>
      <trkpt lat="43.05279" lon="0.00958">
        <ele>511.97868816534</ele>
        <time>2021-06-21T20:43:14.646Z</time>
      </trkpt>
      <trkpt lat="43.05278" lon="0.00945">
        <ele>510.75053934888</ele>
        <time>2021-06-21T20:43:33.983Z</time>
      </trkpt>
      <trkpt lat="43.05289" lon="0.00834">
        <ele>509.43656269957</ele>
        <time>2021-06-21T20:43:53.334Z</time>
      </trkpt>
      <trkpt lat="43.053" lon="0.00754">
        <ele>508.26853122662</ele>
        <time>2021-06-21T20:44:12.694Z</time>
      </trkpt>
      <trkpt lat="43.053" lon="0.00741">
        <ele>507.11990738564</ele>
        <time>2021-06-21T20:44:32.055Z</time>
      </trkpt>
      <trkpt lat="43.05295" lon="0.0073">
        <ele>505.95512304853</ele>
        <time>2021-06-21T20:44:51.418Z</time>
      </trkpt>
      <trkpt lat="43.05277" lon="0.00703">
        <ele>504.70345111279</ele>
        <time>2021-06-21T20:45:10.785Z</time>
      </trkpt>
      <trkpt lat="43.05274" lon="0.00695">
        <ele>503.64198629367</ele>
        <time>2021-06-21T20:45:30.153Z</time>
      </trkpt>
      <trkpt lat="43.05274" lon="0.00686">
        <ele>502.62402848051</ele>
        <time>2021-06-21T20:45:49.522Z</time>
      </trkpt>
      <trkpt lat="43.05276" lon="0.00647">
        <ele>501.61809155235</ele>
        <time>2021-06-21T20:46:08.896Z</time>
      </trkpt>
      <trkpt lat="43.05277" lon="0.00587">
        <ele>500.70760497725</ele>
        <time>2021-06-21T20:46:28.277Z</time>
      </trkpt>
      <trkpt lat="43.05274" lon="0.00572">
        <ele>499.77398348841</ele>
        <time>2021-06-21T20:46:47.660Z</time>
      </trkpt>
      <trkpt lat="43.05264" lon="0.00549">
        <ele>498.83378040755</ele>
        <time>2021-06-21T20:47:07.046Z</time>
      </trkpt>
      <trkpt lat="43.05253" lon="0.00528">
        <ele>497.98874572667</ele>
        <time>2021-06-21T20:47:26.435Z</time>
      </trkpt>
      <trkpt lat="43.05249" lon="0.00514">
        <ele>497.16075508654</ele>
        <time>2021-06-21T20:47:45.826Z</time>
      </trkpt>
      <trkpt lat="43.05246" lon="0.00484">
        <ele>496.34058089674</ele>
        <time>2021-06-21T20:48:05.220Z</time>
      </trkpt>
      <trkpt lat="43.05252" lon="0.00409">
        <ele>495.43595951385</ele>
        <time>2021-06-21T20:48:24.623Z</time>
      </trkpt>
      <trkpt lat="43.05268" lon="0.0034">
        <ele>494.57235502813</ele>
        <time>2021-06-21T20:48:44.035Z</time>
      </trkpt>
      <trkpt lat="43.05271" lon="0.00332">
        <ele>493.74751654688</ele>
        <time>2021-06-21T20:49:03.448Z</time>
      </trkpt>
      <trkpt lat="43.05271" lon="0.00332">
        <ele>492.91112044199</ele>
        <time>2021-06-21T20:49:22.861Z</time>
      </trkpt>
      <trkpt lat="43.05279" lon="0.00294">
        <ele>492.05299520203</ele>
        <time>2021-06-21T20:49:42.278Z</time>
      </trkpt>
      <trkpt lat="43.0529" lon="0.00261">
        <ele>491.30083474941</ele>
        <time>2021-06-21T20:50:01.700Z</time>
      </trkpt>
      <trkpt lat="43.05297" lon="0.00238">
        <ele>490.47375428272</ele>
        <time>2021-06-21T20:50:21.125Z</time>
      </trkpt>
      <trkpt lat="43.05303" lon="0.00222">
        <ele>489.53726730102</ele>
        <time>2021-06-21T20:50:40.552Z</time>
      </trkpt>
      <trkpt lat="43.0531" lon="0.0018">
        <ele>488.61276754492</ele>
        <time>2021-06-21T20:50:59.984Z</time>
      </trkpt>
      <trkpt lat="43.05324" lon="0.00138">
        <ele>487.6662495724</ele>
        <time>2021-06-21T20:51:19.421Z</time>
      </trkpt>
      <trkpt lat="43.05324" lon="0.00138">
        <ele>486.84198789857</ele>
        <time>2021-06-21T20:51:38.858Z</time>
      </trkpt>
      <trkpt lat="43.05344" lon="0.00099">
        <ele>485.84019499378</ele>
        <time>2021-06-21T20:51:58.301Z</time>
      </trkpt>
      <trkpt lat="43.05354" lon="0.00061">
        <ele>485.05777161884</ele>
        <time>2021-06-21T20:52:17.748Z</time>
      </trkpt>
      <trkpt lat="43.05354" lon="0.00059">
        <ele>484.24475485804</ele>
        <time>2021-06-21T20:52:37.196Z</time>
      </trkpt>
      <trkpt lat="43.05362" lon="0.00018">
        <ele>483.45793100886</ele>
        <time>2021-06-21T20:52:56.649Z</time>
      </trkpt>
      <trkpt lat="43.05362" lon="0.00012">
        <ele>482.6559331675</ele>
        <time>2021-06-21T20:53:16.102Z</time>
      </trkpt>
      <trkpt lat="43.05352" lon="0">
        <ele>481.77537195393</ele>
        <time>2021-06-21T20:53:35.557Z</time>
      </trkpt>
      <trkpt lat="43.05346" lon="-0.0001">
        <ele>480.93693632674</ele>
        <time>2021-06-21T20:53:55.014Z</time>
      </trkpt>
      <trkpt lat="43.05344" lon="-0.00015">
        <ele>480.15189156335</ele>
        <time>2021-06-21T20:54:14.472Z</time>
      </trkpt>
      <trkpt lat="43.0534" lon="-0.00046">
        <ele>479.16661759759</ele>
        <time>2021-06-21T20:54:33.933Z</time>
      </trkpt>
      <trkpt lat="43.0534" lon="-0.0012">
        <ele>478.3783133733</ele>
        <time>2021-06-21T20:54:53.403Z</time>
      </trkpt>
      <trkpt lat="43.05344" lon="-0.0017">
        <ele>477.62753577753</ele>
        <time>2021-06-21T20:55:12.879Z</time>
      </trkpt>
      <trkpt lat="43.05346" lon="-0.0023">
        <ele>476.95293695044</ele>
        <time>2021-06-21T20:55:32.362Z</time>
      </trkpt>
      <trkpt lat="43.05345" lon="-0.00341">
        <ele>476.17685237677</ele>
        <time>2021-06-21T20:55:51.858Z</time>
      </trkpt>
      <trkpt lat="43.05345" lon="-0.00351">
        <ele>475.52889218328</ele>
        <time>2021-06-21T20:56:11.355Z</time>
      </trkpt>
      <trkpt lat="43.05345" lon="-0.00358">
        <ele>474.91320394531</ele>
        <time>2021-06-21T20:56:30.853Z</time>
      </trkpt>
      <trkpt lat="43.05345" lon="-0.00395">
        <ele>474.28100686334</ele>
        <time>2021-06-21T20:56:50.355Z</time>
      </trkpt>
      <trkpt lat="43.05348" lon="-0.00407">
        <ele>473.75703171848</ele>
        <time>2021-06-21T20:57:09.859Z</time>
      </trkpt>
      <trkpt lat="43.05376" lon="-0.00461">
        <ele>473.30500477176</ele>
        <time>2021-06-21T20:57:29.371Z</time>
      </trkpt>
      <trkpt lat="43.05388" lon="-0.00503">
        <ele>472.89284633534</ele>
        <time>2021-06-21T20:57:48.888Z</time>
      </trkpt>
      <trkpt lat="43.05395" lon="-0.00548">
        <ele>472.41868573067</ele>
        <time>2021-06-21T20:58:08.410Z</time>
      </trkpt>
      <trkpt lat="43.05406" lon="-0.00606">
        <ele>471.90920909706</ele>
        <time>2021-06-21T20:58:27.939Z</time>
      </trkpt>
      <trkpt lat="43.0541" lon="-0.00644">
        <ele>471.4292247364</ele>
        <time>2021-06-21T20:58:47.473Z</time>
      </trkpt>
      <trkpt lat="43.05409" lon="-0.00657">
        <ele>470.99245998964</ele>
        <time>2021-06-21T20:59:07.008Z</time>
      </trkpt>
      <trkpt lat="43.05381" lon="-0.00767">
        <ele>470.40929028175</ele>
        <time>2021-06-21T20:59:26.557Z</time>
      </trkpt>
      <trkpt lat="43.0538" lon="-0.00775">
        <ele>470.05537681326</ele>
        <time>2021-06-21T20:59:46.107Z</time>
      </trkpt>
      <trkpt lat="43.05378" lon="-0.00803">
        <ele>469.73675290323</ele>
        <time>2021-06-21T21:00:05.660Z</time>
      </trkpt>
      <trkpt lat="43.05378" lon="-0.00803">
        <ele>469.39640767718</ele>
        <time>2021-06-21T21:00:25.213Z</time>
      </trkpt>
      <trkpt lat="43.05379" lon="-0.00874">
        <ele>469.20098838929</ele>
        <time>2021-06-21T21:00:44.775Z</time>
      </trkpt>
      <trkpt lat="43.05386" lon="-0.00944">
        <ele>468.9262524271</ele>
        <time>2021-06-21T21:01:04.345Z</time>
      </trkpt>
      <trkpt lat="43.05409" lon="-0.01076">
        <ele>468.49116339462</ele>
        <time>2021-06-21T21:01:23.931Z</time>
      </trkpt>
      <trkpt lat="43.05415" lon="-0.01144">
        <ele>468.13696094705</ele>
        <time>2021-06-21T21:01:43.525Z</time>
      </trkpt>
      <trkpt lat="43.05421" lon="-0.01184">
        <ele>467.74454261906</ele>
        <time>2021-06-21T21:02:03.124Z</time>
      </trkpt>
      <trkpt lat="43.05428" lon="-0.01226">
        <ele>467.47558168254</ele>
        <time>2021-06-21T21:02:22.728Z</time>
      </trkpt>
      <trkpt lat="43.05434" lon="-0.01241">
        <ele>467.25544224552</ele>
        <time>2021-06-21T21:02:42.334Z</time>
      </trkpt>
      <trkpt lat="43.05447" lon="-0.01258">
        <ele>467.08470649154</ele>
        <time>2021-06-21T21:03:01.942Z</time>
      </trkpt>
      <trkpt lat="43.05447" lon="-0.01258">
        <ele>466.6921538442</ele>
        <time>2021-06-21T21:03:21.550Z</time>
      </trkpt>
      <trkpt lat="43.05449" lon="-0.01263">
        <ele>466.32159843896</ele>
        <time>2021-06-21T21:03:41.159Z</time>
      </trkpt>
      <trkpt lat="43.05484" lon="-0.01302">
        <ele>465.61126754131</ele>
        <time>2021-06-21T21:04:00.775Z</time>
      </trkpt>
      <trkpt lat="43.05509" lon="-0.01323">
        <ele>464.81487683383</ele>
        <time>2021-06-21T21:04:20.396Z</time>
      </trkpt>
      <trkpt lat="43.05509" lon="-0.01323">
        <ele>464.39403477095</ele>
        <time>2021-06-21T21:04:40.017Z</time>
      </trkpt>
      <trkpt lat="43.05515" lon="-0.01328">
        <ele>463.97596228376</ele>
        <time>2021-06-21T21:04:59.639Z</time>
      </trkpt>
      <trkpt lat="43.05559" lon="-0.01351">
        <ele>463.63871199759</ele>
        <time>2021-06-21T21:05:19.269Z</time>
      </trkpt>
      <trkpt lat="43.05566" lon="-0.01358">
        <ele>463.1028728597</ele>
        <time>2021-06-21T21:05:38.900Z</time>
      </trkpt>
      <trkpt lat="43.05583" lon="-0.01393">
        <ele>462.52657704328</ele>
        <time>2021-06-21T21:05:58.536Z</time>
      </trkpt>
      <trkpt lat="43.05614" lon="-0.01473">
        <ele>462.03298700095</ele>
        <time>2021-06-21T21:06:18.183Z</time>
      </trkpt>
      <trkpt lat="43.05654" lon="-0.01591">
        <ele>461.49969510396</ele>
        <time>2021-06-21T21:06:37.845Z</time>
      </trkpt>
      <trkpt lat="43.05668" lon="-0.01654">
        <ele>460.77112518028</ele>
        <time>2021-06-21T21:06:57.515Z</time>
      </trkpt>
      <trkpt lat="43.05668" lon="-0.01654">
        <ele>460.20655824308</ele>
        <time>2021-06-21T21:07:17.185Z</time>
      </trkpt>
      <trkpt lat="43.0567" lon="-0.01724">
        <ele>459.51156772698</ele>
        <time>2021-06-21T21:07:36.863Z</time>
      </trkpt>
      <trkpt lat="43.05673" lon="-0.01745">
        <ele>458.95508738383</ele>
        <time>2021-06-21T21:07:56.543Z</time>
      </trkpt>
      <trkpt lat="43.05684" lon="-0.01775">
        <ele>458.56963014706</ele>
        <time>2021-06-21T21:08:16.227Z</time>
      </trkpt>
      <trkpt lat="43.05695" lon="-0.018">
        <ele>457.96871782853</ele>
        <time>2021-06-21T21:08:35.915Z</time>
      </trkpt>
      <trkpt lat="43.05718" lon="-0.01836">
        <ele>457.49268320556</ele>
        <time>2021-06-21T21:08:55.608Z</time>
      </trkpt>
      <trkpt lat="43.05734" lon="-0.01867">
        <ele>456.50622933969</ele>
        <time>2021-06-21T21:09:15.306Z</time>
      </trkpt>
      <trkpt lat="43.0574" lon="-0.01887">
        <ele>455.68497025007</ele>
        <time>2021-06-21T21:09:35.006Z</time>
      </trkpt>
      <trkpt lat="43.05742" lon="-0.01901">
        <ele>454.86360045825</ele>
        <time>2021-06-21T21:09:54.708Z</time>
      </trkpt>
      <trkpt lat="43.0574" lon="-0.01917">
        <ele>453.98913498692</ele>
        <time>2021-06-21T21:10:14.412Z</time>
      </trkpt>
      <trkpt lat="43.05729" lon="-0.02008">
        <ele>453.19804869249</ele>
        <time>2021-06-21T21:10:34.127Z</time>
      </trkpt>
      <trkpt lat="43.0573" lon="-0.02034">
        <ele>452.30724451927</ele>
        <time>2021-06-21T21:10:53.845Z</time>
      </trkpt>
      <trkpt lat="43.05732" lon="-0.02042">
        <ele>451.42426479348</ele>
        <time>2021-06-21T21:11:13.564Z</time>
      </trkpt>
      <trkpt lat="43.05743" lon="-0.02053">
        <ele>450.52192432084</ele>
        <time>2021-06-21T21:11:33.285Z</time>
      </trkpt>
      <trkpt lat="43.05764" lon="-0.02073">
        <ele>449.42921372825</ele>
        <time>2021-06-21T21:11:53.010Z</time>
      </trkpt>
      <trkpt lat="43.05777" lon="-0.02082">
        <ele>448.74640724804</ele>
        <time>2021-06-21T21:12:12.737Z</time>
      </trkpt>
      <trkpt lat="43.05804" lon="-0.0211">
        <ele>447.81923647068</ele>
        <time>2021-06-21T21:12:32.470Z</time>
      </trkpt>
      <trkpt lat="43.05866" lon="-0.02193">
        <ele>446.7259382925</ele>
        <time>2021-06-21T21:12:52.217Z</time>
      </trkpt>
      <trkpt lat="43.0588" lon="-0.02237">
        <ele>446.04336166546</ele>
        <time>2021-06-21T21:13:11.969Z</time>
      </trkpt>
      <trkpt lat="43.05884" lon="-0.02278">
        <ele>445.21921313976</ele>
        <time>2021-06-21T21:13:31.726Z</time>
      </trkpt>
      <trkpt lat="43.05885" lon="-0.02327">
        <ele>444.4732862723</ele>
        <time>2021-06-21T21:13:51.489Z</time>
      </trkpt>
      <trkpt lat="43.05882" lon="-0.02365">
        <ele>443.575007923</ele>
        <time>2021-06-21T21:14:11.256Z</time>
      </trkpt>
      <trkpt lat="43.05883" lon="-0.02402">
        <ele>442.81250726725</ele>
        <time>2021-06-21T21:14:31.028Z</time>
      </trkpt>
      <trkpt lat="43.05887" lon="-0.02431">
        <ele>442.10153193915</ele>
        <time>2021-06-21T21:14:50.803Z</time>
      </trkpt>
      <trkpt lat="43.05887" lon="-0.02431">
        <ele>441.45948255938</ele>
        <time>2021-06-21T21:15:10.578Z</time>
      </trkpt>
      <trkpt lat="43.05898" lon="-0.02485">
        <ele>440.80235338176</ele>
        <time>2021-06-21T21:15:30.360Z</time>
      </trkpt>
      <trkpt lat="43.05904" lon="-0.02532">
        <ele>440.1229796473</ele>
        <time>2021-06-21T21:15:50.147Z</time>
      </trkpt>
      <trkpt lat="43.05907" lon="-0.02556">
        <ele>439.65873676824</ele>
        <time>2021-06-21T21:16:09.937Z</time>
      </trkpt>
      <trkpt lat="43.05913" lon="-0.02584">
        <ele>439.17075812611</ele>
        <time>2021-06-21T21:16:29.731Z</time>
      </trkpt>
      <trkpt lat="43.05924" lon="-0.026">
        <ele>438.58183971164</ele>
        <time>2021-06-21T21:16:49.527Z</time>
      </trkpt>
      <trkpt lat="43.05936" lon="-0.02611">
        <ele>438.22900777779</ele>
        <time>2021-06-21T21:17:09.325Z</time>
      </trkpt>
      <trkpt lat="43.05972" lon="-0.02634">
        <ele>437.79826265865</ele>
        <time>2021-06-21T21:17:29.130Z</time>
      </trkpt>
      <trkpt lat="43.05974" lon="-0.02635">
        <ele>437.35332357683</ele>
        <time>2021-06-21T21:17:48.935Z</time>
      </trkpt>
      <trkpt lat="43.05974" lon="-0.02635">
        <ele>436.91394949156</ele>
        <time>2021-06-21T21:18:08.740Z</time>
      </trkpt>
      <trkpt lat="43.05989" lon="-0.02649">
        <ele>436.57123983115</ele>
        <time>2021-06-21T21:18:28.548Z</time>
      </trkpt>
      <trkpt lat="43.06005" lon="-0.02669">
        <ele>435.97934187394</ele>
        <time>2021-06-21T21:18:48.360Z</time>
      </trkpt>
      <trkpt lat="43.06018" lon="-0.02689">
        <ele>435.63972794708</ele>
        <time>2021-06-21T21:19:08.175Z</time>
      </trkpt>
      <trkpt lat="43.06058" lon="-0.02784">
        <ele>435.19802079504</ele>
        <time>2021-06-21T21:19:28.003Z</time>
      </trkpt>
      <trkpt lat="43.06069" lon="-0.02799">
        <ele>434.76333807329</ele>
        <time>2021-06-21T21:19:47.833Z</time>
      </trkpt>
      <trkpt lat="43.0608" lon="-0.02809">
        <ele>434.40430007753</ele>
        <time>2021-06-21T21:20:07.665Z</time>
      </trkpt>
      <trkpt lat="43.06095" lon="-0.02816">
        <ele>433.89903723511</ele>
        <time>2021-06-21T21:20:27.500Z</time>
      </trkpt>
      <trkpt lat="43.06112" lon="-0.02824">
        <ele>433.65891145564</ele>
        <time>2021-06-21T21:20:47.338Z</time>
      </trkpt>
      <trkpt lat="43.06159" lon="-0.02831">
        <ele>433.35249246213</ele>
        <time>2021-06-21T21:21:07.183Z</time>
      </trkpt>
      <trkpt lat="43.06169" lon="-0.02836">
        <ele>432.91454462144</ele>
        <time>2021-06-21T21:21:27.030Z</time>
      </trkpt>
      <trkpt lat="43.06176" lon="-0.02841">
        <ele>432.47977888189</ele>
        <time>2021-06-21T21:21:46.878Z</time>
      </trkpt>
      <trkpt lat="43.06192" lon="-0.02857">
        <ele>432.17990560855</ele>
        <time>2021-06-21T21:22:06.729Z</time>
      </trkpt>
      <trkpt lat="43.06217" lon="-0.02885">
        <ele>431.82483403766</ele>
        <time>2021-06-21T21:22:26.585Z</time>
      </trkpt>
      <trkpt lat="43.0623" lon="-0.02908">
        <ele>431.56651773652</ele>
        <time>2021-06-21T21:22:46.445Z</time>
      </trkpt>
      <trkpt lat="43.06252" lon="-0.0296">
        <ele>430.58446166847</ele>
        <time>2021-06-21T21:23:06.312Z</time>
      </trkpt>
      <trkpt lat="43.06281" lon="-0.02993">
        <ele>430.41812669335</ele>
        <time>2021-06-21T21:23:26.185Z</time>
      </trkpt>
      <trkpt lat="43.06281" lon="-0.02993">
        <ele>429.96814523912</ele>
        <time>2021-06-21T21:23:46.058Z</time>
      </trkpt>
      <trkpt lat="43.06325" lon="-0.0305">
        <ele>429.32899820668</ele>
        <time>2021-06-21T21:24:05.941Z</time>
      </trkpt>
      <trkpt lat="43.0635" lon="-0.03087">
        <ele>428.77478071515</ele>
        <time>2021-06-21T21:24:25.830Z</time>
      </trkpt>
      <trkpt lat="43.06377" lon="-0.03132">
        <ele>428.41476622735</ele>
        <time>2021-06-21T21:24:45.725Z</time>
      </trkpt>
      <trkpt lat="43.064" lon="-0.03177">
        <ele>428.00682007938</ele>
        <time>2021-06-21T21:25:05.627Z</time>
      </trkpt>
      <trkpt lat="43.06408" lon="-0.03193">
        <ele>427.25946068486</ele>
        <time>2021-06-21T21:25:25.531Z</time>
      </trkpt>
      <trkpt lat="43.06412" lon="-0.03205">
        <ele>426.53429935344</ele>
        <time>2021-06-21T21:25:45.437Z</time>
      </trkpt>
      <trkpt lat="43.06416" lon="-0.03222">
        <ele>425.89767589222</ele>
        <time>2021-06-21T21:26:05.345Z</time>
      </trkpt>
      <trkpt lat="43.06427" lon="-0.03286">
        <ele>424.9802277603</ele>
        <time>2021-06-21T21:26:25.260Z</time>
      </trkpt>
      <trkpt lat="43.06442" lon="-0.03342">
        <ele>424.57066324927</ele>
        <time>2021-06-21T21:26:45.182Z</time>
      </trkpt>
      <trkpt lat="43.06457" lon="-0.03382">
        <ele>423.68205021334</ele>
        <time>2021-06-21T21:27:05.110Z</time>
      </trkpt>
      <trkpt lat="43.06468" lon="-0.03398">
        <ele>422.88766531802</ele>
        <time>2021-06-21T21:27:25.040Z</time>
      </trkpt>
      <trkpt lat="43.0647" lon="-0.03409">
        <ele>422.02866293147</ele>
        <time>2021-06-21T21:27:44.972Z</time>
      </trkpt>
      <trkpt lat="43.06467" lon="-0.03426">
        <ele>421.12358048086</ele>
        <time>2021-06-21T21:28:04.906Z</time>
      </trkpt>
      <trkpt lat="43.06467" lon="-0.03426">
        <ele>420.05344135764</ele>
        <time>2021-06-21T21:28:24.840Z</time>
      </trkpt>
      <trkpt lat="43.06471" lon="-0.03438">
        <ele>418.88391166111</ele>
        <time>2021-06-21T21:28:44.775Z</time>
      </trkpt>
      <trkpt lat="43.06527" lon="-0.035">
        <ele>417.49775876624</ele>
        <time>2021-06-21T21:29:04.722Z</time>
      </trkpt>
      <trkpt lat="43.06555" lon="-0.03538">
        <ele>416.1843700499</ele>
        <time>2021-06-21T21:29:24.675Z</time>
      </trkpt>
      <trkpt lat="43.0657" lon="-0.03569">
        <ele>414.93666838668</ele>
        <time>2021-06-21T21:29:44.632Z</time>
      </trkpt>
      <trkpt lat="43.066" lon="-0.03619">
        <ele>413.59163540488</ele>
        <time>2021-06-21T21:30:04.597Z</time>
      </trkpt>
      <trkpt lat="43.06623" lon="-0.03641">
        <ele>412.29800169127</ele>
        <time>2021-06-21T21:30:24.567Z</time>
      </trkpt>
      <trkpt lat="43.06684" lon="-0.03685">
        <ele>410.90650337723</ele>
        <time>2021-06-21T21:30:44.547Z</time>
      </trkpt>
      <trkpt lat="43.06687" lon="-0.03691">
        <ele>409.81196497307</ele>
        <time>2021-06-21T21:31:04.528Z</time>
      </trkpt>
      <trkpt lat="43.06688" lon="-0.03698">
        <ele>408.66729347247</ele>
        <time>2021-06-21T21:31:24.510Z</time>
      </trkpt>
      <trkpt lat="43.06687" lon="-0.03706">
        <ele>407.46307893211</ele>
        <time>2021-06-21T21:31:44.493Z</time>
      </trkpt>
      <trkpt lat="43.06673" lon="-0.03735">
        <ele>406.29093862758</ele>
        <time>2021-06-21T21:32:04.480Z</time>
      </trkpt>
      <trkpt lat="43.0667" lon="-0.03747">
        <ele>405.24246070412</ele>
        <time>2021-06-21T21:32:24.469Z</time>
      </trkpt>
      <trkpt lat="43.06665" lon="-0.03747">
        <ele>404.20375655375</ele>
        <time>2021-06-21T21:32:44.458Z</time>
      </trkpt>
      <trkpt lat="43.06659" lon="-0.0375">
        <ele>403.18572843072</ele>
        <time>2021-06-21T21:33:04.448Z</time>
      </trkpt>
      <trkpt lat="43.06622" lon="-0.03781">
        <ele>402.20201401439</ele>
        <time>2021-06-21T21:33:24.445Z</time>
      </trkpt>
      <trkpt lat="43.06582" lon="-0.03819">
        <ele>401.19708490434</ele>
        <time>2021-06-21T21:33:44.450Z</time>
      </trkpt>
      <trkpt lat="43.06549" lon="-0.03863">
        <ele>400.2514323733</ele>
        <time>2021-06-21T21:34:04.463Z</time>
      </trkpt>
      <trkpt lat="43.06549" lon="-0.03863">
        <ele>399.33938764922</ele>
        <time>2021-06-21T21:34:24.476Z</time>
      </trkpt>
      <trkpt lat="43.06533" lon="-0.03892">
        <ele>398.42392488978</ele>
        <time>2021-06-21T21:34:44.493Z</time>
      </trkpt>
      <trkpt lat="43.06524" lon="-0.03917">
        <ele>397.53321828393</ele>
        <time>2021-06-21T21:35:04.513Z</time>
      </trkpt>
      <trkpt lat="43.06514" lon="-0.03931">
        <ele>396.73268625558</ele>
        <time>2021-06-21T21:35:24.535Z</time>
      </trkpt>
      <trkpt lat="43.06513" lon="-0.03947">
        <ele>395.9371371425</ele>
        <time>2021-06-21T21:35:44.559Z</time>
      </trkpt>
      <trkpt lat="43.06512" lon="-0.03953">
        <ele>395.23666506355</ele>
        <time>2021-06-21T21:36:04.584Z</time>
      </trkpt>
      <trkpt lat="43.06503" lon="-0.03966">
        <ele>394.57445107965</ele>
        <time>2021-06-21T21:36:24.611Z</time>
      </trkpt>
      <trkpt lat="43.06497" lon="-0.0397">
        <ele>393.98582219555</ele>
        <time>2021-06-21T21:36:44.639Z</time>
      </trkpt>
      <trkpt lat="43.06469" lon="-0.03974">
        <ele>393.4424580514</ele>
        <time>2021-06-21T21:37:04.672Z</time>
      </trkpt>
      <trkpt lat="43.06465" lon="-0.03975">
        <ele>392.95197454778</ele>
        <time>2021-06-21T21:37:24.705Z</time>
      </trkpt>
      <trkpt lat="43.06461" lon="-0.0398">
        <ele>392.50335507343</ele>
        <time>2021-06-21T21:37:44.739Z</time>
      </trkpt>
      <trkpt lat="43.0646" lon="-0.04006">
        <ele>392.07648565862</ele>
        <time>2021-06-21T21:38:04.776Z</time>
      </trkpt>
      <trkpt lat="43.06616" lon="-0.04006">
        <ele>391.6656015246</ele>
        <time>2021-06-21T21:38:24.838Z</time>
      </trkpt>
      <trkpt lat="43.06642" lon="-0.04006">
        <ele>391.41253488411</ele>
        <time>2021-06-21T21:38:44.904Z</time>
      </trkpt>
      <trkpt lat="43.06642" lon="-0.04006">
        <ele>391.19179223007</ele>
        <time>2021-06-21T21:39:04.970Z</time>
      </trkpt>
      <trkpt lat="43.06697" lon="-0.04016">
        <ele>391.02272436685</ele>
        <time>2021-06-21T21:39:25.045Z</time>
      </trkpt>
      <trkpt lat="43.06888" lon="-0.04074">
        <ele>390.94533622246</ele>
        <time>2021-06-21T21:39:45.151Z</time>
      </trkpt>
      <trkpt lat="43.06953" lon="-0.04084">
        <ele>390.9580725339</ele>
        <time>2021-06-21T21:40:05.268Z</time>
      </trkpt>
      <trkpt lat="43.07013" lon="-0.04079">
        <ele>390.93121935945</ele>
        <time>2021-06-21T21:40:25.394Z</time>
      </trkpt>
      <trkpt lat="43.07244" lon="-0.04014">
        <ele>390.71008433558</ele>
        <time>2021-06-21T21:40:45.558Z</time>
      </trkpt>
      <trkpt lat="43.073" lon="-0.04007">
        <ele>390.67340772012</ele>
        <time>2021-06-21T21:41:05.731Z</time>
      </trkpt>
      <trkpt lat="43.07349" lon="-0.0401">
        <ele>390.61085890813</ele>
        <time>2021-06-21T21:41:25.912Z</time>
      </trkpt>
      <trkpt lat="43.07377" lon="-0.04017">
        <ele>390.77113249082</ele>
        <time>2021-06-21T21:41:46.098Z</time>
      </trkpt>
      <trkpt lat="43.07407" lon="-0.04029">
        <ele>390.80291823815</ele>
        <time>2021-06-21T21:42:06.289Z</time>
      </trkpt>
      <trkpt lat="43.07516" lon="-0.04081">
        <ele>391.00645458537</ele>
        <time>2021-06-21T21:42:26.498Z</time>
      </trkpt>
      <trkpt lat="43.07579" lon="-0.04107">
        <ele>391.14819245474</ele>
        <time>2021-06-21T21:42:46.718Z</time>
      </trkpt>
      <trkpt lat="43.07607" lon="-0.04117">
        <ele>391.28304026601</ele>
        <time>2021-06-21T21:43:06.942Z</time>
      </trkpt>
      <trkpt lat="43.07653" lon="-0.04121">
        <ele>391.5226730907</ele>
        <time>2021-06-21T21:43:27.174Z</time>
      </trkpt>
      <trkpt lat="43.07653" lon="-0.04121">
        <ele>391.74547995292</ele>
        <time>2021-06-21T21:43:47.406Z</time>
      </trkpt>
      <trkpt lat="43.07761" lon="-0.04113">
        <ele>392.06511712658</ele>
        <time>2021-06-21T21:44:07.655Z</time>
      </trkpt>
      <trkpt lat="43.07955" lon="-0.04138">
        <ele>392.12768974937</ele>
        <time>2021-06-21T21:44:27.935Z</time>
      </trkpt>
      <trkpt lat="43.0801" lon="-0.04151">
        <ele>392.6439101968</ele>
        <time>2021-06-21T21:44:48.224Z</time>
      </trkpt>
      <trkpt lat="43.0806" lon="-0.04177">
        <ele>393.12209808522</ele>
        <time>2021-06-21T21:45:08.522Z</time>
      </trkpt>
      <trkpt lat="43.08103" lon="-0.04214">
        <ele>393.06268891009</ele>
        <time>2021-06-21T21:45:28.828Z</time>
      </trkpt>
      <trkpt lat="43.08145" lon="-0.04271">
        <ele>393.52755258053</ele>
        <time>2021-06-21T21:45:49.143Z</time>
      </trkpt>
      <trkpt lat="43.08211" lon="-0.04378">
        <ele>393.70265298476</ele>
        <time>2021-06-21T21:46:09.475Z</time>
      </trkpt>
      <trkpt lat="43.08266" lon="-0.04487">
        <ele>393.84931802573</ele>
        <time>2021-06-21T21:46:29.822Z</time>
      </trkpt>
      <trkpt lat="43.08266" lon="-0.04487">
        <ele>394.22562459976</ele>
        <time>2021-06-21T21:46:50.169Z</time>
      </trkpt>
      <trkpt lat="43.08292" lon="-0.04535">
        <ele>394.73941220963</ele>
        <time>2021-06-21T21:47:10.523Z</time>
      </trkpt>
      <trkpt lat="43.08318" lon="-0.04576">
        <ele>395.24314134845</ele>
        <time>2021-06-21T21:47:30.883Z</time>
      </trkpt>
      <trkpt lat="43.08318" lon="-0.04576">
        <ele>395.5522221789</ele>
        <time>2021-06-21T21:47:51.243Z</time>
      </trkpt>
      <trkpt lat="43.08375" lon="-0.04645">
        <ele>395.85900964669</ele>
        <time>2021-06-21T21:48:11.616Z</time>
      </trkpt>
      <trkpt lat="43.08399" lon="-0.04666">
        <ele>396.2070207017</ele>
        <time>2021-06-21T21:48:31.993Z</time>
      </trkpt>
      <trkpt lat="43.08446" lon="-0.04702">
        <ele>396.49041367065</ele>
        <time>2021-06-21T21:48:52.379Z</time>
      </trkpt>
      <trkpt lat="43.08472" lon="-0.04719">
        <ele>396.85471839592</ele>
        <time>2021-06-21T21:49:12.769Z</time>
      </trkpt>
      <trkpt lat="43.08519" lon="-0.0474">
        <ele>397.23474844549</ele>
        <time>2021-06-21T21:49:33.167Z</time>
      </trkpt>
      <trkpt lat="43.08519" lon="-0.0474">
        <ele>397.7500952048</ele>
        <time>2021-06-21T21:49:53.565Z</time>
      </trkpt>
      <trkpt lat="43.08573" lon="-0.04756">
        <ele>398.26905272213</ele>
        <time>2021-06-21T21:50:13.972Z</time>
      </trkpt>
      <trkpt lat="43.08602" lon="-0.04761">
        <ele>398.85532118582</ele>
        <time>2021-06-21T21:50:34.384Z</time>
      </trkpt>
      <trkpt lat="43.08646" lon="-0.04764">
        <ele>399.4905256315</ele>
        <time>2021-06-21T21:50:54.803Z</time>
      </trkpt>
      <trkpt lat="43.08671" lon="-0.04763">
        <ele>400.13423558112</ele>
        <time>2021-06-21T21:51:15.226Z</time>
      </trkpt>
      <trkpt lat="43.08706" lon="-0.04757">
        <ele>400.80323556888</ele>
        <time>2021-06-21T21:51:35.654Z</time>
      </trkpt>
      <trkpt lat="43.08738" lon="-0.04751">
        <ele>401.46849369352</ele>
        <time>2021-06-21T21:51:56.088Z</time>
      </trkpt>
      <trkpt lat="43.0878" lon="-0.04735">
        <ele>402.15842742716</ele>
        <time>2021-06-21T21:52:16.529Z</time>
      </trkpt>
      <trkpt lat="43.08815" lon="-0.04717">
        <ele>402.82278920867</ele>
        <time>2021-06-21T21:52:36.976Z</time>
      </trkpt>
      <trkpt lat="43.08877" lon="-0.04675">
        <ele>403.46011659</ele>
        <time>2021-06-21T21:52:57.434Z</time>
      </trkpt>
      <trkpt lat="43.08939" lon="-0.04613">
        <ele>404.01061484843</ele>
        <time>2021-06-21T21:53:17.904Z</time>
      </trkpt>
      <trkpt lat="43.08953" lon="-0.04613">
        <ele>404.50601526201</ele>
        <time>2021-06-21T21:53:38.376Z</time>
      </trkpt>
      <trkpt lat="43.08962" lon="-0.04612">
        <ele>404.9793840596</ele>
        <time>2021-06-21T21:53:58.850Z</time>
      </trkpt>
      <trkpt lat="43.09054" lon="-0.04616">
        <ele>405.48608628423</ele>
        <time>2021-06-21T21:54:19.338Z</time>
      </trkpt>
      <trkpt lat="43.09075" lon="-0.04617">
        <ele>405.88907814161</ele>
        <time>2021-06-21T21:54:39.830Z</time>
      </trkpt>
      <trkpt lat="43.09099" lon="-0.04618">
        <ele>406.27764105565</ele>
        <time>2021-06-21T21:55:00.326Z</time>
      </trkpt>
      <trkpt lat="43.09099" lon="-0.04618">
        <ele>406.64400731481</ele>
        <time>2021-06-21T21:55:20.822Z</time>
      </trkpt>
      <trkpt lat="43.09117" lon="-0.04618">
        <ele>406.99331485543</ele>
        <time>2021-06-21T21:55:41.320Z</time>
      </trkpt>
      <trkpt lat="43.09154" lon="-0.04619">
        <ele>407.32187665382</ele>
        <time>2021-06-21T21:56:01.824Z</time>
      </trkpt>
      <trkpt lat="43.09166" lon="-0.04619">
        <ele>407.63117149424</ele>
        <time>2021-06-21T21:56:22.330Z</time>
      </trkpt>
      <trkpt lat="43.09166" lon="-0.04619">
        <ele>407.92086978337</ele>
        <time>2021-06-21T21:56:42.836Z</time>
      </trkpt>
      <trkpt lat="43.09178" lon="-0.0462">
        <ele>408.18941101104</ele>
        <time>2021-06-21T21:57:03.344Z</time>
      </trkpt>
      <trkpt lat="43.09178" lon="-0.0462">
        <ele>408.44011256583</ele>
        <time>2021-06-21T21:57:23.852Z</time>
      </trkpt>
      <trkpt lat="43.09211" lon="-0.0462">
        <ele>408.66664639234</ele>
        <time>2021-06-21T21:57:44.366Z</time>
      </trkpt>
      <trkpt lat="43.09222" lon="-0.0462">
        <ele>408.87971510283</ele>
        <time>2021-06-21T21:58:04.881Z</time>
      </trkpt>
      <trkpt lat="43.09236" lon="-0.0462">
        <ele>409.0723646436</ele>
        <time>2021-06-21T21:58:25.398Z</time>
      </trkpt>
      <trkpt lat="43.09254" lon="-0.04621">
        <ele>409.24529252134</ele>
        <time>2021-06-21T21:58:45.918Z</time>
      </trkpt>
      <trkpt lat="43.09254" lon="-0.04621">
        <ele>409.39549529848</ele>
        <time>2021-06-21T21:59:06.438Z</time>
      </trkpt>
      <trkpt lat="43.09296" lon="-0.04622">
        <ele>409.47772296224</ele>
        <time>2021-06-21T21:59:26.965Z</time>
      </trkpt>
      <trkpt lat="43.093" lon="-0.04622">
        <ele>409.61454266268</ele>
        <time>2021-06-21T21:59:47.493Z</time>
      </trkpt>
      <trkpt lat="43.09337" lon="-0.04623">
        <ele>409.69048090389</ele>
        <time>2021-06-21T22:00:08.027Z</time>
      </trkpt>
      <trkpt lat="43.0935" lon="-0.04623">
        <ele>409.83054407664</ele>
        <time>2021-06-21T22:00:28.563Z</time>
      </trkpt>
      <trkpt lat="43.09392" lon="-0.04622">
        <ele>410.00023506456</ele>
        <time>2021-06-21T22:00:49.105Z</time>
      </trkpt>
      <trkpt lat="43.09407" lon="-0.04621">
        <ele>410.05396787983</ele>
        <time>2021-06-21T22:01:09.650Z</time>
      </trkpt>
      <trkpt lat="43.09423" lon="-0.04617">
        <ele>410.05159851613</ele>
        <time>2021-06-21T22:01:30.197Z</time>
      </trkpt>
      <trkpt lat="43.0943" lon="-0.04613">
        <ele>409.97459974084</ele>
        <time>2021-06-21T22:01:50.746Z</time>
      </trkpt>
      <trkpt lat="43.09455" lon="-0.04612">
        <ele>409.86330155595</ele>
        <time>2021-06-21T22:02:11.299Z</time>
      </trkpt>
      <trkpt lat="43.09486" lon="-0.04611">
        <ele>409.68515617351</ele>
        <time>2021-06-21T22:02:31.857Z</time>
      </trkpt>
      <trkpt lat="43.09493" lon="-0.04616">
        <ele>409.38395016232</ele>
        <time>2021-06-21T22:02:52.416Z</time>
      </trkpt>
      <trkpt lat="43.09517" lon="-0.04622">
        <ele>409.01258997011</ele>
        <time>2021-06-21T22:03:12.979Z</time>
      </trkpt>
      <trkpt lat="43.09556" lon="-0.04628">
        <ele>408.45860442521</ele>
        <time>2021-06-21T22:03:33.548Z</time>
      </trkpt>
      <trkpt lat="43.09578" lon="-0.04631">
        <ele>407.97394100172</ele>
        <time>2021-06-21T22:03:54.121Z</time>
      </trkpt>
      <trkpt lat="43.09589" lon="-0.04629">
        <ele>407.51749506723</ele>
        <time>2021-06-21T22:04:14.695Z</time>
      </trkpt>
      <trkpt lat="43.09596" lon="-0.04625">
        <ele>407.05153907086</ele>
        <time>2021-06-21T22:04:35.271Z</time>
      </trkpt>
      <trkpt lat="43.09616" lon="-0.04617">
        <ele>406.55418282091</ele>
        <time>2021-06-21T22:04:55.850Z</time>
      </trkpt>
      <trkpt lat="43.0965" lon="-0.04605">
        <ele>406.02267440039</ele>
        <time>2021-06-21T22:05:16.435Z</time>
      </trkpt>
      <trkpt lat="43.09679" lon="-0.04596">
        <ele>405.50269293828</ele>
        <time>2021-06-21T22:05:37.024Z</time>
      </trkpt>
      <trkpt lat="43.09692" lon="-0.04592">
        <ele>405.00789907964</ele>
        <time>2021-06-21T22:05:57.615Z</time>
      </trkpt>
      <trkpt lat="43.09693" lon="-0.04592">
        <ele>404.53552301993</ele>
        <time>2021-06-21T22:06:18.207Z</time>
      </trkpt>
      <trkpt lat="43.09693" lon="-0.04592">
        <ele>404.05885697405</ele>
        <time>2021-06-21T22:06:38.799Z</time>
      </trkpt>
      <trkpt lat="43.09773" lon="-0.04572">
        <ele>403.48216599835</ele>
        <time>2021-06-21T22:06:59.404Z</time>
      </trkpt>
      <trkpt lat="43.09792" lon="-0.04567">
        <ele>403.10810889102</ele>
        <time>2021-06-21T22:07:20.012Z</time>
      </trkpt>
      <trkpt lat="43.09792" lon="-0.04567">
        <ele>402.77537962929</ele>
        <time>2021-06-21T22:07:40.620Z</time>
      </trkpt>
      <trkpt lat="43.09826" lon="-0.04559">
        <ele>402.43056262424</ele>
        <time>2021-06-21T22:08:01.233Z</time>
      </trkpt>
      <trkpt lat="43.09826" lon="-0.04559">
        <ele>402.14650122149</ele>
        <time>2021-06-21T22:08:21.846Z</time>
      </trkpt>
      <trkpt lat="43.09846" lon="-0.04553">
        <ele>401.86520399074</ele>
        <time>2021-06-21T22:08:42.463Z</time>
      </trkpt>
      <trkpt lat="43.09863" lon="-0.04549">
        <ele>401.61622834634</ele>
        <time>2021-06-21T22:09:03.082Z</time>
      </trkpt>
    </trkseg>
  </trk>
</gpx>